<<back to data home page
Ready for hot weather this Summer?? Stay in touch!! - DONATE ANY AMOUNT BY CLICKING THIS LINK!!!


    Month/Day/Year       Maximum   Minimum    Rel    Dew       Rainfall  Seasonal  Soil     Soil      Baro       Wind    Wind        Peak    Peak Speed Evap     Leaf     Net
    and                  Air Temp  Air Temp   Hum    Point     Inches    Rainfall  Temp     Moisture  Pressure   Speed   Direction   Speed   Direction   Pan     Wetness  Radiation
    Local Time           Deg F     Deg F      %      Deg F               Inches    Deg F    dS/m      mbar       MPH     comp  deg   MPH     comp  deg  Inches   mV       W_m2
----------------------------------------------------------------------------------------------------------------------------------------------------------------------------------
   09/18/2019 02:40      60.6      60.1       69     50.1      0.00      0.00      79.8     0.33      1013.4     0.4     SSE   162   0.9     SSE   164   9.68    267      -50.9
   09/18/2019 02:30      60.7      60.3       69     50.1      0.00      0.00      79.8     0.33      1013.4     0.4     SSE   160   1.0     SSE   160   9.68    267      -50.6
   09/18/2019 02:20      60.9      60.4       68     50.0      0.00      0.00      79.8     0.33      1013.5     0.4      SE   146   1.4      SE   138   9.68    267      -51.4
   09/18/2019 02:10      61.1      60.4       68     50.0      0.00      0.00      79.9     0.33      1013.5     0.7     SSE   149   1.4      SE   138   9.68    267      -50.8
   09/18/2019 02:00      61.5      60.7       67     49.9      0.00      0.00      79.9     0.33      1013.4     0.5     SSE   154   1.4      SE   143   9.68    267      -51.3
   09/18/2019 01:50      61.6      61.2       65     49.6      0.00      0.00      79.9     0.33      1013.4     0.3     SSE   153   0.9      SE   145   9.68    267      -50.5
   09/18/2019 01:40      61.8      61.2       66     49.7      0.00      0.00      80.0     0.33      1013.5     0.5       S   178   1.2      SW   220   9.68    267      -50.4
   09/18/2019 01:30      62.0      61.5       66     50.2      0.00      0.00      80.0     0.33      1013.5     0.0     SSE   152   0.6      SE   142   9.68    267      -51.5
   09/18/2019 01:20      62.0      61.6       66     50.3      0.00      0.00      80.0     0.33      1013.3     0.0     SSE   163   0.6     SSE   164   9.69    267      -51.2
   09/18/2019 01:10      62.0      61.5       67     50.6      0.00      0.00      80.0     0.33      1013.3     0.5     SSE   155   1.2     SSE   147   9.69    267      -51.8
   09/18/2019 01:00      62.5      61.7       65     50.0      0.00      0.00      79.9     0.33      1013.3     0.0     SSE   152   0.7     SSE   156   9.69    267      -52.7
   09/18/2019 00:50      62.8      62.2       65     50.4      0.00      0.00      79.9     0.33      1013.3     0.2     SSE   163   0.7     SSE   158   9.69    267      -52.1
   09/18/2019 00:40      62.9      62.3       65     50.6      0.00      0.00      80.0     0.33      1013.3     0.3      SE   145   1.0     SSE   155   9.69    267      -53.1
   09/18/2019 00:30      63.5      62.6       64     50.4      0.00      0.00      80.0     0.33      1013.2     0.3     SSE   166   1.5     SSE   151   9.69    267      -54.3
   09/18/2019 00:20      63.6      63.1       64     50.9      0.00      0.00      80.0     0.33      1013.2     0.8       S   172   1.5       S   185   9.69    267      -52.8
   09/18/2019 00:10      63.7      63.3       63     50.6      0.00      0.00      80.0     0.33      1013.3     0.2     SSE   155   1.0     SSE   150   9.69    267      -53.1
   09/18/2019 00:00      64.1      63.4       62     50.3      0.00      0.00      80.0     0.33      1013.4     0.2     SSE   167   1.0      SE   146   9.69    267      -53.1
   09/17/2019 23:50      64.7      63.7       60     49.9      0.00      0.00      80.0     0.33      1013.4     0.5     SSE   159   1.2       S   186   9.69    267      -52.8
   09/17/2019 23:40      64.6      64.0       61     50.3      0.00      0.00      80.0     0.33      1013.5     0.6     SSW   194   1.3     SSW   195   9.69    267      -52.3
   09/17/2019 23:30      64.9      64.0       60     50.2      0.00      0.00      80.0     0.33      1013.5     0.4       S   172   1.0      SE   141   9.70    266      -53.7
   09/17/2019 23:20      65.6      64.5       59     50.3      0.00      0.00      80.0     0.33      1013.5     0.2       S   181   1.0     SSW   193   9.70    266      -53.6
   09/17/2019 23:10      65.6      65.2       59     50.5      0.00      0.00      80.0     0.33      1013.5     0.0     SSE   155   0.6     SSE   155   9.70    266      -54.3
   09/17/2019 23:00      65.5      65.1       58     50.3      0.00      0.00      80.0     0.33      1013.4     1.2       S   179   2.5       S   185   9.70    266      -54.6
   09/17/2019 22:50      65.7      65.1       58     50.2      0.00      0.00      80.0     0.33      1013.5     0.1       S   175   0.9       S   172   9.70    266      -55.5
   09/17/2019 22:40      66.0      65.1       57     50.0      0.00      0.00      80.0     0.33      1013.5     0.7       S   180   1.8     SSW   204   9.70    266      -55.2
   09/17/2019 22:30      66.0      65.6       57     50.4      0.00      0.00      80.0     0.33      1013.5     1.1     SSW   192   2.5     SSW   204   9.70    266      -54.9
   09/17/2019 22:20      66.9      65.8       56     50.2      0.00      0.00      80.0     0.33      1013.5     0.3     ESE   102   1.4     SSW   201   9.70    266      -56.6
   09/17/2019 22:10      68.5      66.6       54     50.3      0.00      0.00      80.0     0.33      1013.5     0.5     SSE   167   1.1       S   183   9.70    266      -57.3
   09/17/2019 22:00      68.5      68.1       53     50.4      0.00      0.00      80.0     0.33      1013.5     0.3     SSW   209   2.0      SW   218   9.71    266      -59.2
   09/17/2019 21:50      69.0      68.3       52     50.4      0.00      0.00      80.0     0.33      1013.5     0.4     SSE   150   1.4       S   183   9.71    266      -59.6
   09/17/2019 21:40      69.1      68.6       52     50.3      0.00      0.00      80.0     0.33      1013.5     2.0       S   190   3.8      SW   236   9.71    266      -59.5
   09/17/2019 21:30      69.6      68.7       51     50.0      0.00      0.00      80.0     0.33      1013.5     0.9       S   177   2.0     SSE   158   9.71    266      -60.4
   09/17/2019 21:20      69.8      69.2       49     49.5      0.00      0.00      80.0     0.33      1013.5     1.4       S   190   3.2     SSE   164   9.71    266      -61.5
   09/17/2019 21:10      70.3      69.6       49     49.9      0.00      0.00      80.0     0.33      1013.5     1.9      SW   225   3.8     WSW   250   9.71    266      -62.0
   09/17/2019 21:00      70.6      70.0       49     50.2      0.00      0.00      80.0     0.33      1013.5     3.0     WSW   242   5.2     WNW   286   9.72    266      -62.5
   09/17/2019 20:50      70.7      70.1       49     50.2      0.00      0.00      80.0     0.33      1013.5     2.7     WSW   241   5.2     WSW   236   9.72    266      -63.1
   09/17/2019 20:40      71.2      70.3       49     50.3      0.00      0.00      79.9     0.33      1013.5     1.4      SW   223   3.1      SW   229   9.72    266      -64.2
   09/17/2019 20:30      71.4      70.6       48     50.5      0.00      0.00      79.9     0.33      1013.5     2.1      SW   226   4.3     WSW   256   9.72    266      -64.7
   09/17/2019 20:20      71.9      71.2       48     50.8      0.00      0.00      79.9     0.33      1013.4     3.3     WSW   239   5.6     WSW   258   9.72    266      -65.1
   09/17/2019 20:10      72.4      71.5       48     50.9      0.00      0.00      79.9     0.33      1013.2     2.9      SW   234   4.8      SW   228   9.73    266      -65.8
   09/17/2019 20:00      73.0      72.0       47     50.9      0.00      0.00      79.8     0.33      1013.1     3.7      SW   236   6.2     WSW   248   9.73    265      -66.3
   09/17/2019 19:50      73.5      72.7       44     49.6      0.00      0.00      79.8     0.33      1013.1     3.9      SW   236   6.4     WSW   252   9.73    265      -67.2
   09/17/2019 19:40      73.7      73.2       41     48.3      0.00      0.00      79.8     0.33      1013.1     2.8      SW   227   4.9     WSW   247   9.74    265      -68.3
   09/17/2019 19:30      74.1      73.5       40     48.2      0.00      0.00      79.8     0.33      1013.0     2.9      SW   236   5.8       W   263   9.74    265      -69.6
   09/17/2019 19:20      74.7      74.0       42     49.4      0.00      0.00      79.8     0.33      1012.9     2.5      SW   236   4.5      SW   229   9.74    265      -69.9
   09/17/2019 19:10      75.8      74.5       43     51.1      0.00      0.00      79.7     0.33      1012.8     2.2     WSW   239   4.1       W   264   9.74    265      -69.6
   09/17/2019 19:00      76.1      75.3       43     51.7      0.00      0.00      79.7     0.33      1012.8     2.8       W   268   6.1     WSW   242   9.75    265      -66.8
   09/17/2019 18:50      76.3      75.7       43     51.6      0.00      0.00      79.7     0.33      1012.8     1.6     WNW   300   3.4     WSW   257   9.75    264      -62.6
   09/17/2019 18:40      77.0      75.9       42     51.3      0.00      0.00      79.7     0.33      1012.8     2.9       W   280   6.4       W   262   9.75    264      -57.4
   09/17/2019 18:30      77.7      76.7       41     52.0      0.00      0.00      79.6     0.33      1012.8     3.0     WNW   296   7.5       W   268   9.76    264      -35.2
   09/17/2019 18:20      78.4      77.5       41     52.6      0.00      0.00      79.6     0.33      1012.8     3.2     WNW   294   8.5     WNW   291   9.76    264      -11.3
   09/17/2019 18:10      79.0      78.3       41     53.1      0.00      0.00      79.6     0.33      1012.8     2.7      NW   306   7.1       W   267   9.76    264       10.1
   09/17/2019 18:00      79.6      78.5       41     53.1      0.00      0.00      79.6     0.33      1012.7     4.0     WNW   300   9.0      NW   306   9.77    264       34.4
   09/17/2019 17:50      81.1      79.3       40     53.6      0.00      0.00      79.5     0.33      1012.7     4.4     WNW   298   7.9     WNW   303   9.77    264       57.7
   09/17/2019 17:40      81.3      80.3       39     53.6      0.00      0.00      79.5     0.33      1012.7     3.6       W   268   7.1       W   259   9.77    264       81.0
   09/17/2019 17:30      81.5      80.9       37     52.6      0.00      0.00      79.5     0.33      1012.6     3.3      SW   219   6.7     WSW   244   9.78    263      103.4
   09/17/2019 17:20      82.1      81.4       37     53.0      0.00      0.00      79.4     0.33      1012.5     2.8       S   174   6.5     SSW   195   9.78    263      127.0
   09/17/2019 17:10      82.0      81.3       38     53.6      0.00      0.00      79.4     0.33      1012.4     3.0     SSW   204   6.9       S   172   9.79    264      152.1
   09/17/2019 17:00      81.5      80.6       38     53.4      0.00      0.00      79.4     0.33      1012.4     4.8       S   178   7.2      SE   142   9.79    263      177.4
   09/17/2019 16:50      81.7      80.9       38     53.6      0.00      0.00      79.3     0.32      1012.5     5.2       S   183   9.9       S   186   9.79    263      197.0
   09/17/2019 16:40      82.6      81.1       37     52.8      0.00      0.00      79.3     0.33      1012.5     5.7       S   171  11.6       S   178   9.80    263      220.7
   09/17/2019 16:30      83.5      82.3       37     53.7      0.00      0.00      79.3     0.33      1012.5     4.3       S   175   9.2     SSW   196   9.81    263      241.2
   09/17/2019 16:20      83.9      82.5       37     54.6      0.00      0.00      79.3     0.32      1012.5     3.6     SSE   157   7.5     ESE   111   9.81    263      250.3
   09/17/2019 16:10      84.7      83.3       38     55.1      0.00      0.00      79.2     0.33      1012.5     3.7       S   175   7.1       S   176   9.81    263      268.0
   09/17/2019 16:00      85.5      84.5       35     54.3      0.00      0.00      79.2     0.32      1012.5     2.5     SSW   203   6.0      NE    56   9.82    263      284.7
   09/17/2019 15:50      86.9      84.9       34     53.7      0.00      0.00      79.2     0.33      1012.7     2.9       W   265   6.0     WNW   286   9.82    263      300.4
   09/17/2019 15:40      86.8      84.0       34     53.8      0.00      0.00      79.2     0.33      1012.7     0.9     NNE    15   4.1       W   260   9.82    263      326.9
   09/17/2019 15:30      85.6      84.0       35     53.6      0.00      0.00      79.1     0.33      1012.8     2.6      SW   220   9.0       W   263   9.82    263      347.2
   09/17/2019 15:20      85.3      84.4       34     53.6      0.00      0.00      79.0     0.32      1013.0     4.2     WSW   254   8.0       W   271   9.82    263      365.0
   09/17/2019 15:10      85.6      84.9       33     52.8      0.00      0.00      79.0     0.33      1013.2     3.2     WNW   297   8.0     WSW   248   9.82    263      382.6
   09/17/2019 15:00      85.2      83.0       33     51.8      0.00      0.00      79.0     0.33      1013.3     3.6     WSW   249   9.1     WSW   248   9.83    263      406.8
   09/17/2019 14:50      85.2      83.1       33     52.0      0.00      0.00      79.0     0.33      1013.5     4.7       S   189   8.7     SSW   196   9.83    263      425.5
   09/17/2019 14:40      85.3      84.1       33     52.5      0.00      0.00      79.0     0.33      1013.5     2.8       S   187   7.4      SW   229   9.84    263      433.6
   09/17/2019 14:30      84.9      82.7       34     51.8      0.00      0.00      79.0     0.33      1013.6     2.5       S   169   8.0     ESE   104   9.84    263      451.0
   09/17/2019 14:20      83.5      82.3       36     53.2      0.00      0.00      79.0     0.33      1013.8     5.1       S   179   8.8      SW   222   9.84    263      464.8
   09/17/2019 14:10      85.4      82.3       33     51.6      0.00      0.00      79.0     0.32      1013.9     4.6     SSW   198   7.3     SSW   201   9.84    263      460.2
   09/17/2019 14:00      86.7      85.2       24     44.9      0.00      0.00      78.9     0.32      1014.0     2.5     NNE    26   5.3     NNE    29   9.85    262      469.6
   09/17/2019 13:50      86.6      84.7       24     44.5      0.00      0.00      78.9     0.32      1014.1     2.1      NW   318   5.6       W   261   9.85    262      483.7
   09/17/2019 13:40      86.3      85.0       24     44.7      0.00      0.00      78.9     0.32      1014.2     2.3       W   272   5.5       W   262   9.85    262      490.9
   09/17/2019 13:30      85.8      83.9       25     44.7      0.00      0.00      78.9     0.32      1014.3     1.8     NNW   345   3.9     NNE    25   9.85    262      497.5
   09/17/2019 13:20      84.9      83.3       26     45.2      0.00      0.00      78.9     0.32      1014.4     2.0       N     4   4.0       N     4   9.85    262      503.9
   09/17/2019 13:10      85.0      83.7       26     45.5      0.00      0.00      78.8     0.32      1014.5     3.0     NNE    19   6.4     NNE    31   9.86    262      511.2
   09/17/2019 13:00      84.8      84.0       26     45.8      0.00      0.00      78.9     0.32      1014.6     2.2     ENE    62   4.9     ESE   120   9.86    262      513.0
   09/17/2019 12:50      84.4      82.5       27     45.8      0.00      0.00      78.9     0.32      1014.7     2.5      NE    42   5.6      NE    34   9.86    262      516.1
   09/17/2019 12:40      83.4      81.3       27     45.4      0.00      0.00      78.8     0.32      1014.8     2.7      NE    51   5.7       E    79   9.86    262      518.5
   09/17/2019 12:30      83.0      81.7       26     44.4      0.00      0.00      78.9     0.32      1014.8     2.9     NNE    33   5.0     ESE   116   9.86    262      515.6
   09/17/2019 12:20      83.5      81.7       26     44.6      0.00      0.00      78.9     0.32      1014.9     2.2       E    98   7.1     ENE    64   9.86    262      517.3
   09/17/2019 12:10      82.8      81.6       26     43.6      0.00      0.00      78.9     0.32      1015.0     2.7     ENE    64   5.6      SE   132   9.86    262      517.3
   09/17/2019 12:00      82.2      80.8       27     44.0      0.00      0.00      78.9     0.32      1015.1     2.7       E    84   7.1       E    84   9.87    263      514.2
   09/17/2019 11:50      81.3      80.6       27     43.6      0.00      0.00      78.9     0.32      1015.2     2.3       E    87   6.0     ENE    64   9.87    263      508.7
   09/17/2019 11:40      81.3      80.2       26     43.0      0.00      0.00      78.9     0.32      1015.3     2.2       E    82   4.3     ENE    70   9.87    263      501.2
   09/17/2019 11:30      80.4      79.2       27     42.9      0.00      0.00      79.0     0.32      1015.3     3.0     ESE   115   6.0      SE   128   9.87    263      496.3
   09/17/2019 11:20      79.9      78.7       28     43.7      0.00      0.00      78.9     0.32      1015.4     3.3      SE   129   5.6      SW   215   9.87    263      487.2
   09/17/2019 11:10      80.0      78.4       29     44.5      0.00      0.00      78.9     0.32      1015.5     2.5       E    93   6.1     ESE   121   9.87    263      475.5
   09/17/2019 11:00      79.4      77.9       31     45.5      0.00      0.00      79.0     0.32      1015.6     2.6     ENE    73   6.6     ENE    70   9.87    263      464.5
   09/17/2019 10:50      78.9      77.3       33     46.5      0.00      0.00      79.0     0.32      1015.6     2.3     ESE   111   5.7      SE   136   9.87    263      448.0
   09/17/2019 10:40      77.7      77.2       32     45.3      0.00      0.00      79.0     0.32      1015.8     2.3     ESE   117   5.2      SE   126   9.87    263      436.2
   09/17/2019 10:30      77.8      76.7       34     46.8      0.00      0.00      79.1     0.32      1015.8     2.0       E    88   5.1     ESE   118   9.87    263      419.3
   09/17/2019 10:20      77.6      76.2       37     48.3      0.00      0.00      79.1     0.32      1015.9     1.8       E    80   4.9       E    94   9.87    263      400.6
   09/17/2019 10:10      76.4      75.2       39     48.7      0.00      0.00      79.1     0.32      1016.0     2.3     ESE   119   5.3      SE   133   9.87    264      384.4
   09/17/2019 10:00      76.5      75.8       38     48.4      0.00      0.00      79.1     0.32      1016.1     1.8     ENE    68   4.8      SE   130   9.87    264      367.4
   09/17/2019 09:50      76.0      74.9       38     48.3      0.00      0.00      79.1     0.32      1016.1     1.6     ESE   121   3.8     ENE    78   9.87    264      351.4
   09/17/2019 09:40      75.1      73.3       42     49.5      0.00      0.00      79.2     0.33      1016.1     1.8     NNE    19   4.6       N   353   9.87    264      331.2
   09/17/2019 09:30      74.4      73.7       45     51.5      0.00      0.00      79.2     0.33      1016.0     1.1     NNE    25   2.6     NNW   340   9.87    265      311.3
   09/17/2019 09:20      73.9      72.5       49     52.8      0.00      0.00      79.3     0.33      1015.9     0.7      NE    42   2.2      NE    36   9.87    266      293.9
   09/17/2019 09:10      72.7      71.3       53     53.9      0.00      0.00      79.3     0.33      1016.0     1.0       E    94   3.4       E    86   9.87    266      276.6
   09/17/2019 09:00      71.4      70.2       57     54.5      0.00      0.00      79.4     0.33      1016.0     0.9       E    99   2.2       E    92   9.87    267      254.9
   09/17/2019 08:50      70.3      69.1       58     54.1      0.00      0.00      79.4     0.33      1016.0     0.8     ENE    62   2.8     ENE    75   9.87    268      234.5
   09/17/2019 08:40      69.6      68.7       58     53.9      0.00      0.00      79.4     0.33      1016.0     1.4       E    88   2.5     ENE    78   9.88    269      210.3
   09/17/2019 08:30      69.3      68.6       59     54.2      0.00      0.00      79.5     0.33      1016.0     1.3       E    82   3.0      NE    46   9.88    283      185.0
   09/17/2019 08:20      69.1      67.6       63     55.5      0.00      0.00      79.5     0.33      1015.8     0.3      NE    52   1.7      NW   305   9.88    307      156.8
   09/17/2019 08:10      67.8      65.3       72     56.9      0.00      0.00      79.5     0.33      1015.7     0.1     WSW   242   1.0       W   261   9.88    292      152.4
   09/17/2019 08:00      65.6      64.2       76     57.3      0.00      0.00      79.6     0.33      1015.7     0.2       S   179   1.2     SSW   196   9.88    318      143.3
   09/17/2019 07:50      64.3      62.3       82     57.5      0.00      0.00      79.5     0.33      1015.6     0.0      NW   321   0.3     NNE    28   9.88    338      114.4
   09/17/2019 07:40      62.4      61.8       86     57.8      0.00      0.00      79.6     0.33      1015.6     0.3       S   183   0.9     SSW   194   9.88    348       79.9
   09/17/2019 07:30      62.1      59.8       90     57.8      0.00      0.00      79.6     0.33      1015.5     0.0     WSW   246   0.6     WSW   245   9.88    354       43.0
   09/17/2019 07:20      60.0      58.8       91     56.5      0.00      0.00      79.7     0.33      1015.4     0.0       N     0   0.0     ENE    64   9.88    352       16.5
   09/17/2019 07:10      59.2      57.3       92     55.8      0.00      0.00      79.7     0.33      1015.3     0.0       N     0   0.0     SSE   151   9.88    349        2.2
   09/17/2019 07:00      57.8      57.0       91     54.6      0.00      0.00      79.7     0.33      1015.1     0.2     SSE   149   1.1      SE   137   9.88    341      -10.3
   09/17/2019 06:50      57.8      57.3       91     55.1      0.00      0.00      79.8     0.33      1015.0     0.0      SE   137   0.6      SE   137   9.88    337      -14.3
   09/17/2019 06:40      57.8      57.2       91     54.9      0.00      0.00      79.8     0.33      1014.8     0.7       S   184   1.7       S   178   9.88    331      -18.5
   09/17/2019 06:30      57.8      57.0       91     54.7      0.00      0.00      79.8     0.33      1014.8     0.3     SSE   168   1.1       S   171   9.88    322      -21.0
   09/17/2019 06:20      57.6      57.0       91     54.5      0.00      0.00      79.8     0.33      1014.7     0.4     SSE   160   1.5      SE   146   9.88    315      -21.7
   09/17/2019 06:10      58.5      57.4       90     55.0      0.00      0.00      79.9     0.33      1014.6     0.2     SSE   162   1.0     SSE   155   9.88    308      -21.4
   09/17/2019 06:00      58.4      57.9       91     55.5      0.00      0.00      79.9     0.33      1014.5     0.5     SSE   152   0.8     SSE   147   9.88    300      -21.4
   09/17/2019 05:50      58.6      57.9       90     55.3      0.00      0.00      79.9     0.33      1014.5     0.1     SSE   159   1.0     SSE   157   9.88    292      -22.7
   09/17/2019 05:40      58.4      57.8       90     55.3      0.00      0.00      80.0     0.33      1014.3     0.5     SSE   167   1.3       S   179   9.88    281      -23.0
   09/17/2019 05:30      58.9      57.9       89     55.1      0.00      0.00      80.0     0.33      1014.3     0.2     SSE   156   0.9      SE   142   9.88    267      -24.2
   09/17/2019 05:20      59.3      58.4       90     55.9      0.00      0.00      80.0     0.33      1014.2     0.4     SSE   163   1.2     SSE   167   9.88    252      -23.4
   09/17/2019 05:10      59.6      58.9       89     56.0      0.00      0.00      80.0     0.33      1014.2     0.4     SSE   156   0.9     SSE   150   9.88    242      -23.9
   09/17/2019 05:00      59.8      59.3       89     56.2      0.00      0.00      80.0     0.33      1014.2     0.4     SSE   156   0.9      SE   140   9.88    236      -25.7
   09/17/2019 04:50      59.8      59.3       88     56.0      0.00      0.00      80.1     0.33      1014.3     0.3     SSE   148   1.1     SSE   149   9.88    226      -28.4
   09/17/2019 04:40      59.7      59.3       88     56.0      0.00      0.00      80.1     0.33      1014.3     0.5     SSE   149   1.3      SE   137   9.88    222      -31.0
   09/17/2019 04:30      59.8      59.3       87     55.8      0.00      0.00      80.1     0.33      1014.3     0.2     SSE   158   1.0       S   174   9.88    217      -28.4
   09/17/2019 04:20      59.8      59.3       87     55.8      0.00      0.00      80.1     0.33      1014.4     0.3     SSE   160   0.8       S   174   9.88    216      -25.9
   09/17/2019 04:10      59.6      59.0       87     55.4      0.00      0.00      80.2     0.33      1014.3     0.1     SSE   149   1.2      SE   142   9.88    220      -38.6
   09/17/2019 04:00      60.0      59.1       86     55.2      0.00      0.00      80.2     0.33      1014.3     0.2     SSE   153   1.5      SE   141   9.88    216      -43.6
   09/17/2019 03:50      60.3      59.8       86     55.6      0.00      0.00      80.2     0.33      1014.3     0.9     SSE   163   1.6       S   188   9.88    215      -42.3
   09/17/2019 03:40      61.2      60.0       84     55.8      0.00      0.00      80.3     0.33      1014.4     0.9       S   187   1.7       S   183   9.88    217      -43.6
   09/17/2019 03:30      61.8      60.9       83     56.0      0.00      0.00      80.3     0.33      1014.4     0.2       S   175   0.9       S   187   9.88    215      -46.8
   09/17/2019 03:20      62.5      61.5       82     56.5      0.00      0.00      80.3     0.33      1014.3     0.0     ENE    57   0.5     ENE    57   9.89    217      -49.9
   09/17/2019 03:10      62.4      61.9       81     56.1      0.00      0.00      80.3     0.33      1014.3     0.0     ENE    77   0.8     NNE    23   9.89    215      -53.6
   09/17/2019 03:00      62.5      61.9       81     56.3      0.00      0.00      80.4     0.33      1014.3     1.0      SE   144   2.8      SE   136   9.89    258      -53.2
   09/17/2019 02:50      62.4      61.3       82     56.4      0.00      0.00      80.4     0.33      1014.4     1.5      SE   131   2.3      SE   135   9.89    270      -38.2
   09/17/2019 02:40      61.4      60.0       82     55.3      0.00      0.00      80.4     0.33      1014.5     0.4      SE   135   1.6      SE   131   9.89    270      -19.1
   09/17/2019 02:30      60.2      59.2       82     54.2      0.00      0.00      80.4     0.33      1014.6     0.2     SSE   158   1.2      SE   143   9.89    270      -17.3
   09/17/2019 02:20      59.5      58.9       82     53.6      0.00      0.00      80.5     0.33      1014.6     0.5     SSE   156   1.6      SE   138   9.89    271      -24.6
   09/17/2019 02:10      59.6      59.2       83     54.2      0.00      0.00      80.5     0.33      1014.6     0.4     SSE   155   1.4      SE   138   9.89    263      -41.1
   09/17/2019 02:00      59.6      59.2       83     54.1      0.00      0.00      80.5     0.33      1014.6     0.4       S   175   1.3       S   180   9.89    255      -44.5
   09/17/2019 01:50      59.6      58.9       82     53.8      0.00      0.00      80.5     0.33      1014.5     0.0       S   188   0.7       S   188   9.89    264      -47.5
   09/17/2019 01:40      59.3      58.9       81     53.1      0.00      0.00      80.6     0.33      1014.4     0.0     SSE   162   1.0     SSE   159   9.89    266      -52.6
   09/17/2019 01:30      60.1      59.1       80     53.3      0.00      0.00      80.6     0.33      1014.3     0.4     SSE   161   0.9     SSE   152   9.89    265      -52.0
   09/17/2019 01:20      60.1      59.6       78     53.0      0.00      0.00      80.6     0.33      1014.2     0.1       S   173   0.6       S   172   9.89    255      -53.8
   09/17/2019 01:10      60.4      59.8       78     53.2      0.00      0.00      80.6     0.33      1014.1     0.0     SSE   148   0.8     SSE   148   9.89    270      -55.2
   09/17/2019 01:00      60.3      59.7       77     52.6      0.00      0.00      80.6     0.33      1014.0     0.4     SSE   149   2.1      SE   137   9.89    270      -56.8
   09/17/2019 00:50      60.6      60.0       76     52.7      0.00      0.00      80.7     0.33      1013.9     1.0     SSE   153   2.1     SSE   152   9.89    270      -56.4
   09/17/2019 00:40      60.6      60.0       76     52.5      0.00      0.00      80.7     0.33      1013.8     0.6     SSE   158   1.4     SSE   156   9.89    270      -56.3
   09/17/2019 00:30      60.4      59.9       74     51.9      0.00      0.00      80.7     0.33      1013.7     0.5       S   184   1.2     SSW   204   9.89    270      -57.6
   09/17/2019 00:20      61.0      60.1       73     52.0      0.00      0.00      80.7     0.33      1013.5     0.6       S   172   1.3      SE   140   9.90    269      -57.4
   09/17/2019 00:10      61.7      60.7       71     51.7      0.00      0.00      80.7     0.33      1013.4     0.0     SSE   146   0.7      SE   142   9.90    269      -58.9
   09/17/2019 00:00      61.5      61.0       72     52.0      0.00      0.00      80.7     0.33      1013.4     0.2     SSW   195   0.9     SSW   196   9.90    269      -58.6
   09/16/2019 23:50      61.4      60.9       71     51.6      0.00      0.00      80.7     0.33      1013.3     1.5       S   169   2.4      SE   141   9.90    268      -59.6
   09/16/2019 23:40      61.5      60.7       70     51.3      0.00      0.00      80.8     0.33      1013.3     0.9     SSE   155   2.3     SSE   150   9.90    268      -59.3
   09/16/2019 23:30      61.5      60.9       69     51.2      0.00      0.00      80.8     0.33      1013.3     0.5     SSE   166   1.2     SSE   150   9.90    268      -59.8
   09/16/2019 23:20      61.7      60.9       69     50.8      0.00      0.00      80.8     0.33      1013.3     0.4       S   180   0.9       S   178   9.90    268      -59.8
   09/16/2019 23:10      62.1      61.3       68     50.8      0.00      0.00      80.8     0.33      1013.2     0.3     SSE   154   1.2     SSE   167   9.90    268      -61.2
   09/16/2019 23:00      62.5      61.8       68     51.3      0.00      0.00      80.8     0.33      1013.1     0.8     SSE   157   1.3      SE   136   9.90    268      -61.5
   09/16/2019 22:50      63.0      62.1       66     51.3      0.00      0.00      80.8     0.33      1013.1     0.7     SSE   154   1.3      SE   144   9.91    268      -61.8
   09/16/2019 22:40      63.1      62.7       66     51.5      0.00      0.00      80.8     0.33      1013.2     0.5       S   173   1.7       S   191   9.91    268      -62.6
   09/16/2019 22:30      63.1      62.6       65     51.1      0.00      0.00      80.8     0.33      1013.1     0.4       S   188   1.6     SSW   197   9.91    267      -63.7
   09/16/2019 22:20      63.8      62.8       65     51.2      0.00      0.00      80.8     0.33      1013.1     0.9      SW   215   2.1      SW   222   9.91    267      -64.9
   09/16/2019 22:10      64.3      63.4       65     51.7      0.00      0.00      80.8     0.33      1013.0     0.8       S   178   1.6       S   177   9.91    267      -64.3
   09/16/2019 22:00      64.8      64.0       63     51.6      0.00      0.00      80.8     0.33      1013.0     0.6       S   182   1.6     NNE    27   9.91    267      -65.7
   09/16/2019 21:50      65.2      64.5       62     51.6      0.00      0.00      80.7     0.33      1013.0     1.1       S   183   2.2     SSW   212   9.92    267      -65.7
   09/16/2019 21:40      66.0      64.8       62     51.9      0.00      0.00      80.7     0.33      1013.0     1.0       S   184   2.1     SSW   209   9.92    267      -65.2
   09/16/2019 21:30      66.2      65.6       61     51.9      0.00      0.00      80.7     0.33      1012.9     0.6     ESE   114   1.5     ENE    75   9.92    267      -66.1
   09/16/2019 21:20      66.5      65.7       62     52.5      0.00      0.00      80.8     0.33      1012.9     1.1       S   178   2.0     SSW   197   9.92    266      -66.4
   09/16/2019 21:10      66.7      66.0       61     52.6      0.00      0.00      80.7     0.33      1012.9     0.3       S   176   1.1     SSE   168   9.92    267      -66.9
   09/16/2019 21:00      67.4      66.2       60     52.4      0.00      0.00      80.7     0.33      1012.8     0.6       S   186   1.3       S   191   9.92    266      -67.8
   09/16/2019 20:50      68.7      67.1       59     53.0      0.00      0.00      80.7     0.33      1012.8     0.8       S   182   1.9       S   184   9.92    266      -67.5
   09/16/2019 20:40      70.0      68.5       56     53.0      0.00      0.00      80.7     0.33      1012.7     0.0     SSW   205   0.8     SSW   211   9.92    266      -69.6
   09/16/2019 20:30      71.1      69.6       56     53.5      0.00      0.00      80.7     0.33      1012.6     0.4      SW   216   2.3      SW   233   9.93    266      -70.6
   09/16/2019 20:20      71.7      70.8       55     54.0      0.00      0.00      80.7     0.33      1012.6     0.3     SSW   202   1.7      SW   216   9.93    266      -72.4
   09/16/2019 20:10      72.2      71.3       55     54.5      0.00      0.00      80.7     0.33      1012.4     1.2      SW   228   3.0     WSW   238   9.93    266      -73.6
   09/16/2019 20:00      72.5      71.8       55     55.1      0.00      0.00      80.6     0.33      1012.3     2.1      SW   233   4.2       W   265   9.93    266      -73.6
   09/16/2019 19:50      73.2      72.3       54     55.1      0.00      0.00      80.6     0.33      1012.1     2.5      SW   231   4.2     WSW   250   9.93    266      -73.3
   09/16/2019 19:40      73.6      72.8       53     55.1      0.00      0.00      80.6     0.33      1012.0     2.6      SW   227   4.9     WSW   242   9.94    266      -74.0
   09/16/2019 19:30      74.4      73.3       52     54.9      0.00      0.00      80.6     0.33      1011.9     1.9      SW   236   3.5      SW   232   9.94    265      -74.0
   09/16/2019 19:20      75.2      74.0       50     54.8      0.00      0.00      80.5     0.33      1011.9     1.7     WNW   282   3.7     WSW   238   9.94    265      -73.6
   09/16/2019 19:10      75.9      75.0       44     51.8      0.00      0.00      80.5     0.33      1011.8     2.1     WNW   297   4.6     WNW   282   9.94    264      -72.2
   09/16/2019 19:00      76.6      75.4       37     47.9      0.00      0.00      80.5     0.33      1011.7     2.5      SW   229   4.2     SSW   212   9.95    263      -68.0
   09/16/2019 18:50      77.4      76.2       35     47.3      0.00      0.00      80.5     0.33      1011.7     2.8     SSW   196   5.5       S   179   9.95    263      -60.1
   09/16/2019 18:40      77.9      77.0       34     46.6      0.00      0.00      80.5     0.33      1011.6     2.3     SSW   199   5.7       S   186   9.95    263      -53.0
   09/16/2019 18:30      78.4      77.5       32     45.5      0.00      0.00      80.4     0.33      1011.5     3.7       S   180   6.3     SSW   192   9.96    263      -26.1
   09/16/2019 18:20      79.2      78.1       30     44.5      0.00      0.00      80.4     0.33      1011.5     4.9       S   191   7.4     SSW   206   9.96    263       -2.3
   09/16/2019 18:10      80.5      78.9       29     44.8      0.00      0.00      80.4     0.33      1011.4     4.0     SSW   192   7.6     SSW   200   9.97    263       -0.3
   09/16/2019 18:00      81.1      80.2       30     45.9      0.00      0.00      80.4     0.33      1011.4     3.2       S   183   6.6     SSW   201   9.97    263       35.1
   09/16/2019 17:50      81.5      80.6       29     46.0      0.00      0.00      80.4     0.33      1011.4     3.2       S   175   6.6     SSW   200   9.98    263       64.5
   09/16/2019 17:40      81.7      80.8       28     45.3      0.00      0.00      80.3     0.33      1011.4     4.6     SSE   156   7.8       S   185   9.98    263      115.7
   09/16/2019 17:30      81.7      80.9       28     45.2      0.00      0.00      80.3     0.33      1011.5     4.1       S   173   7.1     SSW   193   9.98    263       74.8
   09/16/2019 17:20      81.6      80.9       27     44.5      0.00      0.00      80.3     0.33      1011.6     5.1      SE   143   8.2      SE   139   9.99    263      122.6
   09/16/2019 17:10      82.0      80.9       27     43.8      0.00      0.00      80.2     0.33      1011.6     5.6     SSE   148   9.0      SE   142   9.99    263      109.7
   09/16/2019 17:00      82.8      81.6       27     44.7      0.00      0.00      80.2     0.33      1011.6     5.0       S   171   9.2     SSE   152  10.00    262       89.1
   09/16/2019 16:50      83.1      82.3       29     47.2      0.00      0.00      80.2     0.33      1011.5     5.3       S   185   9.9       S   176  10.00    263      108.6
   09/16/2019 16:40      83.3      82.8       29     48.0      0.00      0.00      80.1     0.33      1011.4     4.5     SSE   162   8.5     SSE   157  10.01    263      176.1
   09/16/2019 16:30      83.7      82.7       31     49.4      0.00      0.00      80.1     0.33      1011.4     4.4       S   172   7.4     SSW   210  10.01    263       71.9
   09/16/2019 16:20      84.9      83.4       30     49.0      0.00      0.00      80.1     0.33      1011.5     5.8       S   180  10.0       S   172  10.02    263      253.4
   09/16/2019 16:10      85.1      84.0       29     48.6      0.00      0.00      80.0     0.33      1011.6     4.7       S   175   9.3      SE   142  10.03    263      290.7
   09/16/2019 16:00      85.6      84.8       27     47.4      0.00      0.00      80.0     0.33      1011.7     4.6     SSE   166   8.0       S   173  10.03    262      313.7
   09/16/2019 15:50      85.5      84.4       26     46.3      0.00      0.00      80.0     0.33      1011.8     4.4     SSE   162   7.5       S   187  10.03    263      268.5
   09/16/2019 15:40      86.0      84.6       25     45.3      0.00      0.00      80.0     0.33      1011.9     5.7     SSE   162   9.0       S   183  10.04    263      347.0
   09/16/2019 15:30      86.4      85.5       25     45.6      0.00      0.00      80.0     0.33      1012.0     4.7     SSE   149   8.8      SE   134  10.05    262      389.0
   09/16/2019 15:20      86.9      85.5       23     44.5      0.00      0.00      79.9     0.33      1012.1     4.7     SSE   153   8.2      SE   133  10.05    262      417.7
   09/16/2019 15:10      87.2      85.7       24     45.3      0.00      0.00      79.9     0.33      1012.1     4.7       S   170   9.0     SSE   156  10.06    262      289.6
   09/16/2019 15:00      87.1      85.9       22     43.0      0.00      0.00      79.9     0.33      1012.1     3.9      SE   145   8.6     SSE   149  10.06    262      413.1
   09/16/2019 14:50      87.1      86.1       21     41.8      0.00      0.00      79.8     0.33      1012.2     4.3     SSE   152   8.0       S   178  10.07    261      456.0
   09/16/2019 14:40      86.3      85.5       22     42.3      0.00      0.00      79.8     0.33      1012.4     4.2     SSW   203   7.6      SE   136  10.07    262      357.9
   09/16/2019 14:30      87.0      86.0       23     44.8      0.00      0.00      79.8     0.33      1012.4     4.7     SSE   150   8.4      SE   129  10.08    262      338.2
   09/16/2019 14:20      87.0      85.6       25     46.0      0.00      0.00      79.8     0.33      1012.5     3.2     SSE   158   7.9     SSW   204  10.08    262      463.9
   09/16/2019 14:10      86.4      85.3       25     45.5      0.00      0.00      79.8     0.33      1012.6     3.4       S   190   8.0      SE   139  10.09    262      481.9
   09/16/2019 14:00      86.4      85.3       23     43.6      0.00      0.00      79.7     0.33      1012.7     3.8       S   183   7.6      SE   146  10.09    262      315.1
   09/16/2019 13:50      87.1      85.6       22     42.9      0.00      0.00      79.7     0.33      1012.9     3.1     SSE   158   8.0      SE   136  10.10    262      487.2
   09/16/2019 13:40      87.1      86.4       22     43.8      0.00      0.00      79.7     0.33      1013.1     3.6      SW   224   6.5     WSW   240  10.10    262      495.1
   09/16/2019 13:30      86.8      84.4       25     45.9      0.00      0.00      79.7     0.33      1013.1     2.2      SW   223   8.1     SSW   208  10.10    262      520.2
   09/16/2019 13:20      85.2      83.9       27     46.4      0.00      0.00      79.7     0.33      1013.2     3.9       S   175   7.7       S   182  10.11    263      478.3
   09/16/2019 13:10      85.2      83.7       26     45.7      0.00      0.00      79.6     0.33      1013.2     3.8       S   184   7.3     WSW   238  10.11    262      538.7
   09/16/2019 13:00      86.6      83.6       26     45.8      0.00      0.00      79.6     0.33      1013.2     2.4      SE   126   6.2       E    86  10.11    263      121.5
   09/16/2019 12:50      86.6      84.5       28     48.7      0.00      0.00      79.6     0.33      1013.3     2.6      SE   133   6.7      SE   140  10.12    262      436.5
   09/16/2019 12:40      85.0      83.7       31     50.2      0.00      0.00      79.6     0.33      1013.3     3.5       S   182   7.7      SE   139  10.12    263      482.5
   09/16/2019 12:30      85.7      83.5       33     52.4      0.00      0.00      79.6     0.33      1013.3     4.7     SSW   202  10.2       S   180  10.12    263      582.7
   09/16/2019 12:20      85.5      84.0       33     52.6      0.00      0.00      79.7     0.33      1013.4     2.8     ENE    69   7.8     ESE   105  10.13    263      550.1
   09/16/2019 12:10      84.9      84.4       33     52.6      0.00      0.00      79.7     0.33      1013.6     2.9      NE    55   6.1     ENE    72  10.13    263      519.9
   09/16/2019 12:00      84.4      83.4       35     53.4      0.00      0.00      79.7     0.33      1013.7     2.2      NE    50   5.3     ENE    75  10.14    263      466.1
   09/16/2019 11:50      83.6      82.5       37     54.0      0.00      0.00      79.7     0.32      1013.8     2.5     NNE    29   4.9     NNW   338  10.14    263      509.1
   09/16/2019 11:40      83.2      82.5       36     53.5      0.00      0.00      79.7     0.32      1013.9     1.9     ENE    58   4.4     NNW   340  10.15    263      495.7
   09/16/2019 11:30      82.7      81.0       36     52.1      0.00      0.00      79.7     0.32      1014.0     2.5      NE    47   5.2      NE    50  10.15    263      500.5
   09/16/2019 11:20      81.6      80.5       37     52.1      0.00      0.00      79.7     0.33      1014.1     2.9     ENE    65   6.5       E    91  10.16    263      493.3
   09/16/2019 11:10      81.2      80.3       38     52.8      0.00      0.00      79.7     0.33      1014.2     2.6      NE    54   5.0      NE    49  10.17    263      386.2
   09/16/2019 11:00      80.7      79.6       40     53.6      0.00      0.00      79.7     0.33      1014.3     1.7     NNE    16   3.8     NNE    21  10.17    263      456.5
   09/16/2019 10:50      79.9      78.9       41     53.5      0.00      0.00      79.7     0.33      1014.4     2.0     ENE    58   4.6       E    91  10.18    263      453.4
   09/16/2019 10:40      79.9      78.4       39     52.3      0.00      0.00      79.7     0.33      1014.5     1.7     ENE    66   4.6       E    81  10.19    263      438.3
   09/16/2019 10:30      79.1      77.6       40     52.2      0.00      0.00      79.8     0.33      1014.5     2.1     ENE    72   4.7       E    89  10.20    263      404.5
   09/16/2019 10:20      77.8      76.5       46     54.6      0.00      0.00      79.8     0.33      1014.5     1.8     NNE    31   4.9      NE    47  10.21    264      415.2
   09/16/2019 10:10      76.8      75.8       50     56.6      0.00      0.00      79.8     0.33      1014.6     1.4     NNE    32   3.7     NNE    18  10.22    264      316.2
   09/16/2019 10:00      76.2      75.1       53     57.0      0.00      0.00      79.8     0.33      1014.6     1.3       N    10   3.9       N     4  10.23    265      359.1
   09/16/2019 09:50      75.5      74.6       54     57.1      0.00      0.00      79.9     0.33      1014.7     1.0      NE    40   2.5     ENE    68  10.25    266      153.9
   09/16/2019 09:40      75.4      74.1       55     57.3      0.00      0.00      79.9     0.33      1014.8     1.3     NNE    33   3.0     NNE    21  10.27    265      333.0
   09/16/2019 09:30      74.7      73.6       55     57.2      0.00      0.00      79.9     0.33      1014.7     1.2     NNE    18   3.0      NE    41  10.28    265      302.6
   09/16/2019 09:20      73.8      72.8       57     57.0      0.00      0.00      79.9     0.33      1014.6     1.4      NE    50   3.7     ENE    58  10.31    266      282.5
   09/16/2019 09:10      73.0      70.9       61     57.6      0.00      0.00      80.0     0.33      1014.5     1.1      NE    56   2.7     ENE    76  10.32    266      255.4
   09/16/2019 09:00      72.1      71.0       63     58.3      0.00      0.00      80.0     0.33      1014.5     0.9       E    81   2.3       E    80   9.77    268       68.3
   09/16/2019 08:50      72.0      71.0       65     59.3      0.00      0.00      80.1     0.33      1013.9     1.5      NE    55   3.8     NNE    15   9.77    268      182.6
   09/16/2019 08:40      71.8      70.5       66     59.1      0.00      0.00      80.1     0.33      1014.0     1.5      NE    39   4.9     NNE    32   9.77    268      233.2
   09/16/2019 08:30      70.7      70.2       67     59.2      0.00      0.00      80.1     0.33      1014.2     1.2     NNE    27   2.7     NNE    29   9.77    269      164.2
   09/16/2019 08:20      70.4      69.3       70     59.3      0.00      0.00      80.2     0.33      1014.3     0.9       N     8   2.9     NNE    16   9.77    270      151.6
   09/16/2019 08:10      69.6      68.2       69     58.4      0.00      0.00      80.2     0.33      1014.4     0.6     WNW   303   1.9      NW   312   9.77    270      119.8
   09/16/2019 08:00      68.5      67.2       71     58.3      0.00      0.00      80.3     0.33      1014.3     0.9     WNW   291   3.7      NW   311   9.77    270       92.9
   09/16/2019 07:50      67.3      64.8       77     58.7      0.00      0.00      80.3     0.33      1014.0     0.1     ESE   118   1.3     ENE    73   9.77    271       66.1
   09/16/2019 07:40      64.9      63.5       81     58.0      0.00      0.00      80.3     0.33      1014.1     0.8     ESE   121   1.4       E    94   9.77    270       38.0
   09/16/2019 07:30      64.0      63.1       82     57.8      0.00      0.00      80.3     0.33      1014.1     0.0     SSE   167   0.2     SSE   148   9.77    255      -21.5
   09/16/2019 07:20      63.6      62.9       83     57.8      0.00      0.00      80.3     0.33      1013.9     0.6     SSE   150   1.5      SE   134   9.77    266      -15.9
   09/16/2019 07:10      63.3      61.8       85     57.8      0.00      0.00      80.4     0.33      1013.8     1.3      SW   227   2.7     WSW   253   9.77    258      -22.3
   09/16/2019 07:00      62.0      61.5       85     57.2      0.00      0.00      80.4     0.33      1013.4     1.1      SE   143   2.0      SE   140   9.77    262      -24.8
   09/16/2019 06:50      62.0      61.2       85     56.8      0.00      0.00      80.4     0.33      1013.5     0.7       S   172   1.9     SSW   208   9.77    243      -36.4
   09/16/2019 06:40      61.7      61.2       84     56.5      0.00      0.00      80.5     0.33      1013.4     0.6     SSE   154   1.5      SE   145   9.77    262      -33.1
   09/16/2019 06:30      61.9      61.3       84     56.7      0.00      0.00      80.5     0.33      1013.3     0.3     SSE   162   0.8     SSE   159   9.77    247      -38.0
   09/16/2019 06:20      61.5      61.0       84     56.3      0.00      0.00      80.5     0.33      1013.3     0.1       S   184   0.8     SSE   166   9.77    242      -38.4
   09/16/2019 06:10      62.0      61.2       83     56.5      0.00      0.00      80.5     0.33      1013.2     0.6       S   180   1.2     SSW   204   9.77    237      -47.3
   09/16/2019 06:00      62.6      61.6       82     56.7      0.00      0.00      80.6     0.33      1013.1     0.5     SSE   159   1.3      SE   145   9.77    264      -50.7
   09/16/2019 05:50      62.5      61.4       83     56.6      0.00      0.00      80.6     0.33      1013.1     1.1      SW   217   1.7     SSW   206   9.77    269      -42.0
   09/16/2019 05:40      62.5      61.4       82     56.2      0.00      0.00      80.6     0.33      1013.1     0.6     SSE   152   1.9      SE   138   9.77    270      -32.8
   09/16/2019 05:30      62.8      62.1       82     56.8      0.00      0.00      80.6     0.33      1013.2     0.1     ESE   119   0.8      SE   128   9.77    269      -43.3
   09/16/2019 05:20      62.8      62.1       81     56.6      0.00      0.00      80.7     0.33      1013.1     0.5     SSW   207   1.4      SW   217   9.78    270      -44.5
   09/16/2019 05:10      63.0      62.3       81     56.7      0.00      0.00      80.6     0.33      1013.0     0.0       E    83   0.2     ENE    73   9.78    270      -34.0
   09/16/2019 05:00      63.2      62.6       79     56.2      0.00      0.00      80.7     0.33      1013.0     0.0       N     0   0.0     ESE   109   9.78    270      -42.2
   09/16/2019 04:50      63.5      62.9       78     56.4      0.00      0.00      80.8     0.33      1013.0     0.4       S   183   1.2      SW   224   9.78    270      -43.3
   09/16/2019 04:40      63.7      63.1       76     55.8      0.00      0.00      80.8     0.33      1013.0     0.4       S   186   1.6      SW   234   9.78    270      -37.6
   09/16/2019 04:30      63.7      63.3       76     55.8      0.00      0.00      80.8     0.33      1013.0     0.1      SE   134   1.0     SSE   166   9.78    270      -38.3
   09/16/2019 04:20      63.5      63.1       75     55.3      0.00      0.00      80.8     0.33      1013.0     0.6     SSE   162   2.0     SSE   148   9.78    270      -40.6
   09/16/2019 04:10      63.4      62.3       76     55.3      0.00      0.00      80.9     0.33      1013.0     0.8     SSE   147   2.1       E    89   9.78    270      -36.9
   09/16/2019 04:00      62.5      61.9       75     54.1      0.00      0.00      80.9     0.33      1012.9     0.9     SSE   163   1.8     SSE   163   9.78    270      -41.4
   09/16/2019 03:50      62.5      61.8       75     54.1      0.00      0.00      80.9     0.33      1013.0     1.0     SSE   148   2.1      SE   144   9.78    269      -44.0
   09/16/2019 03:40      62.4      61.7       75     54.0      0.00      0.00      80.9     0.33      1013.1     0.4     SSE   163   1.1       S   180   9.78    269      -43.1
   09/16/2019 03:30      62.1      61.7       76     54.3      0.00      0.00      81.0     0.33      1013.1     0.2     SSE   165   1.0     SSW   200   9.78    269      -38.3
   09/16/2019 03:20      62.1      61.7       74     53.5      0.00      0.00      81.0     0.33      1013.1     0.2     SSW   192   1.0     SSW   200   9.78    269      -46.3
   09/16/2019 03:10      62.2      61.7       73     53.3      0.00      0.00      81.0     0.33      1013.1     0.2      SE   137   1.0      SE   136   9.78    269      -47.4
   09/16/2019 03:00      62.0      61.6       74     53.5      0.00      0.00      81.1     0.33      1013.1     0.2       S   182   0.8     SSW   195   9.78    269      -47.5
   09/16/2019 02:50      62.4      61.6       73     53.2      0.00      0.00      81.1     0.33      1013.1     0.2     SSE   162   0.7     SSE   167   9.78    269      -48.6
   09/16/2019 02:40      63.1      62.1       71     53.1      0.00      0.00      81.1     0.33      1013.1     0.2       S   172   0.8       S   176   9.78    269      -50.6
   09/16/2019 02:30      63.4      62.9       72     54.0      0.00      0.00      81.1     0.33      1013.2     0.1      SE   146   0.7      SE   139   9.79    268      -50.9
   09/16/2019 02:20      63.3      62.8       71     53.7      0.00      0.00      81.1     0.33      1013.2     0.2      SE   143   1.3      SE   138   9.79    268      -51.2
   09/16/2019 02:10      63.3      62.6       71     53.2      0.00      0.00      81.1     0.33      1013.3     0.6     SSE   160   2.1     SSE   151   9.79    268      -49.1
   09/16/2019 02:00      63.7      63.0       69     52.8      0.00      0.00      81.2     0.33      1013.4     0.1     SSE   150   0.8      SE   139   9.79    268      -45.5
   09/16/2019 01:50      64.0      63.4       68     53.2      0.00      0.00      81.2     0.33      1013.4     0.3     SSE   147   0.9      SE   140   9.79    268      -48.1
   09/16/2019 01:40      64.0      63.4       68     53.0      0.00      0.00      81.2     0.33      1013.3     0.1     SSE   160   0.7      SE   140   9.79    268      -51.5
   09/16/2019 01:30      64.3      63.5       67     52.8      0.00      0.00      81.2     0.33      1013.3     0.4     SSE   163   1.1       S   170   9.79    268      -52.1
   09/16/2019 01:20      65.0      63.9       66     53.0      0.00      0.00      81.3     0.33      1013.3     0.3     SSE   148   0.9     SSE   146   9.79    267      -51.4
   09/16/2019 01:10      65.0      64.3       65     52.8      0.00      0.00      81.3     0.33      1013.3     0.0     SSE   158   0.6       S   172   9.79    267      -51.8
   09/16/2019 01:00      64.8      64.3       64     52.2      0.00      0.00      81.3     0.33      1013.2     0.4       S   182   1.4       S   185   9.79    267      -51.8
   09/16/2019 00:50      65.2      64.5       62     51.4      0.00      0.00      81.3     0.33      1013.2     0.4     SSE   168   1.0       S   182   9.79    267      -51.7
   09/16/2019 00:40      65.0      64.1       62     51.1      0.00      0.00      81.4     0.33      1013.1     0.8     SSW   206   1.4     SSW   200   9.79    266      -50.8
   09/16/2019 00:30      64.5      63.9       62     50.8      0.00      0.00      81.3     0.33      1013.0     0.3       S   175   1.0       S   180   9.80    266      -52.7
   09/16/2019 00:20      65.2      64.3       61     50.9      0.00      0.00      81.4     0.33      1013.0     0.4     SSE   166   0.9     SSE   156   9.80    266      -52.9
   09/16/2019 00:10      65.6      64.8       60     50.7      0.00      0.00      81.4     0.33      1012.9     0.2      SE   145   0.7      SE   138   9.80    266      -52.9
   09/16/2019 00:00      65.5      64.9       58     50.2      0.00      0.00      81.4     0.33      1012.9     0.9       S   183   1.5     SSW   202   9.80    266      -52.8
   09/15/2019 23:50      65.6      65.0       60     51.0      0.00      0.00      81.4     0.33      1012.8     0.3       S   182   0.9       S   181   9.80    266      -54.1
   09/15/2019 23:40      66.6      65.3       58     50.5      0.00      0.00      81.4     0.33      1012.7     0.2     ESE   124   1.1      SE   134   9.80    266      -55.6
   09/15/2019 23:30      66.6      66.2       57     50.8      0.00      0.00      81.5     0.33      1012.6     0.4     SSE   160   0.9       S   183   9.80    266      -55.2
   09/15/2019 23:20      66.4      65.8       58     50.7      0.00      0.00      81.4     0.33      1012.5     0.3     SSE   160   0.9     SSE   148   9.81    266      -58.1
   09/15/2019 23:10      66.8      66.1       56     50.4      0.00      0.00      81.4     0.33      1012.5     0.4     SSE   163   1.1     SSE   153   9.81    266      -58.7
   09/15/2019 23:00      67.2      66.4       56     50.5      0.00      0.00      81.5     0.33      1012.3     0.3     SSE   158   1.2     SSE   151   9.81    266      -59.3
   09/15/2019 22:50      67.5      66.9       55     50.6      0.00      0.00      81.4     0.33      1012.2     0.5     SSE   161   1.1      SE   140   9.81    266      -58.3
   09/15/2019 22:40      67.7      67.1       55     50.7      0.00      0.00      81.4     0.33      1012.2     0.6     SSE   159   1.0     SSE   167   9.81    266      -58.6
   09/15/2019 22:30      67.8      67.2       55     50.6      0.00      0.00      81.4     0.33      1012.2     0.4     SSE   165   1.1     SSE   166   9.81    266      -59.9
   09/15/2019 22:20      68.1      67.4       54     50.5      0.00      0.00      81.5     0.33      1012.1     0.4     SSE   161   1.1       S   176   9.81    266      -61.0
   09/15/2019 22:10      68.5      67.5       54     50.9      0.00      0.00      81.4     0.33      1012.2     0.3       S   177   0.8       S   180   9.82    266      -61.6
   09/15/2019 22:00      69.6      68.1       54     51.4      0.00      0.00      81.5     0.33      1012.3     0.2     SSE   162   0.9       S   177   9.82    266      -61.6
   09/15/2019 21:50      69.7      69.1       54     52.2      0.00      0.00      81.4     0.33      1012.3     0.5     SSE   155   1.0      SE   146   9.82    266      -61.3
   09/15/2019 21:40      69.8      69.1       52     51.2      0.00      0.00      81.5     0.33      1012.3     0.5     SSE   158   1.1       S   169   9.82    265      -62.5
   09/15/2019 21:30      70.3      69.4       50     50.4      0.00      0.00      81.4     0.33      1012.2     0.5      SE   145   1.8      SE   143   9.82    265      -63.6
   09/15/2019 21:20      71.0      70.0       49     50.1      0.00      0.00      81.4     0.33      1012.2     1.1      SE   144   1.9      SE   139   9.83    265      -63.4
   09/15/2019 21:10      71.3      70.6       48     49.9      0.00      0.00      81.4     0.33      1012.1     0.7     SSE   162   1.5       S   180   9.83    264      -63.4
   09/15/2019 21:00      72.4      71.1       46     49.5      0.00      0.00      81.4     0.33      1012.1     0.4     SSE   161   1.2     SSE   159   9.83    264      -64.3
   09/15/2019 20:50      73.7      72.1       43     48.8      0.00      0.00      81.4     0.33      1012.1     0.4     SSE   163   1.3       S   175   9.83    264      -63.4
   09/15/2019 20:40      74.0      73.2       41     48.7      0.00      0.00      81.4     0.33      1012.0     0.3     SSE   166   0.9     SSE   151   9.84    264      -61.4
   09/15/2019 20:30      74.1      73.7       41     48.5      0.00      0.00      81.3     0.33      1012.0     0.2     SSE   163   1.0       S   177   9.84    264      -61.6
   09/15/2019 20:20      74.8      73.9       41     49.1      0.00      0.00      81.4     0.33      1011.9     0.0      SE   142   0.9      SE   137   9.84    264      -61.1
   09/15/2019 20:10      75.5      74.5       42     49.8      0.00      0.00      81.3     0.33      1011.8     0.0     SSE   151   0.7     SSE   150   9.84    264      -63.9
   09/15/2019 20:00      75.9      75.1       41     50.2      0.00      0.00      81.3     0.33      1011.7     0.1     NNE    16   1.3       N     6   9.84    263      -65.3
   09/15/2019 19:50      77.2      75.7       40     50.0      0.00      0.00      81.4     0.33      1011.7     0.0       N     0   0.0     ENE    74   9.85    263      -68.5
   09/15/2019 19:40      78.0      77.0       38     50.1      0.00      0.00      81.3     0.33      1011.6     0.1      NE    51   1.6     ENE    64   9.85    263      -71.8
   09/15/2019 19:30      79.1      77.7       37     49.6      0.00      0.00      81.3     0.33      1011.4     0.4     ENE    77   1.9     ENE    57   9.85    263      -71.3
   09/15/2019 19:20      80.2      79.0       35     49.5      0.00      0.00      81.3     0.33      1011.4     0.8      NE    50   1.7      NE    49   9.85    263      -70.3
   09/15/2019 19:10      81.7      79.8       35     50.2      0.00      0.00      81.2     0.33      1011.4     1.1      NE    45   2.7       N     6   9.86    263      -68.0
   09/15/2019 19:00      83.4      81.3       33     50.3      0.00      0.00      81.2     0.33      1011.3     0.9      NE    41   3.5      NE    56   9.86    263      -64.3
   09/15/2019 18:50      83.8      83.0       26     44.8      0.00      0.00      81.2     0.33      1011.2     0.2     NNE    17   1.2      NE    43   9.86    262      -58.0
   09/15/2019 18:40      84.4      83.4       25     44.6      0.00      0.00      81.1     0.33      1011.1     1.4     SSE   160   3.0      SE   137   9.86    262      -47.7
   09/15/2019 18:30      85.4      84.1       25     44.5      0.00      0.00      81.1     0.33      1011.1     1.4     SSE   156   3.5       S   185   9.87    262      -44.1
   09/15/2019 18:20      86.2      85.1       23     43.9      0.00      0.00      81.1     0.33      1011.2     1.4       S   182   2.6       S   174   9.87    262      -30.8
   09/15/2019 18:10      87.2      86.0       25     46.2      0.00      0.00      81.1     0.33      1011.1     1.3      SE   141   3.2       S   178   9.87    262       -5.8
   09/15/2019 18:00      88.1      86.9       22     44.3      0.00      0.00      81.1     0.33      1011.0     1.4     ESE   108   2.7      SE   132   9.88    262       -6.2
   09/15/2019 17:50      88.7      87.9       21     43.7      0.00      0.00      81.1     0.33      1010.9     1.5      SE   145   3.8       S   172   9.88    261       20.8
   09/15/2019 17:40      89.7      88.4       20     42.7      0.00      0.00      81.0     0.33      1010.9     1.5     SSE   148   3.8     SSE   149   9.88    261       32.4
   09/15/2019 17:30      90.0      89.4       20     43.1      0.00      0.00      81.0     0.33      1010.8     1.7     SSW   191   3.9       S   177   9.89    261       74.3
   09/15/2019 17:20      89.9      88.8       20     43.0      0.00      0.00      81.0     0.33      1010.8     3.1     SSW   197   6.3      SW   221   9.89    261      151.2
   09/15/2019 17:10      90.2      89.5       19     41.9      0.00      0.00      80.9     0.33      1010.8     3.7      SW   214   6.2     SSW   199   9.89    261      170.4
   09/15/2019 17:00      89.9      89.0       18     39.6      0.00      0.00      80.9     0.33      1010.8     2.9     SSW   202   6.0     SSW   204   9.90    261      191.4
   09/15/2019 16:50      89.8      89.0       19     41.1      0.00      0.00      80.9     0.33      1010.8     4.0     SSW   210   7.9     WSW   239   9.90    261      192.4
   09/15/2019 16:40      90.6      89.0       18     40.6      0.00      0.00      80.9     0.33      1010.8     4.0     SSW   209   7.6     SSW   205   9.90    261      201.4
   09/15/2019 16:30      90.4      89.1       18     40.9      0.00      0.00      80.9     0.33      1010.8     2.3     SSW   202   4.5      SW   223   9.91    261      195.8
   09/15/2019 16:20      89.6      88.9       18     40.5      0.00      0.00      80.9     0.33      1010.8     3.1     SSW   204   6.7     SSW   210   9.91    261      115.5
   09/15/2019 16:10      89.9      88.5       20     42.8      0.00      0.00      80.8     0.33      1010.9     4.3       S   190   6.6       S   172   9.92    261      327.3
   09/15/2019 16:00      89.0      88.1       20     42.8      0.00      0.00      80.8     0.33      1010.9     4.8       S   189   7.3     SSW   211   9.92    262      269.9
   09/15/2019 15:50      89.0      88.3       21     43.3      0.00      0.00      80.8     0.33      1010.9     4.2       S   176   8.5       S   189   9.93    261      285.4
   09/15/2019 15:40      89.0      87.6       21     42.6      0.00      0.00      80.8     0.33      1011.1     5.3       S   170   8.5       S   187   9.93    261      287.2
   09/15/2019 15:30      89.5      88.3       21     44.4      0.00      0.00      80.7     0.33      1011.1     4.4     SSE   156   7.2      SE   143   9.94    261      154.8
   09/15/2019 15:20      92.4      89.1       21     45.4      0.00      0.00      80.7     0.33      1011.1     4.9     SSE   163   8.2      SE   143   9.94    261      238.8
   09/15/2019 15:10      92.6      91.3       20     45.2      0.00      0.00      80.7     0.33      1011.1     3.4       S   174   7.0     SSW   192   9.95    261      364.2
   09/15/2019 15:00      92.8      91.2       19     43.8      0.00      0.00      80.7     0.33      1011.3     2.9      SE   134   6.6       S   179   9.95    261      435.2
   09/15/2019 14:50      93.7      91.7       17     41.6      0.00      0.00      80.7     0.33      1011.3     2.5       E    85   5.9     SSE   153   9.95    261      246.2
   09/15/2019 14:40      92.8      91.5       18     42.4      0.00      0.00      80.7     0.33      1011.4     2.9     ESE   124   6.4      SE   140   9.95    261      515.9
   09/15/2019 14:30      92.2      90.3       19     42.6      0.00      0.00      80.6     0.33      1011.5     3.8       E   101   7.3      SE   132   9.96    261      517.7
   09/15/2019 14:20      92.1      91.2       19     44.0      0.00      0.00      80.6     0.33      1011.6     3.2     ESE   121   6.3     SSE   165   9.96    261      480.6
   09/15/2019 14:10      91.3      90.5       20     43.9      0.00      0.00      80.6     0.33      1011.8     3.4       S   172   7.4       S   176   9.96    261      455.0
   09/15/2019 14:00      91.0      89.8       20     43.2      0.00      0.00      80.6     0.33      1011.9     3.8     SSE   150   8.1       S   176   9.96    261      332.3
   09/15/2019 13:50      91.3      90.4       17     40.5      0.00      0.00      80.6     0.33      1012.0     3.5     SSE   147   7.1     SSE   166   9.97    261      228.7
   09/15/2019 13:40      92.1      90.9       16     39.0      0.00      0.00      80.6     0.33      1012.1     4.3      SE   142   7.0      SE   141   9.97    261      308.5
   09/15/2019 13:30      93.3      91.7       18     42.2      0.00      0.00      80.6     0.33      1012.1     3.1     ESE   114   7.4     SSW   200   9.97    261      354.6
   09/15/2019 13:20      93.0      92.1       20     45.5      0.00      0.00      80.5     0.33      1012.1     1.7       N    10   4.4     ENE    71   9.97    261      360.9
   09/15/2019 13:10      92.6      91.8       19     43.5      0.00      0.00      80.5     0.33      1012.2     2.5     ENE    59   6.0       E   101   9.97    261      544.2
   09/15/2019 13:00      92.8      89.8       20     44.1      0.00      0.00      80.5     0.33      1012.4     1.8     ENE    64   4.2      SE   144   9.97    261      609.1
   09/15/2019 12:50      89.9      88.8       22     45.8      0.00      0.00      80.5     0.33      1012.5     2.0     NNE    30   4.6      NE    53   9.98    262      387.9
   09/15/2019 12:40      89.5      88.6       23     46.2      0.00      0.00      80.5     0.33      1012.6     1.6       N    11   3.7      NW   305   9.98    262      255.2
   09/15/2019 12:30      89.0      87.9       25     48.1      0.00      0.00      80.5     0.33      1012.7     1.4     NNE    26   2.8      NE    53   9.98    262      269.6
   09/15/2019 12:20      88.6      87.7       28     50.6      0.00      0.00      80.6     0.33      1012.7     1.7       N   356   4.9       N     4   9.98    262      318.1
   09/15/2019 12:10      88.0      86.8       30     51.8      0.00      0.00      80.6     0.33      1012.8     1.7     NNE    31   4.6      NE    54   9.98    262      398.1
   09/15/2019 12:00      87.6      86.6       30     52.1      0.00      0.00      80.6     0.33      1013.0     1.6     NNE    26   3.3      NE    48   9.98    263      319.5
   09/15/2019 11:50      88.0      86.7       31     52.9      0.00      0.00      80.6     0.33      1013.1     1.3     NNE    17   4.3      NE    54   9.98    262      424.7
   09/15/2019 11:40      87.0      85.4       32     52.9      0.00      0.00      80.6     0.33      1013.2     1.0     ENE    71   3.6      NE    50   9.98    263      479.8
   09/15/2019 11:30      85.4      83.5       34     52.8      0.00      0.00      80.6     0.33      1013.3     1.5     ENE    68   3.5     SSE   153   9.98    263      426.0
   09/15/2019 11:20      84.1      83.0       35     52.9      0.00      0.00      80.7     0.33      1013.3     1.7     ENE    59   3.5     ENE    64   9.98    263      339.6
   09/15/2019 11:10      83.8      82.7       35     52.7      0.00      0.00      80.7     0.33      1013.4     2.1      NE    50   5.7       E    89   9.98    263      353.9
   09/15/2019 11:00      83.8      82.3       35     52.4      0.00      0.00      80.7     0.33      1013.5     1.3      NE    49   2.9       E    89   9.98    263      388.0
   09/15/2019 10:50      82.6      81.4       35     51.9      0.00      0.00      80.8     0.33      1013.6     2.3     NNE    28   4.9       E    83   9.98    263      461.1
   09/15/2019 10:40      82.3      81.0       36     51.8      0.00      0.00      80.7     0.33      1013.5     1.9      NE    43   3.9      NE    53   9.98    263      276.5
   09/15/2019 10:30      82.1      80.4       37     52.6      0.00      0.00      80.8     0.33      1013.5     1.2      NE    52   3.6     ESE   117   9.47    263      270.8
   09/15/2019 10:20      80.6      79.8       38     52.5      0.00      0.00      80.8     0.33      1013.7     2.2      NE    43   5.0      NE    49   9.47    263      324.9
   09/15/2019 10:10      80.5      78.8       41     53.9      0.00      0.00      80.8     0.33      1013.7     1.8      NE    56   3.3     NNE    25   9.47    264      402.9
   09/15/2019 10:00      79.0      77.2       43     53.9      0.00      0.00      80.9     0.33      1013.8     1.4     ENE    66   3.6     ESE   115   9.47    264      390.2
   09/15/2019 09:50      77.5      76.1       46     54.1      0.00      0.00      80.9     0.33      1013.8     1.2      NE    52   2.8      NE    40   9.47    264      312.4
   09/15/2019 09:40      76.7      76.2       46     54.1      0.00      0.00      80.9     0.33      1013.7     0.5     NNE    18   2.5     NNE    25   9.47    264      174.1
   09/15/2019 09:30      76.9      75.6       46     53.6      0.00      0.00      81.0     0.33      1013.7     0.4       E    84   1.5     ESE   102   9.47    264      170.8
   09/15/2019 09:20      75.7      73.4       46     52.6      0.00      0.00      81.0     0.33      1013.7     0.2     ENE    74   1.4     ESE   123   9.47    264      211.4
   09/15/2019 09:10      73.8      73.0       50     53.6      0.00      0.00      81.0     0.33      1013.7     0.7     ESE   108   2.3      SE   133   9.47    266      130.6
   09/15/2019 09:00      73.1      72.3       50     53.0      0.00      0.00      81.1     0.33      1013.6     1.0      NE    42   2.3       E    91   9.47    266      150.4
   09/15/2019 08:50      72.6      71.2       52     53.0      0.00      0.00      81.1     0.33      1013.6     0.6     NNE    27   1.8       N     3   9.47    266      162.8
   09/15/2019 08:40      71.2      69.8       56     54.0      0.00      0.00      81.2     0.33      1013.6     0.3     NNE    12   1.5     NNE    33   9.47    267      148.3
   09/15/2019 08:30      70.0      69.3       58     54.3      0.00      0.00      81.2     0.33      1013.5     0.6       N   358   2.2       N     0   9.47    268      105.8
   09/15/2019 08:20      69.9      68.5       59     54.4      0.00      0.00      81.2     0.33      1013.5     0.3       N     6   1.2     NNE    23   9.47    268       81.0
   09/15/2019 08:10      68.7      65.9       64     54.5      0.00      0.00      81.3     0.33      1013.5     0.2     NNE    14   1.4     NNW   342   9.47    268      101.4
   09/15/2019 08:00      66.0      64.1       70     55.0      0.00      0.00      81.3     0.33      1013.5     0.0       N     0   0.0       N     0   9.47    269       57.3
   09/15/2019 07:50      64.3      63.8       71     54.5      0.00      0.00      81.3     0.33      1013.4     0.0     SSE   168   0.7     SSE   168   9.47    269       -7.1
   09/15/2019 07:40      64.1      62.2       73     54.2      0.00      0.00      81.3     0.33      1013.3     0.0       N     0   0.0     SSE   153   9.47    270        4.3
   09/15/2019 07:30      62.4      61.3       77     54.4      0.00      0.00      81.4     0.33      1013.4     0.5       S   185   1.3     SSW   206   9.47    270       -2.2
   09/15/2019 07:20      61.5      60.9       78     54.4      0.00      0.00      81.4     0.33      1013.3     0.2     NNE    29   0.6     NNE    17   9.47    270      -26.4
   09/15/2019 07:10      61.2      60.5       79     54.2      0.00      0.00      81.4     0.33      1013.2     0.0       N     0   0.0     SSE   155   9.48    269      -31.2
   09/15/2019 07:00      60.8      60.1       78     53.5      0.00      0.00      81.4     0.33      1013.1     0.1     SSE   168   0.7     SSE   168   9.47    270      -37.8
   09/15/2019 06:50      60.7      60.1       78     53.4      0.00      0.00      81.5     0.33      1013.0     0.5     SSE   146   1.7      SE   134   9.48    270      -42.0
   09/15/2019 06:40      60.6      59.9       78     53.3      0.00      0.00      81.5     0.33      1012.9     0.4     SSE   156   1.0       S   170   9.48    269      -46.1
   09/15/2019 06:30      60.8      60.0       77     53.3      0.00      0.00      81.5     0.33      1012.8     0.5     SSE   157   1.0     SSE   149   9.48    270      -49.4
   09/15/2019 06:20      60.8      60.3       78     53.7      0.00      0.00      81.6     0.33      1012.8     0.0       S   188   0.7       S   188   9.48    270      -49.0
   09/15/2019 06:10      61.2      60.4       77     53.6      0.00      0.00      81.6     0.33      1012.7     0.0       S   175   1.0       S   175   9.48    268      -49.6
   09/15/2019 06:00      61.4      60.9       77     54.1      0.00      0.00      81.6     0.33      1012.6     0.1     SSE   158   0.5     SSE   154   9.48    266      -50.5
   09/15/2019 05:50      61.4      60.8       75     53.0      0.00      0.00      81.7     0.33      1012.6     0.3     SSE   167   1.0     SSE   166   9.48    269      -53.4
   09/15/2019 05:40      61.5      60.9       72     52.0      0.00      0.00      81.7     0.33      1012.5     0.5     SSE   159   1.1     SSE   150   9.48    269      -54.5
   09/15/2019 05:30      61.9      61.2       68     50.6      0.00      0.00      81.7     0.33      1012.5     0.6     SSE   163   1.1     SSE   157   9.48    268      -54.2
   09/15/2019 05:20      62.5      61.6       64     49.6      0.00      0.00      81.7     0.33      1012.5     0.4     SSE   157   1.2     SSE   152   9.48    267      -53.7
   09/15/2019 05:10      62.6      62.0       62     49.0      0.00      0.00      81.8     0.33      1012.4     0.0       N     0   0.0     SSE   153   9.48    267      -53.1
   09/15/2019 05:00      62.6      62.1       62     49.1      0.00      0.00      81.8     0.33      1012.3     0.3     SSE   163   1.1     SSE   161   9.48    267      -53.5
   09/15/2019 04:50      62.6      62.1       62     49.1      0.00      0.00      81.8     0.33      1012.2     0.0       N     0   0.0       S   188   9.48    267      -53.5
   09/15/2019 04:40      63.4      62.3       62     49.7      0.00      0.00      81.8     0.33      1012.2     0.3       S   172   0.8       S   173   9.48    267      -54.4
   09/15/2019 04:30      63.7      63.0       60     49.2      0.00      0.00      81.9     0.33      1012.2     0.5     SSE   163   1.2     SSW   199   9.49    267      -54.1
   09/15/2019 04:20      63.7      63.3       63     50.6      0.00      0.00      81.9     0.33      1012.3     0.5     SSE   165   1.1       S   174   9.49    266      -53.2
   09/15/2019 04:10      63.9      63.2       63     50.4      0.00      0.00      81.9     0.33      1012.3     0.3     SSE   162   0.9       S   177   9.49    267      -54.9
   09/15/2019 04:00      64.6      63.5       61     50.0      0.00      0.00      81.9     0.33      1012.4     0.4       S   181   1.2     SSW   193   9.49    267      -54.4
   09/15/2019 03:50      64.7      64.2       58     49.4      0.00      0.00      81.9     0.33      1012.4     0.6       S   184   1.4     SSW   209   9.49    267      -54.3
   09/15/2019 03:40      65.2      64.5       59     50.4      0.00      0.00      81.9     0.33      1012.5     0.2      SE   143   1.1      SE   141   9.49    266      -54.4
   09/15/2019 03:30      65.4      64.8       59     50.4      0.00      0.00      82.0     0.33      1012.5     0.3     SSE   150   1.0     SSE   151   9.49    266      -53.5
   09/15/2019 03:20      65.5      64.8       60     50.8      0.00      0.00      82.0     0.33      1012.5     0.2     SSE   150   0.9     SSE   147   9.49    266      -53.5
   09/15/2019 03:10      65.6      65.3       60     51.2      0.00      0.00      82.1     0.33      1012.6     0.3      SE   141   1.1      SE   136   9.49    266      -51.5
   09/15/2019 03:00      65.5      65.2       63     52.2      0.00      0.00      82.0     0.33      1012.7     0.5       S   170   1.3       S   174   9.49    267      -49.8
   09/15/2019 02:50      66.1      65.2       64     53.1      0.00      0.00      82.1     0.33      1012.8     0.4     SSE   158   1.2       S   174   9.49    267      -51.6
   09/15/2019 02:40      66.2      65.7       64     53.3      0.00      0.00      82.1     0.33      1012.9     0.7     SSE   157   1.3     SSE   148   9.50    266      -52.3
   09/15/2019 02:30      66.3      65.6       58     50.9      0.00      0.00      82.1     0.33      1012.9     0.8     SSE   167   1.9      SW   215   9.50    266      -54.0
   09/15/2019 02:20      66.8      65.8       63     53.2      0.00      0.00      82.1     0.33      1013.0     0.7       S   174   2.1      SW   218   9.50    266      -53.8
   09/15/2019 02:10      67.2      66.4       63     53.8      0.00      0.00      82.1     0.33      1013.0     0.2     SSE   151   0.9      SE   140   9.50    266      -53.9
   09/15/2019 02:00      67.2      66.7       62     53.5      0.00      0.00      82.1     0.33      1013.1     0.3       S   174   0.9       S   186   9.50    266      -53.6
   09/15/2019 01:50      67.4      66.7       61     53.1      0.00      0.00      82.2     0.33      1013.2     0.3     SSE   153   0.9     SSE   148   9.50    266      -54.5
   09/15/2019 01:40      67.7      66.8       60     52.6      0.00      0.00      82.2     0.33      1013.3     0.4     SSE   160   1.1     SSE   163   9.50    266      -55.2
   09/15/2019 01:30      67.5      67.0       58     51.9      0.00      0.00      82.2     0.33      1013.2     0.5     SSE   164   0.8      SE   144   9.50    266      -55.2
   09/15/2019 01:20      67.7      67.0       56     51.0      0.00      0.00      82.2     0.33      1013.2     0.0      SE   142   0.5      SE   142   9.51    266      -57.0
   09/15/2019 01:10      68.0      67.3       56     51.4      0.00      0.00      82.1     0.33      1013.2     0.5     SSE   156   1.2       S   188   9.51    266      -57.6
   09/15/2019 01:00      68.7      67.7       54     50.8      0.00      0.00      82.2     0.33      1013.1     0.8     SSE   160   1.8      SE   137   9.51    265      -59.2
   09/15/2019 00:50      68.9      68.5       53     50.9      0.00      0.00      82.2     0.33      1013.1     0.7     SSE   168   1.7       S   188   9.51    265      -57.5
   09/15/2019 00:40      69.1      68.5       53     51.0      0.00      0.00      82.2     0.33      1013.0     0.2     SSE   167   1.0     SSE   162   9.51    265      -58.1
   09/15/2019 00:30      70.0      68.8       51     50.3      0.00      0.00      82.2     0.33      1013.1     0.5     SSE   155   1.1     SSE   162   9.51    264      -58.7
   09/15/2019 00:20      69.9      69.5       49     49.7      0.00      0.00      82.2     0.33      1013.0     0.7     SSE   151   1.3       S   188   9.51    264      -58.7
   09/15/2019 00:10      70.6      69.2       46     48.2      0.00      0.00      82.2     0.33      1013.0     0.8     SSE   168   1.5     SSW   197   9.51    264      -57.6
   09/15/2019 00:00      70.8      70.3       44     47.3      0.00      0.00      82.2     0.33      1012.9     0.0     SSE   168   0.6     SSE   168   9.52    264      -56.0
   09/14/2019 23:50      70.9      70.3       42     46.2      0.00      0.00      82.3     0.33      1012.9     0.4     SSE   149   1.1      SE   143   9.52    264      -55.9
   09/14/2019 23:40      70.9      70.5       40     45.0      0.00      0.00      82.2     0.33      1012.9     0.7     SSE   147   1.3      SE   143   9.52    264      -57.6
   09/14/2019 23:30      71.3      70.3       37     43.2      0.00      0.00      82.2     0.33      1012.9     0.5     SSE   162   1.7      SE   140   9.52    263      -60.4
   09/14/2019 23:20      71.5      70.9       35     42.4      0.00      0.00      82.2     0.33      1012.8     1.1     SSE   159   1.8     SSE   150   9.52    263      -60.6
   09/14/2019 23:10      72.1      71.4       33     41.2      0.00      0.00      82.2     0.33      1012.8     0.9     SSE   158   1.5      SE   142   9.53    263      -60.8
   09/14/2019 23:00      72.6      71.7       33     41.0      0.00      0.00      82.2     0.33      1012.9     0.9     SSE   159   1.6      SE   140   9.53    263      -61.7
   09/14/2019 22:50      73.3      72.3       31     40.7      0.00      0.00      82.2     0.33      1012.7     0.7     SSE   162   1.1      SE   144   9.53    263      -61.6
   09/14/2019 22:40      74.1      72.7       31     40.4      0.00      0.00      82.2     0.33      1012.7     0.9     SSE   160   1.2      SE   145   9.53    263      -62.2
   09/14/2019 22:30      74.1      73.3       30     39.9      0.00      0.00      82.2     0.33      1012.7     1.0       S   184   1.7     SSW   203   9.53    263      -60.1
   09/14/2019 22:20      73.6      73.1       30     40.0      0.00      0.00      82.2     0.33      1012.7     0.4       S   185   1.2     SSW   205   9.54    263      -61.0
   09/14/2019 22:10      74.8      73.3       29     39.8      0.00      0.00      82.2     0.33      1012.6     0.5      SE   143   1.5      SE   134   9.54    263      -61.9
   09/14/2019 22:00      74.8      74.3       29     40.0      0.00      0.00      82.2     0.33      1012.6     0.8     SSW   201   3.1     SSW   210   9.54    263      -60.0
   09/14/2019 21:50      75.1      74.4       29     40.6      0.00      0.00      82.1     0.33      1012.6     0.2     SSE   166   1.2       S   188   9.55    262      -62.0
   09/14/2019 21:40      75.1      74.5       30     41.2      0.00      0.00      82.1     0.33      1012.6     0.3       S   190   0.9     SSW   207   9.55    263      -62.9
   09/14/2019 21:30      76.0      75.0       30     41.8      0.00      0.00      82.1     0.33      1012.6     0.1      SE   141   0.7       S   182   9.55    262      -65.5
   09/14/2019 21:20      77.4      75.8       29     42.3      0.00      0.00      82.1     0.33      1012.5     0.6      SE   145   1.7     SSE   153   9.55    262      -66.8
   09/14/2019 21:10      77.5      77.0       27     40.7      0.00      0.00      82.0     0.33      1012.4     0.3     SSE   158   1.6       S   177   9.55    262      -66.5
   09/14/2019 21:00      77.7      77.2       28     41.5      0.00      0.00      82.0     0.33      1012.3     1.0       S   185   2.1       S   190   9.56    262      -67.1
   09/14/2019 20:50      78.6      77.5       27     41.8      0.00      0.00      82.0     0.33      1012.3     0.8     SSE   165   2.1     SSW   196   9.56    262      -68.0
   09/14/2019 20:40      79.4      78.0       27     42.1      0.00      0.00      82.0     0.33      1012.2     0.6     SSE   166   2.3     SSW   205   9.56    262      -68.9
   09/14/2019 20:30      80.6      79.2       26     42.0      0.00      0.00      82.0     0.33      1012.1     0.2      SE   140   1.2      SE   142   9.57    262      -70.9
   09/14/2019 20:20      82.8      80.4       24     41.5      0.00      0.00      81.9     0.33      1011.9     0.4     SSE   153   1.5     ESE   115   9.57    262      -71.0
   09/14/2019 20:10      84.0      82.7       22     40.9      0.00      0.00      81.9     0.33      1011.9     0.4     SSE   151   2.7     SSE   147   9.57    262      -73.1
   09/14/2019 20:00      84.4      83.3       22     41.4      0.00      0.00      81.8     0.33      1011.9     0.8       S   174   2.1       S   182   9.57    262      -72.1
   09/14/2019 19:50      86.2      84.1       22     41.7      0.00      0.00      81.8     0.33      1011.8     0.7       S   178   2.0     SSW   195   9.58    261      -74.4
   09/14/2019 19:40      87.7      85.8       21     41.7      0.00      0.00      81.8     0.33      1011.7     0.9       S   185   1.8       S   183   9.58    261      -77.5
   09/14/2019 19:30      89.3      87.4       19     41.3      0.00      0.00      81.8     0.33      1011.6     1.4      SW   227   3.1       W   275   9.58    261      -81.4
   09/14/2019 19:20      90.0      89.1       18     41.0      0.00      0.00      81.7     0.33      1011.6     1.8       W   277   4.7     WSW   240   9.59    261      -83.2
   09/14/2019 19:10      91.0      89.7       18     40.7      0.00      0.00      81.7     0.33      1011.6     2.4       W   270   5.2     WSW   250   9.59    261      -83.0
   09/14/2019 19:00      91.7      90.6       18     41.0      0.00      0.00      81.6     0.33      1011.5     2.3     WNW   283   4.9     WSW   253   9.60    261      -80.7
   09/14/2019 18:50      92.8      91.5       17     40.9      0.00      0.00      81.6     0.33      1011.4     3.6     WNW   282   6.1     WNW   292   9.60    261      -77.6
   09/14/2019 18:40      94.4      92.6       16     40.4      0.00      0.00      81.5     0.33      1011.3     3.5       W   278   6.6     WSW   240   9.61    261      -71.5
   09/14/2019 18:30      95.9      94.2       15     39.6      0.00      0.00      81.5     0.33      1011.3     3.2     WNW   282   7.8       W   273   9.61    261      -38.6
   09/14/2019 18:20      96.5      95.8       14     39.5      0.00      0.00      81.4     0.33      1011.3     2.2     WSW   256   4.4      NW   318   9.62    261      -14.6
   09/14/2019 18:10      96.8      96.2       14     39.6      0.00      0.00      81.4     0.33      1011.2     2.4     WNW   285   6.2      NW   322   9.62    261        9.3
   09/14/2019 18:00      97.2      96.5       14     39.6      0.00      0.00      81.4     0.33      1011.2     3.4     WNW   284   6.4       W   269   9.62    261       33.2
   09/14/2019 17:50      98.5      96.9       13     39.6      0.00      0.00      81.4     0.33      1011.2     3.2     WNW   290   8.8     WNW   293   9.63    261       57.6
   09/14/2019 17:40      98.6      98.1       13     39.5      0.00      0.00      81.3     0.33      1011.2     3.0       W   279   5.8     WSW   248   9.64    261       83.6
   09/14/2019 17:30      99.9      98.4       12     38.7      0.00      0.00      81.3     0.33      1011.2     3.4     WNW   294   7.6      NW   316   9.64    261      107.8
   09/14/2019 17:20     100.7      99.7       12     39.4      0.00      0.00      81.3     0.33      1011.1     3.1      NW   306   6.4     WNW   282   9.65    261      132.5
   09/14/2019 17:10     100.9     100.2       13     40.4      0.00      0.00      81.2     0.33      1011.1     3.1     WNW   299   6.8     WNW   300   9.65    261      155.0
   09/14/2019 17:00     101.2     100.4       13     40.3      0.00      0.00      81.1     0.33      1011.1     2.9      NW   319   7.6     WNW   282   9.65    261      178.6
   09/14/2019 16:50     101.6     100.9       13     41.1      0.00      0.00      81.1     0.33      1011.1     2.5     NNW   335   7.0       W   266   9.66    261      200.0
   09/14/2019 16:40     102.4     100.8       14     42.7      0.00      0.00      81.1     0.33      1011.1     4.2     WNW   298   8.6       N   353   9.66    261      223.0
   09/14/2019 16:30     103.2     102.1       13     42.4      0.00      0.00      81.0     0.33      1011.1     3.2      NW   306   7.5       W   266   9.67    261      246.2
   09/14/2019 16:20     103.1     102.1       12     41.0      0.00      0.00      81.0     0.33      1011.2     3.7       W   267   7.7     WSW   257   9.67    261      268.7
   09/14/2019 16:10     102.8     102.1       12     40.5      0.00      0.00      80.9     0.33      1011.2     4.1     WSW   239   8.0       W   274   9.67    261      280.7
   09/14/2019 16:00     103.4     102.4       13     41.5      0.00      0.00      80.9     0.33      1011.1     3.9     SSW   199   6.7     SSW   200   9.68    261      304.2
   09/14/2019 15:50     103.6     102.5       12     40.1      0.00      0.00      80.8     0.33      1011.1     1.6      SW   220   5.3     SSW   193   9.68    261      325.8
   09/14/2019 15:40     103.8     102.6       12     40.7      0.00      0.00      80.8     0.33      1011.1     2.9       S   190   6.4       S   184   9.69    261      344.0
   09/14/2019 15:30     104.2     103.4       12     42.0      0.00      0.00      80.8     0.33      1011.2     3.0       W   262   7.1      SW   235   9.69    261      360.5
   09/14/2019 15:20     103.7     102.7       13     43.5      0.00      0.00      80.7     0.33      1011.2     3.2     WSW   246   6.6      SW   230   9.69    261      379.7
   09/14/2019 15:10     103.5     101.6       14     44.6      0.00      0.00      80.7     0.33      1011.4     3.2     WNW   289   9.9      SW   232   9.70    261      394.3
   09/14/2019 15:00     102.4     101.5       14     44.5      0.00      0.00      80.7     0.33      1011.5     6.0      SW   227   9.9      SW   218   9.70    261      415.7
   09/14/2019 14:50     103.4     102.1       13     42.0      0.00      0.00      80.6     0.33      1011.7     4.1       S   182   9.4     WSW   247   9.70    261      427.6
   09/14/2019 14:40     104.0     103.0       12     40.6      0.00      0.00      80.6     0.33      1011.8     2.9     SSE   162   7.3       S   172   9.71    261      444.8
   09/14/2019 14:30     103.4     102.8       13     42.5      0.00      0.00      80.5     0.33      1011.9     2.8      SW   222   8.4     SSW   203   9.71    261      459.0
   09/14/2019 14:20     103.2     102.2       13     41.9      0.00      0.00      80.5     0.33      1012.1     3.3       W   264   7.1      SE   125   9.71    261      465.0
   09/14/2019 14:10     103.2     101.9       13     41.9      0.00      0.00      80.5     0.33      1012.2     3.2     SSW   198   7.9      SW   218   9.71    261      479.9
   09/14/2019 14:00     102.8     101.6       13     41.3      0.00      0.00      80.4     0.33      1012.4     2.4       W   272   6.3      NW   309   9.72    261      480.2
   09/14/2019 13:50     102.3     101.3       14     43.3      0.00      0.00      80.4     0.33      1012.5     1.8     WNW   302   4.9      NW   315   9.72    261      488.8
   09/14/2019 13:40     102.3     101.2       13     42.5      0.00      0.00      80.4     0.33      1012.7     2.2     SSE   147   5.3      SE   134   9.72    261      501.6
   09/14/2019 13:30     102.7     101.6       14     43.0      0.00      0.00      80.3     0.33      1012.8     1.4     ENE    58   4.0     ENE    75   9.72    261      507.3
   09/14/2019 13:20     102.6     100.9       13     41.3      0.00      0.00      80.4     0.33      1013.0     1.2     ENE    73   4.2      NE    53   9.73    261      514.8
   09/14/2019 13:10     102.8     100.9       13     41.0      0.00      0.00      80.3     0.33      1013.2     1.4     ESE   112   4.1       E    81   9.73    261      520.1
   09/14/2019 13:00     102.7     101.2       12     40.6      0.00      0.00      80.3     0.33      1013.3     0.9      NE    37   3.1     NNE    31   9.73    261      520.0
   09/14/2019 12:50     101.4      99.7       13     40.7      0.00      0.00      80.3     0.33      1013.4     1.1      NW   322   3.9     NNW   340   9.73    261      524.4
   09/14/2019 12:40     100.4      99.4       13     41.1      0.00      0.00      80.3     0.33      1013.5     1.8      NE    39   4.1      NE    50   9.73    261      524.8
   09/14/2019 12:30     100.2      99.1       14     41.3      0.00      0.00      80.3     0.32      1013.6     1.7      NE    37   3.7      NE    35   9.73    261      524.5
   09/14/2019 12:20     100.0      97.8       14     40.9      0.00      0.00      80.2     0.33      1013.7     1.0     NNE    27   3.2     NNE    17   9.73    261      525.4
   09/14/2019 12:10      98.4      97.3       14     40.7      0.00      0.00      80.3     0.33      1013.8     1.8      NW   325   3.5       N     0   9.73    261      520.7
   09/14/2019 12:00      98.3      97.5       14     41.1      0.00      0.00      80.2     0.33      1013.9     1.7       N     3   3.3      NE    49   9.73    261      517.4
   09/14/2019 11:50      97.7      96.4       15     41.5      0.00      0.00      80.3     0.33      1014.1     1.5     NNE    23   3.7       N     8   9.73    261      514.9
   09/14/2019 11:40      96.6      94.7       15     40.2      0.00      0.00      80.3     0.33      1014.2     1.5     NNE    33   3.8      NE    49   9.73    261      512.5
   09/14/2019 11:30      95.2      94.1       16     41.9      0.00      0.00      80.3     0.33      1014.3     1.3     NNE    12   3.2       N   354   9.74    261      507.3
   09/14/2019 11:20      94.2      93.3       17     42.1      0.00      0.00      80.3     0.33      1014.4     1.5       N    10   4.1       N     6   9.74    261      497.4
   09/14/2019 11:10      94.0      92.4       19     44.1      0.00      0.00      80.3     0.33      1014.5     1.3       N    10   2.8     NNW   344   9.74    261      475.7
   09/14/2019 11:00      92.7      90.6       20     44.7      0.00      0.00      80.4     0.33      1014.5     1.1     NNE    20   3.0      NE    37   9.73    261      478.6
   09/14/2019 10:50      91.0      90.1       21     44.9      0.00      0.00      80.4     0.33      1014.6     1.6     NNE    30   3.8       E    85   9.73    261      472.2
   09/14/2019 10:40      90.4      88.8       22     45.7      0.00      0.00      80.4     0.33      1014.7     0.8       N     8   2.5      NE    41   9.73    261      443.7
   09/14/2019 10:30      88.9      88.2       23     45.8      0.00      0.00      80.5     0.33      1014.7     1.2     NNE    12   3.0      NE    47   9.73    261      437.9
   09/14/2019 10:20      88.7      86.9       23     45.7      0.00      0.00      80.5     0.33      1014.8     0.4      SE   134   1.9     SSE   150   9.73    261      366.7
   09/14/2019 10:10      87.2      85.6       25     46.1      0.00      0.00      80.5     0.33      1014.8     0.8       N     0   2.4       N   355   9.74    261      355.2
   09/14/2019 10:00      86.1      85.3       26     46.8      0.00      0.00      80.5     0.33      1014.8     1.0       N     3   3.1     NNE    17   9.74    261      379.9
   09/14/2019 09:50      85.6      84.1       28     47.9      0.00      0.00      80.6     0.33      1014.8     0.7     NNW   331   2.5     ENE    59   9.74    262      346.4
   09/14/2019 09:40      84.4      82.9       30     48.6      0.00      0.00      80.6     0.33      1014.9     0.8     NNW   332   2.9      NW   312   9.74    262      337.1
   09/14/2019 09:30      82.9      81.6       31     48.7      0.00      0.00      80.6     0.33      1014.9     1.2       N   360   2.7     NNE    12   9.74    263      310.2
   09/14/2019 09:20      82.4      80.9       32     48.9      0.00      0.00      80.7     0.33      1014.9     0.8     NNW   333   2.8      NW   311   9.74    262      297.0
   09/14/2019 09:10      81.1      79.8       34     49.9      0.00      0.00      80.7     0.33      1015.0     0.6     NNE    13   1.8     NNE    28   9.74    263      284.4
   09/14/2019 09:00      80.0      78.9       36     50.4      0.00      0.00      80.8     0.33      1014.9     0.5     NNW   346   1.5     NNW   349   9.74    263      217.1
   09/14/2019 08:50      79.5      78.2       37     50.9      0.00      0.00      80.8     0.33      1014.9     0.7     NNE    17   2.0     NNE    13   9.74    265      217.0
   09/14/2019 08:40      78.2      77.3       38     50.5      0.00      0.00      80.8     0.33      1014.8     0.5       N     7   1.4       N     2   9.74    266      220.0
   09/14/2019 08:30      77.6      75.2       40     50.3      0.00      0.00      80.8     0.33      1014.8     0.1       N     9   0.8     NNW   333   9.74    266      193.7
   09/14/2019 08:20      75.4      74.2       43     50.6      0.00      0.00      80.9     0.33      1014.7     0.7     NNE    21   1.4       N     0   9.74    266      164.9
   09/14/2019 08:10      74.8      73.7       44     51.0      0.00      0.00      80.9     0.33      1014.7     0.6     NNE    19   1.7     NNE    14   9.74    266      137.0
   09/14/2019 08:00      73.8      71.0       47     51.0      0.00      0.00      80.9     0.33      1014.7     0.0      SE   136   0.6      SE   136   9.74    266      110.1
   09/14/2019 07:50      71.2      68.6       51     50.8      0.00      0.00      81.0     0.33      1014.6     0.0       N     0   0.0      SE   137   9.74    267       82.7
   09/14/2019 07:40      68.7      65.8       55     50.6      0.00      0.00      81.0     0.33      1014.7     0.0       N     0   0.0      SE   133   9.74    267       55.3
   09/14/2019 07:30      65.8      63.1       61     50.4      0.00      0.00      81.1     0.33      1014.7     0.3      SE   133   0.9      SE   133   9.74    267       28.5
   09/14/2019 07:20      63.3      61.6       63     49.6      0.00      0.00      81.1     0.33      1014.6     0.4      SE   142   0.9     SSE   148   9.75    267        2.8
   09/14/2019 07:10      61.8      61.3       62     48.3      0.00      0.00      81.1     0.33      1014.5     0.5      SE   144   1.4      SE   142   9.75    267      -17.7
   09/14/2019 07:00      61.5      60.8       61     47.6      0.00      0.00      81.1     0.33      1014.4     0.5     SSE   155   1.2     SSE   148   9.75    267      -36.3
   09/14/2019 06:50      61.3      60.7       62     47.9      0.00      0.00      81.2     0.33      1014.4     0.1     SSE   164   0.7     SSE   164   9.75    267      -41.9
   09/14/2019 06:40      61.7      60.9       64     48.9      0.00      0.00      81.2     0.33      1014.3     0.0       N     0   0.0     SSE   155   9.75    267      -46.0
   09/14/2019 06:30      61.7      61.0       64     49.1      0.00      0.00      81.2     0.33      1014.2     0.4     SSE   158   0.9     SSE   156   9.75    267      -48.0
   09/14/2019 06:20      61.6      60.9       63     48.5      0.00      0.00      81.2     0.33      1014.1     0.0     SSE   153   1.0     SSE   147   9.75    267      -49.1
   09/14/2019 06:10      61.5      61.2       66     49.9      0.00      0.00      81.3     0.33      1014.0     0.4     SSE   158   1.1     SSE   160   9.75    267      -49.7
   09/14/2019 06:00      61.7      61.0       65     49.4      0.00      0.00      81.3     0.33      1014.0     0.3     SSE   167   0.7     SSE   152   9.75    267      -50.4
   09/14/2019 05:50      62.0      61.4       64     49.4      0.00      0.00      81.3     0.33      1013.9     0.3     SSE   158   1.0     SSE   149   9.75    267      -50.4
   09/14/2019 05:40      62.0      61.5       64     49.3      0.00      0.00      81.3     0.33      1013.9     0.3     SSE   161   0.9     SSE   166   9.75    266      -50.5
   09/14/2019 05:30      62.1      61.4       62     48.4      0.00      0.00      81.4     0.33      1013.8     0.1       S   172   0.9       S   179   9.75    266      -51.4
   09/14/2019 05:20      62.8      61.8       57     47.0      0.00      0.00      81.4     0.33      1013.8     0.3     SSE   154   1.1     SSE   165   9.75    266      -52.3
   09/14/2019 05:10      62.6      62.3       54     45.7      0.00      0.00      81.4     0.33      1013.8     0.9       S   183   1.8       S   178   9.76    266      -50.9
   09/14/2019 05:00      62.8      62.3       57     46.8      0.00      0.00      81.4     0.33      1013.8     0.2       S   170   0.9     SSE   168   9.76    266      -51.6
   09/14/2019 04:50      63.4      62.4       56     47.1      0.00      0.00      81.5     0.33      1013.9     0.5       S   173   1.5     SSW   194   9.76    266      -51.2
   09/14/2019 04:40      63.9      63.1       56     47.3      0.00      0.00      81.5     0.33      1013.8     0.0     SSE   152   0.7     SSE   152   9.76    266      -51.8
   09/14/2019 04:30      64.2      63.4       55     47.3      0.00      0.00      81.5     0.33      1013.7     0.3     SSE   167   0.9     SSE   151   9.76    266      -51.0
   09/14/2019 04:20      64.5      63.9       54     47.0      0.00      0.00      81.5     0.33      1013.7     0.0       N     0   0.0     SSE   158   9.76    266      -51.2
   09/14/2019 04:10      65.1      64.2       53     47.0      0.00      0.00      81.5     0.33      1013.7     0.2     SSE   168   0.9       S   187   9.76    266      -51.0
   09/14/2019 04:00      65.6      64.7       51     46.8      0.00      0.00      81.5     0.33      1013.7     0.0       N     0   0.0     SSE   158   9.76    266      -50.9
   09/14/2019 03:50      65.5      65.0       51     46.8      0.00      0.00      81.5     0.33      1013.6     0.5     SSE   148   1.2      SE   146   9.76    266      -51.0
   09/14/2019 03:40      65.5      64.8       53     47.5      0.00      0.00      81.6     0.33      1013.6     0.7     SSE   153   1.5     SSE   149   9.76    266      -52.0
   09/14/2019 03:30      65.6      65.0       52     47.5      0.00      0.00      81.6     0.33      1013.6     0.3     SSE   161   1.2     SSE   164   9.76    265      -52.8
   09/14/2019 03:20      65.5      64.9       51     46.5      0.00      0.00      81.6     0.33      1013.7     0.7     SSE   160   1.5      SE   142   9.77    265      -52.8
   09/14/2019 03:10      65.7      65.0       49     45.8      0.00      0.00      81.6     0.33      1013.9     0.5     SSE   160   1.5     SSE   151   9.77    265      -54.4
   09/14/2019 03:00      65.7      64.9       50     46.1      0.00      0.00      81.6     0.33      1013.9     0.8     SSE   156   1.5     SSE   148   9.77    265      -55.4
   09/14/2019 02:50      66.3      65.2       50     46.5      0.00      0.00      81.7     0.33      1014.0     0.6     SSE   158   1.4     SSE   161   9.77    265      -55.3
   09/14/2019 02:40      66.3      65.6       49     46.3      0.00      0.00      81.7     0.33      1014.0     0.7       S   169   1.6     SSW   199   9.77    265      -54.8
   09/14/2019 02:30      66.6      65.7       48     46.0      0.00      0.00      81.7     0.33      1014.1     0.7     SSE   159   1.5     SSE   147   9.77    264      -55.3
   09/14/2019 02:20      66.9      66.3       47     45.4      0.00      0.00      81.7     0.33      1014.1     0.7     SSE   158   1.4     SSE   166   9.77    264      -55.5
   09/14/2019 02:10      67.3      66.4       46     45.1      0.00      0.00      81.7     0.33      1014.1     0.8     SSE   152   1.8      SE   140   9.77    264      -57.2
   09/14/2019 02:00      68.0      67.0       44     45.0      0.00      0.00      81.7     0.33      1014.1     0.6     SSE   161   1.2       S   181   9.77    264      -57.1
   09/14/2019 01:50      68.3      67.7       40     43.1      0.00      0.00      81.7     0.33      1014.1     0.7     SSW   195   1.4     SSW   211   9.78    264      -57.4
   09/14/2019 01:40      68.0      67.3       39     41.7      0.00      0.00      81.7     0.33      1014.1     0.9     SSW   192   1.8       S   189   9.78    264      -55.9
   09/14/2019 01:30      68.0      67.5       39     41.6      0.00      0.00      81.7     0.33      1014.0     0.5     SSE   163   1.1       S   184   9.78    264      -56.1
   09/14/2019 01:20      68.5      67.5       37     41.1      0.00      0.00      81.7     0.33      1013.9     0.4       S   184   1.3       S   187   9.78    264      -56.5
   09/14/2019 01:10      69.0      68.2       36     40.7      0.00      0.00      81.7     0.33      1013.9     0.0       E    98   0.6       E    97   9.78    263      -59.3
   09/14/2019 01:00      69.2      68.6       35     40.3      0.00      0.00      81.7     0.33      1013.9     1.0      SE   143   2.6      SE   135   9.78    263      -59.9
   09/14/2019 00:50      69.3      68.6       35     39.9      0.00      0.00      81.8     0.33      1013.8     0.8     SSE   158   2.3      SE   136   9.78    263      -59.6
   09/14/2019 00:40      69.5      68.2       34     39.4      0.00      0.00      81.7     0.33      1013.7     1.1     SSE   148   2.2      SE   139   9.78    263      -59.7
   09/14/2019 00:30      70.4      69.1       32     39.0      0.00      0.00      81.7     0.33      1013.6     0.8     SSE   161   1.5      SE   145   9.79    263      -58.1
   09/14/2019 00:20      70.8      70.0       30     37.8      0.00      0.00      81.7     0.33      1013.6     0.7     SSE   160   1.6     SSW   199   9.79    263      -58.1
   09/14/2019 00:10      71.2      70.5       30     37.9      0.00      0.00      81.7     0.33      1013.5     0.4       S   186   1.3     SSW   203   9.79    263      -58.4
   09/14/2019 00:00      71.7      70.8       30     38.2      0.00      0.00      81.7     0.33      1013.4     0.2     SSE   161   1.0       S   188   9.79    262      -60.0
   09/13/2019 23:50      72.5      71.3       30     38.3      0.00      0.00      81.7     0.33      1013.4     0.2     SSE   162   1.1      SE   141   9.80    262      -60.9
   09/13/2019 23:40      73.9      72.3       27     37.0      0.00      0.00      81.7     0.33      1013.4     0.5     SSE   160   1.5       S   184   9.80    262      -60.8
   09/13/2019 23:30      74.6      73.6       26     36.7      0.00      0.00      81.7     0.33      1013.4     0.3       S   185   1.0       S   170   9.80    262      -61.1
   09/13/2019 23:20      75.7      74.3       25     36.9      0.00      0.00      81.7     0.33      1013.5     1.0       S   189   1.9     SSW   196   9.80    262      -60.3
   09/13/2019 23:10      77.7      75.5       24     36.5      0.00      0.00      81.7     0.33      1013.5     0.0     SSW   192   0.8     SSW   194   9.80    262      -64.1
   09/13/2019 23:00      79.7      77.4       22     36.5      0.00      0.00      81.7     0.33      1013.5     0.4     ENE    71   1.6     ENE    68   9.81    262      -67.9
   09/13/2019 22:50      80.6      79.4       20     34.9      0.00      0.00      81.6     0.33      1013.4     0.6      SE   132   2.0     SSW   208   9.81    262      -68.8
   09/13/2019 22:40      81.2      80.2       19     34.8      0.00      0.00      81.7     0.33      1013.4     1.4     SSE   168   3.3     SSE   167   9.81    261      -70.7
   09/13/2019 22:30      82.1      80.8       19     35.1      0.00      0.00      81.6     0.33      1013.4     2.2       S   182   4.8       S   189   9.81    261      -72.2
   09/13/2019 22:20      82.3      81.7       19     35.1      0.00      0.00      81.6     0.33      1013.4     3.6     SSW   193   6.2     SSW   196   9.81    261      -74.2
   09/13/2019 22:10      82.3      81.8       19     35.6      0.00      0.00      81.6     0.33      1013.4     4.3     SSW   198   6.2     SSW   211   9.82    261      -74.2
   09/13/2019 22:00      82.8      82.0       19     36.3      0.00      0.00      81.6     0.33      1013.4     3.3     SSW   202   5.5     SSW   205   9.82    261      -74.6
   09/13/2019 21:50      82.8      82.3       20     36.8      0.00      0.00      81.6     0.33      1013.4     3.5     SSW   210   6.2      SW   228   9.82    262      -74.7
   09/13/2019 21:40      82.8      82.3       20     37.1      0.00      0.00      81.6     0.33      1013.4     4.4     SSW   202   7.3      SW   219   9.83    262      -74.9
   09/13/2019 21:30      82.7      82.3       20     37.9      0.00      0.00      81.6     0.33      1013.4     4.0     SSW   205   5.8     SSW   207   9.83    262      -74.8
   09/13/2019 21:20      82.7      82.4       21     38.9      0.00      0.00      81.6     0.33      1013.4     2.9     SSW   210   5.3       W   265   9.84    262      -75.0
   09/13/2019 21:10      83.2      82.4       22     40.5      0.00      0.00      81.5     0.33      1013.3     3.2     SSW   195   5.0     SSW   194   9.84    262      -75.8
   09/13/2019 21:00      83.2      82.8       23     41.4      0.00      0.00      81.5     0.33      1013.3     4.0     SSW   199   5.9      SW   223   9.84    262      -76.6
   09/13/2019 20:50      83.5      82.9       23     41.8      0.00      0.00      81.5     0.33      1013.2     4.0     SSW   196   7.0     WSW   248   9.85    262      -76.8
   09/13/2019 20:40      83.8      83.2       23     41.4      0.00      0.00      81.5     0.33      1013.2     4.0     SSW   203   7.6     SSW   211   9.85    262      -77.2
   09/13/2019 20:30      84.5      83.5       22     40.7      0.00      0.00      81.4     0.33      1013.1     3.4     SSW   198   6.0     SSW   208   9.86    262      -78.2
   09/13/2019 20:20      85.0      84.1       21     40.5      0.00      0.00      81.4     0.33      1013.1     3.3     SSW   202   6.6     SSW   206   9.86    261      -79.7
   09/13/2019 20:10      85.4      84.6       21     40.4      0.00      0.00      81.4     0.33      1013.0     3.7     SSW   199   6.3      SW   231   9.87    261      -80.9
   09/13/2019 20:00      85.7      85.0       20     40.1      0.00      0.00      81.3     0.33      1012.9     3.7     SSW   204   7.8     SSW   193   9.87    261      -81.4
   09/13/2019 19:50      86.0      85.2       20     39.5      0.00      0.00      81.3     0.33      1012.8     2.7     SSW   200   4.5     SSW   213   9.87    261      -81.1
   09/13/2019 19:40      86.4      85.6       19     38.9      0.00      0.00      81.2     0.33      1012.8     2.6     SSW   198   3.9     SSW   201   9.88    261      -81.8
   09/13/2019 19:30      87.2      86.1       18     38.5      0.00      0.00      81.2     0.33      1012.7     2.6     SSW   201   3.8     WSW   238   9.88    261      -83.1
   09/13/2019 19:20      88.2      86.9       18     38.4      0.00      0.00      81.2     0.33      1012.7     2.6     SSW   198   4.7      SW   228   9.89    261      -83.9
   09/13/2019 19:10      88.9      87.9       17     38.2      0.00      0.00      81.1     0.33      1012.7     2.5     SSW   204   4.4       S   179   9.89    261      -83.1
   09/13/2019 19:00      90.5      88.7       16     37.5      0.00      0.00      81.1     0.33      1012.6     2.8     SSW   203   5.8     SSW   212   9.90    261      -79.5
   09/13/2019 18:50      91.6      90.2       15     36.5      0.00      0.00      81.0     0.33      1012.6     3.6      SW   224   7.8      SW   230   9.90    261      -75.6
   09/13/2019 18:40      92.7      91.3       14     36.3      0.00      0.00      81.0     0.33      1012.5     3.9     WSW   243   6.8      SW   218   9.91    261      -66.9
   09/13/2019 18:30      93.9      92.3       14     35.9      0.00      0.00      81.0     0.33      1012.5     4.1     WSW   237   7.7      SW   234   9.91    261      -45.1
   09/13/2019 18:20      94.2      93.8       13     35.9      0.00      0.00      80.9     0.33      1012.5     4.5       W   266   8.4     WSW   254   9.92    261      -19.2
   09/13/2019 18:10      95.0      93.8       13     34.9      0.00      0.00      80.9     0.33      1012.4     6.0     WSW   238   9.2      SW   225   9.93    261       13.9
   09/13/2019 18:00      95.9      94.8       12     34.0      0.00      0.00      80.8     0.33      1012.3     5.3     WSW   239   8.8      SW   233   9.93    261       34.0
   09/13/2019 17:50      97.5      95.7       11     34.2      0.00      0.00      80.8     0.33      1012.3     5.3       W   267   9.4     WSW   255   9.94    261       37.5
   09/13/2019 17:40      97.7      96.9       11     33.2      0.00      0.00      80.8     0.33      1012.3     4.8     WSW   243   8.8     WSW   250   9.95    261       86.8
   09/13/2019 17:30      98.4      97.2       11     33.6      0.00      0.00      80.7     0.33      1012.2     6.1       W   262  10.9     WNW   290   9.95    261      111.3
   09/13/2019 17:20      99.1      98.1       11     34.3      0.00      0.00      80.7     0.33      1012.2     5.3       W   261  11.4       W   260   9.96    261      135.3
   09/13/2019 17:10      99.6      98.7       11     34.8      0.00      0.00      80.6     0.33      1012.2     4.7       W   280  11.8     WSW   244   9.97    261      161.0
   09/13/2019 17:00      99.7      98.9       11     35.9      0.00      0.00      80.6     0.33      1012.2     5.6     WSW   247  10.3      SW   230   9.97    261      185.7
   09/13/2019 16:50      99.8      99.3       12     37.0      0.00      0.00      80.5     0.33      1012.2     5.3     WSW   238   9.2      SW   228   9.98    261      203.6
   09/13/2019 16:40     100.1      98.9       12     38.6      0.00      0.00      80.4     0.33      1012.2     5.0     WSW   239   9.5     SSW   202   9.98    261      235.3
   09/13/2019 16:30     100.3      99.4       13     39.4      0.00      0.00      80.5     0.33      1012.2     5.3      SW   232  10.9     WSW   244   9.99    261      258.9
   09/13/2019 16:20     100.8      99.8       13     40.9      0.00      0.00      80.4     0.33      1012.2     5.5       W   263  10.7     SSW   192  10.00    261      278.7
   09/13/2019 16:10     100.5      99.4       14     41.5      0.00      0.00      80.3     0.33      1012.2     5.0       W   267  11.1       W   261  10.00    261      280.7
   09/13/2019 16:00     101.6      99.8       12     39.7      0.00      0.00      80.3     0.33      1012.2     6.0     SSW   211  10.6     SSW   205  10.01    261      312.9
   09/13/2019 15:50     101.6     100.4       12     39.7      0.00      0.00      80.3     0.33      1012.3     5.4     WSW   245  12.1       W   266  10.01    261      334.0
   09/13/2019 15:40     101.8     100.9       12     39.4      0.00      0.00      80.2     0.33      1012.3     5.2      SW   234   9.4     WSW   249  10.02    261      352.3
   09/13/2019 15:30     102.2     100.2       12     39.8      0.00      0.00      80.2     0.33      1012.3     6.2     SSW   210  11.1     WSW   242  10.03    261      373.3
   09/13/2019 15:20     103.6     101.6       11     38.6      0.00      0.00      80.1     0.33      1012.4     4.3      SW   229  10.3     SSW   208  10.03    261      383.0
   09/13/2019 15:10     103.2     101.4       11     38.0      0.00      0.00      80.1     0.33      1012.3     3.0     SSW   199   7.1       S   182  10.04    261      402.5
   09/13/2019 15:00     102.9     101.4       11     38.5      0.00      0.00      80.0     0.33      1012.4     4.7       S   190   9.6       S   181  10.04    261      420.6
   09/13/2019 14:50     103.6     102.4       11     38.7      0.00      0.00      80.1     0.33      1012.4     4.5       S   175  10.0     SSE   165  10.05    261      434.4
   09/13/2019 14:40     104.6     102.8       11     38.6      0.00      0.00      80.0     0.33      1012.4     4.3       S   177  10.0       S   173  10.05    261      444.7
   09/13/2019 14:30     104.9     104.2        9     34.5      0.00      0.00      80.0     0.33      1012.5     1.7       E    99   5.0     ENE    66  10.06    260      450.9
   09/13/2019 14:20     104.9     103.3        9     33.8      0.00      0.00      79.9     0.33      1012.6     1.4      NE    56   4.8      SE   127  10.06    260      460.1
   09/13/2019 14:10     105.2     104.1        9     35.3      0.00      0.00      79.9     0.33      1012.7     1.7     NNW   335   5.5      NW   305  10.06    260      472.3
   09/13/2019 14:00     105.0     103.0        9     34.7      0.00      0.00      79.9     0.33      1012.8     0.8       N   354   3.7      NE    45  10.07    261      484.9
   09/13/2019 13:50     103.6     101.7        9     32.4      0.00      0.00      79.8     0.33      1013.0     1.5       E    91   4.3       E    90  10.07    260      497.4
   09/13/2019 13:40     104.0     101.9        8     29.5      0.00      0.00      79.8     0.33      1013.1     3.0     SSE   153   6.4     SSE   159  10.07    260      507.5
   09/13/2019 13:30     104.4     103.5        8     31.2      0.00      0.00      79.8     0.33      1013.3     1.2      NE    40   3.9     NNE    18  10.08    260      511.8
   09/13/2019 13:20     103.7     102.0       10     35.2      0.00      0.00      79.8     0.33      1013.5     1.7     ESE   112   4.9       S   170  10.08    261      522.7
   09/13/2019 13:10     103.3     101.6       10     35.5      0.00      0.00      79.8     0.33      1013.7     1.7     ESE   122   5.0       E    81  10.08    261      525.6
   09/13/2019 13:00     103.0     101.6       10     36.7      0.00      0.00      79.7     0.33      1013.9     1.2     WNW   288   4.6       W   265  10.08    261      526.8
   09/13/2019 12:50     102.7     101.5       10     35.4      0.00      0.00      79.7     0.33      1014.1     2.0     ENE    74   4.6     ENE    71  10.08    261      531.8
   09/13/2019 12:40     102.5     100.7       10     35.8      0.00      0.00      79.7     0.32      1014.2     0.8       N     6   2.7     ENE    71  10.08    260      527.6
   09/13/2019 12:30     101.7     100.6       11     35.8      0.00      0.00      79.7     0.32      1014.3     1.9       N   360   4.1     NNE    30  10.08    261      526.3
   09/13/2019 12:20     101.5     100.8       10     34.4      0.00      0.00      79.7     0.32      1014.4     1.1     ENE    58   3.7     NNE    19  10.08    261      526.7
   09/13/2019 12:10     101.0      99.4       10     34.2      0.00      0.00      79.7     0.32      1014.5     1.2     WSW   242   3.0      SE   143  10.09    261      522.2
   09/13/2019 12:00     100.1      98.5       11     34.9      0.00      0.00      79.6     0.32      1014.6     1.1       E    95   4.0       E    85  10.09    260      519.3
   09/13/2019 11:50      98.9      97.5       11     34.7      0.00      0.00      79.7     0.32      1014.7     1.2      SE   125   3.7     ENE    75  10.09    261      513.8
   09/13/2019 11:40      97.8      95.4       11     33.3      0.00      0.00      79.7     0.32      1014.9     1.2      SE   137   4.1       E    90  10.09    261      511.2
   09/13/2019 11:30      96.8      95.1       12     35.5      0.00      0.00      79.7     0.33      1014.9     2.2     SSE   156   3.9     ESE   116  10.09    261      503.6
   09/13/2019 11:20      97.2      95.1       15     41.5      0.00      0.00      79.7     0.33      1014.9     1.0     NNE    31   3.1     ENE    74  10.10    261      491.4
   09/13/2019 11:10      95.2      94.6       15     40.2      0.00      0.00      79.8     0.33      1015.0     1.1       W   265   3.7      SW   214  10.09    261      482.6
   09/13/2019 11:00      94.7      93.8       15     39.6      0.00      0.00      79.8     0.33      1015.0     1.2       E    81   3.5     NNE    19  10.09    261      471.6
   09/13/2019 10:50      94.6      92.8       15     39.6      0.00      0.00      79.8     0.33      1015.1     0.6       N     7   2.3      NE    36  10.09    261      458.4
   09/13/2019 10:40      92.9      90.2       20     43.8      0.00      0.00      79.8     0.33      1015.2     0.9       E    82   2.3     NNW   330  10.09    261      446.8
   09/13/2019 10:30      90.5      89.4       27     51.2      0.00      0.00      79.8     0.33      1015.2     1.4     NNE    31   3.2     NNE    12  10.09    263      433.5
   09/13/2019 10:20      89.6      88.2       29     52.2      0.00      0.00      79.8     0.33      1015.3     1.0     NNE    22   2.5      NE    43  10.09    263      416.6
   09/13/2019 10:10      88.5      86.7       30     52.5      0.00      0.00      79.9     0.33      1015.3     0.6     NNE    25   2.3     NNW   342  10.09    263      399.0
   09/13/2019 10:00      86.8      85.1       33     53.5      0.00      0.00      79.9     0.33      1015.4     0.8      NE    42   2.3     NNE    20  10.10    263      382.5
   09/13/2019 09:50      85.3      83.7       35     53.8      0.00      0.00      80.0     0.33      1015.4     0.8      NE    39   1.9      NE    36  10.10    264      363.5
   09/13/2019 09:40      84.0      82.1       37     54.0      0.00      0.00      80.0     0.33      1015.4     1.1      NE    37   2.3     NNE    28  10.10    264      343.6
   09/13/2019 09:30      82.2      81.0       39     54.1      0.00      0.00      80.0     0.33      1015.4     1.1       N    11   2.5      NE    53  10.10    264      321.8
   09/13/2019 09:20      81.5      80.8       39     53.9      0.00      0.00      80.0     0.33      1015.5     0.6       N     7   1.8      NW   317  10.10    264      302.7
   09/13/2019 09:10      81.0      79.3       40     53.6      0.00      0.00      80.1     0.33      1015.5     0.3       N   355   1.2       W   273  10.10    265      282.2
   09/13/2019 09:00      79.5      78.3       42     53.6      0.00      0.00      80.1     0.33      1015.4     0.7     NNE    18   2.1     NNE    17  10.10    265      261.3
   09/13/2019 08:50      78.5      77.0       44     53.9      0.00      0.00      80.2     0.33      1015.4     0.3     NNW   340   1.5       N     6  10.10    267      239.9
   09/13/2019 08:40      77.2      76.3       46     54.2      0.00      0.00      80.2     0.33      1015.5     0.3     NNE    19   1.2      NE    50  10.10    268      217.9
   09/13/2019 08:30      76.4      75.4       47     54.4      0.00      0.00      80.2     0.33      1015.4     0.0     NNE    28   1.0     NNE    17  10.10    267      194.2
   09/13/2019 08:20      75.5      73.0       51     54.8      0.00      0.00      80.2     0.33      1015.5     0.0     NNE    29   0.7     NNE    28  10.10    268      166.2
   09/13/2019 08:10      73.0      71.6       54     54.5      0.00      0.00      80.3     0.33      1015.5     0.3       E    92   1.0     NNE    30  10.10    269      137.8
   09/13/2019 08:00      72.0      70.6       55     54.4      0.00      0.00      80.4     0.33      1015.3     0.0       E    82   0.5     ENE    58  10.10    269      109.9
   09/13/2019 07:50      70.7      68.3       59     54.5      0.00      0.00      80.3     0.33      1015.3     0.0      NE    51   0.6      NE    51  10.10    270       81.7
   09/13/2019 07:40      68.3      64.2       68     55.1      0.00      0.00      80.3     0.33      1015.4     0.0      NE    38   0.3      NE    38  10.10    271       53.1
   09/13/2019 07:30      64.3      61.5       77     55.2      0.00      0.00      80.4     0.33      1015.3     0.0       N     0   0.0     SSE   150  10.10    271       27.9
   09/13/2019 07:20      61.7      60.6       80     54.8      0.00      0.00      80.4     0.33      1015.3     0.2     SSE   156   0.6     SSE   150  10.10    270       10.3
   09/13/2019 07:10      61.0      60.4       80     54.5      0.00      0.00      80.4     0.33      1015.3     0.1     SSE   158   0.7     SSE   158  10.10    263       -4.2
   09/13/2019 07:00      60.7      59.9       82     54.8      0.00      0.00      80.4     0.33      1015.3     0.0      SE   130   0.5      SE   130  10.10    261      -15.8
   09/13/2019 06:50      60.0      59.3       83     54.4      0.00      0.00      80.5     0.33      1015.3     0.3     SSE   168   0.9       S   178  10.10    252      -27.9
   09/13/2019 06:40      60.0      59.4       83     54.3      0.00      0.00      80.5     0.33      1015.2     0.2     SSE   164   0.8     SSW   201  10.10    252      -33.2
   09/13/2019 06:30      60.0      59.6       83     54.7      0.00      0.00      80.6     0.33      1015.1     0.6     SSE   151   1.2      SE   140  10.10    232      -35.5
   09/13/2019 06:20      60.1      59.5       84     54.8      0.00      0.00      80.6     0.33      1015.0     0.3       S   178   0.9       S   190  10.10    250      -37.2
   09/13/2019 06:10      60.1      59.4       83     54.7      0.00      0.00      80.6     0.33      1014.9     0.5     SSE   159   1.2     SSW   194  10.10    222      -41.0
   09/13/2019 06:00      60.4      59.7       83     54.8      0.00      0.00      80.6     0.33      1014.9     0.3     SSE   153   1.0     SSW   202  10.11    245      -42.3
   09/13/2019 05:50      60.6      59.7       81     54.3      0.00      0.00      80.7     0.33      1014.8     0.2       S   172   1.0     SSE   168  10.11    260      -43.6
   09/13/2019 05:40      60.5      60.0       82     54.6      0.00      0.00      80.7     0.33      1014.8     0.3       S   175   0.7       S   182  10.11    260      -42.4
   09/13/2019 05:30      60.7      60.0       82     55.0      0.00      0.00      80.7     0.33      1014.7     0.5       S   176   1.2       S   179  10.11    260      -43.0
   09/13/2019 05:20      60.9      60.4       82     55.1      0.00      0.00      80.7     0.33      1014.7     0.4     SSW   207   1.6     SSW   213  10.11    255      -42.4
   09/13/2019 05:10      61.2      60.6       82     55.2      0.00      0.00      80.7     0.33      1014.6     0.0       N     0   0.0      SE   139  10.11    233      -45.1
   09/13/2019 05:00      61.7      60.8       81     55.5      0.00      0.00      80.7     0.33      1014.6     0.2     SSE   151   0.8     SSE   151  10.11    254      -45.4
   09/13/2019 04:50      61.8      61.3       81     55.6      0.00      0.00      80.8     0.33      1014.5     0.0       N     0   0.0     SSE   151  10.11    258      -46.1
   09/13/2019 04:40      62.4      61.4       80     55.4      0.00      0.00      80.8     0.33      1014.6     0.2     SSE   151   0.7     SSE   151  10.11    258      -47.4
   09/13/2019 04:30      62.2      61.7       79     55.2      0.00      0.00      80.8     0.33      1014.6     0.3       S   177   0.7       S   185  10.12    261      -48.0
   09/13/2019 04:20      62.0      61.3       78     54.7      0.00      0.00      80.8     0.33      1014.6     0.1     SSE   167   0.6     SSE   163  10.11    264      -49.1
   09/13/2019 04:10      62.5      61.4       77     54.5      0.00      0.00      80.9     0.33      1014.7     0.0     SSE   163   0.7     SSE   152  10.12    262      -49.9
   09/13/2019 04:00      62.7      62.0       77     55.1      0.00      0.00      80.9     0.33      1014.7     0.4     SSE   158   0.9     SSE   153  10.12    262      -49.3
   09/13/2019 03:50      62.7      62.2       76     54.8      0.00      0.00      80.9     0.33      1014.7     0.2       S   190   0.9     SSW   193  10.12    264      -49.9
   09/13/2019 03:40      63.3      62.4       74     54.2      0.00      0.00      80.9     0.33      1014.8     0.0      SE   132   0.4      SE   132  10.12    266      -50.9
   09/13/2019 03:30      63.2      62.7       74     54.5      0.00      0.00      80.9     0.33      1014.8     0.5       S   185   1.3      SW   218  10.12    268      -50.7
   09/13/2019 03:20      63.3      62.8       72     53.8      0.00      0.00      81.0     0.33      1014.8     0.0      SE   143   1.1     SSE   147  10.12    265      -52.5
   09/13/2019 03:10      63.2      62.4       73     54.0      0.00      0.00      80.9     0.33      1014.9     1.2      SE   142   1.8      SE   141  10.12    269      -53.3
   09/13/2019 03:00      63.3      62.7       76     55.2      0.00      0.00      81.0     0.33      1015.0     0.6     SSE   151   1.2      SE   140  10.12    266      -53.5
   09/13/2019 02:50      63.8      63.0       78     56.5      0.00      0.00      81.0     0.33      1015.1     0.5     SSE   151   1.4      SE   130  10.12    264      -53.5
   09/13/2019 02:40      64.1      63.3       77     56.2      0.00      0.00      81.0     0.33      1015.2     0.7     SSE   157   1.6      SE   130  10.12    263      -53.4
   09/13/2019 02:30      64.3      63.7       76     56.3      0.00      0.00      81.0     0.33      1015.2     0.6     SSE   154   1.4      SE   139  10.13    264      -53.2
   09/13/2019 02:20      64.4      63.8       74     55.8      0.00      0.00      81.0     0.33      1015.2     0.8     SSE   155   1.5     SSE   151  10.13    266      -53.8
   09/13/2019 02:10      64.5      64.1       73     55.6      0.00      0.00      81.1     0.33      1015.3     0.8     SSE   147   1.2      SE   146  10.13    266      -54.0
   09/13/2019 02:00      65.5      64.1       72     55.3      0.00      0.00      81.0     0.33      1015.4     0.8     SSE   158   2.0      SE   136  10.13    267      -53.5
   09/13/2019 01:50      65.3      64.7       70     55.2      0.00      0.00      81.1     0.33      1015.4     0.4       S   173   1.1       S   189  10.13    266      -52.5
   09/13/2019 01:40      65.1      64.5       70     54.6      0.00      0.00      81.0     0.33      1015.3     0.6       S   179   1.9     SSW   205  10.13    266      -53.5
   09/13/2019 01:30      65.4      64.5       67     53.7      0.00      0.00      81.1     0.33      1015.2     0.4     SSE   167   1.3       S   180  10.13    267      -54.5
   09/13/2019 01:20      65.6      65.0       67     53.9      0.00      0.00      81.1     0.33      1015.2     0.5     SSE   166   1.1     SSE   167  10.13    267      -54.0
   09/13/2019 01:10      66.0      65.2       65     53.6      0.00      0.00      81.1     0.33      1015.2     0.3     SSE   163   0.9       S   174  10.14    267      -54.6
   09/13/2019 01:00      66.5      65.6       64     53.3      0.00      0.00      81.1     0.33      1015.2     0.5     SSE   156   1.0     SSE   156  10.14    267      -55.1
   09/13/2019 00:50      66.5      66.0       63     53.4      0.00      0.00      81.1     0.33      1015.1     0.3     SSW   196   0.9     SSW   200  10.14    267      -53.7
   09/13/2019 00:40      67.0      66.1       61     52.7      0.00      0.00      81.1     0.33      1015.0     0.2     SSW   205   0.9      SW   217  10.14    267      -55.9
   09/13/2019 00:30      67.2      66.7       60     52.7      0.00      0.00      81.1     0.33      1014.9     0.2     SSE   162   1.0     SSE   164  10.14    267      -56.1
   09/13/2019 00:20      67.1      66.5       59     52.1      0.00      0.00      81.1     0.33      1014.9     0.4     SSE   157   1.0     SSE   157  10.14    267      -56.6
   09/13/2019 00:10      67.1      66.5       58     51.3      0.00      0.00      81.1     0.33      1014.9     0.6     SSE   153   1.2     SSE   154  10.14    266      -56.7
   09/13/2019 00:00      67.1      66.4       57     50.8      0.00      0.00      81.1     0.33      1014.9     0.4       S   170   1.1       S   187  10.14    266      -57.2
   09/12/2019 23:50      67.7      66.7       55     50.6      0.00      0.00      81.1     0.33      1014.9     0.6     SSE   160   1.4     SSE   148  10.14    266      -58.6
   09/12/2019 23:40      68.2      67.3       54     50.6      0.00      0.00      81.1     0.33      1014.9     0.9     SSE   150   1.6      SE   141  10.15    266      -57.8
   09/12/2019 23:30      68.6      67.8       53     50.4      0.00      0.00      81.1     0.33      1014.8     0.3     SSE   167   0.9       S   177  10.15    266      -57.5
   09/12/2019 23:20      68.6      68.2       53     50.8      0.00      0.00      81.1     0.33      1014.8     0.5     SSE   152   1.0     SSE   150  10.15    266      -58.8
   09/12/2019 23:10      69.1      68.2       53     50.8      0.00      0.00      81.1     0.33      1014.8     0.8     SSE   155   1.9     SSE   168  10.15    266      -59.5
   09/12/2019 23:00      69.9      68.8       51     50.5      0.00      0.00      81.1     0.33      1014.8     0.7     SSE   160   1.7     SSW   200  10.15    266      -59.6
   09/12/2019 22:50      70.5      69.6       52     51.5      0.00      0.00      81.1     0.33      1014.9     0.3       S   187   1.4       S   191  10.15    266      -59.3
   09/12/2019 22:40      70.5      69.9       52     51.5      0.00      0.00      81.0     0.33      1014.9     0.4       S   171   1.9       S   182  10.16    266      -60.5
   09/12/2019 22:30      70.8      69.7       53     52.2      0.00      0.00      81.0     0.33      1014.9     0.8     SSE   168   1.8     SSW   195  10.16    266      -61.0
   09/12/2019 22:20      71.6      70.5       52     52.1      0.00      0.00      81.0     0.33      1014.9     0.4      SE   145   1.4      SE   134  10.16    266      -62.4
   09/12/2019 22:10      71.8      71.2       49     51.3      0.00      0.00      81.0     0.33      1014.9     1.3     SSW   195   2.5       S   183  10.16    266      -61.3
   09/12/2019 22:00      72.8      71.5       49     52.0      0.00      0.00      81.0     0.33      1014.9     0.3       S   176   1.1     SSE   167  10.16    266      -62.9
   09/12/2019 21:50      73.1      72.6       49     52.4      0.00      0.00      81.0     0.33      1014.9     0.6       S   185   2.1       S   180  10.17    266      -62.2
   09/12/2019 21:40      74.4      72.9       48     52.7      0.00      0.00      80.9     0.33      1014.9     0.4     SSE   151   1.2       S   178  10.17    266      -64.2
   09/12/2019 21:30      75.1      74.2       47     53.1      0.00      0.00      80.9     0.33      1014.9     0.0       S   180   0.6     SSW   202  10.17    266      -64.8
   09/12/2019 21:20      77.4      74.7       45     52.9      0.00      0.00      80.9     0.33      1014.8     0.5     ESE   117   1.3      SE   125  10.17    265      -68.5
   09/12/2019 21:10      78.2      77.3       42     52.6      0.00      0.00      80.9     0.33      1014.8     0.6      SE   130   2.2     ESE   104  10.17    265      -71.8
   09/12/2019 21:00      78.7      77.8       43     53.8      0.00      0.00      80.8     0.33      1014.7     1.8       S   175   4.1       S   186  10.17    265      -72.6
   09/12/2019 20:50      78.8      78.4       44     54.9      0.00      0.00      80.9     0.33      1014.7     2.1     SSW   200   3.6     SSW   197  10.18    265      -72.3
   09/12/2019 20:40      79.3      78.5       45     55.6      0.00      0.00      80.8     0.33      1014.7     1.9     SSW   198   3.8     SSW   195  10.18    265      -70.7
   09/12/2019 20:30      79.7      79.0       45     56.1      0.00      0.00      80.8     0.33      1014.6     2.0     SSW   195   2.8     SSW   197  10.18    265      -71.5
   09/12/2019 20:20      80.1      79.4       44     56.2      0.00      0.00      80.8     0.33      1014.6     1.2     SSW   196   2.9      SW   228  10.18    265      -72.0
   09/12/2019 20:10      80.9      79.9       44     56.2      0.00      0.00      80.8     0.33      1014.5     1.9     SSW   196   4.2      SW   216  10.19    265      -71.1
   09/12/2019 20:00      82.3      80.7       41     55.5      0.00      0.00      80.7     0.33      1014.4     0.6     SSW   212   2.3      SW   224  10.19    264      -73.1
   09/12/2019 19:50      82.5      81.9       38     54.5      0.00      0.00      80.7     0.33      1014.1     1.6      SW   230   4.2     WSW   242  10.19    264      -74.5
   09/12/2019 19:40      83.8      81.8       35     52.5      0.00      0.00      80.7     0.33      1014.1     2.0      SW   236   3.3     SSW   205  10.19    264      -74.9
   09/12/2019 19:30      84.5      83.5       34     52.7      0.00      0.00      80.6     0.33      1014.1     1.5     WNW   302   3.8      NW   308  10.20    264      -77.6
   09/12/2019 19:20      85.3      84.3       33     52.8      0.00      0.00      80.6     0.33      1013.9     1.4     WNW   299   3.0     WNW   298  10.20    264      -77.8
   09/12/2019 19:10      86.0      85.1       33     52.9      0.00      0.00      80.6     0.33      1013.8     1.8     WNW   295   5.1       W   276  10.20    264      -76.4
   09/12/2019 19:00      87.0      85.7       32     53.3      0.00      0.00      80.5     0.33      1013.8     2.4     WNW   303   6.0       N   351  10.20    264      -73.1
   09/12/2019 18:50      88.1      86.7       32     54.1      0.00      0.00      80.4     0.33      1013.6     2.0      NW   314   4.4     WNW   287  10.21    263      -68.3
   09/12/2019 18:40      88.9      87.7       32     54.9      0.00      0.00      80.4     0.33      1013.5     2.0     WNW   301   5.4      NW   306  10.21    263      -55.3
   09/12/2019 18:30      90.4      88.6       32     55.6      0.00      0.00      80.4     0.33      1013.5     2.7      NW   310   6.7     WNW   286  10.21    263      -25.5
   09/12/2019 18:20      92.6      90.2       28     53.6      0.00      0.00      80.4     0.33      1013.4     3.1     WNW   300   7.2     NNW   342  10.22    263       -6.0
   09/12/2019 18:10      93.2      92.2       16     39.4      0.00      0.00      80.3     0.33      1013.3     3.8      SW   236   8.0      SW   222  10.22    261       16.1
   09/12/2019 18:00      94.1      92.9       15     38.1      0.00      0.00      80.3     0.33      1013.2     4.7     WSW   242   8.1       W   267  10.23    261       41.1
   09/12/2019 17:50      94.7      93.8       14     37.4      0.00      0.00      80.2     0.33      1013.1     4.5     WSW   240   8.0     WNW   299  10.23    261       66.0
   09/12/2019 17:40      94.7      94.0       14     37.0      0.00      0.00      80.2     0.33      1013.1     4.0      SW   225   6.6     SSW   206  10.23    261       91.6
   09/12/2019 17:30      95.0      94.2       14     37.6      0.00      0.00      80.1     0.33      1013.0     3.8     SSW   214   6.7     SSW   202  10.24    261      117.1
   09/12/2019 17:20      95.4      94.6       14     37.9      0.00      0.00      80.1     0.33      1013.0     4.2     SSW   211   7.0       S   174  10.24    261      141.3
   09/12/2019 17:10      95.5      94.8       14     37.6      0.00      0.00      80.1     0.33      1013.1     3.5     SSW   199   6.1      SW   228  10.25    261      165.0
   09/12/2019 17:00      95.4      94.6       14     38.3      0.00      0.00      80.0     0.33      1013.1     3.3       S   181   7.0     SSW   197  10.25    261      190.1
   09/12/2019 16:50      96.0      94.9       14     38.3      0.00      0.00      80.0     0.33      1013.1     4.3       S   177   7.7     SSE   167  10.26    261      214.4
   09/12/2019 16:40      96.2      95.1       13     36.6      0.00      0.00      80.0     0.33      1013.2     3.6     SSE   165   6.6       E    82  10.26    261      237.1
   09/12/2019 16:30      96.1      95.2       12     35.5      0.00      0.00      79.9     0.33      1013.2     3.9       S   186   8.4       S   171  10.27    261      261.7
   09/12/2019 16:20      95.8      95.1       12     35.7      0.00      0.00      79.9     0.33      1013.3     4.4       S   179   7.8     SSW   198  10.28    261      284.6
   09/12/2019 16:10      95.9      94.9       13     36.1      0.00      0.00      79.8     0.33      1013.4     4.2       S   178   8.0       S   187  10.28    261      304.1
   09/12/2019 16:00      96.6      95.1       13     37.0      0.00      0.00      79.8     0.33      1013.5     5.8     SSW   194   9.6      SW   227  10.28    261      325.7
   09/12/2019 15:50      96.8      96.0       12     36.4      0.00      0.00      79.8     0.33      1013.5     4.3       S   182   9.1     SSE   152  10.29    261      344.2
   09/12/2019 15:40      97.6      96.2       12     35.3      0.00      0.00      79.7     0.33      1013.6     4.2     SSW   203   8.7     SSW   197  10.29    261      359.9
   09/12/2019 15:30      96.8      96.0       12     35.3      0.00      0.00      79.7     0.33      1013.7     4.4     SSW   213   9.8      SW   218  10.30    261      380.7
   09/12/2019 15:20      98.0      95.9       12     35.4      0.00      0.00      79.6     0.33      1013.8     4.5       S   190  10.1     SSE   158  10.30    261      398.1
   09/12/2019 15:10      98.7      96.9       12     35.4      0.00      0.00      79.6     0.33      1013.9     3.7       S   190   8.9     SSW   204  10.31    262      412.5
   09/12/2019 15:00      98.8      96.9       11     34.4      0.00      0.00      79.6     0.33      1014.1     1.7       W   269   6.9     SSW   192  10.31    261      422.4
   09/12/2019 14:50      98.6      97.6       11     35.3      0.00      0.00      79.5     0.33      1014.2     2.7     ENE    62   6.1     ENE    79  10.31    261      438.2
   09/12/2019 14:40      98.5      96.2       12     35.2      0.00      0.00      79.5     0.33      1014.3     2.0       S   178   4.9      SW   226  10.32    261      456.1
   09/12/2019 14:30      98.2      96.5       12     36.2      0.00      0.00      79.5     0.33      1014.4     3.4     SSE   163   7.3     SSW   210  10.32    261      470.3
   09/12/2019 14:20      98.1      95.7       13     37.5      0.00      0.00      79.5     0.33      1014.5     2.5       E    97   6.7      SE   140  10.32    261      482.3
   09/12/2019 14:10      97.7      96.3       13     38.5      0.00      0.00      79.4     0.33      1014.7     2.8      SE   142   7.0     SSE   160  10.32    261      496.1
   09/12/2019 14:00      97.7      96.2       14     39.1      0.00      0.00      79.4     0.33      1014.8     2.6      SE   132   6.0     ESE   120  10.32    261      506.8
   09/12/2019 13:50      96.8      95.9       15     40.4      0.00      0.00      79.3     0.33      1014.9     2.8     ENE    71   5.9     SSE   155  10.32    261      512.9
   09/12/2019 13:40      96.9      96.0       16     42.2      0.00      0.00      79.3     0.33      1015.1     2.8      NE    52   5.7      NE    45  10.32    262      517.3
   09/12/2019 13:30      96.7      95.9       16     42.9      0.00      0.00      79.2     0.33      1015.3     2.3     ENE    57   5.6     NNE    12  10.32    262      527.5
   09/12/2019 13:20      96.5      95.1       16     42.0      0.00      0.00      79.3     0.33      1015.4     2.5     ENE    66   4.9     ESE   122  10.32    261      534.8
   09/12/2019 13:10      96.3      94.9       16     42.3      0.00      0.00      79.2     0.33      1015.5     3.0       E    95   7.5      SE   128  10.14    262      539.3
   09/12/2019 13:00      96.0      95.4       15     40.4      0.00      0.00      79.3     0.33      1015.6     2.4      NE    49   4.9     ENE    74  10.14    262      539.1
   09/12/2019 12:50      96.2      94.9       15     40.7      0.00      0.00      79.2     0.32      1015.7     2.3      NE    45   5.6      NE    52  10.15    262      538.2
   09/12/2019 12:40      95.4      94.1       17     43.6      0.00      0.00      79.2     0.32      1015.7     2.2     ENE    66   5.1      NE    48  10.15    262      542.7
   09/12/2019 12:30      94.6      93.1       21     47.3      0.00      0.00      79.3     0.32      1015.8     2.3       E    85   5.7     ESE   116  10.15    263      544.5
   09/12/2019 12:20      93.8      92.4       22     48.6      0.00      0.00      79.2     0.32      1015.8     1.8     ENE    74   3.9       E    98  10.15    262      540.1
   09/12/2019 12:10      92.5      91.8       22     47.2      0.00      0.00      79.2     0.32      1015.9     2.3      NE    47   4.6      NE    44  10.15    262      534.2
   09/12/2019 12:00      92.2      90.9       22     47.8      0.00      0.00      79.2     0.32      1016.0     1.9      NE    46   4.0      NE    53  10.15    263      531.4
   09/12/2019 11:50      91.1      90.0       23     47.7      0.00      0.00      79.2     0.32      1016.0     2.1      NE    41   4.1     NNE    31  10.15    263      523.7
   09/12/2019 11:40      90.9      89.7       24     48.1      0.00      0.00      79.2     0.33      1016.1     2.2      NE    38   4.3     ENE    67  10.15    263      517.6
   09/12/2019 11:30      90.4      89.6       25     49.5      0.00      0.00      79.2     0.33      1016.2     2.1     NNE    24   4.4      NE    35  10.15    263      509.5
   09/12/2019 11:20      90.0      87.8       28     51.7      0.00      0.00      79.2     0.33      1016.2     1.4     ENE    58   3.8     ENE    75  10.15    263      500.7
   09/12/2019 11:10      88.0      87.3       29     51.9      0.00      0.00      79.3     0.33      1016.3     2.1     NNE    22   5.1     NNE    14  10.15    264      491.1
   09/12/2019 11:00      87.9      86.5       31     53.2      0.00      0.00      79.3     0.33      1016.3     1.5      NE    53   3.7       E    92  10.15    264      481.6
   09/12/2019 10:50      86.6      85.3       34     54.3      0.00      0.00      79.4     0.33      1016.3     1.7     ESE   110   4.6       E    87  10.15    264      471.7
   09/12/2019 10:40      85.8      83.6       37     55.7      0.00      0.00      79.4     0.33      1016.5     1.2      SE   138   3.1      SE   124  10.15    264      456.9
   09/12/2019 10:30      84.0      82.0       42     56.9      0.00      0.00      79.4     0.33      1016.6     1.3     NNE    27   3.5      NE    36  10.15    264      439.5
   09/12/2019 10:20      82.7      82.0       42     57.2      0.00      0.00      79.4     0.33      1016.6     1.5     NNE    12   2.8     NNE    13  10.15    265      423.0
   09/12/2019 10:10      82.6      81.4       43     57.3      0.00      0.00      79.4     0.33      1016.5     1.0     NNE    31   2.7     NNE    26  10.15    265      405.6
   09/12/2019 10:00      81.5      79.6       45     57.1      0.00      0.00      79.4     0.33      1016.5     0.9     ENE    71   3.2     ESE   113  10.15    265      385.7
   09/12/2019 09:50      80.0      77.8       47     57.4      0.00      0.00      79.5     0.33      1016.5     0.9     ENE    64   3.5     ENE    63  10.15    265      367.8
   09/12/2019 09:40      78.5      77.6       49     57.5      0.00      0.00      79.5     0.33      1016.5     1.3       N   356   3.5     NNE    21  10.15    266      347.0
   09/12/2019 09:30      77.8      76.2       52     57.8      0.00      0.00      79.5     0.33      1016.4     0.7     NNW   335   1.8      NW   326  10.15    266      325.7
   09/12/2019 09:20      76.5      74.2       55     58.0      0.00      0.00      79.6     0.33      1016.4     0.6       N     8   1.8       N     8  10.15    266      306.0
   09/12/2019 09:10      75.3      73.8       57     58.0      0.00      0.00      79.6     0.33      1016.3     0.9     NNW   338   3.2       N     2  10.15    267      285.5
   09/12/2019 09:00      75.4      73.1       57     58.2      0.00      0.00      79.7     0.33      1016.3     0.3      NE    42   2.1       N   355  10.15    267      264.2
   09/12/2019 08:50      73.3      72.6       60     58.3      0.00      0.00      79.7     0.33      1016.3     0.6       N    10   1.8       N     0  10.15    269      241.3
   09/12/2019 08:40      72.9      72.2       61     58.3      0.00      0.00      79.7     0.33      1016.3     0.7      NE    41   2.3     NNW   346  10.16    268      218.3
   09/12/2019 08:30      72.6      71.4       62     57.9      0.00      0.00      79.8     0.33      1016.2     0.4     ENE    76   2.0     NNE    14  10.16    293      193.1
   09/12/2019 08:20      71.8      69.6       64     57.7      0.00      0.00      79.8     0.33      1016.2     0.2     ENE    68   1.3     ENE    63  10.16    304      166.1
   09/12/2019 08:10      69.8      67.6       67     57.4      0.00      0.00      79.8     0.33      1016.2     0.5       E    90   1.4       E    98  10.16    311      157.7
   09/12/2019 08:00      67.8      66.5       71     57.5      0.00      0.00      79.9     0.33      1016.2     0.6       N   350   1.9       W   279  10.16    296      149.1
   09/12/2019 07:50      66.5      63.3       80     58.4      0.00      0.00      79.9     0.33      1016.2     0.0       W   273   0.5       W   273  10.16    335      122.5
   09/12/2019 07:40      63.5      60.4       87     57.7      0.00      0.00      79.9     0.33      1016.2     0.0       N     0   0.0      SE   142  10.16    352      116.6
   09/12/2019 07:30      60.4      58.5       89     56.1      0.00      0.00      80.0     0.33      1016.1     0.0       N     0   0.0      SE   142  10.16    354      108.8
   09/12/2019 07:20      58.6      58.0       90     55.1      0.00      0.00      80.0     0.33      1015.9     0.0     SSE   151   0.0     SSE   151  10.16    353       75.2
   09/12/2019 07:10      58.3      57.9       90     55.2      0.00      0.00      80.0     0.33      1015.9     0.2     SSE   155   0.7     SSE   151  10.16    350       17.9
   09/12/2019 07:00      58.2      57.1       90     54.6      0.00      0.00      80.0     0.33      1015.9     0.0       S   185   0.5       S   190  10.16    346       -4.9
   09/12/2019 06:50      57.6      57.2       90     54.4      0.00      0.00      80.1     0.33      1015.9     0.2      SE   145   0.7      SE   141  10.16    338      -15.0
   09/12/2019 06:40      57.7      57.2       90     54.4      0.00      0.00      80.1     0.33      1015.9     0.3     SSE   147   1.4     SSE   154  10.16    333      -19.5
   09/12/2019 06:30      57.9      57.3       89     54.5      0.00      0.00      80.1     0.33      1015.9     0.7     SSE   156   1.2     SSE   160  10.16    328      -22.1
   09/12/2019 06:20      57.9      57.4       89     54.4      0.00      0.00      80.2     0.33      1015.9     0.6     SSE   167   1.2       S   169  10.16    325      -23.1
   09/12/2019 06:10      57.8      57.4       89     54.5      0.00      0.00      80.2     0.33      1015.8     0.0     SSE   163   0.5     SSE   164  10.16    318      -23.2
   09/12/2019 06:00      57.9      57.4       89     54.4      0.00      0.00      80.2     0.33      1015.9     0.3     SSE   161   1.6      SE   143  10.16    312      -23.7
   09/12/2019 05:50      57.8      57.4       89     54.3      0.00      0.00      80.2     0.33      1015.9     0.4      SE   145   1.2      SE   146  10.16    306      -24.5
   09/12/2019 05:40      57.9      57.3       89     54.2      0.00      0.00      80.2     0.33      1015.9     0.4     SSE   164   1.4       W   262  10.16    297      -24.6
   09/12/2019 05:30      58.5      57.5       88     54.5      0.00      0.00      80.3     0.33      1015.8     0.3      SE   141   1.0      SE   141  10.16    287      -24.7
   09/12/2019 05:20      58.6      58.0       89     54.9      0.00      0.00      80.3     0.33      1015.9     0.6     SSE   162   1.0     SSE   161  10.16    270      -24.6
   09/12/2019 05:10      58.4      57.8       88     54.5      0.00      0.00      80.3     0.33      1015.9     0.3       S   173   1.4     SSW   199  10.17    256      -24.8
   09/12/2019 05:00      58.3      57.9       88     54.6      0.00      0.00      80.3     0.33      1015.8     0.3     SSW   200   1.0     SSW   203  10.17    250      -24.7
   09/12/2019 04:50      58.3      58.0       88     54.5      0.00      0.00      80.3     0.33      1015.7     0.3     SSE   165   1.1      SE   146  10.17    241      -25.4
   09/12/2019 04:40      58.5      58.0       87     54.4      0.00      0.00      80.4     0.33      1015.7     0.0      SE   136   0.4      SE   136  10.17    238      -26.2
   09/12/2019 04:30      58.9      58.1       87     54.6      0.00      0.00      80.4     0.33      1015.6     0.5      SE   143   1.5     SSE   151  10.17    232      -26.6
   09/12/2019 04:20      59.1      58.6       87     55.0      0.00      0.00      80.4     0.33      1015.5     0.2     SSE   155   1.0      SE   126  10.17    229      -26.8
   09/12/2019 04:10      59.3      58.6       87     54.9      0.00      0.00      80.4     0.33      1015.5     0.5     SSE   153   1.8      SE   142  10.17    225      -27.5
   09/12/2019 04:00      59.2      58.6       86     54.7      0.00      0.00      80.5     0.33      1015.5     0.3     SSE   164   1.2      SE   142  10.17    221      -29.1
   09/12/2019 03:50      59.3      58.8       86     54.7      0.00      0.00      80.5     0.33      1015.5     1.0     SSW   211   2.2      SW   222  10.17    217      -29.4
   09/12/2019 03:40      59.4      58.8       86     54.7      0.00      0.00      80.5     0.33      1015.5     0.4       S   172   1.6      SW   219  10.17    219      -31.1
   09/12/2019 03:30      59.7      59.1       85     54.9      0.00      0.00      80.5     0.33      1015.5     0.3     SSE   164   1.1      SE   145  10.17    216      -32.3
   09/12/2019 03:20      60.0      59.4       85     55.1      0.00      0.00      80.6     0.33      1015.5     0.5     SSE   161   1.2     SSE   153  10.17    215      -32.8
   09/12/2019 03:10      60.1      59.5       84     55.1      0.00      0.00      80.5     0.33      1015.5     0.1     SSE   152   0.8     SSE   150  10.17    215      -35.3
   09/12/2019 03:00      60.3      59.7       84     55.1      0.00      0.00      80.6     0.33      1015.4     0.0      SE   145   0.2      SE   145  10.17    215      -39.1
   09/12/2019 02:50      60.6      59.9       84     55.4      0.00      0.00      80.6     0.33      1015.3     0.2     SSE   155   0.8      SE   145  10.17    216      -42.1
   09/12/2019 02:40      60.8      60.2       84     55.4      0.00      0.00      80.6     0.33      1015.3     0.3     SSE   157   1.0      SE   141  10.17    224      -43.7
   09/12/2019 02:30      61.0      60.5       84     55.7      0.00      0.00      80.6     0.33      1015.3     0.0       N     0   0.0     SSE   149  10.17    232      -45.7
   09/12/2019 02:20      60.9      60.4       83     55.6      0.00      0.00      80.7     0.33      1015.4     0.2     SSE   158   1.0     SSE   167  10.17    230      -48.3
   09/12/2019 02:10      60.7      60.3       83     55.2      0.00      0.00      80.7     0.33      1015.4     0.3     SSE   161   1.0     SSE   164  10.17    254      -50.3
   09/12/2019 02:00      60.8      60.3       82     54.8      0.00      0.00      80.7     0.33      1015.3     0.2     SSE   158   1.0     SSE   148  10.18    234      -52.2
   09/12/2019 01:50      61.3      60.6       81     55.0      0.00      0.00      80.7     0.33      1015.3     0.2     SSE   156   0.7     SSE   166  10.18    257      -52.2
   09/12/2019 01:40      61.7      61.0       81     55.3      0.00      0.00      80.7     0.33      1015.3     0.5     SSE   150   1.1      SE   139  10.18    252      -51.9
   09/12/2019 01:30      61.9      61.3       81     55.7      0.00      0.00      80.7     0.33      1015.2     0.8       S   172   1.4       S   169  10.18    266      -51.4
   09/12/2019 01:20      61.9      61.2       80     55.1      0.00      0.00      80.7     0.33      1015.2     0.4     SSE   156   1.2      SE   145  10.18    261      -53.0
   09/12/2019 01:10      62.2      61.6       80     55.6      0.00      0.00      80.7     0.33      1015.2     0.6       S   170   1.3       S   184  10.18    269      -53.0
   09/12/2019 01:00      62.4      61.8       80     55.9      0.00      0.00      80.8     0.33      1015.2     0.2     SSE   146   1.1      SE   143  10.18    269      -53.2
   09/12/2019 00:50      62.8      62.2       80     56.1      0.00      0.00      80.8     0.33      1015.2     0.4     SSE   158   1.3      SE   142  10.18    267      -53.7
   09/12/2019 00:40      62.9      62.3       80     56.5      0.00      0.00      80.8     0.33      1015.2     0.5       S   170   1.2       S   184  10.18    268      -53.5
   09/12/2019 00:30      62.7      62.2       79     55.8      0.00      0.00      80.8     0.33      1015.3     0.1     SSE   163   0.8       S   171  10.18    262      -54.7
   09/12/2019 00:20      63.2      62.4       78     55.7      0.00      0.00      80.8     0.33      1015.3     0.7     SSE   146   1.5      SE   139  10.18    270      -55.3
   09/12/2019 00:10      63.3      62.7       77     55.7      0.00      0.00      80.8     0.33      1015.3     0.3     SSW   192   0.9      SW   223  10.18    271      -54.2
   09/12/2019 00:00      63.4      62.8       76     55.4      0.00      0.00      80.8     0.33      1015.3     0.5     SSE   149   1.2     SSE   153  10.19    271      -55.9
   09/11/2019 23:50      63.8      63.2       75     55.4      0.00      0.00      80.8     0.33      1015.2     0.8     SSE   158   1.5      SE   143  10.19    271      -56.2
   09/11/2019 23:40      64.2      63.3       74     55.3      0.00      0.00      80.8     0.33      1015.2     0.4       S   183   1.1       S   183  10.19    271      -55.2
   09/11/2019 23:30      64.3      63.8       74     55.6      0.00      0.00      80.8     0.33      1015.2     0.1     SSE   154   0.7     SSE   154  10.19    270      -54.9
   09/11/2019 23:20      64.3      63.8       74     55.5      0.00      0.00      80.8     0.33      1015.2     0.6     SSE   151   1.0     SSE   154  10.19    270      -56.1
   09/11/2019 23:10      64.9      64.0       72     55.1      0.00      0.00      80.8     0.33      1015.2     0.2     SSE   155   0.9     SSE   166  10.19    271      -57.6
   09/11/2019 23:00      65.2      64.6       72     55.5      0.00      0.00      80.8     0.33      1015.1     0.6     SSE   165   1.2       S   185  10.19    270      -57.6
   09/11/2019 22:50      65.7      64.8       71     55.4      0.00      0.00      80.8     0.33      1015.1     0.3       S   171   1.1      SE   141  10.19    270      -58.0
   09/11/2019 22:40      65.8      65.2       70     55.3      0.00      0.00      80.8     0.33      1015.1     0.4       S   177   1.2      SE   144  10.19    269      -58.1
   09/11/2019 22:30      66.1      65.5       69     55.1      0.00      0.00      80.8     0.33      1015.1     0.4       S   188   1.2     SSW   197  10.19    269      -57.8
   09/11/2019 22:20      66.7      65.7       68     55.1      0.00      0.00      80.8     0.33      1015.1     0.0     SSE   147   0.7     SSE   147  10.19    268      -58.1
   09/11/2019 22:10      67.8      66.4       66     55.0      0.00      0.00      80.8     0.33      1015.0     0.2     SSE   158   1.0     SSE   159  10.20    268      -58.9
   09/11/2019 22:00      68.4      67.5       64     55.2      0.00      0.00      80.8     0.33      1015.0     0.0     ENE    59   1.2     ENE    58  10.20    268      -60.2
   09/11/2019 21:50      68.7      68.2       63     55.4      0.00      0.00      80.8     0.33      1014.9     0.6      SW   214   2.7      SW   233  10.20    268      -61.1
   09/11/2019 21:40      68.7      68.2       63     55.5      0.00      0.00      80.8     0.33      1014.8     1.2     SSW   211   3.0       S   188  10.20    268      -61.6
   09/11/2019 21:30      69.0      68.3       63     55.5      0.00      0.00      80.8     0.33      1014.8     1.1       S   188   4.1      SW   217  10.20    268      -62.1
   09/11/2019 21:20      69.3      68.6       62     55.5      0.00      0.00      80.7     0.33      1014.8     1.9     SSW   202   3.0      SW   214  10.20    268      -62.1
   09/11/2019 21:10      69.6      69.0       62     55.5      0.00      0.00      80.7     0.33      1014.7     2.3      SW   219   4.6      SW   216  10.20    268      -62.0
   09/11/2019 21:00      69.9      69.3       61     55.6      0.00      0.00      80.7     0.33      1014.6     3.3     WSW   238   6.8     WSW   250  10.20    268      -62.2
   09/11/2019 20:50      70.1      69.4       61     55.6      0.00      0.00      80.7     0.33      1014.5     1.9      SW   223   4.6     WSW   245  10.21    267      -62.9
   09/11/2019 20:40      70.5      69.7       60     55.6      0.00      0.00      80.6     0.33      1014.5     2.9      SW   223   6.5      SW   229  10.21    267      -63.4
   09/11/2019 20:30      70.6      70.0       60     55.6      0.00      0.00      80.7     0.33      1014.3     2.4     SSW   212   5.2      SW   223  10.21    267      -63.1
   09/11/2019 20:20      71.1      70.3       59     55.6      0.00      0.00      80.6     0.33      1014.2     3.2     SSW   210   5.9     WNW   288  10.21    267      -63.3
   09/11/2019 20:10      71.6      70.8       58     55.5      0.00      0.00      80.6     0.33      1014.1     2.6     SSW   207   5.3     SSW   194  10.22    267      -64.2
   09/11/2019 20:00      71.8      71.2       57     55.6      0.00      0.00      80.6     0.33      1014.0     2.7      SW   231   6.4     WSW   248  10.22    267      -64.8
   09/11/2019 19:50      72.4      71.5       57     55.8      0.00      0.00      80.6     0.33      1014.0     3.7     WSW   239   7.5     WSW   258  10.22    267      -65.2
   09/11/2019 19:40      73.0      72.2       57     56.3      0.00      0.00      80.6     0.33      1013.8     4.0     WSW   240   7.9       W   262  10.22    267      -65.8
   09/11/2019 19:30      73.5      72.6       56     56.7      0.00      0.00      80.6     0.33      1013.8     4.9     WSW   241   8.1     WSW   247  10.23    267      -66.1
   09/11/2019 19:20      74.6      73.2       55     56.6      0.00      0.00      80.5     0.33      1013.7     5.1     WSW   250  10.0     WSW   252  10.23    266      -66.0
   09/11/2019 19:10      75.5      74.2       53     56.6      0.00      0.00      80.6     0.33      1013.7     4.7     WSW   250   8.2     WSW   255  10.23    266      -64.9
   09/11/2019 19:00      76.3      75.3       52     56.8      0.00      0.00      80.5     0.33      1013.7     3.1      SW   229   4.9     SSW   204  10.23    266      -60.8
   09/11/2019 18:50      77.4      76.1       50     56.9      0.00      0.00      80.5     0.33      1013.5     2.6      SW   229   4.8      SW   235  10.24    266      -55.0
   09/11/2019 18:40      77.9      77.3       49     57.0      0.00      0.00      80.5     0.33      1013.5     2.5       W   261   5.1     WSW   238  10.24    266      -39.5
   09/11/2019 18:30      78.8      77.5       48     56.9      0.00      0.00      80.4     0.33      1013.4     4.3       W   261   7.9       W   259  10.24    266      -13.7
   09/11/2019 18:20      79.3      78.3       47     56.8      0.00      0.00      80.4     0.33      1013.3     3.5       W   268   7.1     WSW   258  10.25    266        8.7
   09/11/2019 18:10      80.3      79.0       46     56.7      0.00      0.00      80.4     0.33      1013.3     3.7     WSW   256   7.1       W   275  10.25    266       33.3
   09/11/2019 18:00      80.0      79.2       45     56.7      0.00      0.00      80.3     0.33      1013.3     3.9       W   279   8.0      SW   228  10.25    266       57.7
   09/11/2019 17:50      80.0      79.4       45     56.7      0.00      0.00      80.3     0.33      1013.4     4.5       W   259   8.9      SW   234  10.25    266       82.4
   09/11/2019 17:40      80.8      79.8       45     56.8      0.00      0.00      80.3     0.33      1013.3     5.4     WSW   252   9.3       W   268  10.26    266      107.8
   09/11/2019 17:30      81.1      80.2       44     56.9      0.00      0.00      80.2     0.33      1013.3     4.8       W   262   9.1     WSW   248  10.26    265      132.0
   09/11/2019 17:20      83.0      80.8       42     57.0      0.00      0.00      80.2     0.33      1013.2     5.3       W   266   9.6     WSW   256  10.26    265      155.2
   09/11/2019 17:10      83.0      82.2       41     56.9      0.00      0.00      80.2     0.33      1013.2     3.8     WSW   256   7.5     WSW   248  10.27    265      177.7
   09/11/2019 17:00      83.6      82.6       41     56.9      0.00      0.00      80.2     0.33      1013.2     4.0       W   264   8.5     WSW   244  10.27    265      201.6
   09/11/2019 16:50      83.5      82.6       41     57.0      0.00      0.00      80.1     0.33      1013.2     2.9     WNW   292   7.6       N     7  10.27    265      224.5
   09/11/2019 16:40      83.3      82.7       41     57.0      0.00      0.00      80.1     0.33      1013.1     3.3      NW   311   9.0      NW   319  10.28    265      248.1
   09/11/2019 16:30      83.7      82.4       41     56.9      0.00      0.00      80.1     0.33      1013.1     4.2     WNW   297  10.0       W   279  10.28    265      272.4
   09/11/2019 16:20      84.1      83.2       40     57.1      0.00      0.00      80.0     0.33      1013.1     3.7     WNW   284   9.5     WNW   299  10.28    265      294.7
   09/11/2019 16:10      84.0      83.2       42     57.9      0.00      0.00      80.0     0.33      1013.3     4.7       W   277  10.5     WSW   247  10.28    265      318.1
   09/11/2019 16:00      84.8      83.7       42     58.5      0.00      0.00      80.0     0.33      1013.3     4.5     WSW   250   7.6      SW   228  10.28    265      339.6
   09/11/2019 15:50      84.6      83.5       41     57.9      0.00      0.00      79.9     0.33      1013.3     5.8     WSW   258  10.7     WSW   241  10.29    265      357.7
   09/11/2019 15:40      84.5      81.8       44     58.6      0.00      0.00      79.9     0.33      1013.3     2.9     WSW   241   7.2     WNW   292  10.29    265      377.3
   09/11/2019 15:30      82.8      82.0       45     59.0      0.00      0.00      79.9     0.33      1013.4     3.8     SSE   161   6.1      SE   132  10.29    266      397.9
   09/11/2019 15:20      83.9      82.6       44     59.0      0.00      0.00      79.9     0.33      1013.5     4.1     SSE   163   7.9      SE   140  10.29    265      415.4
   09/11/2019 15:10      84.0      83.0       44     59.1      0.00      0.00      79.8     0.33      1013.6     3.2     SSE   165   7.8      SE   135  10.29    265      432.3
   09/11/2019 15:00      85.6      83.4       43     58.9      0.00      0.00      79.8     0.33      1013.7     4.0       E    79   6.8      NE    48  10.30    265      440.1
   09/11/2019 14:50      87.0      85.1       38     57.5      0.00      0.00      79.8     0.33      1013.8     2.9       E    81   7.3       E    86  10.30    264      450.2
   09/11/2019 14:40      87.3      85.6       33     54.5      0.00      0.00      79.8     0.33      1013.9     1.6       N   356   5.7     ENE    63  10.30    264      459.3
   09/11/2019 14:30      86.5      85.7       33     53.9      0.00      0.00      79.8     0.33      1014.0     1.7     ENE    71   4.3      NE    52  10.30    264      478.1
   09/11/2019 14:20      86.0      84.3       34     53.7      0.00      0.00      79.8     0.33      1014.3     1.4     ENE    75   3.1     ENE    57  10.31    264      492.8
   09/11/2019 14:10      84.6      83.5       35     53.5      0.00      0.00      79.7     0.33      1014.5     2.6     WSW   240   5.0     WNW   290  10.31    264      506.6
   09/11/2019 14:00      83.5      81.8       36     53.3      0.00      0.00      79.7     0.33      1014.7     1.0       E    99   4.7       W   276  10.31    264      519.7
   09/11/2019 13:50      83.7      81.6       37     53.4      0.00      0.00      79.7     0.33      1014.9     3.0     ESE   113   5.6      SE   138  10.31    264      528.0
   09/11/2019 13:40      84.3      82.9       36     54.0      0.00      0.00      79.7     0.33      1015.0     2.4      NE    44   5.3     WNW   284  10.32    264      532.8
   09/11/2019 13:30      83.0      81.9       37     53.7      0.00      0.00      79.6     0.33      1015.2     1.4     ENE    74   4.1      NE    56  10.32    264      542.0
   09/11/2019 13:20      82.3      81.5       38     53.9      0.00      0.00      79.7     0.33      1015.3     1.8       N     1   4.3     NNE    13  10.32    264      545.5
   09/11/2019 13:10      81.7      79.9       39     53.4      0.00      0.00      79.7     0.33      1015.5     1.7       E    95   3.8     ENE    70  10.32    264      552.2
   09/11/2019 13:00      80.7      79.9       40     53.5      0.00      0.00      79.6     0.33      1015.8     2.2       E    91   4.6       E   101  10.32    264      556.0
   09/11/2019 12:50      80.9      79.8       40     53.7      0.00      0.00      79.6     0.33      1015.9     2.0     NNE    29   4.8       N    10  10.32    264      555.4
   09/11/2019 12:40      80.6      79.5       40     53.9      0.00      0.00      79.6     0.33      1016.1     2.0      NE    51   4.1     ENE    68   9.92    264      556.0
   09/11/2019 12:30      80.7      78.0       41     53.9      0.00      0.00      79.6     0.33      1016.1     1.6     ENE    60   4.6     ENE    59   9.92    264      556.2
   09/11/2019 12:20      79.5      78.4       42     53.8      0.00      0.00      79.6     0.33      1016.1     2.5      SE   141   6.6     SSE   153   9.92    264      553.0
   09/11/2019 12:10      78.5      77.7       43     54.0      0.00      0.00      79.6     0.33      1016.3     1.7     ENE    62   3.5     NNW   341   9.92    265      547.4
   09/11/2019 12:00      78.7      77.2       44     54.5      0.00      0.00      79.6     0.33      1016.4     1.9      NE    40   4.5     NNE    19   9.92    264      540.8
   09/11/2019 11:50      77.6      76.3       46     54.5      0.00      0.00      79.6     0.33      1016.5     1.8       N   357   5.4     NNE    25   9.92    265      535.8
   09/11/2019 11:40      76.9      75.3       47     54.7      0.00      0.00      79.6     0.33      1016.6     2.0       N     1   4.2       N     5   9.92    265      529.6
   09/11/2019 11:30      76.0      74.3       49     54.6      0.00      0.00      79.7     0.33      1016.7     2.0     ESE   103   3.8      SE   126   9.93    265      519.9
   09/11/2019 11:20      75.1      74.3       50     54.6      0.00      0.00      79.7     0.33      1016.7     2.3      SE   143   5.7      SE   130   9.93    265      511.8
   09/11/2019 11:10      75.6      74.6       49     54.9      0.00      0.00      79.6     0.33      1016.8     2.4       E    92   4.8     ENE    67   9.93    265      500.6
   09/11/2019 11:00      75.3      74.2       50     54.8      0.00      0.00      79.7     0.33      1016.9     1.5     WSW   243   4.3       W   260   9.93    266      487.4
   09/11/2019 10:50      74.6      73.5       50     54.6      0.00      0.00      79.7     0.33      1017.0     1.7     NNE    32   4.3     NNE    29   9.93    266      473.9
   09/11/2019 10:40      74.5      72.7       51     54.8      0.00      0.00      79.8     0.33      1017.0     1.5       N     4   5.1       N   354   9.93    266      461.9
   09/11/2019 10:30      73.5      72.3       53     55.0      0.00      0.00      79.8     0.33      1017.1     1.7     NNE    15   4.9       N     2   9.93    266      437.2
   09/11/2019 10:20      72.3      71.2       55     54.8      0.00      0.00      79.8     0.33      1017.1     1.7      SW   225   4.2     WSW   256   9.93    266      423.7
   09/11/2019 10:10      71.5      70.0       58     55.2      0.00      0.00      79.8     0.33      1017.2     1.5      NW   305   3.4       W   280   9.93    266      403.1
   09/11/2019 10:00      70.5      68.6       62     55.7      0.00      0.00      79.8     0.33      1017.2     1.1     SSW   198   3.0     SSW   213   9.93    267      341.8
   09/11/2019 09:50      68.9      67.3       65     55.7      0.00      0.00      79.9     0.33      1017.2     0.7     SSW   205   2.3     SSW   205   9.92    268      208.4
   09/11/2019 09:40      68.1      67.2       64     55.1      0.00      0.00      79.8     0.33      1017.2     1.1      SW   220   2.1      SW   214   9.93    269       49.5
   09/11/2019 09:30      68.1      67.7       65     55.9      0.00      0.00      79.9     0.33      1017.2     0.2      NW   321   1.6      NW   321   9.93    269       36.9
   09/11/2019 09:20      67.9      67.4       67     56.3      0.00      0.00      79.9     0.33      1017.1     0.5     ESE   107   1.9     SSE   158   9.93    268       66.5
   09/11/2019 09:10      67.7      66.9       70     57.1      0.00      0.00      80.0     0.33      1017.0     1.3       E    85   3.3     NNE    13   9.93    269      158.7
   09/11/2019 09:00      68.5      67.2       70     57.3      0.00      0.00      80.0     0.33      1017.0     0.9       N   358   4.3     NNW   349   9.92    269       60.5
   09/11/2019 08:50      68.5      67.6       69     57.5      0.00      0.00      80.0     0.33      1016.9     1.1       E    92   3.2     NNE    12   9.93    268      194.1
   09/11/2019 08:40      68.4      67.3       70     57.9      0.00      0.00      80.0     0.33      1016.9     0.7       N    10   2.5      NE    47   9.93    269      203.9
   09/11/2019 08:30      67.5      66.2       73     58.0      0.00      0.00      80.1     0.33      1016.8     0.7      NE    36   2.3       N     4   9.93    269      176.5
   09/11/2019 08:20      67.0      66.3       73     57.8      0.00      0.00      80.1     0.33      1016.7     1.2     NNE    34   3.3      NW   321   9.93    271      144.6
   09/11/2019 08:10      67.0      66.2       74     58.0      0.00      0.00      80.2     0.33      1016.6     0.8       E    92   1.8       E    97   9.93    271      118.0
   09/11/2019 08:00      66.5      65.1       76     57.9      0.00      0.00      80.1     0.33      1016.5     0.3     ESE   111   1.7     ESE   119   9.93    272       82.0
   09/11/2019 07:50      65.2      63.5       78     57.5      0.00      0.00      80.2     0.33      1016.5     0.2       E    89   1.5      SE   144   9.93    272       77.0
   09/11/2019 07:40      63.6      62.5       81     56.9      0.00      0.00      80.2     0.33      1016.5     0.4      SE   132   1.2     SSE   165   9.93    272       46.6
   09/11/2019 07:30      62.6      61.3       83     56.8      0.00      0.00      80.3     0.33      1016.4     0.2       S   169   1.2       S   180   9.93    272       49.3
   09/11/2019 07:20      61.6      60.4       85     56.3      0.00      0.00      80.3     0.33      1016.3     0.1       S   173   1.1       S   174   9.93    272       29.8
   09/11/2019 07:10      60.6      59.9       85     55.6      0.00      0.00      80.3     0.33      1016.1     0.0     SSW   212   0.4     SSW   207   9.93    271        8.4
   09/11/2019 07:00      60.0      59.7       85     55.2      0.00      0.00      80.4     0.33      1015.9     0.0       N     0   0.0       S   170   9.93    269       -4.8
   09/11/2019 06:50      60.2      59.7       85     55.2      0.00      0.00      80.4     0.33      1015.8     0.0      SE   138   0.6      SE   136   9.93    265      -15.0
   09/11/2019 06:40      60.1      59.6       85     55.4      0.00      0.00      80.4     0.33      1015.7     0.5       E    90   1.6     ENE    73   9.93    265      -17.1
   09/11/2019 06:30      59.8      58.9       87     55.6      0.00      0.00      80.5     0.33      1015.6     0.6       W   261   1.8      SE   140   9.93    270       -9.1
   09/11/2019 06:20      59.1      58.3       88     55.1      0.00      0.00      80.4     0.33      1015.5     0.3       W   261   1.9     WNW   283   9.93    270       -3.6
   09/11/2019 06:10      58.5      57.7       89     54.7      0.00      0.00      80.5     0.33      1015.4     0.0     ESE   109   0.7       E    98   9.93    240       -3.1
   09/11/2019 06:00      58.0      57.5       89     54.3      0.00      0.00      80.5     0.33      1015.3     0.2       S   190   1.1     SSW   208   9.93    224      -10.7
   09/11/2019 05:50      57.8      57.4       88     54.0      0.00      0.00      80.6     0.33      1015.2     0.5     SSE   159   1.1      SE   145   9.93    232      -21.1
   09/11/2019 05:40      57.9      57.4       88     54.0      0.00      0.00      80.6     0.33      1015.1     0.5     SSE   151   1.2     SSE   149   9.93    230      -25.4
   09/11/2019 05:30      58.0      57.6       87     53.9      0.00      0.00      80.7     0.33      1015.1     0.4     SSE   163   1.1      SE   141   9.93    225      -24.6
   09/11/2019 05:20      58.3      57.7       86     53.9      0.00      0.00      80.7     0.33      1015.0     0.0       N     0   0.0     SSE   164   9.93    223      -24.0
   09/11/2019 05:10      58.6      57.9       87     54.3      0.00      0.00      80.7     0.33      1014.8     0.4     SSE   158   1.3      SE   141   9.93    222      -25.3
   09/11/2019 05:00      58.6      57.8       87     54.4      0.00      0.00      80.7     0.33      1014.8     0.0     SSE   160   0.7     SSE   158   9.93    222      -20.4
   09/11/2019 04:50      58.0      57.2       88     54.0      0.00      0.00      80.7     0.33      1014.8     0.1      SE   138   0.8      SE   138   9.93    225      -10.5
   09/11/2019 04:40      57.6      57.1       88     53.7      0.00      0.00      80.8     0.33      1014.7     0.4     SSE   148   1.2     SSE   147   9.93    236      -15.0
   09/11/2019 04:30      57.7      57.2       88     53.9      0.00      0.00      80.8     0.33      1014.6     0.3     SSE   160   0.9     SSE   149   9.93    244      -23.7
   09/11/2019 04:20      57.5      57.0       88     53.6      0.00      0.00      80.8     0.33      1014.5     0.4       S   170   1.5       S   177   9.93    244      -25.7
   09/11/2019 04:10      57.7      57.2       87     53.7      0.00      0.00      80.9     0.33      1014.3     0.5     SSE   155   1.4     SSE   147   9.93    240      -26.8
   09/11/2019 04:00      57.7      57.2       87     53.7      0.00      0.00      80.9     0.33      1014.3     0.4       S   178   1.5       S   182   9.93    237      -26.4
   09/11/2019 03:50      57.8      57.3       87     53.6      0.00      0.00      80.9     0.33      1014.3     0.1     SSE   164   0.8     SSE   166   9.93    232      -27.2
   09/11/2019 03:40      57.9      57.2       87     53.6      0.00      0.00      80.9     0.33      1014.2     0.5     SSE   150   1.0     SSE   155   9.93    228      -27.6
   09/11/2019 03:30      58.2      57.4       86     53.6      0.00      0.00      81.0     0.33      1014.2     0.1     SSE   148   1.1      SE   140   9.93    225      -28.5
   09/11/2019 03:20      58.1      57.7       86     53.9      0.00      0.00      81.0     0.33      1014.1     0.8     SSE   150   1.0     SSE   148   9.94    222      -27.9
   09/11/2019 03:10      58.4      57.7       86     53.6      0.00      0.00      81.0     0.33      1014.1     0.4     SSE   159   1.2      SE   143   9.94    219      -30.2
   09/11/2019 03:00      58.6      58.0       86     54.0      0.00      0.00      81.0     0.33      1014.1     0.5     SSE   159   0.9     SSE   165   9.94    218      -31.0
   09/11/2019 02:50      58.8      58.1       86     54.1      0.00      0.00      81.0     0.33      1014.1     0.5       S   173   1.1       S   179   9.94    217      -31.5
   09/11/2019 02:40      58.6      58.3       86     54.2      0.00      0.00      81.1     0.33      1014.2     0.1       S   174   0.7     SSE   166   9.94    217      -33.0
   09/11/2019 02:30      58.9      58.3       85     54.0      0.00      0.00      81.1     0.33      1014.2     0.3     SSE   160   0.8     SSE   163   9.94    216      -35.2
   09/11/2019 02:20      59.1      58.4       84     54.1      0.00      0.00      81.1     0.33      1014.2     0.1     SSE   158   0.6     SSE   153   9.94    216      -37.3
   09/11/2019 02:10      59.1      58.6       84     54.1      0.00      0.00      81.1     0.33      1014.2     0.4     SSE   164   0.9       S   171   9.94    215      -40.4
   09/11/2019 02:00      59.4      58.8       84     54.1      0.00      0.00      81.1     0.33      1014.2     0.3     SSE   159   1.1     SSE   156   9.94    215      -44.4
   09/11/2019 01:50      59.7      59.0       83     54.2      0.00      0.00      81.2     0.33      1014.2     0.2     SSE   156   0.9     SSE   148   9.94    224      -45.6
   09/11/2019 01:40      59.7      59.4       83     54.5      0.00      0.00      81.2     0.33      1014.2     0.2     SSE   156   0.8     SSE   152   9.94    230      -47.0
   09/11/2019 01:30      59.9      59.4       83     54.4      0.00      0.00      81.3     0.33      1014.2     0.0       N     0   0.0       S   169   9.94    240      -48.5
   09/11/2019 01:20      59.9      59.4       82     54.1      0.00      0.00      81.3     0.33      1014.2     0.4     SSE   156   1.2      SE   139   9.94    251      -50.3
   09/11/2019 01:10      60.2      59.5       82     54.4      0.00      0.00      81.3     0.33      1014.1     0.4     SSE   149   1.6      SE   142   9.94    258      -49.4
   09/11/2019 01:00      60.3      59.7       81     54.2      0.00      0.00      81.3     0.33      1014.0     0.4     SSE   155   1.0     SSE   153   9.94    254      -49.2
   09/11/2019 00:50      60.6      60.0       81     54.6      0.00      0.00      81.3     0.33      1013.9     0.2     SSE   150   0.9     SSE   146   9.94    260      -50.4
   09/11/2019 00:40      60.6      60.0       81     54.5      0.00      0.00      81.3     0.33      1013.8     0.6     SSE   153   1.4      SE   140   9.94    266      -51.6
   09/11/2019 00:30      61.1      60.2       80     54.3      0.00      0.00      81.3     0.33      1013.8     0.3     SSE   166   0.9      SE   135   9.94    267      -51.1
   09/11/2019 00:20      61.5      60.8       79     54.6      0.00      0.00      81.4     0.33      1013.8     0.5       S   169   1.0     SSE   162   9.94    268      -50.9
   09/11/2019 00:10      61.6      61.0       78     54.5      0.00      0.00      81.4     0.33      1013.8     0.3     SSE   159   0.7     SSE   159   9.94    269      -51.1
   09/11/2019 00:00      61.7      61.3       78     54.5      0.00      0.00      81.4     0.33      1013.8     0.2       S   172   0.8       S   179   9.95    271      -51.6
   09/10/2019 23:50      61.8      61.4       78     54.6      0.00      0.00      81.4     0.33      1013.7     0.1       S   180   0.9       S   178   9.95    271      -51.7
   09/10/2019 23:40      62.3      61.4       76     54.0      0.00      0.00      81.4     0.33      1013.6     0.4     SSE   165   0.9     SSE   159   9.95    271      -52.3
   09/10/2019 23:30      62.5      62.0       76     54.5      0.00      0.00      81.4     0.33      1013.6     0.3       S   174   1.1     SSW   200   9.95    271      -52.3
   09/10/2019 23:20      62.7      62.3       75     54.5      0.00      0.00      81.5     0.33      1013.6     0.5       S   178   1.2     SSW   197   9.95    271      -52.8
   09/10/2019 23:10      63.3      62.4       75     54.7      0.00      0.00      81.4     0.33      1013.6     0.3       E    92   1.3      NE    55   9.95    271      -52.7
   09/10/2019 23:00      63.4      62.9       75     55.0      0.00      0.00      81.4     0.33      1013.4     0.4       S   170   1.1       S   177   9.95    271      -53.6
   09/10/2019 22:50      63.4      62.9       75     55.0      0.00      0.00      81.5     0.33      1013.4     1.0     SSE   159   2.0      SE   145   9.95    270      -54.1
   09/10/2019 22:40      63.8      62.9       74     54.9      0.00      0.00      81.4     0.33      1013.4     0.6       S   171   1.6       S   182   9.95    270      -53.9
   09/10/2019 22:30      64.1      63.4       74     55.0      0.00      0.00      81.5     0.33      1013.5     0.4       S   178   1.4       S   190   9.96    270      -52.7
   09/10/2019 22:20      64.7      63.7       72     55.0      0.00      0.00      81.5     0.33      1013.4     0.7       S   176   1.5       S   181   9.96    270      -53.6
   09/10/2019 22:10      65.4      64.4       71     55.1      0.00      0.00      81.5     0.33      1013.4     0.5     SSE   165   1.2       S   177   9.96    270      -54.8
   09/10/2019 22:00      65.7      65.0       70     55.2      0.00      0.00      81.5     0.33      1013.4     1.0     SSW   192   2.5       S   190   9.96    269      -55.4
   09/10/2019 21:50      66.0      65.2       69     55.1      0.00      0.00      81.5     0.33      1013.3     1.1       S   171   2.7       S   169   9.96    269      -55.5
   09/10/2019 21:40      66.3      65.7       68     55.0      0.00      0.00      81.5     0.33      1013.2     1.1     SSW   193   1.9       S   185   9.96    269      -56.3
   09/10/2019 21:30      66.4      66.1       67     55.1      0.00      0.00      81.5     0.33      1013.2     1.2     SSW   205   2.8       W   266   9.96    269      -57.0
   09/10/2019 21:20      66.7      66.0       67     55.0      0.00      0.00      81.5     0.33      1013.1     2.0     SSW   199   4.0     WSW   239   9.96    268      -57.1
   09/10/2019 21:10      66.7      66.2       66     54.8      0.00      0.00      81.4     0.33      1013.0     1.0     SSW   204   2.3     SSW   196   9.96    268      -57.2
   09/10/2019 21:00      67.0      66.4       65     54.7      0.00      0.00      81.5     0.33      1012.9     0.9     SSW   202   2.4       S   171   9.96    268      -57.3
   09/10/2019 20:50      67.8      66.7       64     54.7      0.00      0.00      81.4     0.33      1012.7     0.8       S   188   2.1     SSW   203   9.96    268      -57.3
   09/10/2019 20:40      67.8      67.3       64     54.9      0.00      0.00      81.4     0.33      1012.6     1.1      SW   230   2.6     WSW   251   9.96    268      -58.2
   09/10/2019 20:30      68.3      67.5       63     54.8      0.00      0.00      81.5     0.33      1012.4     1.6     SSW   210   3.5     WSW   250   9.97    268      -59.4
   09/10/2019 20:20      68.5      67.9       63     55.1      0.00      0.00      81.4     0.33      1012.5     2.1      SW   234   5.3       W   268   9.97    268      -58.8
   09/10/2019 20:10      68.8      68.2       63     55.3      0.00      0.00      81.5     0.33      1012.5     1.9     WSW   258   5.2     WSW   252   9.97    268      -58.1
   09/10/2019 20:00      69.2      68.5       62     55.4      0.00      0.00      81.5     0.33      1012.5     2.8     WSW   246   4.7       W   259   9.97    268      -59.6
   09/10/2019 19:50      69.5      68.9       63     55.9      0.00      0.00      81.4     0.33      1012.4     1.7     WNW   288   4.2     NNW   329   9.97    268      -59.4
   09/10/2019 19:40      70.0      69.3       62     55.9      0.00      0.00      81.4     0.33      1012.3     2.5     WNW   287   4.8     WNW   282   9.97    268      -46.9
   09/10/2019 19:30      70.4      69.7       61     56.0      0.00      0.00      81.4     0.33      1012.1     2.2     WNW   288   6.3     WNW   285   9.97    268      -33.8
   09/10/2019 19:20      70.8      69.9       61     56.1      0.00      0.00      81.4     0.33      1011.9     4.1     WSW   251   7.7     WSW   254   9.98    268      -34.1
   09/10/2019 19:10      71.2      70.6       60     56.5      0.00      0.00      81.4     0.33      1011.9     2.7       W   264   5.5      SW   217   9.98    267      -26.8
   09/10/2019 19:00      71.3      70.8       61     56.8      0.00      0.00      81.4     0.33      1011.9     3.8       W   262   7.6     WSW   259   9.98    268      -21.4
   09/10/2019 18:50      71.3      70.7       61     57.1      0.00      0.00      81.4     0.33      1011.7     2.8      SW   226   6.1     SSW   211   9.98    268      -19.0
   09/10/2019 18:40      71.3      70.9       62     57.2      0.00      0.00      81.4     0.33      1011.6     2.6      SW   230   7.0       W   260   9.98    268      -19.9
   09/10/2019 18:30      71.6      71.0       62     57.4      0.00      0.00      81.4     0.33      1011.7     3.6     SSW   209   6.8     SSW   201   9.98    267      -18.2
   09/10/2019 18:20      72.0      71.3       61     57.3      0.00      0.00      81.3     0.33      1011.7     4.3      SW   227   7.1       S   185   9.99    267       -7.0
   09/10/2019 18:10      72.6      71.7       60     57.4      0.00      0.00      81.3     0.33      1011.6     4.0     WSW   247   6.7     WSW   245   9.99    267       15.5
   09/10/2019 18:00      72.8      72.3       59     57.3      0.00      0.00      81.3     0.33      1011.6     3.2     WSW   244   6.6     WSW   254   9.99    267       37.2
   09/10/2019 17:50      72.7      72.0       59     57.3      0.00      0.00      81.3     0.33      1011.8     3.3      SW   219   6.8     WSW   250   9.99    267       51.0
   09/10/2019 17:40      73.2      72.3       58     57.3      0.00      0.00      81.3     0.33      1011.8     3.0     SSW   194   6.5       S   188  10.00    267       56.5
   09/10/2019 17:30      73.3      72.5       58     57.4      0.00      0.00      81.3     0.33      1011.8     3.2     SSW   198   8.2       W   259  10.00    267       57.9
   09/10/2019 17:20      73.7      72.8       57     57.2      0.00      0.00      81.3     0.33      1011.8     2.6     SSW   210   5.8     SSW   193  10.00    267       72.5
   09/10/2019 17:10      73.5      72.9       57     57.2      0.00      0.00      81.2     0.33      1011.9     3.0      SW   226   5.5      SW   215  10.00    267       73.6
   09/10/2019 17:00      73.5      72.6       58     57.1      0.00      0.00      81.2     0.33      1011.9     2.0     SSW   201   5.2       S   173  10.00    267       63.5
   09/10/2019 16:50      73.5      72.7       57     57.1      0.00      0.00      81.3     0.33      1012.0     2.5       S   185   5.2       S   188  10.01    267       53.5
   09/10/2019 16:40      73.8      72.9       57     57.2      0.00      0.00      81.2     0.33      1012.0     3.0     SSE   162   6.9      SE   136  10.01    267       52.8
   09/10/2019 16:30      73.8      73.3       57     57.1      0.00      0.00      81.2     0.33      1012.0     2.7       S   187   5.5     WSW   243  10.01    266       64.0
   09/10/2019 16:20      73.8      73.3       57     57.1      0.00      0.00      81.2     0.33      1012.0     3.6       S   178   7.1       S   190  10.01    266       43.8
   09/10/2019 16:10      74.4      73.4       56     57.2      0.00      0.00      81.2     0.33      1011.9     4.0     SSE   164   6.9     SSE   158  10.01    266       75.8
   09/10/2019 16:00      74.4      73.7       56     57.3      0.00      0.00      81.1     0.33      1011.8     4.0     SSE   157   8.7      SE   143  10.01    266      137.6
   09/10/2019 15:50      75.1      73.6       55     57.3      0.00      0.00      81.2     0.33      1011.8     4.2       S   177   7.5     SSE   157  10.02    266      167.5
   09/10/2019 15:40      75.1      74.0       55     57.4      0.00      0.00      81.1     0.33      1011.8     3.9     SSE   164   6.8      SE   136  10.02    266      312.2
   09/10/2019 15:30      74.3      73.3       57     57.4      0.00      0.00      81.1     0.33      1011.9     3.3       S   184   7.4       S   181  10.02    266      171.2
   09/10/2019 15:20      74.1      73.5       57     57.6      0.00      0.00      81.1     0.33      1012.0     4.0     SSE   163   8.9     SSE   150  10.02    266      120.8
   09/10/2019 15:10      74.6      73.8       56     57.3      0.00      0.00      81.1     0.33      1012.0     4.8       S   181   8.5     SSW   196  10.03    266      134.7
   09/10/2019 15:00      76.2      74.4       54     57.1      0.00      0.00      81.1     0.33      1012.0     4.8       S   180   8.5     SSW   206  10.03    266      197.5
   09/10/2019 14:50      76.9      75.5       52     57.2      0.00      0.00      81.1     0.33      1012.0     4.2     SSW   204  10.7     WSW   247  10.03    266      313.9
   09/10/2019 14:40      76.3      75.3       52     56.9      0.00      0.00      81.1     0.33      1012.0     4.5     SSE   154   8.7       S   172  10.03    266      387.3
   09/10/2019 14:30      75.8      74.9       52     56.7      0.00      0.00      81.1     0.33      1012.1     3.2     SSW   207   6.4       S   187  10.03    266      262.6
   09/10/2019 14:20      76.0      74.8       52     56.8      0.00      0.00      81.1     0.33      1012.3     4.1       S   180   7.3     SSW   212  10.04    266      264.8
   09/10/2019 14:10      76.7      75.2       51     56.6      0.00      0.00      81.1     0.33      1012.3     2.8     SSE   148   7.6     SSW   193  10.04    266      272.1
   09/10/2019 14:00      76.9      75.0       52     56.8      0.00      0.00      81.1     0.33      1012.4     3.4     ESE   114   7.3      NE    45  10.04    266      237.7
   09/10/2019 13:50      76.8      76.2       51     56.9      0.00      0.00      81.1     0.33      1012.4     3.5     ESE   103   7.1       E   100  10.04    266      510.8
   09/10/2019 13:40      77.3      75.7       50     56.6      0.00      0.00      81.1     0.33      1012.6     3.4      SE   132   7.4     SSE   149  10.04    266      376.0
   09/10/2019 13:30      77.1      75.3       50     56.2      0.00      0.00      81.1     0.33      1012.7     3.0       S   170   7.6       S   179  10.04    266      454.4
   09/10/2019 13:20      77.0      75.7       50     56.4      0.00      0.00      81.1     0.33      1012.8     3.4       S   180   7.1       S   187  10.04    266      607.7
   09/10/2019 13:10      76.4      75.3       51     56.4      0.00      0.00      81.1     0.33      1012.9     4.8       S   176   8.9     ESE   106  10.04    266      670.7
   09/10/2019 13:00      75.9      74.3       52     56.4      0.00      0.00      81.1     0.33      1012.9     3.0     SSE   147   7.2      SE   128  10.05    266      447.8
   09/10/2019 12:50      75.6      74.5       53     56.8      0.00      0.00      81.1     0.33      1013.1     4.0      SE   135   8.5     SSW   200  10.05    266      554.6
   09/10/2019 12:40      75.6      73.8       54     56.9      0.00      0.00      81.1     0.33      1013.2     4.0      SE   145   9.0       S   185  10.05    266      380.2
   09/10/2019 12:30      75.4      73.4       54     56.6      0.00      0.00      81.1     0.33      1013.2     3.6      SE   138   7.1       E    93  10.05    266      664.4
   09/10/2019 12:20      73.5      72.6       56     56.4      0.00      0.00      81.1     0.33      1013.3     2.1       E    93   4.6      NE    41  10.06    267      251.3
   09/10/2019 12:10      72.9      72.3       57     56.3      0.00      0.00      81.1     0.33      1013.3     1.6      SE   140   4.3      SE   128  10.06    267      138.0
   09/10/2019 12:00      73.1      72.2       55     55.8      0.00      0.00      81.1     0.33      1013.2     2.4     SSW   193   5.4     SSW   203  10.06    267      154.4
   09/10/2019 11:50      73.0      72.3       56     56.2      0.00      0.00      81.1     0.33      1013.2     2.0     ESE   103   4.8     ESE   119  10.06    267      157.7
   09/10/2019 11:40      72.8      71.8       58     56.5      0.00      0.00      81.2     0.33      1013.2     2.9      SE   145   6.7     SSW   204  10.06    267      186.8
   09/10/2019 11:30      72.8      72.3       57     56.3      0.00      0.00      81.2     0.33      1013.2     1.7       E   101   6.4     WSW   256  10.06    267      110.5
   09/10/2019 11:20      72.8      72.1       56     56.1      0.00      0.00      81.2     0.33      1013.3     1.8     ESE   116   4.1     ESE   122  10.06    267      111.7
   09/10/2019 11:10      72.8      71.9       58     56.5      0.00      0.00      81.2     0.33      1013.4     1.6     ENE    60   5.1     ENE    74  10.06    267      219.9
   09/10/2019 11:00      73.0      72.6       57     56.7      0.00      0.00      81.2     0.33      1013.5     1.5      NE    39   3.9     ESE   105  10.06    267      116.8
   09/10/2019 10:50      72.9      70.8       59     56.8      0.00      0.00      81.3     0.33      1013.6     1.2      NE    46   4.0     ENE    71  10.06    266      364.5
   09/10/2019 10:40      71.5      70.8       61     56.9      0.00      0.00      81.2     0.33      1013.8     2.3     ENE    75   5.1       E    87  10.06    267      216.9
   09/10/2019 10:30      71.4      70.5       61     56.8      0.00      0.00      81.2     0.33      1013.8     1.7     ESE   113   4.5      SE   139  10.06    267      163.5
   09/10/2019 10:20      71.3      70.2       62     57.0      0.00      0.00      81.3     0.33      1013.8     2.3     ENE    68   5.7       E    85  10.06    267      276.8
   09/10/2019 10:10      70.7      70.0       62     56.9      0.00      0.00      81.3     0.33      1013.8     2.0       E    88   3.7     ESE   115  10.06    268      171.3
   09/10/2019 10:00      70.0      68.6       65     56.9      0.00      0.00      81.3     0.33      1013.8     2.6       E    99   5.1      SE   136  10.06    267      247.4
   09/10/2019 09:50      69.0      68.2       66     56.6      0.00      0.00      81.4     0.33      1013.8     2.3     ESE   115   5.1      SE   134  10.06    268      165.0
   09/10/2019 09:40      68.5      67.8       67     56.8      0.00      0.00      81.4     0.33      1013.8     1.8     ESE   106   3.9       E    92  10.06    268       93.2
   09/10/2019 09:30      68.0      67.3       68     56.9      0.00      0.00      81.4     0.33      1013.7     1.5       E    85   3.8       E    87  10.06    269       73.2
   09/10/2019 09:20      67.6      67.1       70     57.3      0.00      0.00      81.4     0.33      1013.7     2.1      SE   124   4.7       S   189  10.07    269       57.3
   09/10/2019 09:10      67.5      67.1       70     57.2      0.00      0.00      81.4     0.33      1013.6     1.4      SE   133   2.9       E    89  10.07    268       39.9
   09/10/2019 09:00      67.5      67.1       71     57.6      0.00      0.00      81.4     0.34      1013.6     1.7      SE   141   4.7       E    83  10.07    269       56.6
   09/10/2019 08:50      67.3      66.5       73     57.7      0.00      0.00      81.5     0.33      1013.5     1.8     ESE   118   4.3       E    80  10.07    269       41.3
   09/10/2019 08:40      66.7      66.3       74     57.8      0.00      0.00      81.5     0.34      1013.5     2.0     ESE   105   3.6      NE    47  10.07    270       41.5
   09/10/2019 08:30      66.6      66.1       74     57.8      0.00      0.00      81.5     0.34      1013.5     2.2      SE   128   4.6     ENE    77  10.07    270       32.7
   09/10/2019 08:20      66.5      66.1       74     57.7      0.00      0.00      81.5     0.34      1013.3     2.2     SSE   154   5.9      SE   133  10.07    270       28.4
   09/10/2019 08:10      66.6      66.1       74     57.8      0.00      0.00      81.5     0.34      1013.1     2.4     SSE   168   4.5      SE   125  10.07    270       26.2
   09/10/2019 08:00      66.6      66.2       74     57.8      0.00      0.00      81.6     0.34      1013.0     2.1     SSE   162   4.4       S   171  10.07    270       23.6
   09/10/2019 07:50      66.5      65.8       75     57.9      0.00      0.00      81.6     0.34      1012.9     2.0     SSE   155   3.3     ESE   123  10.07    270       20.0
   09/10/2019 07:40      66.1      65.7       75     57.8      0.00      0.00      81.6     0.34      1012.8     2.3     ESE   121   4.5       E    93  10.07    270       11.9
   09/10/2019 07:30      66.1      65.6       75     57.7      0.00      0.00      81.6     0.34      1012.7     2.1     ESE   118   4.5      SE   142  10.07    270        5.0
   09/10/2019 07:20      66.2      65.7       75     57.6      0.00      0.00      81.7     0.34      1012.5     2.0       E    90   4.5     ENE    79  10.07    270       -1.1
   09/10/2019 07:10      66.2      65.7       74     57.5      0.00      0.00      81.7     0.34      1012.5     0.7       E    89   1.7     ENE    69  10.07    270       -4.9
   09/10/2019 07:00      66.0      65.7       75     57.5      0.00      0.00      81.7     0.34      1012.3     0.7       E    88   1.8       E   100  10.07    270       -7.0
   09/10/2019 06:50      66.2      65.6       74     57.3      0.00      0.00      81.7     0.34      1012.2     1.4       E    80   3.3       E    88  10.07    270       -9.5
   09/10/2019 06:40      66.1      65.7       74     57.3      0.00      0.00      81.7     0.34      1012.2     1.0     ESE   109   2.3       E    91  10.07    270      -11.8
   09/10/2019 06:30      66.1      65.7       74     57.4      0.00      0.00      81.8     0.34      1012.2     0.5     ENE    76   1.7       E    81  10.07    270      -12.4
   09/10/2019 06:20      66.2      65.7       74     57.5      0.00      0.00      81.8     0.34      1012.1     0.4     ENE    61   1.3     ENE    72  10.07    270      -13.0
   09/10/2019 06:10      66.1      65.6       75     57.5      0.00      0.00      81.7     0.34      1012.0     0.5      NE    51   1.7      NE    51  10.08    271      -15.5
   09/10/2019 06:00      65.8      65.4       75     57.5      0.00      0.00      81.8     0.34      1011.9     0.7      NE    55   1.7      NE    46  10.08    271      -19.3
   09/10/2019 05:50      65.7      65.3       76     57.5      0.00      0.00      81.8     0.34      1011.9     0.7     ESE   112   2.5      SE   127  10.08    271      -15.9
   09/10/2019 05:40      65.6      65.1       76     57.6      0.00      0.00      81.8     0.34      1011.9     1.6      SE   139   4.3      SE   127  10.08    271      -16.8
   09/10/2019 05:30      65.4      64.9       77     57.6      0.00      0.00      81.9     0.34      1011.9     1.5     SSE   154   3.4     SSE   154  10.08    271      -23.9
   09/10/2019 05:20      65.6      65.1       77     57.8      0.00      0.00      81.9     0.34      1011.8     1.5      SE   144   3.2      SE   125  10.08    271      -44.9
   09/10/2019 05:10      65.7      65.2       76     57.7      0.00      0.00      81.9     0.34      1011.8     1.3      SE   125   3.2     SSE   148  10.08    271      -45.2
   09/10/2019 05:00      65.9      65.4       76     57.7      0.00      0.00      81.9     0.34      1011.8     1.8      SE   131   4.3     SSE   158  10.08    271      -27.4
   09/10/2019 04:50      66.2      65.5       75     57.6      0.00      0.00      82.0     0.34      1011.8     2.2     ESE   118   4.8      SE   135  10.08    271      -18.0
   09/10/2019 04:40      66.1      65.7       75     57.7      0.00      0.00      81.9     0.34      1011.9     0.5      SE   134   1.8     ENE    61  10.08    271      -18.2
   09/10/2019 04:30      66.0      65.6       75     57.8      0.00      0.00      82.0     0.34      1011.9     0.4      SE   130   1.9       S   172  10.08    271      -16.2
   09/10/2019 04:20      66.0      65.5       76     57.8      0.00      0.00      82.0     0.34      1011.9     0.5     SSE   159   2.6      SE   126  10.08    271      -19.9
   09/10/2019 04:10      65.8      65.2       76     57.8      0.00      0.00      82.1     0.34      1011.7     2.0     SSE   163   4.5       S   173  10.08    271      -21.0
   09/10/2019 04:00      65.7      65.3       77     58.0      0.00      0.00      82.1     0.34      1011.8     2.9       S   177   4.8     SSE   150  10.08    271      -21.5
   09/10/2019 03:50      65.9      65.4       77     58.2      0.00      0.00      82.1     0.34      1011.8     2.9      SE   143   5.2     SSE   151  10.08    271      -21.7
   09/10/2019 03:40      66.0      65.5       77     58.3      0.00      0.00      82.1     0.34      1011.7     2.1      SE   129   4.1     SSE   147  10.08    271      -26.6
   09/10/2019 03:30      65.8      65.5       78     58.5      0.00      0.00      82.2     0.34      1011.7     1.3      SE   140   2.9      SE   136  10.08    271      -21.4
   09/10/2019 03:20      65.7      65.4       79     58.7      0.00      0.00      82.2     0.34      1011.7     0.5      SE   126   1.6      SE   142  10.08    271      -13.3
   09/10/2019 03:10      65.7      65.4       79     59.0      0.00      0.00      82.2     0.34      1011.7     0.7     ENE    77   2.2       E    93  10.08    271      -15.7
   09/10/2019 03:00      65.7      65.3       80     59.0      0.00      0.00      82.2     0.34      1011.7     0.0       N     0   0.0     ESE   107  10.08    271      -13.0
   09/10/2019 02:50      65.7      65.2       80     59.0      0.00      0.00      82.3     0.34      1011.7     0.0       N     0   0.0     ESE   107  10.08    271      -14.3
   09/10/2019 02:40      65.5      64.8       81     59.0      0.00      0.00      82.3     0.34      1011.7     0.0     SSW   194   0.9     SSW   194  10.08    271      -12.3
   09/10/2019 02:30      65.0      64.0       82     58.9      0.00      0.00      82.3     0.34      1011.6     0.3       S   188   1.4       S   178  10.08    271      -12.3
   09/10/2019 02:20      64.1      62.9       83     58.1      0.00      0.00      82.3     0.34      1011.6     1.0     SSW   207   1.6       S   183  10.08    271      -11.2
   09/10/2019 02:10      63.0      62.2       84     57.6      0.00      0.00      82.3     0.34      1011.7     0.7       S   183   1.6     SSW   197  10.08    272      -12.2
   09/10/2019 02:00      62.4      62.0       84     57.2      0.00      0.00      82.3     0.34      1011.8     0.4     SSE   156   0.8      SE   144  10.09    271      -16.9
   09/10/2019 01:50      62.5      61.9       84     57.4      0.00      0.00      82.4     0.34      1011.8     0.2       S   173   0.8       S   186  10.09    234      -32.3
   09/10/2019 01:40      62.2      61.8       84     57.1      0.00      0.00      82.4     0.34      1011.7     0.6     SSE   166   1.2     SSE   148  10.09    224      -37.3
   09/10/2019 01:30      62.3      61.7       84     57.0      0.00      0.00      82.4     0.34      1011.6     0.5     SSE   157   1.3     SSE   161  10.09    225      -39.1
   09/10/2019 01:20      62.3      61.8       84     57.2      0.00      0.00      82.4     0.34      1011.5     0.3     SSE   163   1.0       S   175  10.09    222      -40.3
   09/10/2019 01:10      62.5      62.0       84     57.5      0.00      0.00      82.4     0.34      1011.5     0.9       S   186   1.7     SSW   196  10.09    237      -40.2
   09/10/2019 01:00      62.9      62.2       84     57.6      0.00      0.00      82.4     0.34      1011.4     0.5     SSE   161   1.1       S   180  10.09    218      -41.6
   09/10/2019 00:50      63.2      62.5       84     58.0      0.00      0.00      82.5     0.34      1011.4     0.6     SSE   164   1.1       S   174  10.09    216      -41.9
   09/10/2019 00:40      63.5      62.8       84     57.9      0.00      0.00      82.5     0.34      1011.2     0.0       S   174   0.6       S   174  10.09    241      -45.0
   09/10/2019 00:30      64.0      63.2       84     58.4      0.00      0.00      82.4     0.34      1011.1     0.2     SSE   169   0.8     SSE   166  10.09    237      -46.1
   09/10/2019 00:20      63.8      63.5       83     58.4      0.00      0.00      82.5     0.34      1011.1     0.0       S   169   0.7       S   169  10.09    256      -48.3
   09/10/2019 00:10      64.1      63.6       82     58.3      0.00      0.00      82.5     0.34      1011.1     0.1       S   175   0.7       S   178  10.09    260      -50.6
   09/10/2019 00:00      64.3      63.8       81     58.0      0.00      0.00      82.5     0.34      1011.1     0.0       S   172   0.6       S   173  10.10    268      -53.5
   09/09/2019 23:50      64.4      64.0       81     58.1      0.00      0.00      82.5     0.34      1011.1     0.4     SSE   150   0.9     SSE   154  10.10    264      -54.6
   09/09/2019 23:40      64.6      64.1       81     58.3      0.00      0.00      82.5     0.34      1011.0     0.3     SSE   151   1.1     SSE   155  10.10    265      -53.8
   09/09/2019 23:30      64.9      64.3       81     58.5      0.00      0.00      82.5     0.34      1011.0     0.2       S   169   0.8       S   179  10.10    267      -53.1
   09/09/2019 23:20      65.2      64.4       80     58.3      0.00      0.00      82.6     0.34      1010.9     0.0       N     0   0.0     SSE   164  10.10    270      -53.8
   09/09/2019 23:10      65.4      64.9       79     58.6      0.00      0.00      82.5     0.34      1010.9     0.0       S   173   0.9       S   173  10.10    271      -54.7
   09/09/2019 23:00      65.5      65.0       77     57.8      0.00      0.00      82.5     0.34      1010.9     0.0       N     0   0.0     ESE   122  10.10    271      -55.3
   09/09/2019 22:50      66.0      65.2       75     57.2      0.00      0.00      82.6     0.34      1010.9     0.0       N     0   0.0      SE   126  10.10    271      -56.4
   09/09/2019 22:40      66.4      65.7       75     57.9      0.00      0.00      82.5     0.34      1010.9     0.4      SE   135   1.6      SE   142  10.10    270      -57.6
   09/09/2019 22:30      66.9      66.3       75     58.3      0.00      0.00      82.5     0.34      1010.9     0.0     SSE   147   0.6      SE   145  10.10    270      -57.3
   09/09/2019 22:20      67.3      66.7       74     58.3      0.00      0.00      82.5     0.34      1010.8     0.0     ESE   110   0.9     ENE    66  10.11    270      -59.1
   09/09/2019 22:10      67.6      67.0       74     58.5      0.00      0.00      82.6     0.34      1010.8     0.9      SE   128   1.9     ESE   104  10.11    269      -61.0
   09/09/2019 22:00      68.0      67.3       72     58.4      0.00      0.00      82.5     0.34      1010.7     1.0       E    96   3.1     ENE    66  10.11    269      -61.7
   09/09/2019 21:50      68.6      67.7       71     58.1      0.00      0.00      82.6     0.34      1010.7     1.0     ESE   121   2.1     ESE   102  10.11    268      -62.0
   09/09/2019 21:40      68.9      68.3       69     58.0      0.00      0.00      82.5     0.34      1010.7     0.6       E    98   1.7     ESE   115  10.11    268      -62.9
   09/09/2019 21:30      69.0      68.5       66     57.0      0.00      0.00      82.5     0.34      1010.6     0.9     ESE   103   2.5       E    87  10.11    268      -62.8
   09/09/2019 21:20      69.2      68.6       65     56.8      0.00      0.00      82.5     0.34      1010.5     0.8       E    81   1.9      NE    53  10.11    268      -63.1
   09/09/2019 21:10      69.5      68.8       65     56.8      0.00      0.00      82.5     0.34      1010.6     0.9     SSE   160   1.8       S   191  10.11    268      -63.3
   09/09/2019 21:00      70.0      69.2       64     56.9      0.00      0.00      82.5     0.34      1010.5     1.9       S   175   3.4       S   175  10.12    268      -63.3
   09/09/2019 20:50      70.1      69.6       64     56.9      0.00      0.00      82.5     0.34      1010.5     1.8       S   175   3.8     SSW   203  10.12    267      -63.6
   09/09/2019 20:40      70.3      69.7       63     56.9      0.00      0.00      82.5     0.34      1010.4     2.7     SSW   193   3.9     SSW   193  10.12    267      -64.0
   09/09/2019 20:30      70.7      70.0       63     57.1      0.00      0.00      82.4     0.34      1010.2     2.7     SSW   193   4.0     SSW   205  10.12    267      -64.8
   09/09/2019 20:20      71.2      70.4       62     57.1      0.00      0.00      82.4     0.34      1010.2     2.4       S   187   3.7     SSW   193  10.12    267      -65.8
   09/09/2019 20:10      71.6      70.9       62     57.3      0.00      0.00      82.4     0.34      1010.1     2.6       S   185   4.7     SSW   206  10.13    267      -66.6
   09/09/2019 20:00      72.1      71.2       61     57.3      0.00      0.00      82.4     0.34      1010.0     2.1       S   183   4.0     SSW   193  10.13    267      -67.3
   09/09/2019 19:50      73.0      71.8       59     57.1      0.00      0.00      82.4     0.34      1009.9     2.4     SSW   195   4.4      SW   223  10.13    267      -68.2
   09/09/2019 19:40      74.0      72.7       55     56.3      0.00      0.00      82.4     0.34      1009.9     1.8       S   172   4.5     SSW   196  10.13    266      -68.9
   09/09/2019 19:30      74.5      73.8       53     55.9      0.00      0.00      82.4     0.34      1009.8     1.0     SSW   197   2.2      SW   235  10.14    266      -69.3
   09/09/2019 19:20      75.2      73.9       55     57.2      0.00      0.00      82.3     0.34      1009.7     1.7     SSW   201   4.0     WNW   284  10.14    266      -68.8
   09/09/2019 19:10      75.4      74.8       55     57.6      0.00      0.00      82.3     0.34      1009.7     1.9      SW   218   4.9     SSW   211  10.14    266      -65.5
   09/09/2019 19:00      76.1      75.1       54     57.8      0.00      0.00      82.3     0.34      1009.7     1.8       S   182   4.1     SSW   194  10.14    266      -60.3
   09/09/2019 18:50      77.3      75.7       53     58.0      0.00      0.00      82.2     0.34      1009.6     3.0     SSW   193   5.2     SSW   209  10.14    266      -54.9
   09/09/2019 18:40      78.1      77.0       52     58.4      0.00      0.00      82.2     0.34      1009.6     2.7     SSW   197   4.9      SW   222  10.15    266      -33.9
   09/09/2019 18:30      78.8      77.8       51     58.5      0.00      0.00      82.2     0.34      1009.5     2.7       S   190   4.7       S   181  10.15    266       -7.9
   09/09/2019 18:20      79.2      78.3       50     58.7      0.00      0.00      82.2     0.34      1009.5     2.8       S   176   5.1      SW   230  10.15    266       17.6
   09/09/2019 18:10      79.5      78.5       50     58.8      0.00      0.00      82.2     0.34      1009.6     3.5       S   174   6.1     SSW   202  10.16    266       41.9
   09/09/2019 18:00      79.7      79.0       51     59.3      0.00      0.00      82.2     0.34      1009.6     3.7       S   185   6.9      SW   227  10.16    266       67.3
   09/09/2019 17:50      80.4      79.4       50     59.5      0.00      0.00      82.1     0.34      1009.6     3.4       S   176   6.3     SSW   205  10.16    266       92.7
   09/09/2019 17:40      80.5      79.4       50     59.6      0.00      0.00      82.1     0.34      1009.6     3.4       S   170   6.2      SW   229  10.16    266      119.7
   09/09/2019 17:30      80.7      79.7       49     59.6      0.00      0.00      82.1     0.34      1009.6     4.1     SSW   191   7.1     SSE   164  10.17    266      143.8
   09/09/2019 17:20      81.3      80.2       49     59.6      0.00      0.00      82.1     0.34      1009.6     4.5     SSW   203   7.1     SSW   208  10.17    266      169.5
   09/09/2019 17:10      81.8      81.0       48     59.6      0.00      0.00      82.0     0.34      1009.6     3.4       S   173   7.0     SSW   204  10.17    266      192.8
   09/09/2019 17:00      81.8      80.8       48     59.7      0.00      0.00      82.0     0.34      1009.7     2.9       S   177   5.0      SW   225  10.18    266      221.2
   09/09/2019 16:50      81.9      80.7       48     59.7      0.00      0.00      81.9     0.34      1009.8     3.8       S   174   7.2     SSW   208  10.18    266      245.2
   09/09/2019 16:40      82.2      81.3       47     59.6      0.00      0.00      82.0     0.34      1009.7     4.2     SSE   162   8.6      SE   134  10.18    265      266.7
   09/09/2019 16:30      82.7      81.2       47     59.4      0.00      0.00      81.8     0.34      1009.9     3.8       S   171   7.1       S   178  10.18    265      288.1
   09/09/2019 16:20      82.9      81.4       46     59.3      0.00      0.00      81.9     0.34      1009.9     4.0     SSW   199   8.6     SSW   206  10.19    265      311.0
   09/09/2019 16:10      82.9      81.9       45     59.2      0.00      0.00      81.9     0.34      1010.0     3.6      SW   233   7.6      SW   231  10.19    265      327.7
   09/09/2019 16:00      82.7      81.4       46     59.1      0.00      0.00      81.8     0.34      1010.0     5.2      SW   223   8.7      SW   231  10.19    266      347.4
   09/09/2019 15:50      84.0      81.5       45     58.8      0.00      0.00      81.8     0.34      1010.1     3.6     SSW   213   9.0     SSW   211  10.19    265      369.5
   09/09/2019 15:40      83.9      82.4       44     58.8      0.00      0.00      81.8     0.34      1010.3     3.0       W   264   5.7     WNW   286  10.20    265      388.0
   09/09/2019 15:30      83.3      82.3       45     59.0      0.00      0.00      81.7     0.34      1010.3     4.1     WSW   239   7.4     WSW   239  10.20    265      404.5
   09/09/2019 15:20      82.6      81.1       47     59.2      0.00      0.00      81.7     0.34      1010.3     2.1     ESE   123   5.2     SSW   202  10.20    265      419.7
   09/09/2019 15:10      81.9      81.3       46     59.0      0.00      0.00      81.7     0.34      1010.5     2.6      NE    38   5.3     NNE    12  10.20    265      437.3
   09/09/2019 15:00      82.2      81.4       46     59.0      0.00      0.00      81.6     0.34      1010.6     2.9      SE   135   6.8     WNW   298  10.20    265      453.3
   09/09/2019 14:50      82.1      80.8       47     59.2      0.00      0.00      81.7     0.34      1010.8     2.6     SSE   151   6.8     SSW   194  10.21    265      469.0
   09/09/2019 14:40      81.0      80.0       48     59.2      0.00      0.00      81.6     0.34      1011.0     3.7     SSW   202   8.9     SSW   194  10.21    265      483.1
   09/09/2019 14:30      80.9      79.7       49     59.4      0.00      0.00      81.6     0.34      1011.2     4.4       S   184   9.5     SSW   198  10.21    265      499.0
   09/09/2019 14:20      81.0      80.1       49     59.3      0.00      0.00      81.6     0.34      1011.3     3.7      SE   140   7.2     ESE   121  10.21    265      507.9
   09/09/2019 14:10      80.8      79.7       49     59.3      0.00      0.00      81.5     0.34      1011.3     4.2     SSE   160   8.6     SSW   213  10.21    265      527.1
   09/09/2019 14:00      81.3      80.4       48     59.5      0.00      0.00      81.5     0.34      1011.2     5.3       S   170   8.0     SSW   198  10.22    264      539.5
   09/09/2019 13:50      81.3      80.4       48     59.8      0.00      0.00      81.5     0.34      1011.2     3.9       S   176   7.5       S   184  10.22    265      546.9
   09/09/2019 13:40      82.9      80.4       48     59.7      0.00      0.00      81.5     0.33      1011.3     4.4     SSE   153   9.9     SSE   156  10.22    264      545.0
   09/09/2019 13:30      82.9      81.9       46     59.5      0.00      0.00      81.5     0.33      1011.3     2.7     ESE   102   4.8       E    80  10.22    264      400.1
   09/09/2019 13:20      82.6      81.4       47     59.8      0.00      0.00      81.4     0.33      1011.5     2.8       E    85   7.0     ENE    65  10.22    264      617.7
   09/09/2019 13:10      82.0      80.4       48     59.6      0.00      0.00      81.4     0.33      1011.7     2.9     ESE   121   6.1      SE   132  10.22    265      603.8
   09/09/2019 13:00      81.3      80.3       48     59.4      0.00      0.00      81.4     0.33      1011.8     2.5       E   101   4.3      NE    36  10.23    264      497.1
   09/09/2019 12:50      81.3      79.6       48     59.4      0.00      0.00      81.4     0.33      1012.0     1.7     ENE    69   4.3     NNE    21  10.23    264      363.7
   09/09/2019 12:40      80.5      79.1       49     59.0      0.00      0.00      81.4     0.33      1012.1     3.3     SSE   163   7.6     SSW   200  10.23    265      389.4
   09/09/2019 12:30      81.3      79.8       48     59.3      0.00      0.00      81.4     0.33      1012.1     2.5     ENE    65   7.7       E    93  10.23    264      582.0
   09/09/2019 12:20      81.3      79.6       48     59.0      0.00      0.00      81.4     0.33      1012.2     2.8       E    86   5.3      SE   130  10.23    264      577.1
   09/09/2019 12:10      81.5      80.5       47     58.7      0.00      0.00      81.4     0.33      1012.2     2.6       E    85   5.0      SE   139  10.23    264      553.9
   09/09/2019 12:00      80.9      79.6       46     57.8      0.00      0.00      81.4     0.33      1012.3     2.2      NE    48   4.9     ENE    67  10.23    264      435.9
   09/09/2019 11:50      80.7      79.8       45     57.1      0.00      0.00      81.4     0.33      1012.4     2.5     ENE    58   6.2     ENE    64  10.23    264      532.6
   09/09/2019 11:40      80.6      78.7       44     55.6      0.00      0.00      81.4     0.33      1012.7     2.0     NNE    12   6.7     NNE    27  10.23    264      527.0
   09/09/2019 11:30      80.3      78.8       43     54.6      0.00      0.00      81.4     0.33      1012.8     1.7       N     2   5.3     NNE    19  10.23    264      519.9
   09/09/2019 11:20      79.4      78.4       43     54.3      0.00      0.00      81.4     0.33      1013.0     2.2      NE    36   4.8     NNE    18  10.23    264      511.6
   09/09/2019 11:10      79.0      77.5       43     54.1      0.00      0.00      81.5     0.33      1013.0     2.2      NE    47   5.3      NE    51  10.23    264      496.5
   09/09/2019 11:00      78.2      77.0       44     53.9      0.00      0.00      81.5     0.33      1013.2     2.2       N     8   5.3      NE    53  10.24    264      482.9
   09/09/2019 10:50      78.7      77.3       44     54.2      0.00      0.00      81.5     0.33      1013.1     2.0     NNE    15   5.7       N     0  10.24    264      472.4
   09/09/2019 10:40      78.5      76.3       45     54.1      0.00      0.00      81.5     0.33      1013.0     1.5     NNE    24   4.7       N   352  10.24    264      462.8
   09/09/2019 10:30      77.0      74.6       47     54.0      0.00      0.00      81.6     0.33      1013.0     1.6      SE   127   4.6      SE   129  10.24    264      445.5
   09/09/2019 10:20      75.2      74.4       49     54.4      0.00      0.00      81.6     0.33      1013.2     1.7       N    11   3.8      NE    39  10.24    264      429.1
   09/09/2019 10:10      75.8      74.9       49     54.9      0.00      0.00      81.6     0.33      1013.3     1.8       E    81   3.5      SE   135  10.24    264      412.3
   09/09/2019 10:00      75.0      73.4       51     54.8      0.00      0.00      81.6     0.34      1013.4     1.1       N     3   3.1      NW   319  10.24    264      392.5
   09/09/2019 09:50      73.9      72.5       52     54.7      0.00      0.00      81.7     0.34      1013.4     1.6      NW   319   4.5      NW   310  10.24    264      373.3
   09/09/2019 09:40      72.9      72.1       54     54.6      0.00      0.00      81.7     0.34      1013.4     1.6     NNE    19   3.1      NE    47  10.24    265      353.5
   09/09/2019 09:30      72.8      71.8       54     54.7      0.00      0.00      81.8     0.34      1013.2     1.2     NNE    18   2.8     NNE    33  10.24    266      332.8
   09/09/2019 09:20      72.5      71.1       55     54.7      0.00      0.00      81.8     0.34      1013.2     1.0     NNW   344   3.1       N     6  10.24    266      305.1
   09/09/2019 09:10      72.2      70.2       55     54.6      0.00      0.00      81.8     0.34      1013.2     0.8      NE    45   2.4     ESE   104  10.25    266      289.8
   09/09/2019 09:00      70.6      69.6       58     54.3      0.00      0.00      81.9     0.34      1013.1     1.6      NE    56   3.5     ENE    77  10.25    266      266.5
   09/09/2019 08:50      70.6      70.2       57     54.3      0.00      0.00      81.9     0.34      1013.1     1.0      NE    55   2.6       E    90   9.31    267      243.6
   09/09/2019 08:40      70.4      69.5       57     54.1      0.00      0.00      82.0     0.34      1013.1     0.7       E    81   2.1     ESE   118   9.31    267      221.8
   09/09/2019 08:30      70.1      68.9       57     53.6      0.00      0.00      82.1     0.34      1013.0     0.0     WNW   296   1.0      SW   230   9.32    267      197.7
   09/09/2019 08:20      69.2      68.7       58     53.5      0.00      0.00      82.1     0.34      1013.0     0.7      NE    43   1.7      NE    53   9.32    269      170.5
   09/09/2019 08:10      69.4      67.2       58     53.4      0.00      0.00      82.1     0.34      1013.0     0.2     NNW   335   1.2     WNW   302   9.32    270      141.8
   09/09/2019 08:00      67.5      64.9       63     53.4      0.00      0.00      82.2     0.34      1013.0     0.0     WSW   243   0.4     WSW   239   9.32    270      109.3
   09/09/2019 07:50      65.1      62.7       68     53.3      0.00      0.00      82.2     0.34      1013.0     0.7     WNW   286   2.7     WSW   248   9.32    271       78.4
   09/09/2019 07:40      62.7      59.9       75     53.1      0.00      0.00      82.2     0.34      1012.8     0.0     SSE   149   0.4     SSE   149   9.32    271       66.5
   09/09/2019 07:30      60.1      57.9       81     53.1      0.00      0.00      82.2     0.34      1012.7     0.3     ESE   122   1.5      SE   141   9.32    271       53.4
   09/09/2019 07:20      58.2      57.0       83     52.5      0.00      0.00      82.3     0.34      1012.6     0.0     SSE   152   0.5     SSE   152   9.32    256       -1.7
   09/09/2019 07:10      57.2      56.5       84     52.1      0.00      0.00      82.3     0.34      1012.5     0.0      SE   128   0.6     ESE   119   9.32    222      -14.2
   09/09/2019 07:00      56.7      56.0       85     51.9      0.00      0.00      82.4     0.34      1012.4     0.5     SSE   164   1.0     SSW   196   9.32    221       -7.3
   09/09/2019 06:50      56.3      55.8       85     51.6      0.00      0.00      82.4     0.34      1012.3     0.4       S   179   1.2     SSW   193   9.32    221      -20.5
   09/09/2019 06:40      56.3      55.8       85     51.4      0.00      0.00      82.4     0.34      1012.2     0.4     SSE   148   1.1     SSE   154   9.32    222      -29.0
   09/09/2019 06:30      56.1      55.5       85     51.3      0.00      0.00      82.5     0.34      1012.1     0.6     SSW   207   1.6      SW   227   9.32    220      -32.0
   09/09/2019 06:20      56.0      55.5       85     51.3      0.00      0.00      82.5     0.34      1012.0     0.2     SSE   163   0.7      SE   143   9.32    220      -34.5
   09/09/2019 06:10      56.3      55.6       85     51.6      0.00      0.00      82.5     0.34      1012.0     0.6     SSE   153   1.4      SE   140   9.32    220      -36.1
   09/09/2019 06:00      56.3      55.9       85     51.5      0.00      0.00      82.6     0.34      1011.9     0.5     SSE   155   1.1     SSE   156   9.32    218      -39.3
   09/09/2019 05:50      56.2      55.9       85     51.6      0.00      0.00      82.6     0.34      1011.8     0.3     SSE   154   1.2      SE   136   9.32    219      -41.8
   09/09/2019 05:40      56.6      55.8       84     51.5      0.00      0.00      82.7     0.34      1011.8     0.6       S   178   1.2     SSW   202   9.32    220      -43.9
   09/09/2019 05:30      56.8      56.0       83     51.3      0.00      0.00      82.7     0.34      1011.8     0.6       S   169   1.2       S   176   9.32    226      -47.4
   09/09/2019 05:20      57.3      56.4       82     51.5      0.00      0.00      82.7     0.34      1011.8     0.5     SSE   150   1.1      SE   146   9.32    232      -48.4
   09/09/2019 05:10      57.2      56.7       83     51.6      0.00      0.00      82.8     0.34      1011.8     0.0      SE   140   0.8      SE   146   9.32    248      -48.7
   09/09/2019 05:00      57.4      56.7       82     51.4      0.00      0.00      82.8     0.34      1011.8     0.4     ESE   115   1.4      SE   129   9.32    252      -51.7
   09/09/2019 04:50      57.7      57.1       81     51.6      0.00      0.00      82.8     0.34      1011.8     0.3     SSE   161   1.2     SSE   154   9.32    251      -52.9
   09/09/2019 04:40      57.9      57.1       80     51.3      0.00      0.00      82.9     0.34      1011.8     0.5       S   180   1.2       S   186   9.32    261      -52.5
   09/09/2019 04:30      57.9      57.5       80     51.6      0.00      0.00      82.9     0.34      1011.8     0.4      SE   145   1.1      SE   137   9.33    254      -53.6
   09/09/2019 04:20      57.8      57.4       80     51.5      0.00      0.00      82.9     0.34      1011.8     0.2     SSW   192   1.0       S   174   9.33    268      -53.1
   09/09/2019 04:10      58.2      57.5       80     51.7      0.00      0.00      83.0     0.34      1011.8     0.5      SE   145   1.4      SE   136   9.33    261      -54.6
   09/09/2019 04:00      58.3      57.7       80     51.8      0.00      0.00      82.9     0.34      1011.8     0.5     SSE   156   1.2      SE   138   9.33    265      -54.7
   09/09/2019 03:50      58.3      57.9       79     51.8      0.00      0.00      83.0     0.34      1011.7     0.6     SSE   164   2.1     SSW   200   9.33    267      -55.3
   09/09/2019 03:40      58.6      58.0       79     51.8      0.00      0.00      83.0     0.34      1011.6     0.6     SSE   155   1.4      SE   143   9.33    266      -55.9
   09/09/2019 03:30      58.9      58.3       78     51.8      0.00      0.00      83.1     0.34      1011.6     0.7      SE   144   1.8      SE   132   9.33    269      -56.7
   09/09/2019 03:20      59.1      58.4       78     51.8      0.00      0.00      83.1     0.34      1011.6     0.7     SSE   148   2.0      SE   126   9.33    269      -56.7
   09/09/2019 03:10      59.1      58.6       78     51.9      0.00      0.00      83.1     0.34      1011.5     0.8     SSE   151   2.2      SE   138   9.33    269      -56.8
   09/09/2019 03:00      59.0      58.3       78     51.7      0.00      0.00      83.1     0.34      1011.5     0.7       S   178   1.5     SSW   204   9.33    269      -57.0
   09/09/2019 02:50      59.1      58.3       77     51.4      0.00      0.00      83.2     0.34      1011.6     0.7     SSE   162   2.3       S   176   9.33    268      -57.5
   09/09/2019 02:40      59.5      58.9       76     51.5      0.00      0.00      83.2     0.34      1011.6     0.7     SSE   158   1.5      SE   140   9.33    270      -57.6
   09/09/2019 02:30      59.6      59.2       75     51.4      0.00      0.00      83.2     0.34      1011.5     1.2       S   182   2.2      SW   219   9.33    270      -56.5
   09/09/2019 02:20      59.6      59.1       76     51.6      0.00      0.00      83.2     0.34      1011.6     0.6       S   179   1.8     SSW   211   9.33    270      -56.5
   09/09/2019 02:10      60.4      59.4       74     51.4      0.00      0.00      83.2     0.34      1011.5     0.2     ESE   117   1.1     SSE   149   9.33    270      -58.2
   09/09/2019 02:00      60.4      59.9       74     51.9      0.00      0.00      83.3     0.34      1011.6     0.3     SSE   163   0.9     SSE   150   9.33    270      -58.0
   09/09/2019 01:50      60.7      59.7       74     51.7      0.00      0.00      83.3     0.34      1011.6     0.7     SSE   166   1.8     SSW   201   9.33    270      -57.9
   09/09/2019 01:40      60.9      60.3       74     52.2      0.00      0.00      83.3     0.34      1011.6     0.3     SSE   162   1.1     SSE   167   9.34    270      -57.8
   09/09/2019 01:30      60.9      60.5       74     52.3      0.00      0.00      83.4     0.34      1011.6     0.3     SSE   152   1.5      SE   140   9.34    270      -58.9
   09/09/2019 01:20      61.2      60.6       74     52.6      0.00      0.00      83.4     0.34      1011.5     0.6     SSE   147   1.9      SE   132   9.34    270      -58.1
   09/09/2019 01:10      61.1      60.7       76     53.1      0.00      0.00      83.4     0.34      1011.4     0.4     SSE   151   1.3     SSE   158   9.34    270      -59.0
   09/09/2019 01:00      61.3      60.6       75     52.9      0.00      0.00      83.4     0.34      1011.4     0.7     SSE   169   1.4     SSE   152   9.34    270      -60.6
   09/09/2019 00:50      61.4      60.9       75     53.0      0.00      0.00      83.5     0.34      1011.4     1.2       S   176   2.3     SSW   197   9.34    270      -60.9
   09/09/2019 00:40      61.8      61.0       74     52.9      0.00      0.00      83.5     0.34      1011.4     0.9     SSE   161   2.1       S   177   9.34    270      -61.5
   09/09/2019 00:30      61.8      61.3       74     53.0      0.00      0.00      83.5     0.34      1011.4     0.5     SSW   192   1.3       S   185   9.34    270      -59.8
   09/09/2019 00:20      62.1      61.5       74     53.2      0.00      0.00      83.5     0.34      1011.4     0.3      SE   140   1.4       S   185   9.34    269      -62.0
   09/09/2019 00:10      62.0      61.5       73     53.0      0.00      0.00      83.5     0.34      1011.5     0.9     SSE   157   2.1     SSW   195   9.34    269      -62.3
   09/09/2019 00:00      62.4      61.6       72     52.9      0.00      0.00      83.6     0.34      1011.5     0.5       S   179   1.4      SW   225   9.34    269      -62.4
   09/08/2019 23:50      62.8      61.8       72     53.0      0.00      0.00      83.6     0.34      1011.5     1.4       S   182   3.4      SW   216   9.34    269      -62.6
   09/08/2019 23:40      62.8      62.3       72     53.5      0.00      0.00      83.6     0.34      1011.5     0.6       S   174   2.1       S   182   9.35    269      -62.9
   09/08/2019 23:30      63.2      62.2       72     53.5      0.00      0.00      83.6     0.34      1011.5     0.9     SSW   200   2.3      SW   222   9.35    269      -63.0
   09/08/2019 23:20      63.6      62.8       70     53.2      0.00      0.00      83.6     0.34      1011.5     0.7     SSE   157   1.5     SSW   196   9.35    269      -64.8
   09/08/2019 23:10      63.5      63.0       71     53.6      0.00      0.00      83.6     0.34      1011.5     1.3     SSW   195   2.1     SSW   205   9.35    269      -64.1
   09/08/2019 23:00      64.2      63.2       69     53.4      0.00      0.00      83.6     0.34      1011.6     0.6     SSE   150   1.1      SE   139   9.35    269      -66.0
   09/08/2019 22:50      64.6      63.9       68     53.6      0.00      0.00      83.6     0.34      1011.5     1.1     SSW   201   2.2     SSW   201   9.35    268      -64.5
   09/08/2019 22:40      64.5      63.9       69     53.6      0.00      0.00      83.6     0.34      1011.6     0.4       S   177   2.3     SSW   197   9.35    268      -65.2
   09/08/2019 22:30      65.0      64.1       67     53.5      0.00      0.00      83.7     0.34      1011.5     0.3       S   190   2.1     SSW   197   9.35    268      -66.4
   09/08/2019 22:20      65.1      64.6       66     53.2      0.00      0.00      83.6     0.34      1011.5     0.6       S   174   1.5     SSW   213   9.36    268      -66.6
   09/08/2019 22:10      65.2      64.6       66     53.5      0.00      0.00      83.6     0.34      1011.4     0.6       S   170   1.4     SSW   205   9.36    268      -66.9
   09/08/2019 22:00      65.6      64.9       65     53.0      0.00      0.00      83.6     0.34      1011.4     0.2       S   171   0.8       S   177   9.36    267      -66.6
   09/08/2019 21:50      66.1      65.3       64     53.1      0.00      0.00      83.7     0.34      1011.4     0.4       S   169   1.1     SSW   192   9.36    267      -67.3
   09/08/2019 21:40      66.7      65.8       62     52.9      0.00      0.00      83.7     0.34      1011.3     0.3       S   175   1.4     SSW   206   9.36    267      -67.5
   09/08/2019 21:30      67.5      66.3       61     52.8      0.00      0.00      83.6     0.34      1011.3     1.3     SSW   192   2.5     SSW   196   9.36    267      -66.9
   09/08/2019 21:20      68.0      67.1       60     52.9      0.00      0.00      83.7     0.34      1011.4     1.9     SSW   212   2.5      SW   219   9.36    266      -66.6
   09/08/2019 21:10      68.8      67.7       59     53.1      0.00      0.00      83.6     0.34      1011.4     0.5     SSW   194   2.0     SSW   206   9.37    266      -68.4
   09/08/2019 21:00      69.1      68.5       57     53.1      0.00      0.00      83.6     0.34      1011.4     0.2     ESE   115   1.1     ENE    62   9.37    266      -71.2
   09/08/2019 20:50      70.0      68.8       55     52.7      0.00      0.00      83.6     0.34      1011.3     0.2     ESE   122   1.4      SE   133   9.37    266      -71.6
   09/08/2019 20:40      70.6      69.6       54     52.7      0.00      0.00      83.6     0.34      1011.2     0.3     ENE    66   1.4     NNE    31   9.37    266      -72.2
   09/08/2019 20:30      70.8      70.3       54     52.9      0.00      0.00      83.6     0.34      1011.2     0.4       E    80   1.7       E    95   9.37    266      -72.5
   09/08/2019 20:20      71.3      70.5       53     53.0      0.00      0.00      83.6     0.34      1011.1     0.5       E    99   2.5     ESE   102   9.38    266      -72.8
   09/08/2019 20:10      71.8      71.0       52     52.8      0.00      0.00      83.6     0.34      1011.0     0.3     ENE    76   1.7     ENE    70   9.38    266      -73.1
   09/08/2019 20:00      72.7      71.5       51     52.9      0.00      0.00      83.6     0.34      1011.0     0.0      SE   129   0.8      SE   129   9.38    266      -73.5
   09/08/2019 19:50      73.0      72.3       50     53.0      0.00      0.00      83.6     0.34      1010.8     0.5     ENE    58   2.3      NE    34   9.38    266      -74.0
   09/08/2019 19:40      73.7      72.7       50     53.3      0.00      0.00      83.5     0.34      1010.7     0.6     ENE    71   2.2      NE    55   9.38    266      -74.5
   09/08/2019 19:30      74.1      73.3       49     53.1      0.00      0.00      83.5     0.34      1010.6     0.8     ENE    63   1.8     ENE    59   9.39    266      -75.1
   09/08/2019 19:20      74.9      73.9       47     52.8      0.00      0.00      83.5     0.34      1010.6     1.2      NE    51   2.7       E    88   9.39    265      -74.5
   09/08/2019 19:10      75.3      74.4       47     53.1      0.00      0.00      83.5     0.34      1010.5     1.4      NE    42   3.3     NNE    31   9.39    265      -71.1
   09/08/2019 19:00      76.1      75.0       46     53.4      0.00      0.00      83.5     0.34      1010.5     1.8      NE    55   3.7     ENE    57   9.39    265      -65.8
   09/08/2019 18:50      76.8      75.7       44     52.8      0.00      0.00      83.5     0.34      1010.5     1.5      NE    40   4.5       N   351   9.40    264      -62.1
   09/08/2019 18:40      77.8      76.6       43     52.8      0.00      0.00      83.5     0.34      1010.4     1.7      NE    48   4.7      NE    54   9.40    264      -35.1
   09/08/2019 18:30      77.8      77.2       42     52.4      0.00      0.00      83.4     0.34      1010.3     1.7      NE    54   4.3      NE    40   9.40    264       -9.6
   09/08/2019 18:20      78.8      77.6       41     53.0      0.00      0.00      83.4     0.34      1010.3     2.5      NE    42   5.0      NE    52   9.40    264       14.8
   09/08/2019 18:10      79.7      78.5       42     53.9      0.00      0.00      83.4     0.34      1010.3     2.5      NE    38   6.2      NE    46   9.41    264       39.5
   09/08/2019 18:00      80.2      79.5       41     54.1      0.00      0.00      83.3     0.34      1010.3     2.3      NE    45   4.9     ENE    59   9.41    264       63.9
   09/08/2019 17:50      81.3      79.9       40     54.4      0.00      0.00      83.3     0.34      1010.2     2.8      NE    45   7.1      NE    54   9.41    264       87.4
   09/08/2019 17:40      82.9      80.9       39     54.3      0.00      0.00      83.3     0.34      1010.3     2.8      NE    50   5.6      NE    51   9.42    264      111.3
   09/08/2019 17:30      83.0      81.8       37     53.8      0.00      0.00      83.3     0.34      1010.3     1.9     NNE    25   6.1     ENE    58   9.42    264      137.4
   09/08/2019 17:20      82.0      81.0       37     53.1      0.00      0.00      83.3     0.34      1010.4     2.7     SSW   204   5.9       S   179   9.42    264      166.0
   09/08/2019 17:10      82.6      81.3       37     53.4      0.00      0.00      83.2     0.34      1010.4     3.6       S   177   6.4       S   186   9.43    264      192.0
   09/08/2019 17:00      82.7      82.1       37     53.6      0.00      0.00      83.2     0.34      1010.5     3.3     SSW   194   6.1       S   179   9.43    264      215.0
   09/08/2019 16:50      85.2      81.9       35     53.1      0.00      0.00      83.2     0.34      1010.4     3.3      SE   143   7.9      SE   143   9.43    264      238.4
   09/08/2019 16:40      85.1      84.5       33     52.2      0.00      0.00      83.1     0.34      1010.5     2.4      NE    48   4.3     ENE    61   9.44    263      258.4
   09/08/2019 16:30      84.8      84.1       32     51.7      0.00      0.00      83.1     0.34      1010.5     2.7      NE    47   5.5      NE    49   9.44    263      281.3
   09/08/2019 16:20      84.5      83.7       32     51.2      0.00      0.00      83.1     0.34      1010.6     3.3      NE    49   6.2     NNE    23   9.44    263      303.6
   09/08/2019 16:10      84.8      83.9       31     50.9      0.00      0.00      83.1     0.34      1010.6     2.7     ENE    63   5.7      SE   141   9.44    263      325.7
   09/08/2019 16:00      85.4      84.2       31     50.6      0.00      0.00      83.1     0.34      1010.7     3.1      NE    51   5.3      NE    47   9.45    263      344.8
   09/08/2019 15:50      85.8      84.9       31     51.0      0.00      0.00      83.0     0.34      1010.7     3.1     ENE    58   6.0      NE    37   9.45    264      365.7
   09/08/2019 15:40      86.0      85.1       32     51.9      0.00      0.00      83.0     0.34      1010.8     2.9     ENE    62   7.1      SE   132   9.45    264      385.4
   09/08/2019 15:30      86.1      85.0       32     52.0      0.00      0.00      83.0     0.34      1010.9     2.7     ENE    64   6.0     NNE    32   9.45    263      402.4
   09/08/2019 15:20      85.7      84.3       32     51.7      0.00      0.00      83.0     0.34      1011.1     2.2       E    94   6.0       E    88   9.45    264      420.8
   09/08/2019 15:10      85.7      83.8       33     51.8      0.00      0.00      82.9     0.34      1011.0     3.0     ESE   115   7.1     SSE   156   9.46    264      438.2
   09/08/2019 15:00      86.7      85.1       33     53.5      0.00      0.00      82.9     0.34      1011.0     2.9       E    86   9.5     ENE    66   9.46    263      452.1
   09/08/2019 14:50      86.0      84.0       34     53.3      0.00      0.00      82.9     0.34      1011.2     2.8      NE    45   7.7     ENE    65   9.46    264      466.7
   09/08/2019 14:40      84.1      82.8       35     52.5      0.00      0.00      82.9     0.34      1011.4     2.8       S   183   5.6      SE   134   9.46    263      481.4
   09/08/2019 14:30      83.9      82.3       35     52.8      0.00      0.00      82.8     0.34      1011.5     3.3     ESE   115   7.4      SE   137   9.46    263      497.0
   09/08/2019 14:20      84.0      82.8       35     52.9      0.00      0.00      82.8     0.34      1011.5     3.3     SSE   148   6.1      SE   129   9.46    263      508.8
   09/08/2019 14:10      83.2      81.9       36     53.1      0.00      0.00      82.8     0.34      1011.6     3.5       E   100   8.2      SE   145   9.47    263      520.2
   09/08/2019 14:00      83.4      81.8       36     53.0      0.00      0.00      82.8     0.34      1011.7     4.1      SE   128   9.6     ESE   122   9.47    263      531.4
   09/08/2019 13:50      83.3      81.9       36     52.7      0.00      0.00      82.7     0.34      1011.8     2.7     ESE   120   7.1       S   181   9.47    263      538.5
   09/08/2019 13:40      83.6      82.7       35     52.3      0.00      0.00      82.7     0.34      1011.9     3.2     SSE   163   6.6      SE   146   9.47    263      546.1
   09/08/2019 13:30      83.2      81.5       36     52.6      0.00      0.00      82.7     0.34      1012.1     3.8     SSE   153   7.4     SSE   147   9.48    264      556.4
   09/08/2019 13:20      84.0      81.8       36     52.9      0.00      0.00      82.7     0.34      1012.2     3.8       S   178   8.0      SE   146   9.48    264      559.3
   09/08/2019 13:10      83.9      82.0       36     53.6      0.00      0.00      82.7     0.34      1012.2     3.2     SSE   165   8.1      SE   131   9.48    263      561.5
   09/08/2019 13:00      82.4      81.1       38     53.6      0.00      0.00      82.6     0.34      1012.2     3.5     ESE   113   8.3       E    99   9.48    263      565.1
   09/08/2019 12:50      81.8      81.0       39     53.9      0.00      0.00      82.6     0.34      1012.2     4.3      SE   143   9.2      SE   133   9.48    263      566.4
   09/08/2019 12:40      83.0      81.5       39     54.6      0.00      0.00      82.7     0.34      1012.3     4.6     SSE   147   8.5      SE   134   9.48    263      564.7
   09/08/2019 12:30      82.7      81.6       39     54.8      0.00      0.00      82.6     0.34      1012.3     3.7       E    97   7.3       E    87   9.49    263      560.2
   09/08/2019 12:20      84.0      81.9       39     55.1      0.00      0.00      82.7     0.34      1012.4     3.4       E    94   6.7     ENE    69   9.49    263      553.3
   09/08/2019 12:10      84.7      83.5       33     51.4      0.00      0.00      82.6     0.34      1012.4     2.5      NE    36   6.2       N    10   9.49    263      545.1
   09/08/2019 12:00      84.5      82.4       27     46.3      0.00      0.00      82.7     0.34      1012.5     1.3     ESE   123   3.4     SSW   199   9.49    262      541.8
   09/08/2019 11:50      83.5      82.3       28     46.6      0.00      0.00      82.7     0.34      1012.6     2.8     WSW   252   6.7      SW   222   9.49    263      534.6
   09/08/2019 11:40      83.4      82.6       29     47.3      0.00      0.00      82.7     0.34      1012.8     2.3     NNW   343   6.2      NW   317   9.49    262      525.5
   09/08/2019 11:30      83.4      81.1       29     46.7      0.00      0.00      82.7     0.34      1012.9     2.2     SSE   151   6.2     SSW   208   9.49    262      521.4
   09/08/2019 11:20      82.6      80.7       31     48.1      0.00      0.00      82.7     0.34      1013.0     1.3     NNW   333   4.6       S   170   9.50    262      507.2
   09/08/2019 11:10      81.2      80.3       32     48.1      0.00      0.00      82.7     0.34      1013.1     3.2     WSW   252   8.9     WSW   239   9.50    263      500.5
   09/08/2019 11:00      81.2      80.3       31     47.3      0.00      0.00      82.7     0.34      1013.2     1.2     NNE    19   3.0      NE    37   9.50    262      488.3
   09/08/2019 10:50      80.7      80.1       32     47.8      0.00      0.00      82.8     0.34      1013.2     3.2       W   278   6.5       W   268   9.50    263      473.6
   09/08/2019 10:40      80.5      78.4       34     48.6      0.00      0.00      82.8     0.34      1013.2     1.4     NNW   335   3.4       W   276   9.50    263      457.8
   09/08/2019 10:30      78.9      78.2       35     48.3      0.00      0.00      82.8     0.34      1013.3     2.6       W   268   6.0     WNW   287   9.50    263      445.5
   09/08/2019 10:20      78.8      77.5       37     49.5      0.00      0.00      82.9     0.34      1013.2     1.3     WNW   286   2.8       E    99   9.50    263      428.2
   09/08/2019 10:10      77.7      77.0       37     49.2      0.00      0.00      82.9     0.34      1013.3     1.8       W   279   5.5       W   261   9.50    263      413.0
   09/08/2019 10:00      77.4      76.0       39     49.8      0.00      0.00      83.0     0.34      1013.4     1.0     WSW   244   2.8      SW   232   9.50    264      395.2
   09/08/2019 09:50      76.3      74.6       40     49.2      0.00      0.00      83.0     0.34      1013.4     2.1     WSW   259   4.8     WSW   249   9.50    264      374.7
   09/08/2019 09:40      74.7      73.7       44     50.7      0.00      0.00      83.0     0.34      1013.4     3.3     WSW   256   5.4       S   190   9.50    264      355.8
   09/08/2019 09:30      73.8      72.9       47     51.6      0.00      0.00      83.1     0.34      1013.5     2.7      SW   214   5.8     SSW   203   9.50    265      336.2
   09/08/2019 09:20      73.5      72.5       46     51.3      0.00      0.00      83.1     0.34      1013.5     1.9     WSW   249   5.1       W   260   9.50    266      312.0
   09/08/2019 09:10      72.6      70.8       49     51.5      0.00      0.00      83.2     0.34      1013.5     1.8     WSW   247   4.4       W   261   9.50    265      290.1
   09/08/2019 09:00      71.1      69.3       54     52.6      0.00      0.00      83.2     0.34      1013.5     2.1      SW   215   4.4      SW   231   9.50    266      269.7
   09/08/2019 08:50      69.6      68.9       56     52.7      0.00      0.00      83.3     0.34      1013.5     3.2      SW   215   5.1       S   189   9.51    266      246.8
   09/08/2019 08:40      69.2      68.5       57     53.1      0.00      0.00      83.3     0.34      1013.7     3.1     WSW   256   5.1      SW   236   9.51    266      222.6
   09/08/2019 08:30      69.5      68.6       59     54.1      0.00      0.00      83.4     0.34      1013.8     1.2     WNW   302   3.3       W   278   9.51    267      196.9
   09/08/2019 08:20      69.4      68.4       62     55.2      0.00      0.00      83.4     0.34      1013.9     0.6       E    81   1.5     ENE    68   9.51    269      169.4
   09/08/2019 08:10      68.7      67.7       63     54.9      0.00      0.00      83.4     0.34      1013.9     0.5     NNE    22   1.8       E    93   9.51    270      136.1
   09/08/2019 08:00      67.8      66.0       65     55.0      0.00      0.00      83.4     0.34      1013.9     0.3     NNE    13   1.7      NE    36   9.51    271      103.0
   09/08/2019 07:50      66.3      64.2       69     54.8      0.00      0.00      83.5     0.34      1014.0     0.0       N     0   0.0     ENE    74   9.51    271       87.8
   09/08/2019 07:40      64.5      61.0       78     55.7      0.00      0.00      83.5     0.34      1014.0     0.0       N     0   0.0      NE    51   9.51    271       79.8
   09/08/2019 07:30      61.1      58.8       84     55.0      0.00      0.00      83.6     0.34      1013.9     0.0       N     0   0.0      NE    51   9.51    237       53.8
   09/08/2019 07:20      58.9      57.9       85     53.7      0.00      0.00      83.6     0.34      1013.9     0.0       N     0   0.0       E    88   9.51    222        1.6
   09/08/2019 07:10      58.2      57.4       85     53.4      0.00      0.00      83.7     0.34      1013.8     0.2      SE   144   0.7     SSE   168   9.51    224      -10.0
   09/08/2019 07:00      57.8      57.4       86     53.2      0.00      0.00      83.7     0.34      1013.7     0.2      SE   133   0.9      SE   133   9.51    227       -8.7
   09/08/2019 06:50      57.9      57.3       86     53.2      0.00      0.00      83.7     0.34      1013.6     0.3     SSE   162   0.9       S   174   9.51    228      -20.2
   09/08/2019 06:40      57.7      57.2       86     53.1      0.00      0.00      83.8     0.34      1013.6     0.3       S   182   0.9       S   191   9.51    226      -26.3
   09/08/2019 06:30      58.2      57.2       85     53.1      0.00      0.00      83.8     0.34      1013.5     0.3     SSE   158   1.2     SSE   149   9.51    226      -29.5
   09/08/2019 06:20      58.1      57.7       85     53.5      0.00      0.00      83.8     0.34      1013.4     0.0      SE   129   0.7      SE   129   9.51    224      -32.4
   09/08/2019 06:10      58.0      57.4       85     53.1      0.00      0.00      83.9     0.34      1013.4     0.6       S   172   1.4       S   173   9.51    221      -33.9
   09/08/2019 06:00      58.3      57.7       84     53.1      0.00      0.00      83.9     0.34      1013.3     0.3       S   184   1.2       S   188   9.51    221      -34.7
   09/08/2019 05:50      58.8      58.0       84     53.4      0.00      0.00      83.9     0.34      1013.2     0.0       N     0   0.0       E    91   9.51    223      -37.0
   09/08/2019 05:40      58.6      58.3       84     53.6      0.00      0.00      83.9     0.34      1013.1     0.3     SSE   153   0.9     SSE   150   9.52    221      -38.5
   09/08/2019 05:30      58.8      58.1       83     53.4      0.00      0.00      84.0     0.34      1013.1     0.2      SE   143   0.9     SSE   163   9.52    218      -41.8
   09/08/2019 05:20      58.9      58.4       84     53.7      0.00      0.00      84.0     0.34      1013.1     0.8     SSE   147   1.6      SE   140   9.52    217      -43.7
   09/08/2019 05:10      58.9      58.5       84     53.7      0.00      0.00      84.1     0.34      1013.0     0.5     SSE   166   1.2     SSE   162   9.52    217      -44.8
   09/08/2019 05:00      59.3      58.6       84     53.9      0.00      0.00      84.1     0.34      1013.0     0.5      SE   138   1.1     SSE   150   9.52    216      -46.1
   09/08/2019 04:50      59.5      58.8       83     54.0      0.00      0.00      84.2     0.34      1013.0     0.4      SE   146   1.2     SSE   148   9.52    217      -47.4
   09/08/2019 04:40      59.7      59.1       83     54.3      0.00      0.00      84.2     0.34      1013.0     0.6     SSE   153   1.4      SE   143   9.52    217      -48.9
   09/08/2019 04:30      59.7      59.3       83     54.2      0.00      0.00      84.2     0.34      1013.1     0.7     SSE   148   1.3      SE   144   9.52    217      -51.7
   09/08/2019 04:20      60.3      59.4       82     54.1      0.00      0.00      84.2     0.34      1013.1     1.0     SSE   149   2.0      SE   143   9.52    228      -54.5
   09/08/2019 04:10      60.3      59.8       81     54.1      0.00      0.00      84.2     0.34      1013.0     0.7     SSE   158   1.2      SE   142   9.52    245      -55.4
   09/08/2019 04:00      60.7      59.9       78     53.5      0.00      0.00      84.3     0.34      1013.1     0.6     SSE   147   1.4      SE   145   9.52    258      -58.1
   09/08/2019 03:50      61.2      60.3       78     54.0      0.00      0.00      84.3     0.34      1013.1     1.0      SW   233   1.7     WSW   253   9.52    266      -57.0
   09/08/2019 03:40      61.7      60.8       78     54.2      0.00      0.00      84.4     0.34      1013.1     0.2     SSE   161   1.0     SSE   156   9.52    262      -58.3
   09/08/2019 03:30      61.8      61.3       78     54.3      0.00      0.00      84.4     0.34      1013.0     0.4     SSE   158   1.1     SSE   160   9.52    269      -57.8
   09/08/2019 03:20      62.0      61.3       76     54.0      0.00      0.00      84.4     0.34      1013.0     0.2     SSE   147   1.0     SSE   151   9.52    271      -57.9
   09/08/2019 03:10      62.4      61.6       75     53.8      0.00      0.00      84.4     0.34      1013.0     0.2       S   183   1.0     SSW   202   9.52    270      -57.5
   09/08/2019 03:00      62.2      61.8       75     54.2      0.00      0.00      84.5     0.34      1013.0     0.4      SW   217   1.3     SSW   204   9.52    270      -56.7
   09/08/2019 02:50      62.8      61.7       75     54.0      0.00      0.00      84.5     0.34      1013.0     0.3     SSE   160   1.0     SSE   160   9.52    270      -57.7
   09/08/2019 02:40      64.7      62.5       71     53.7      0.00      0.00      84.5     0.34      1013.1     0.4      SE   134   1.2      SE   132   9.52    269      -58.8
   09/08/2019 02:30      64.8      64.3       71     54.8      0.00      0.00      84.6     0.34      1013.1     0.0       N   354   0.7     ENE    63   9.52    270      -57.9
   09/08/2019 02:20      65.1      64.5       70     54.9      0.00      0.00      84.6     0.34      1013.2     0.0     WNW   301   0.6     WNW   298   9.52    269      -59.1
   09/08/2019 02:10      65.1      64.8       70     54.8      0.00      0.00      84.7     0.34      1013.1     0.4       E    96   2.1     ESE   113   9.52    269      -59.6
   09/08/2019 02:00      65.1      64.7       69     54.6      0.00      0.00      84.6     0.34      1013.0     0.1       E    89   2.5      NE    40   9.52    269      -60.3
   09/08/2019 01:50      65.0      64.2       70     54.5      0.00      0.00      84.7     0.34      1013.0     1.0       E    86   3.8       E    90   9.52    269      -60.9
   09/08/2019 01:40      64.5      63.8       70     54.2      0.00      0.00      84.7     0.34      1013.0     0.8     ESE   109   2.1     ESE   104   9.53    269      -60.5
   09/08/2019 01:30      64.0      62.8       71     53.9      0.00      0.00      84.8     0.34      1013.0     0.6       E    95   2.6      SE   133   9.53    269      -59.5
   09/08/2019 01:20      62.9      62.4       70     52.6      0.00      0.00      84.8     0.34      1013.0     0.0      SE   132   0.0      SE   132   9.53    269      -58.4
   09/08/2019 01:10      62.5      61.7       67     51.1      0.00      0.00      84.8     0.34      1013.1     0.3     SSE   146   1.6     ESE   121   9.53    268      -58.6
   09/08/2019 01:00      62.3      61.8       65     50.4      0.00      0.00      84.8     0.34      1013.2     0.2     SSE   160   1.2       S   182   9.53    268      -59.1
   09/08/2019 00:50      62.3      61.8       63     49.1      0.00      0.00      84.9     0.34      1013.3     0.7     SSE   165   1.6     SSE   164   9.53    267      -59.6
   09/08/2019 00:40      62.4      62.0       63     49.3      0.00      0.00      84.9     0.34      1013.3     1.2     SSW   202   1.8      SW   217   9.53    267      -58.0
   09/08/2019 00:30      62.5      61.9       64     49.9      0.00      0.00      84.9     0.34      1013.2     0.1     SSE   162   0.9       S   186   9.53    267      -61.1
   09/08/2019 00:20      62.2      61.7       65     49.9      0.00      0.00      84.9     0.34      1013.2     0.2     SSE   166   0.8     SSE   161   9.53    267      -61.8
   09/08/2019 00:10      62.7      61.8       64     49.9      0.00      0.00      84.9     0.34      1013.1     0.4     SSE   159   1.0     SSE   160   9.53    267      -63.3
   09/08/2019 00:00      63.3      62.3       63     50.1      0.00      0.00      84.9     0.34      1013.2     0.4       S   171   1.1       S   177   9.53    267      -63.6
   09/07/2019 23:50      63.3      62.7       63     50.3      0.00      0.00      84.9     0.34      1013.2     0.3     SSW   192   1.0       S   170   9.53    267      -62.4
   09/07/2019 23:40      64.0      62.8       62     50.0      0.00      0.00      85.0     0.34      1013.1     0.3       E    99   1.0       E    97   9.54    267      -64.7
   09/07/2019 23:30      65.2      63.8       61     50.5      0.00      0.00      85.0     0.34      1013.0     0.2     SSE   149   1.1       E    97   9.54    266      -65.7
   09/07/2019 23:20      65.4      64.8       60     50.9      0.00      0.00      85.0     0.34      1013.0     0.4     SSE   168   1.6     SSE   168   9.54    266      -68.6
   09/07/2019 23:10      65.0      63.8       62     50.9      0.00      0.00      85.0     0.34      1012.8     1.9       S   170   4.1       S   175   9.54    266      -69.9
   09/07/2019 23:00      64.3      63.7       62     50.7      0.00      0.00      85.0     0.34      1013.0     0.5      SE   140   1.5      SE   137   9.54    266      -69.3
   09/07/2019 22:50      65.0      63.8       61     50.9      0.00      0.00      85.0     0.34      1012.9     1.0     SSE   167   1.9       S   175   9.54    266      -71.1
   09/07/2019 22:40      65.7      64.7       59     50.4      0.00      0.00      85.1     0.34      1012.8     1.0     SSE   160   2.3      SE   145   9.54    266      -72.2
   09/07/2019 22:30      66.1      65.5       58     50.5      0.00      0.00      85.1     0.34      1012.8     2.0      SW   220   2.8      SW   221   9.54    266      -71.0
   09/07/2019 22:20      66.8      65.7       57     50.8      0.00      0.00      85.1     0.34      1012.7     1.3     SSW   205   2.4      SW   228   9.55    266      -71.3
   09/07/2019 22:10      67.5      66.6       56     50.7      0.00      0.00      85.0     0.34      1012.7     0.3     SSW   204   1.6      SW   215   9.55    266      -74.8
   09/07/2019 22:00      68.3      67.2       55     50.8      0.00      0.00      85.1     0.34      1012.7     1.5       S   180   2.7     SSW   203   9.55    266      -76.8
   09/07/2019 21:50      68.8      67.9       53     50.7      0.00      0.00      85.1     0.34      1012.7     0.9       S   190   2.0     SSW   198   9.55    266      -79.8
   09/07/2019 21:40      70.0      68.6       51     50.5      0.00      0.00      85.1     0.34      1012.8     1.8      SW   221   3.2      SW   215   9.55    265      -80.1
   09/07/2019 21:30      70.2      69.7       50     50.2      0.00      0.00      85.0     0.34      1012.7     3.2     WSW   255   5.8       W   259   9.55    265      -80.4
   09/07/2019 21:20      70.8      69.9       48     49.9      0.00      0.00      85.1     0.34      1012.7     1.9      SW   224   6.9      SW   236   9.56    265      -79.7
   09/07/2019 21:10      71.4      70.5       46     49.5      0.00      0.00      85.1     0.34      1012.5     2.7     WSW   238   4.8     WSW   253   9.56    264      -80.0
   09/07/2019 21:00      71.5      71.0       45     48.8      0.00      0.00      85.1     0.34      1012.6     3.1     WSW   250   6.2     WSW   243   9.56    264      -78.6
   09/07/2019 20:50      71.7      71.2       44     48.4      0.00      0.00      85.1     0.34      1012.6     1.7      SW   232   3.3       S   185   9.56    264      -78.6
   09/07/2019 20:40      71.8      71.2       43     48.0      0.00      0.00      85.1     0.34      1012.5     2.5     SSW   213   4.8      SW   231   9.57    264      -79.0
   09/07/2019 20:30      72.2      71.3       41     46.8      0.00      0.00      85.1     0.34      1012.4     2.6     SSW   206   4.9      SW   219   9.57    264      -79.6
   09/07/2019 20:20      72.7      71.7       38     45.4      0.00      0.00      85.1     0.34      1012.4     2.3       S   190   4.5      SW   226   9.57    264      -80.6
   09/07/2019 20:10      73.2      72.4       36     44.3      0.00      0.00      85.1     0.34      1012.4     2.2     SSW   204   4.9      SW   228   9.57    264      -80.7
   09/07/2019 20:00      74.3      72.8       34     43.2      0.00      0.00      85.0     0.34      1012.4     0.8       S   191   3.4     SSW   207   9.58    264      -81.1
   09/07/2019 19:50      74.8      73.8       33     43.0      0.00      0.00      85.0     0.34      1012.5     1.2     SSW   200   2.6     SSW   205   9.58    263      -83.2
   09/07/2019 19:40      75.4      74.4       32     43.0      0.00      0.00      85.0     0.34      1012.5     1.8       S   183   3.3       S   187   9.58    263      -84.5
   09/07/2019 19:30      75.8      75.1       32     43.5      0.00      0.00      85.0     0.34      1012.5     2.4     SSW   208   4.7      SW   229   9.58    263      -83.9
   09/07/2019 19:20      76.5      75.6       32     44.3      0.00      0.00      85.0     0.34      1012.3     3.5      SW   227   6.4       W   260   9.59    263      -81.3
   09/07/2019 19:10      77.0      76.1       32     44.5      0.00      0.00      85.0     0.34      1012.4     5.4     WSW   240   8.2     WSW   247   9.59    263      -77.2
   09/07/2019 19:00      78.2      76.8       31     44.3      0.00      0.00      85.0     0.34      1012.5     4.8      SW   230   9.0     WSW   238   9.60    263      -70.3
   09/07/2019 18:50      79.5      77.9       29     43.6      0.00      0.00      84.9     0.34      1012.3     3.9      SW   215   8.1     SSW   209   9.60    263      -69.9
   09/07/2019 18:40      80.5      79.3       27     42.5      0.00      0.00      84.9     0.34      1012.2     4.9      SW   225  10.0     SSW   212   9.60    262      -32.1
   09/07/2019 18:30      81.2      80.2       26     42.2      0.00      0.00      84.9     0.34      1012.2     6.1     WSW   242   9.9      SW   228   9.61    262       -6.5
   09/07/2019 18:20      82.9      81.0       23     40.2      0.00      0.00      84.9     0.34      1012.2     7.9     WSW   243  12.5     WSW   245   9.61    262       20.1
   09/07/2019 18:10      83.7      82.5       22     39.7      0.00      0.00      84.8     0.34      1012.1     5.8      SW   230  11.1     SSW   199   9.62    262       45.5
   09/07/2019 18:00      83.8      83.3       21     40.0      0.00      0.00      84.8     0.34      1011.9     5.3      SW   217   9.0      SW   229   9.63    262       69.8
   09/07/2019 17:50      84.3      83.3       21     39.3      0.00      0.00      84.8     0.34      1011.9     8.3     WSW   239  12.8     WSW   238   9.63    262       95.9
   09/07/2019 17:40      85.6      84.0       20     38.7      0.00      0.00      84.8     0.34      1012.1     6.8      SW   232  11.5      SW   228   9.64    261      122.4
   09/07/2019 17:30      86.2      85.2       18     37.7      0.00      0.00      84.7     0.34      1012.2     7.7     WSW   249  11.5     WNW   281   9.65    261      147.7
   09/07/2019 17:20      87.1      86.1       19     39.1      0.00      0.00      84.7     0.34      1012.3     7.1     WSW   257  12.6     WSW   255   9.65    261      172.8
   09/07/2019 17:10      88.3      86.8       19     40.6      0.00      0.00      84.7     0.34      1012.4     8.0     WSW   258  14.6     WSW   246   9.65    261      198.5
   09/07/2019 17:00      88.8      88.0       18     39.9      0.00      0.00      84.6     0.34      1012.4     6.9     WSW   256  12.8     WSW   242   9.66    261      222.3
   09/07/2019 16:50      88.8      87.5       18     39.8      0.00      0.00      84.6     0.34      1012.4     7.4     WSW   258  12.9     WSW   257   9.67    261      246.9
   09/07/2019 16:40      88.5      87.3       19     40.2      0.00      0.00      84.6     0.34      1012.5     7.9     WSW   243  12.5      SW   235   9.67    261      270.9
   09/07/2019 16:30      89.7      88.3       17     39.1      0.00      0.00      84.5     0.34      1012.6     7.7     WSW   242  12.6      SW   219   9.68    261      292.2
   09/07/2019 16:20      90.5      89.3       17     38.5      0.00      0.00      84.5     0.34      1012.7     6.2      SW   221  11.9      SW   222   9.69    261      315.0
   09/07/2019 16:10      90.5      89.3       16     37.1      0.00      0.00      84.5     0.34      1012.8     8.1      SW   232  13.3       W   273   9.69    261      338.8
   09/07/2019 16:00      91.7      90.1       15     36.1      0.00      0.00      84.4     0.34      1012.8     8.7      SW   234  13.9     WSW   251   9.70    261      355.0
   09/07/2019 15:50      92.2      91.3       15     37.3      0.00      0.00      84.4     0.34      1012.8     7.8     WSW   237  12.0      SW   230   9.71    261      372.5
   09/07/2019 15:40      92.4      91.4       15     37.0      0.00      0.00      84.3     0.34      1012.8     7.4      SW   230  12.6     SSW   206   9.71    261      390.2
   09/07/2019 15:30      93.5      91.9       14     36.7      0.00      0.00      84.3     0.34      1013.0     8.9     WSW   243  15.5     WSW   252   9.72    262      406.8
   09/07/2019 15:20      94.3      93.1       14     37.6      0.00      0.00      84.3     0.34      1013.0     7.3     WSW   245  14.1       W   262   9.73    261      420.2
   09/07/2019 15:10      94.8      94.0       15     39.8      0.00      0.00      84.3     0.34      1013.0     7.4      SW   230  13.8     SSW   202   9.74    261      435.1
   09/07/2019 15:00      94.4      93.8       16     41.4      0.00      0.00      84.2     0.34      1013.2     6.7       W   266  11.0      SW   215   9.74    262      448.3
   09/07/2019 14:50      94.9      93.8       17     42.3      0.00      0.00      84.1     0.34      1013.3     6.4       W   260  12.2     WSW   255   9.75    262      463.7
   09/07/2019 14:40      94.7      93.3       17     42.8      0.00      0.00      84.1     0.34      1013.4     6.9     WSW   241  12.7     SSW   212   9.75    261      479.8
   09/07/2019 14:30      94.1      93.3       18     43.3      0.00      0.00      84.1     0.34      1013.5     8.3      SW   229  12.6     WSW   258   9.76    262      493.2
   09/07/2019 14:20      94.4      93.5       18     44.3      0.00      0.00      84.1     0.34      1013.5     7.2      SW   218  12.7       S   190   9.77    262      504.3
   09/07/2019 14:10      94.8      93.2       18     44.2      0.00      0.00      84.1     0.34      1013.5     8.7      SW   217  14.0     SSW   204   9.77    262      515.9
   09/07/2019 14:00      96.0      94.2       20     47.2      0.00      0.00      84.1     0.34      1013.5     7.0      SW   224  12.1     SSW   194   9.78    262      518.6
   09/07/2019 13:50      96.6      95.5       22     51.2      0.00      0.00      84.0     0.34      1013.5     3.6      SW   228   8.7     WSW   247   9.79    262      521.6
   09/07/2019 13:40      96.6      94.9       26     54.7      0.00      0.00      83.9     0.34      1013.6     2.7      SE   135   6.7      NE    50   9.79    263      529.7
   09/07/2019 13:30      96.6      94.1       28     56.5      0.00      0.00      83.9     0.34      1013.8     1.5      NE    49   6.2     NNE    19   9.79    262      532.9
   09/07/2019 13:20      96.0      94.3       28     56.7      0.00      0.00      83.9     0.34      1013.8     1.9     ENE    77   6.2     ENE    69   9.80    262      535.6
   09/07/2019 13:10      94.9      94.3       28     56.7      0.00      0.00      83.9     0.34      1013.8     2.5      NE    48   5.8     ENE    74   9.80    263      536.7
   09/07/2019 13:00      94.7      93.4       29     56.9      0.00      0.00      84.0     0.34      1013.8     2.5     ENE    57   5.2       E    91   9.80    263      543.4
   09/07/2019 12:50      94.1      93.0       30     57.2      0.00      0.00      83.9     0.34      1014.0     2.4      NE    56   5.2      NE    48   9.80    263      546.1
   09/07/2019 12:40      93.4      91.7       31     57.2      0.00      0.00      83.9     0.34      1014.1     1.7       E    88   5.1      SE   139   9.80    263      546.0
   09/07/2019 12:30      92.2      90.8       32     57.4      0.00      0.00      83.9     0.34      1014.2     2.3       E   101   6.8      SE   140   9.80    263      544.1
   09/07/2019 12:20      92.5      91.2       32     57.8      0.00      0.00      83.9     0.34      1014.3     2.8       E    85   5.7     ENE    68   9.80    263      539.4
   09/07/2019 12:10      92.1      91.3       32     57.6      0.00      0.00      83.8     0.34      1014.5     2.0     ENE    75   4.2       E    90   9.81    263      533.2
   09/07/2019 12:00      91.9      90.8       32     57.5      0.00      0.00      83.9     0.34      1014.6     2.1      NE    36   6.0     NNE    33   9.81    263      527.5
   09/07/2019 11:50      92.4      91.1       32     57.5      0.00      0.00      83.9     0.34      1014.7     2.2     ENE    74   5.0     ESE   108   9.81    263      522.8
   09/07/2019 11:40      91.4      90.0       33     57.4      0.00      0.00      83.9     0.34      1014.8     2.4      NE    43   7.0     NNW   329   9.81    263      515.6
   09/07/2019 11:30      90.6      89.7       34     57.5      0.00      0.00      83.9     0.34      1014.9     2.6       N   360   6.3      NE    37   9.81    263      506.9
   09/07/2019 11:20      90.5      89.1       34     57.9      0.00      0.00      83.9     0.34      1015.0     1.8     NNE    30   4.6     NNE    22   9.81    263      497.5
   09/07/2019 11:10      89.6      88.3       35     58.0      0.00      0.00      83.9     0.34      1015.2     1.6       E    89   2.9       E    84   9.81    263      490.0
   09/07/2019 11:00      89.1      88.3       36     58.1      0.00      0.00      83.9     0.34      1015.2     1.8     ESE   108   4.6       E    83   9.81    263      478.3
   09/07/2019 10:50      88.7      87.0       37     58.2      0.00      0.00      84.0     0.34      1015.3     1.6     NNW   341   3.5      NW   322   9.81    263      464.3
   09/07/2019 10:40      88.3      87.1       37     58.3      0.00      0.00      84.0     0.34      1015.3     1.9      NE    37   4.2     NNE    21   9.81    263      451.6
   09/07/2019 10:30      87.3      86.2       38     58.2      0.00      0.00      84.0     0.34      1015.3     1.2       N     5   3.7      NE    40   9.81    263      437.9
   09/07/2019 10:20      86.9      85.6       38     57.8      0.00      0.00      84.1     0.34      1015.4     1.5     NNE    24   3.5      NE    53   9.81    264      422.5
   09/07/2019 10:10      86.7      84.5       38     57.3      0.00      0.00      84.1     0.34      1015.4     0.8      NE    39   4.5     SSE   156   9.81    263      406.6
   09/07/2019 10:00      84.9      83.7       40     57.3      0.00      0.00      84.1     0.34      1015.5     1.6      NE    47   4.2       N     0   9.81    264      389.4
   09/07/2019 09:50      84.2      81.7       42     57.6      0.00      0.00      84.1     0.34      1015.6     1.4     ENE    68   4.1     ESE   117   9.81    264      371.2
   09/07/2019 09:40      82.6      82.0       43     57.9      0.00      0.00      84.2     0.34      1015.7     1.5     NNE    29   4.3       N     0   9.81    264      350.7
   09/07/2019 09:30      82.4      81.7       44     58.2      0.00      0.00      84.2     0.34      1015.7     1.1      NE    38   2.8     NNW   344   9.81    264      330.4
   09/07/2019 09:20      82.0      80.1       46     58.4      0.00      0.00      84.2     0.34      1015.8     0.8     ENE    64   2.5     ENE    67   9.81    265      309.1
   09/07/2019 09:10      80.3      79.5       48     58.4      0.00      0.00      84.2     0.34      1015.8     1.0      NE    45   2.6     NNE    14   9.81    264      288.1
   09/07/2019 09:00      80.7      79.9       47     58.4      0.00      0.00      84.3     0.34      1015.8     0.9     NNE    22   2.3     NNW   343   9.81    264      267.1
   09/07/2019 08:50      80.6      80.0       48     58.6      0.00      0.00      84.3     0.34      1015.8     0.5      NE    45   2.1     ESE   112   9.82    265      244.6
   09/07/2019 08:40      80.1      78.3       49     58.3      0.00      0.00      84.3     0.34      1015.7     0.4     ENE    59   1.8       E    96   9.82    264      220.9
   09/07/2019 08:30      78.6      77.8       50     58.0      0.00      0.00      84.4     0.34      1015.7     0.3     NNW   340   1.3      NW   325   9.82    266      197.9
   09/07/2019 08:20      78.6      77.8       50     57.9      0.00      0.00      84.4     0.34      1015.7     0.4      SE   126   1.5       E    95   9.82    267      172.0
   09/07/2019 08:10      78.1      76.7       51     57.9      0.00      0.00      84.5     0.34      1015.7     0.0       N     0   0.0     WSW   241   9.82    268      145.8
   09/07/2019 08:00      76.8      75.3       54     58.1      0.00      0.00      84.5     0.34      1015.7     0.0       N     0   0.0      SE   125   9.82    268      118.0
   09/07/2019 07:50      75.5      72.3       58     58.2      0.00      0.00      84.5     0.34      1015.8     0.0      SE   124   0.4      SE   124   9.82    268       89.9
   09/07/2019 07:40      72.5      69.5       63     58.0      0.00      0.00      84.6     0.34      1015.8     0.0       N     0   0.0     SSE   150   9.82    269       63.5
   09/07/2019 07:30      69.5      67.4       69     57.8      0.00      0.00      84.6     0.34      1015.8     0.4     SSE   153   0.9     SSE   151   9.82    269       34.3
   09/07/2019 07:20      67.6      66.5       72     57.5      0.00      0.00      84.6     0.34      1015.8     0.1     SSE   154   0.9     SSE   152   9.82    269      -22.2
   09/07/2019 07:10      66.7      66.1       73     57.4      0.00      0.00      84.7     0.34      1015.8     0.0      SE   145   0.9      SE   144   9.82    269      -31.5
   09/07/2019 07:00      66.3      65.7       74     57.4      0.00      0.00      84.7     0.34      1015.7     0.2     SSE   156   0.9     SSE   167   9.82    270      -26.6
   09/07/2019 06:50      66.0      65.2       74     57.0      0.00      0.00      84.7     0.34      1015.7     0.0       S   169   0.8       S   169   9.83    269      -38.2
   09/07/2019 06:40      65.6      65.2       74     56.9      0.00      0.00      84.8     0.34      1015.6     0.1     SSE   162   0.8       S   169   9.83    269      -42.9
   09/07/2019 06:30      65.7      65.2       74     56.9      0.00      0.00      84.8     0.34      1015.5     0.0     SSE   154   1.0      SE   143   9.83    269      -46.3
   09/07/2019 06:20      66.4      65.4       73     56.9      0.00      0.00      84.8     0.34      1015.4     0.2      SE   146   0.8      SE   140   9.83    269      -47.8
   09/07/2019 06:10      66.5      66.2       73     57.4      0.00      0.00      84.8     0.34      1015.4     0.2     SSE   156   0.9     SSE   161   9.83    269      -47.1
   09/07/2019 06:00      66.7      66.0       72     57.1      0.00      0.00      84.8     0.34      1015.3     0.2     SSE   153   0.6      SE   145   9.83    269      -48.1
   09/07/2019 05:50      66.7      66.0       73     57.3      0.00      0.00      84.9     0.34      1015.2     0.5     SSE   160   1.0      SE   145   9.83    269      -47.9
   09/07/2019 05:40      67.0      66.1       72     57.1      0.00      0.00      84.9     0.34      1015.1     0.2      SE   146   1.0      SE   140   9.83    269      -49.2
   09/07/2019 05:30      67.1      66.7       72     57.5      0.00      0.00      84.9     0.34      1015.1     0.5     SSE   152   1.2      SE   141   9.83    269      -48.4
   09/07/2019 05:20      67.2      66.7       71     57.3      0.00      0.00      85.0     0.34      1015.0     0.2     SSE   159   0.7     SSE   152   9.83    269      -48.8
   09/07/2019 05:10      67.3      66.8       71     57.4      0.00      0.00      85.0     0.34      1015.0     0.7      SE   142   1.8      SE   136   9.83    269      -49.8
   09/07/2019 05:00      67.6      66.9       70     57.1      0.00      0.00      85.0     0.34      1015.1     0.7     SSE   155   1.5      SE   141   9.83    269      -49.8
   09/07/2019 04:50      67.6      67.1       70     57.3      0.00      0.00      85.0     0.34      1015.2     1.0      SE   146   2.1      SE   138   9.83    268      -50.4
   09/07/2019 04:40      67.6      67.1       70     57.2      0.00      0.00      85.0     0.34      1015.2     0.9     SSE   147   1.6      SE   137   9.83    269      -50.3
   09/07/2019 04:30      67.6      67.2       70     57.1      0.00      0.00      85.1     0.34      1015.2     0.6     SSE   162   1.4     SSE   159   9.84    268      -50.3
   09/07/2019 04:20      67.9      67.3       69     57.1      0.00      0.00      85.1     0.34      1015.2     0.6     SSE   152   1.5      SE   142   9.84    268      -50.3
   09/07/2019 04:10      68.5      67.6       68     57.1      0.00      0.00      85.1     0.34      1015.2     0.8     SSE   147   1.7      SE   140   9.84    268      -49.8
   09/07/2019 04:00      68.9      68.2       67     57.3      0.00      0.00      85.1     0.34      1015.2     0.5     SSE   158   1.4     SSE   158   9.84    268      -49.5
   09/07/2019 03:50      68.7      68.2       68     57.3      0.00      0.00      85.2     0.34      1015.3     0.7     SSE   152   1.0      SE   145   9.84    268      -49.1
   09/07/2019 03:40      68.7      68.1       66     56.5      0.00      0.00      85.2     0.34      1015.3     0.4     SSE   159   1.2      SE   146   9.84    267      -50.1
   09/07/2019 03:30      68.8      68.2       66     56.4      0.00      0.00      85.2     0.34      1015.3     0.6     SSW   194   1.7      SW   236   9.84    267      -50.0
   09/07/2019 03:20      69.3      68.4       65     56.5      0.00      0.00      85.2     0.34      1015.3     0.7       S   170   1.8      SE   137   9.84    267      -49.8
   09/07/2019 03:10      69.5      68.6       64     56.2      0.00      0.00      85.3     0.34      1015.2     0.3       S   169   1.0     SSE   162   9.84    267      -49.8
   09/07/2019 03:00      69.8      69.3       64     56.7      0.00      0.00      85.3     0.34      1015.2     0.0       N     0   0.0       S   171   9.84    267      -49.5
   09/07/2019 02:50      69.9      69.2       62     55.9      0.00      0.00      85.3     0.35      1015.2     0.4     SSE   158   1.8      SE   142   9.84    267      -50.4
   09/07/2019 02:40      70.7      69.6       62     56.6      0.00      0.00      85.3     0.35      1015.2     0.4     SSE   150   1.6      SE   138   9.84    266      -50.4
   09/07/2019 02:30      70.8      70.3       62     56.8      0.00      0.00      85.3     0.34      1015.2     0.3     SSE   161   0.8     SSE   157   9.84    266      -49.6
   09/07/2019 02:20      71.0      70.5       60     56.2      0.00      0.00      85.4     0.34      1015.3     0.3       S   172   0.9     SSE   152   9.85    266      -49.6
   09/07/2019 02:10      71.0      70.4       59     55.3      0.00      0.00      85.4     0.35      1015.2     0.5     SSW   193   1.9     SSW   196   9.85    266      -49.9
   09/07/2019 02:00      71.6      70.5       57     55.0      0.00      0.00      85.4     0.34      1015.3     0.6     SSE   166   2.1     SSW   209   9.85    266      -49.7
   09/07/2019 01:50      71.8      71.2       55     54.2      0.00      0.00      85.4     0.35      1015.3     0.2       S   169   0.9       S   185   9.85    266      -49.0
   09/07/2019 01:40      71.9      71.3       54     54.0      0.00      0.00      85.4     0.34      1015.3     0.3     SSW   212   1.1     SSW   198   9.85    266      -48.7
   09/07/2019 01:30      72.0      71.3       51     52.4      0.00      0.00      85.4     0.34      1015.3     0.2     SSE   168   0.9     SSE   167   9.85    266      -49.6
   09/07/2019 01:20      72.8      71.7       48     51.6      0.00      0.00      85.5     0.34      1015.4     0.4     SSE   160   1.2       S   183   9.85    266      -49.6
   09/07/2019 01:10      72.6      72.2       47     51.3      0.00      0.00      85.5     0.34      1015.4     0.4       S   190   1.4       S   190   9.85    266      -48.7
   09/07/2019 01:00      72.4      71.8       48     51.4      0.00      0.00      85.5     0.34      1015.4     0.2       S   189   1.1       S   171   9.85    266      -48.4
   09/07/2019 00:50      72.6      71.7       48     51.6      0.00      0.00      85.5     0.35      1015.4     0.3     SSE   165   0.9      SE   141   9.86    265      -48.6
   09/07/2019 00:40      73.0      72.3       47     51.5      0.00      0.00      85.5     0.35      1015.4     0.3      SE   136   1.4      SE   140   9.86    265      -49.5
   09/07/2019 00:30      73.2      72.6       48     51.9      0.00      0.00      85.5     0.35      1015.4     0.4     SSE   160   1.0     SSE   149   9.86    265      -49.6
   09/07/2019 00:20      73.5      72.9       47     51.9      0.00      0.00      85.6     0.35      1015.4     0.7     SSE   153   1.5     ESE   119   9.86    265      -50.3
   09/07/2019 00:10      73.7      73.1       47     51.8      0.00      0.00      85.5     0.35      1015.4     0.4     SSE   152   1.3      SE   134   9.86    265      -50.6
   09/07/2019 00:00      73.8      73.3       46     51.8      0.00      0.00      85.6     0.35      1015.4     0.6     SSE   156   1.9     SSE   163   9.86    265      -51.5
   09/06/2019 23:50      74.5      73.4       45     51.5      0.00      0.00      85.6     0.35      1015.4     1.0     SSE   159   2.2      SE   146   9.86    265      -51.6
   09/06/2019 23:40      74.6      74.2       45     51.5      0.00      0.00      85.6     0.35      1015.5     0.4     SSE   155   1.4     SSE   155   9.87    265      -51.5
   09/06/2019 23:30      74.8      74.2       43     50.8      0.00      0.00      85.6     0.35      1015.5     0.3     SSE   161   1.4     SSE   158   9.87    264      -51.6
   09/06/2019 23:20      75.8      74.5       43     50.9      0.00      0.00      85.6     0.35      1015.5     0.5     SSE   162   0.9     SSE   158   9.87    264      -51.6
   09/06/2019 23:10      75.8      75.0       42     51.0      0.00      0.00      85.6     0.35      1015.6     0.3       S   189   1.1     SSW   206   9.87    264      -50.5
   09/06/2019 23:00      75.8      75.1       43     51.1      0.00      0.00      85.6     0.35      1015.6     0.1     SSE   157   0.6       S   174   9.87    264      -51.6
   09/06/2019 22:50      76.6      75.4       41     50.4      0.00      0.00      85.5     0.35      1015.8     0.3     SSE   155   1.1     SSE   167   9.87    264      -52.3
   09/06/2019 22:40      77.5      76.3       39     50.1      0.00      0.00      85.6     0.35      1015.8     0.2     SSE   150   1.0     SSE   152   9.88    264      -52.6
   09/06/2019 22:30      77.5      77.0       39     50.3      0.00      0.00      85.5     0.35      1015.9     0.2     SSE   168   0.8       S   178   9.88    264      -52.4
   09/06/2019 22:20      77.7      77.0       39     50.3      0.00      0.00      85.6     0.35      1015.9     0.3     SSE   166   0.9       S   171   9.88    264      -52.7
   09/06/2019 22:10      78.0      77.4       38     50.3      0.00      0.00      85.6     0.35      1016.0     0.0     SSW   198   0.9     SSW   208   9.88    264      -53.6
   09/06/2019 22:00      78.6      77.8       38     50.5      0.00      0.00      85.6     0.35      1015.9     0.5       E    87   1.4       S   176   9.88    264      -55.2
   09/06/2019 21:50      78.4      77.8       38     50.4      0.00      0.00      85.5     0.35      1015.9     0.2       E    83   1.2     SSW   199   9.88    264      -54.4
   09/06/2019 21:40      78.4      77.8       39     51.1      0.00      0.00      85.6     0.35      1015.9     0.4     SSE   163   1.5       S   176   9.89    264      -55.3
   09/06/2019 21:30      78.9      77.8       39     51.0      0.00      0.00      85.5     0.35      1016.0     0.4       E    91   1.2      NE    44   9.89    264      -55.2
   09/06/2019 21:20      79.7      78.5       38     51.2      0.00      0.00      85.5     0.35      1016.0     0.3       E    88   0.9     ENE    78   9.89    264      -56.1
   09/06/2019 21:10      80.5      79.3       37     51.1      0.00      0.00      85.5     0.35      1015.9     0.3       S   172   1.2       S   175   9.89    264      -57.4
   09/06/2019 21:00      80.9      80.2       36     51.2      0.00      0.00      85.5     0.35      1015.9     1.2       S   178   2.2       S   179   9.89    264      -59.6
   09/06/2019 20:50      81.2      80.6       36     51.2      0.00      0.00      85.5     0.35      1015.9     1.8     SSW   213   3.5      SW   233   9.90    264      -60.2
   09/06/2019 20:40      81.4      80.8       37     52.3      0.00      0.00      85.5     0.35      1015.8     1.4     WSW   236   3.0     WSW   244   9.90    264      -60.5
   09/06/2019 20:30      81.9      81.0       38     53.6      0.00      0.00      85.5     0.35      1015.8     1.3     SSW   198   2.3      SW   220   9.90    264      -62.2
   09/06/2019 20:20      82.8      81.6       38     53.6      0.00      0.00      85.5     0.34      1015.8     1.4      SW   221   3.1     SSW   212   9.90    264      -63.3
   09/06/2019 20:10      83.6      82.4       37     53.8      0.00      0.00      85.5     0.34      1015.8     0.5     WSW   238   1.6      SW   220   9.91    264      -64.7
   09/06/2019 20:00      84.0      83.1       36     53.8      0.00      0.00      85.4     0.35      1015.7     1.7       W   280   3.8     NNW   328   9.91    264      -66.2
   09/06/2019 19:50      84.8      83.7       35     53.7      0.00      0.00      85.4     0.34      1015.6     1.7     WNW   289   3.7       W   263   9.91    264      -66.9
   09/06/2019 19:40      85.6      84.5       34     53.4      0.00      0.00      85.4     0.34      1015.5     1.5     WNW   292   3.3      NW   311   9.91    264      -67.5
   09/06/2019 19:30      86.0      85.2       31     51.3      0.00      0.00      85.3     0.34      1015.4     2.3       W   279   5.5      NW   307   9.92    263      -67.8
   09/06/2019 19:20      86.4      85.6       29     50.0      0.00      0.00      85.3     0.34      1015.4     3.9     WSW   245   6.7      SW   228   9.92    263      -66.3
   09/06/2019 19:10      87.3      86.1       28     49.6      0.00      0.00      85.3     0.34      1015.3     4.0      SW   228   7.8      SW   221   9.93    263      -63.0
   09/06/2019 19:00      88.4      87.1       27     49.2      0.00      0.00      85.3     0.34      1015.3     4.5     WSW   245   7.2      SW   230   9.93    263      -55.6
   09/06/2019 18:50      89.3      88.1       26     49.0      0.00      0.00      85.2     0.34      1015.2     3.3     WSW   241   6.9     WSW   248   9.94    263      -50.3
   09/06/2019 18:40      90.1      89.0       25     49.2      0.00      0.00      85.2     0.34      1015.3     3.7      SW   230   6.0       W   267   9.94    263      -22.8
   09/06/2019 18:30      91.0      89.8       24     49.1      0.00      0.00      85.2     0.34      1015.2     3.6      SW   233   6.8      SW   223   9.94    263       -0.4
   09/06/2019 18:20      91.1      90.4       24     48.9      0.00      0.00      85.2     0.34      1015.2     4.0     WSW   241   6.4       W   275   9.95    263       25.5
   09/06/2019 18:10      91.1      90.6       24     48.7      0.00      0.00      85.1     0.34      1015.3     4.1      SW   230   7.8     WSW   240   9.95    262       49.1
   09/06/2019 18:00      91.4      90.8       25     49.9      0.00      0.00      85.1     0.34      1015.2     5.3      SW   228   8.7     SSW   208   9.96    262       73.7
   09/06/2019 17:50      92.1      90.8       25     50.8      0.00      0.00      85.0     0.34      1015.2     5.5      SW   217   8.5     SSW   213   9.97    263       97.4
   09/06/2019 17:40      92.4      91.7       25     51.4      0.00      0.00      85.0     0.34      1015.3     5.9     WSW   246  10.7     WSW   247   9.97    263      122.1
   09/06/2019 17:30      93.3      92.1       25     51.9      0.00      0.00      85.0     0.34      1015.2     5.4      SW   232   8.5     SSW   212   9.98    262      145.8
   09/06/2019 17:20      93.1      92.5       24     50.8      0.00      0.00      84.9     0.34      1015.3     5.1      SW   231   8.9      SW   219   9.99    263      169.6
   09/06/2019 17:10      93.7      92.7       23     49.9      0.00      0.00      84.9     0.34      1015.3     6.2      SW   229   9.8       W   260   9.99    262      194.5
   09/06/2019 17:00      93.6      93.1       22     48.3      0.00      0.00      84.9     0.34      1015.3     5.9      SW   224  10.9      SW   217  10.00    262      218.1
   09/06/2019 16:50      94.3      93.2       22     49.0      0.00      0.00      84.9     0.34      1015.3     7.2      SW   222  10.3       W   259  10.00    262      241.1
   09/06/2019 16:40      95.2      94.1       21     49.1      0.00      0.00      84.8     0.34      1015.3     7.1      SW   233  12.3       W   259  10.01    262      263.7
   09/06/2019 16:30      95.4      94.8       21     48.9      0.00      0.00      84.8     0.34      1015.3     5.7     WSW   241  12.8     WSW   247  10.02    262      283.9
   09/06/2019 16:20      96.4      94.9       20     48.5      0.00      0.00      84.8     0.34      1015.4     7.0     WSW   245  11.5     WSW   255  10.03    262      307.2
   09/06/2019 16:10      96.4      95.8       20     48.7      0.00      0.00      84.7     0.34      1015.3     5.5       W   266  10.8       W   263  10.03    262      326.6
   09/06/2019 16:00      96.8      96.0       20     49.3      0.00      0.00      84.6     0.34      1015.3     6.8       W   261  11.3       W   260  10.04    262      345.9
   09/06/2019 15:50      96.8      96.0       22     51.4      0.00      0.00      84.6     0.34      1015.3     5.6     WNW   282  11.3     WNW   298  10.04    262      365.0
   09/06/2019 15:40      97.3      96.5       22     52.1      0.00      0.00      84.6     0.34      1015.3     5.6       W   273  10.1     WSW   253  10.05    263      384.3
   09/06/2019 15:30      97.0      95.9       23     52.7      0.00      0.00      84.6     0.34      1015.3     7.1     WSW   246  10.9       W   280  10.06    263      403.3
   09/06/2019 15:20      97.9      96.3       23     53.4      0.00      0.00      84.5     0.34      1015.4     7.5     WSW   251  13.2     WSW   239  10.06    263      415.8
   09/06/2019 15:10      98.2      97.2       23     53.8      0.00      0.00      84.5     0.34      1015.4     6.2       W   263  11.3      SW   226  10.06    263      430.5
   09/06/2019 15:00      98.4      97.5       23     54.4      0.00      0.00      84.4     0.34      1015.5     6.4     WSW   254  11.9     WSW   255  10.07    262      444.5
   09/06/2019 14:50      98.4      97.4       24     54.7      0.00      0.00      84.4     0.34      1015.5     6.3     WSW   258  10.9       W   265  10.08    262      457.7
   09/06/2019 14:40      98.3      97.0       25     55.6      0.00      0.00      84.4     0.34      1015.5     6.5      SW   225  11.3     SSW   210  10.09    262      472.2
   09/06/2019 14:30      98.7      97.1       25     56.3      0.00      0.00      84.4     0.34      1015.7     5.8      SW   229  12.0      SW   217  10.09    262      480.8
   09/06/2019 14:20      99.1      97.7       25     55.9      0.00      0.00      84.3     0.34      1015.7     5.0     WSW   243   9.3       W   276  10.10    263      489.5
   09/06/2019 14:10      99.2      98.1       24     55.8      0.00      0.00      84.2     0.34      1015.8     2.6      NE    37   4.4     ESE   111  10.10    263      496.6
   09/06/2019 14:00      98.5      96.9       25     55.8      0.00      0.00      84.2     0.34      1015.9     2.6     SSW   213   5.3      SW   231  10.11    262      508.0
   09/06/2019 13:50      97.6      96.6       25     55.9      0.00      0.00      84.2     0.34      1016.0     2.4      SE   146   4.4       E    98  10.11    262      518.1
   09/06/2019 13:40      98.1      95.7       25     56.0      0.00      0.00      84.1     0.34      1016.0     2.6     ESE   116   7.7      SE   140  10.12    262      524.5
   09/06/2019 13:30      98.2      96.5       26     56.6      0.00      0.00      84.1     0.34      1016.3     2.7     ENE    65   5.1     SSW   205  10.12    263      525.3
   09/06/2019 13:20      98.0      96.0       27     56.9      0.00      0.00      84.1     0.34      1016.4     1.8       E    79   5.3     ENE    60  10.12    262      531.6
   09/06/2019 13:10      97.0      95.8       27     57.0      0.00      0.00      84.1     0.34      1016.5     2.5       E    85   5.3     ESE   121  10.13    263      536.5
   09/06/2019 13:00      97.0      96.0       27     56.9      0.00      0.00      84.1     0.34      1016.6     2.3      NE    38   4.8      NE    54  10.13    262      535.1
   09/06/2019 12:50      96.5      95.4       27     56.6      0.00      0.00      84.0     0.34      1016.7     2.9      NE    52   6.1     NNE    14  10.13    262      538.6
   09/06/2019 12:40      97.1      95.5       26     56.1      0.00      0.00      84.0     0.34      1016.7     2.8      NE    45   6.6     NNE    17  10.14    262      536.3
   09/06/2019 12:30      96.6      95.1       25     54.8      0.00      0.00      84.0     0.34      1016.8     2.7     ESE   121   6.8     ESE   122  10.14    262      536.5
   09/06/2019 12:20      96.8      95.5       24     53.1      0.00      0.00      84.0     0.34      1016.9     2.1     ESE   104   4.8     SSW   195  10.14    262      533.4
   09/06/2019 12:10      96.6      95.2       24     53.2      0.00      0.00      84.0     0.34      1016.9     2.1      NE    48   6.0     SSW   192  10.15    261      528.2
   09/06/2019 12:00      96.0      95.1       23     52.3      0.00      0.00      84.0     0.34      1017.0     2.1     ENE    65   4.9     NNE    20  10.15    262      524.2
   09/06/2019 11:50      95.9      94.4       23     51.7      0.00      0.00      84.0     0.34      1017.1     1.4     ENE    66   3.1     NNE    20  10.15    262      517.9
   09/06/2019 11:40      94.5      93.7       24     51.9      0.00      0.00      84.0     0.34      1017.3     2.1     ENE    61   4.4     ENE    77  10.16    262      513.6
   09/06/2019 11:30      94.6      92.9       24     51.9      0.00      0.00      84.0     0.34      1017.3     2.0      NE    46   5.5     ESE   122  10.17    262      506.1
   09/06/2019 11:20      94.2      92.2       25     52.5      0.00      0.00      84.0     0.34      1017.3     1.1       E    90   3.8       E    87  10.17    262      499.8
   09/06/2019 11:10      92.6      91.5       26     52.5      0.00      0.00      84.0     0.34      1017.4     2.0     ESE   103   4.9      NE    43  10.18    262      489.5
   09/06/2019 11:00      91.9      90.3       26     51.9      0.00      0.00      84.1     0.34      1017.5     1.4       E    98   2.9     ESE   114  10.19    262      478.1
   09/06/2019 10:50      91.1      90.2       28     52.6      0.00      0.00      84.1     0.34      1017.5     2.0      SE   130   4.5     ESE   123  10.20    262      468.2
   09/06/2019 10:40      90.9      89.1       28     52.8      0.00      0.00      84.1     0.34      1017.6     1.4     NNE    26   3.4      NE    47  10.21    262      452.1
   09/06/2019 10:30      89.4      88.3       28     51.8      0.00      0.00      84.1     0.34      1017.6     1.4       N     4   3.2     ENE    68  10.22    263      437.3
   09/06/2019 10:20      88.7      87.6       29     51.4      0.00      0.00      84.2     0.34      1017.6     1.5      NE    36   3.3     NNE    12  10.23    262      423.9
   09/06/2019 10:10      87.9      86.7       31     52.8      0.00      0.00      84.2     0.34      1017.6     1.2     NNE    16   2.7     NNW   339  10.25    263      406.7
   09/06/2019 10:00      87.2      85.9       33     53.5      0.00      0.00      84.2     0.34      1017.7     0.9     NNE    13   3.0     NNE    22  10.26    263      388.6
   09/06/2019 09:50      86.2      84.7       35     54.2      0.00      0.00      84.3     0.34      1017.8     1.2     ENE    64   2.7     ESE   120  10.27    263      372.5
   09/06/2019 09:40      85.3      84.2       37     55.4      0.00      0.00      84.2     0.34      1017.9     0.7     NNE    15   2.3     ENE    62  10.29    263      352.7
   09/06/2019 09:30      84.7      83.7       38     55.4      0.00      0.00      84.3     0.34      1017.9     0.7     NNE    24   2.7     NNE    13  10.30    263      331.7
   09/06/2019 09:10      82.3      81.3       40     55.5      0.00      0.00      84.4     0.34      1017.8     1.0       E   100   2.4     ESE   106   9.49    263      286.7
   09/06/2019 09:00      81.6      81.1       41     55.1      0.00      0.00      84.4     0.34      1017.8     1.0     NNE    21   2.9       N     8   9.49    264      265.0
   09/06/2019 08:50      81.7      81.0       41     55.5      0.00      0.00      84.4     0.34      1017.8     0.9     ENE    63   2.5      NE    54   9.50    264      244.0
   09/06/2019 08:40      81.4      80.3       43     56.2      0.00      0.00      84.5     0.34      1017.8     0.9       E    84   2.4       E    84   9.50    264      219.9
   09/06/2019 08:30      80.6      79.8       44     56.2      0.00      0.00      84.5     0.34      1017.8     0.4      NE    41   1.6     NNW   340   9.50    264      197.0
   09/06/2019 08:20      80.0      77.7       45     55.7      0.00      0.00      84.6     0.34      1017.8     0.3     ENE    63   1.6      NE    36   9.50    266      172.3
   09/06/2019 08:10      79.8      77.8       44     54.8      0.00      0.00      84.6     0.34      1017.7     0.7      SE   143   1.4      SE   127   9.50    266      145.6
   09/06/2019 08:00      79.8      77.8       43     54.3      0.00      0.00      84.6     0.34      1017.7     0.0       N     0   0.6       N     0   9.50    266      119.1
   09/06/2019 07:50      78.0      75.2       46     54.3      0.00      0.00      84.6     0.34      1017.6     0.0       N     0   0.0     ENE    59   9.50    266       91.7
   09/06/2019 07:40      75.4      71.1       51     54.1      0.00      0.00      84.7     0.34      1017.5     0.0      NE    55   0.7     ENE    57   9.50    266       65.8
   09/06/2019 07:30      71.1      68.9       57     54.0      0.00      0.00      84.7     0.34      1017.5     0.1     ESE   123   0.6     ESE   113   9.50    266       35.6
   09/06/2019 07:20      69.2      68.2       59     53.7      0.00      0.00      84.8     0.34      1017.4     0.0     ESE   117   0.5     ESE   114   9.50    267      -20.3
   09/06/2019 07:10      68.4      67.6       60     53.4      0.00      0.00      84.8     0.34      1017.4     0.0       N     0   0.0      SE   141   9.50    267      -26.0
   09/06/2019 07:00      67.8      67.3       60     53.3      0.00      0.00      84.8     0.34      1017.2     0.1      SE   136   0.6      SE   141   9.50    267      -25.6
   09/06/2019 06:50      67.7      67.3       60     53.2      0.00      0.00      84.9     0.34      1017.2     0.4      SE   144   1.1      SE   145   9.51    267      -35.4
   09/06/2019 06:40      67.6      67.2       61     53.3      0.00      0.00      84.9     0.34      1017.1     0.1     SSE   153   0.8     SSE   153   9.51    267      -39.0
   09/06/2019 06:30      67.6      66.8       60     52.8      0.00      0.00      84.9     0.34      1017.0     0.5     SSE   156   1.2       S   186   9.51    267      -42.8
   09/06/2019 06:20      67.0      66.4       61     52.7      0.00      0.00      84.9     0.34      1016.9     0.6     SSE   165   1.4      SE   134   9.51    267      -44.7
   09/06/2019 06:10      67.2      66.4       62     53.1      0.00      0.00      84.9     0.34      1016.8     0.1     SSE   168   0.6     SSE   166   9.51    267      -45.3
   09/06/2019 06:00      67.4      66.8       62     53.9      0.00      0.00      85.0     0.34      1016.8     0.5     SSE   148   1.1     SSE   146   9.51    267      -45.2
   09/06/2019 05:50      68.0      67.2       62     53.8      0.00      0.00      85.0     0.34      1016.8     0.0     SSE   147   0.7     SSE   147   9.51    267      -45.4
   09/06/2019 05:40      68.5      67.8       61     54.0      0.00      0.00      85.0     0.35      1016.7     0.2     SSE   150   0.9     SSE   147   9.51    266      -45.2
   09/06/2019 05:30      68.5      67.9       60     53.8      0.00      0.00      85.1     0.35      1016.7     0.2     SSE   152   0.8     SSE   156   9.51    266      -44.2
   09/06/2019 05:20      68.2      67.6       60     53.6      0.00      0.00      85.0     0.35      1016.7     0.2      SE   144   0.7      SE   144   9.51    266      -45.3
   09/06/2019 05:10      68.2      67.7       60     53.4      0.00      0.00      85.1     0.35      1016.7     0.2     SSE   162   1.0     SSE   152   9.51    266      -45.5
   09/06/2019 05:00      68.3      68.0       59     53.2      0.00      0.00      85.1     0.35      1016.7     0.3      SE   145   1.1      SE   134   9.51    266      -45.8
   09/06/2019 04:50      68.6      68.0       60     53.6      0.00      0.00      85.1     0.35      1016.7     0.2     SSE   154   0.7     SSE   158   9.52    266      -46.5
   09/06/2019 04:40      68.7      68.2       59     53.4      0.00      0.00      85.2     0.35      1016.7     0.6     SSE   157   1.1     SSE   156   9.52    266      -46.5
   09/06/2019 04:30      68.9      68.3       57     52.8      0.00      0.00      85.2     0.35      1016.7     0.5     SSE   155   1.1     SSE   147   9.52    266      -46.8
   09/06/2019 04:20      69.0      68.4       56     52.4      0.00      0.00      85.2     0.35      1016.7     0.1     SSE   159   0.9       S   180   9.52    266      -46.2
   09/06/2019 04:10      69.5      68.6       54     51.9      0.00      0.00      85.3     0.35      1016.7     0.2      SE   139   1.2     SSE   147   9.52    266      -47.0
   09/06/2019 04:00      69.9      69.1       54     52.0      0.00      0.00      85.2     0.35      1016.7     0.5      SE   138   1.5      SE   144   9.52    266      -46.0
   09/06/2019 03:50      69.8      69.1       54     51.9      0.00      0.00      85.3     0.35      1016.7     0.5     SSE   152   2.4      SE   137   9.52    266      -45.8
   09/06/2019 03:40      70.7      69.4       51     51.1      0.00      0.00      85.4     0.35      1016.7     0.5     SSE   154   1.8      SE   142   9.52    266      -47.0
   09/06/2019 03:30      70.6      70.2       50     51.1      0.00      0.00      85.4     0.35      1016.7     0.3     SSE   166   0.9       S   182   9.52    266      -47.0
   09/06/2019 03:20      70.7      70.3       51     51.4      0.00      0.00      85.4     0.35      1016.7     0.0       N     0   0.0      SE   132   9.52    266      -42.9
   09/06/2019 03:10      70.7      70.3       50     50.9      0.00      0.00      85.5     0.35      1016.7     0.0      SE   144   0.4      SE   138   9.53    266      -35.0
   09/06/2019 03:00      70.8      70.2       51     51.2      0.00      0.00      85.4     0.35      1016.7     0.0       S   174   0.5       S   174   9.53    266      -34.1
   09/06/2019 02:50      71.0      70.4       50     51.3      0.00      0.00      85.4     0.35      1016.8     0.1     SSE   163   0.6       S   170   9.53    266      -39.3
   09/06/2019 02:40      70.6      70.1       51     51.3      0.00      0.00      85.4     0.35      1016.8     0.8     SSE   147   1.9      SE   138   9.53    266      -45.6
   09/06/2019 02:30      70.5      70.0       51     51.2      0.00      0.00      85.4     0.35      1016.8     0.5     SSE   156   1.9      SE   144   9.53    266      -47.3
   09/06/2019 02:20      70.7      70.0       51     51.3      0.00      0.00      85.5     0.35      1016.8     0.4     SSE   164   0.9     SSE   161   9.53    266      -47.8
   09/06/2019 02:10      70.9      70.4       51     51.6      0.00      0.00      85.5     0.35      1016.9     0.2       S   180   0.9       S   179   9.53    266      -47.7
   09/06/2019 02:00      71.5      70.5       50     51.5      0.00      0.00      85.5     0.35      1017.0     0.2     SSE   148   1.0     SSE   158   9.53    266      -49.0
   09/06/2019 01:50      71.5      71.1       50     51.6      0.00      0.00      85.5     0.35      1017.0     0.2     SSE   155   1.0     SSE   151   9.53    266      -49.2
   09/06/2019 01:40      71.8      71.2       49     51.3      0.00      0.00      85.6     0.35      1017.0     0.3     SSE   147   1.0      SE   139   9.54    266      -49.9
   09/06/2019 01:30      72.2      71.7       48     51.3      0.00      0.00      85.6     0.35      1017.0     0.7     SSE   155   1.2      SE   144   9.54    265      -50.0
   09/06/2019 01:20      72.1      71.6       48     51.3      0.00      0.00      85.6     0.35      1017.0     1.5      SE   143   2.3      SE   136   9.54    265      -50.7
   09/06/2019 01:10      72.3      71.7       48     51.0      0.00      0.00      85.6     0.35      1017.0     0.4     SSE   158   1.1     SSE   148   9.54    265      -49.5
   09/06/2019 01:00      73.2      72.0       46     50.7      0.00      0.00      85.6     0.35      1017.0     0.3     SSE   160   0.9     SSE   167   9.54    265      -49.9
   09/06/2019 00:50      73.4      72.8       45     50.4      0.00      0.00      85.7     0.35      1017.0     0.2     SSE   165   0.9     SSE   156   9.54    265      -49.6
   09/06/2019 00:40      73.1      72.6       46     50.9      0.00      0.00      85.7     0.35      1016.9     0.0       S   173   0.6       S   173   9.54    264      -50.0
   09/06/2019 00:30      73.4      72.7       46     50.8      0.00      0.00      85.7     0.35      1016.8     1.1     SSE   149   1.7      SE   141   9.55    264      -50.7
   09/06/2019 00:20      74.0      73.0       43     49.8      0.00      0.00      85.7     0.35      1016.7     0.3     SSE   160   1.2       S   178   9.55    264      -50.4
   09/06/2019 00:10      74.0      73.7       42     49.5      0.00      0.00      85.7     0.35      1016.7     0.2       S   175   1.4     SSW   193   9.55    264      -49.5
   09/06/2019 00:00      74.4      73.7       43     50.1      0.00      0.00      85.7     0.35      1016.7     0.0       N     0   0.0     SSE   163   9.55    264      -50.4
   09/05/2019 23:50      75.0      74.2       41     49.4      0.00      0.00      85.7     0.35      1016.7     0.5     SSE   166   1.6       S   177   9.55    264      -51.1
   09/05/2019 23:40      74.9      74.5       41     49.3      0.00      0.00      85.7     0.35      1016.7     0.4     SSW   199   1.2     SSW   193   9.55    264      -50.5
   09/05/2019 23:30      75.5      74.5       40     49.3      0.00      0.00      85.8     0.35      1016.7     0.0       N     0   0.0     SSE   150   9.56    264      -52.0
   09/05/2019 23:20      75.5      75.2       40     49.4      0.00      0.00      85.8     0.35      1016.7     0.2     SSE   156   1.0     SSE   156   9.56    264      -52.6
   09/05/2019 23:10      75.9      75.3       40     49.3      0.00      0.00      85.7     0.35      1016.7     0.3     SSE   161   0.8     SSE   155   9.56    264      -53.3
   09/05/2019 23:00      76.6      75.6       38     48.7      0.00      0.00      85.8     0.35      1016.6     0.3     SSE   164   1.0       S   180   9.56    264      -52.8
   09/05/2019 22:50      77.4      76.2       37     48.1      0.00      0.00      85.7     0.35      1016.6     0.1     SSE   168   0.9     SSE   154   9.56    264      -53.4
   09/05/2019 22:40      77.3      76.2       36     47.6      0.00      0.00      85.8     0.35      1016.6     0.2     SSE   164   0.8     SSE   156   9.56    264      -53.1
   09/05/2019 22:30      76.8      76.2       35     47.2      0.00      0.00      85.7     0.35      1016.4     0.1     SSE   165   0.6     SSE   154   9.57    264      -53.1
   09/05/2019 22:20      77.6      76.6       34     46.4      0.00      0.00      85.8     0.35      1016.3     0.2     SSE   151   0.7      SE   146   9.57    264      -54.7
   09/05/2019 22:10      77.8      77.3       32     45.6      0.00      0.00      85.8     0.35      1016.2     0.5       S   181   1.3     SSW   206   9.57    264      -54.7
   09/05/2019 22:00      78.4      77.3       32     45.4      0.00      0.00      85.7     0.35      1016.1     0.3       S   172   0.8     SSW   192   9.57    263      -55.8
   09/05/2019 21:50      79.2      78.1       31     45.1      0.00      0.00      85.7     0.35      1016.1     0.6     SSE   149   1.1      SE   145   9.57    263      -56.9
   09/05/2019 21:40      79.4      78.7       29     44.4      0.00      0.00      85.7     0.35      1016.0     0.2     SSE   151   0.9      SE   144   9.58    263      -57.9
   09/05/2019 21:30      80.8      79.2       28     43.8      0.00      0.00      85.7     0.35      1016.0     0.4     SSE   165   0.9       S   178   9.58    263      -58.0
   09/05/2019 21:20      80.9      80.3       27     43.3      0.00      0.00      85.7     0.35      1015.8     0.5     ESE   114   2.1       E   101   9.58    263      -59.8
   09/05/2019 21:10      81.1      80.6       27     43.4      0.00      0.00      85.7     0.35      1015.8     0.5      SE   135   1.5      SE   140   9.58    263      -60.5
   09/05/2019 21:00      81.2      80.8       27     43.4      0.00      0.00      85.7     0.35      1015.6     0.5      SE   135   1.8      SE   126   9.59    263      -60.6
   09/05/2019 20:50      81.7      80.9       27     44.4      0.00      0.00      85.7     0.35      1015.5     0.1     ESE   117   1.0     ESE   123   9.59    263      -60.3
   09/05/2019 20:40      82.8      81.5       27     45.1      0.00      0.00      85.7     0.35      1015.3     0.0      SE   143   1.5       E   100   9.59    263      -61.7
   09/05/2019 20:30      83.4      82.4       26     44.9      0.00      0.00      85.6     0.35      1015.1     0.4     SSE   156   1.9      SE   141   9.59    263      -63.1
   09/05/2019 20:20      84.6      83.1       26     45.5      0.00      0.00      85.6     0.35      1015.0     0.2      SE   146   1.4      SE   143   9.60    263      -63.9
   09/05/2019 20:10      85.4      84.4       26     46.3      0.00      0.00      85.6     0.35      1014.9     0.0     ENE    70   0.9     ENE    67   9.60    263      -64.8
   09/05/2019 20:00      86.0      85.0       26     46.6      0.00      0.00      85.6     0.35      1014.7     0.5      NE    50   2.2      NE    55   9.60    263      -65.3
   09/05/2019 19:50      87.9      85.7       24     45.1      0.00      0.00      85.5     0.35      1014.5     2.1       S   182   3.0     SSW   195   9.60    263      -64.4
   09/05/2019 19:40      88.4      87.6       23     45.1      0.00      0.00      85.5     0.35      1014.4     2.2     WSW   245   3.2       W   268   9.61    262      -67.5
   09/05/2019 19:30      89.0      88.0       22     45.1      0.00      0.00      85.5     0.35      1014.4     1.8       W   279   3.2     WSW   257   9.61    263      -68.9
   09/05/2019 19:20      89.6      88.6       22     45.1      0.00      0.00      85.5     0.35      1014.3     1.6      NW   304   3.2     WSW   241   9.61    262      -68.0
   09/05/2019 19:10      90.0      89.2       22     45.1      0.00      0.00      85.4     0.35      1014.3     1.5       W   268   3.8       W   263   9.62    262      -63.9
   09/05/2019 19:00      90.9      89.7       21     45.4      0.00      0.00      85.4     0.35      1014.2     2.3      NW   307   6.1     WSW   255   9.62    262      -55.3
   09/05/2019 18:50      92.1      90.7       21     46.3      0.00      0.00      85.3     0.35      1014.1     2.7      NW   306   7.0     NNW   328   9.63    262      -41.0
   09/05/2019 18:40      93.0      91.9       21     47.2      0.00      0.00      85.3     0.34      1014.0     2.4      NW   321   5.1      NW   313   9.63    262      -21.0
   09/05/2019 18:30      94.1      92.7       21     47.4      0.00      0.00      85.3     0.34      1013.8     2.1     NNW   333   4.8     NNW   331   9.64    262        1.4
   09/05/2019 18:20      94.3      93.9       21     48.7      0.00      0.00      85.3     0.34      1013.8     2.2     WNW   298   5.0     WNW   298   9.64    262       25.2
   09/05/2019 18:10      94.5      93.8       22     48.9      0.00      0.00      85.2     0.34      1013.7     2.4      NW   309   5.9      NW   307   9.64    262       47.7
   09/05/2019 18:00      94.4      93.9       22     49.1      0.00      0.00      85.2     0.34      1013.5     2.7      NW   318   6.3       N     0   9.65    262       70.7
   09/05/2019 17:50      94.8      94.2       22     49.7      0.00      0.00      85.1     0.34      1013.5     3.8      NW   305   7.7       W   281   9.65    262       94.7
   09/05/2019 17:40      96.0      94.4       22     50.2      0.00      0.00      85.1     0.34      1013.5     4.3     WNW   301   9.6       N     8   9.66    262      118.9
   09/05/2019 17:30      96.0      95.2       22     50.9      0.00      0.00      85.1     0.34      1013.4     3.0     WNW   286   6.6     WSW   246   9.66    262      142.1
   09/05/2019 17:20      95.9      95.1       22     51.1      0.00      0.00      85.1     0.34      1013.3     4.5      SW   215   8.7     SSW   209   9.67    262      169.3
   09/05/2019 17:10      97.5      95.5       22     51.7      0.00      0.00      85.0     0.34      1013.2     5.1     SSW   211   9.4     SSW   200   9.67    262      193.2
   09/05/2019 17:00      98.6      97.0       21     51.8      0.00      0.00      85.0     0.34      1013.2     5.3     WSW   245  10.4     WSW   245   9.68    262      213.6
   09/05/2019 16:50      99.3      98.3       21     52.2      0.00      0.00      84.9     0.34      1013.1     4.1     WSW   250   7.7     SSE   161   9.68    262      236.1
   09/05/2019 16:40      99.6      98.7       22     53.2      0.00      0.00      84.9     0.34      1013.1     2.1       W   260   6.6     WSW   252   9.69    262      257.6
   09/05/2019 16:30     100.0      99.0       22     53.4      0.00      0.00      84.9     0.34      1013.1     3.4     WSW   249   8.5     WSW   251   9.69    262      279.3
   09/05/2019 16:20     100.0      98.6       22     53.1      0.00      0.00      84.8     0.34      1013.2     3.7      SW   228   9.5     WSW   237   9.70    262      301.3
   09/05/2019 16:10      99.5      98.7       22     53.2      0.00      0.00      84.8     0.34      1013.1     3.9     SSW   207   9.0       S   180   9.70    262      320.7
   09/05/2019 16:00      99.7      98.4       22     53.5      0.00      0.00      84.8     0.34      1013.2     5.4      SW   236   8.9     WSW   249   9.70    263      340.2
   09/05/2019 15:50      99.6      98.7       22     53.4      0.00      0.00      84.8     0.34      1013.3     3.7     SSW   199   8.9       S   175   9.71    263      359.5
   09/05/2019 15:40      99.2      98.2       22     53.0      0.00      0.00      84.6     0.34      1013.3     4.4       S   176   8.7       S   185   9.71    263      377.1
   09/05/2019 15:30      99.8      98.7       21     52.3      0.00      0.00      84.7     0.34      1013.3     4.6     SSE   169   9.0       S   190   9.72    262      394.4
   09/05/2019 15:20     100.6      99.0       20     52.0      0.00      0.00      84.6     0.34      1013.4     5.5       S   176   9.5       S   172   9.72    263      412.5
   09/05/2019 15:10     101.5      99.4       21     52.4      0.00      0.00      84.6     0.34      1013.4     5.7     SSW   196  11.0       S   177   9.73    263      427.2
   09/05/2019 15:00     101.3      99.6       21     53.7      0.00      0.00      84.5     0.34      1013.5     4.5       S   187   9.5      SW   215   9.74    263      436.8
   09/05/2019 14:50     100.7      99.4       22     54.6      0.00      0.00      84.5     0.34      1013.5     4.3       S   180   8.7     SSW   202   9.74    263      450.2
   09/05/2019 14:40     101.2      99.6       23     55.4      0.00      0.00      84.5     0.34      1013.6     4.2       S   189   7.3      SW   217   9.75    263      462.7
   09/05/2019 14:30     101.0     100.3       22     55.5      0.00      0.00      84.4     0.34      1013.8     3.0      SW   230   7.5       S   173   9.75    262      472.0
   09/05/2019 14:20     101.2     100.3       22     55.0      0.00      0.00      84.4     0.34      1013.9     3.3       W   261   8.2     WSW   254   9.75    262      482.2
   09/05/2019 14:10     101.0      98.5       23     55.3      0.00      0.00      84.4     0.34      1014.1     3.2     WSW   257   8.0     WSW   251   9.76    263      494.8
   09/05/2019 14:00     100.4      98.7       24     56.3      0.00      0.00      84.3     0.34      1014.1     3.4     SSW   211   7.4      SW   215   9.76    263      508.1
   09/05/2019 13:50      99.6      98.9       25     56.7      0.00      0.00      84.3     0.34      1014.2     2.9     SSW   193   6.5     WSW   239   9.76    263      517.1
   09/05/2019 13:40      99.9      98.6       25     56.7      0.00      0.00      84.2     0.34      1014.3     2.7     SSE   168   7.4       S   187   9.77    263      520.0
   09/05/2019 13:30      99.7      99.0       25     57.4      0.00      0.00      84.2     0.34      1014.4     2.9     ENE    66   5.6       E    90   9.77    263      523.7
   09/05/2019 13:20      99.9      99.2       27     59.1      0.00      0.00      84.2     0.34      1014.4     1.9      NE    52   4.7     ENE    66   9.77    263      523.8
   09/05/2019 13:10      99.5      98.2       28     60.2      0.00      0.00      84.1     0.34      1014.5     2.2       N     7   4.7      NW   320   9.77    263      524.3
   09/05/2019 13:00      99.6      99.0       28     60.6      0.00      0.00      84.2     0.34      1014.6     2.1      NE    54   5.1      NE    52   9.77    263      528.0
   09/05/2019 12:50      99.5      96.7       29     60.3      0.00      0.00      84.2     0.34      1014.7     1.6       N     4   4.6     NNE    27   9.78    263      531.7
   09/05/2019 12:40      98.3      96.0       29     60.2      0.00      0.00      84.1     0.34      1014.7     2.0      SE   124   6.3     ENE    57   9.78    263      533.8
   09/05/2019 12:30      98.0      95.5       30     60.0      0.00      0.00      84.1     0.34      1014.7     2.4       E    99   5.1     NNE    21   9.78    263      532.5
   09/05/2019 12:20      98.5      96.0       30     60.4      0.00      0.00      84.1     0.34      1014.7     1.6     NNW   345   5.1     ENE    76   9.78    262      524.1
   09/05/2019 12:10      96.8      95.5       30     59.8      0.00      0.00      84.1     0.34      1014.8     1.9     WNW   292   6.1     NNE    26   9.78    263      522.7
   09/05/2019 12:00      96.1      95.1       30     59.6      0.00      0.00      84.1     0.34      1014.9     1.5      NW   317   4.6       E    93   9.79    263      516.2
   09/05/2019 11:50      95.7      94.4       31     60.0      0.00      0.00      84.1     0.34      1014.9     1.9       E    84   5.5     ESE   110   9.79    263      513.6
   09/05/2019 11:40      95.7      94.2       31     60.1      0.00      0.00      84.1     0.34      1015.0     1.6     ENE    75   4.0      SE   131   9.79    263      509.3
   09/05/2019 11:30      94.6      93.3       32     59.6      0.00      0.00      84.1     0.34      1015.0     1.6       N     6   4.2      NE    54   9.79    263      498.6
   09/05/2019 11:20      94.4      92.8       32     59.3      0.00      0.00      84.1     0.34      1015.0     1.3      SE   128   3.8       E    95   9.79    263      493.0
   09/05/2019 11:10      93.6      92.8       32     59.3      0.00      0.00      84.2     0.34      1015.0     1.5       N   359   4.0       N   353   9.79    263      480.1
   09/05/2019 11:00      93.2      91.3       33     59.1      0.00      0.00      84.1     0.34      1015.0     1.3       N     7   3.4     WNW   295   9.79    263      471.8
   09/05/2019 10:50      92.4      91.3       34     59.3      0.00      0.00      84.2     0.34      1015.1     1.9      NE    56   4.7      SE   125   9.79    263      481.5
   09/05/2019 10:40      91.9      90.4       34     59.1      0.00      0.00      84.2     0.34      1015.1     1.4     ENE    58   3.2       E    85   9.79    263      489.5
   09/05/2019 10:30      90.5      88.7       35     58.9      0.00      0.00      84.2     0.34      1015.2     1.2     NNW   337   3.0     ENE    58   9.79    263      429.6
   09/05/2019 10:20      88.8      88.1       37     58.4      0.00      0.00      84.3     0.34      1015.2     1.3       N     1   3.1       E    87   9.79    263      444.6
   09/05/2019 10:10      88.4      87.6       37     58.2      0.00      0.00      84.3     0.34      1015.2     1.4      NE    41   3.2     NNE    32   9.79    264      372.8
   09/05/2019 10:00      88.0      86.6       37     58.2      0.00      0.00      84.3     0.34      1015.2     1.0       N   356   3.9      NW   305   9.80    264      388.4
   09/05/2019 09:50      86.7      86.0       39     58.3      0.00      0.00      84.4     0.34      1015.2     1.6     NNE    20   3.2       N     4   9.80    264      308.0
   09/05/2019 09:40      86.4      85.4       40     58.8      0.00      0.00      84.4     0.34      1015.2     0.8      NE    52   2.1       E    79   9.80    264      230.1
   09/05/2019 09:30      85.5      84.8       41     59.0      0.00      0.00      84.4     0.34      1015.2     0.9     NNW   342   2.5      NE    35   9.80    264      196.3
   09/05/2019 09:20      85.8      84.9       41     59.3      0.00      0.00      84.5     0.34      1015.1     0.7     NNE    18   3.1       N     0   9.80    264      178.8
   09/05/2019 09:10      85.0      83.0       43     59.4      0.00      0.00      84.4     0.34      1015.1     0.6       N   355   2.1     ENE    60   9.80    264      245.9
   09/05/2019 09:00      84.1      83.1       44     59.5      0.00      0.00      84.5     0.34      1015.0     1.2       N     9   2.5       N     6   9.80    264      258.9
   09/05/2019 08:50      83.7      82.5       45     59.3      0.00      0.00      84.5     0.34      1014.9     1.0      NE    47   2.5      NE    40   9.80    264      241.8
   09/05/2019 08:40      82.7      81.4       47     59.8      0.00      0.00      84.5     0.34      1014.8     0.8     NNE    16   2.9     NNE    23   9.80    265      215.7
   09/05/2019 08:30      81.8      81.3       49     60.4      0.00      0.00      84.6     0.34      1014.8     0.5      SE   146   1.5     ESE   119   9.80    266      147.7
   09/05/2019 08:20      81.6      80.0       50     60.3      0.00      0.00      84.6     0.34      1014.8     0.4     SSE   160   1.8       S   173   9.80    266      169.5
   09/05/2019 08:10      80.2      78.9       52     60.3      0.00      0.00      84.6     0.34      1014.8     0.6       E    90   1.8       E    88   9.80    267      113.2
   09/05/2019 08:00      79.0      77.7       54     60.1      0.00      0.00      84.7     0.34      1014.6     1.0     ESE   107   2.8     ENE    67   9.80    267      115.2
   09/05/2019 07:50      78.0      76.4       55     60.0      0.00      0.00      84.7     0.34      1014.4     1.1       E    86   2.8     ENE    66   9.80    267       94.1
   09/05/2019 07:40      76.5      73.7       59     59.7      0.00      0.00      84.7     0.35      1014.3     0.5     ESE   102   1.8     ESE   114   9.80    267       73.8
   09/05/2019 07:30      73.8      72.1       63     59.4      0.00      0.00      84.8     0.35      1014.1     0.3       E   100   1.6     ENE    72   9.80    268       39.0
   09/05/2019 07:20      72.3      71.1       64     58.7      0.00      0.00      84.8     0.35      1014.0     0.7       E    99   1.6     ESE   103   9.80    268        1.1
   09/05/2019 07:10      71.3      70.5       65     58.4      0.00      0.00      84.9     0.35      1013.9     0.7       S   176   1.5       S   182   9.80    268       -7.8
   09/05/2019 07:00      71.2      70.6       64     58.1      0.00      0.00      84.8     0.35      1013.8     0.4      SE   144   1.1      SE   141   9.80    268      -19.9
   09/05/2019 06:50      70.8      69.9       64     57.5      0.00      0.00      84.8     0.35      1013.7     0.3      SW   219   1.2      SW   226   9.80    268      -29.9
   09/05/2019 06:40      70.3      69.7       66     57.9      0.00      0.00      84.9     0.35      1013.6     0.5     SSE   150   1.1       S   188   9.81    268      -35.0
   09/05/2019 06:30      70.7      69.8       65     57.7      0.00      0.00      84.9     0.35      1013.4     0.5       S   174   1.6     SSW   194   9.81    268      -41.1
   09/05/2019 06:20      70.8      70.3       64     58.1      0.00      0.00      84.9     0.35      1013.4     0.3       S   175   0.8     SSE   166   9.81    268      -42.4
   09/05/2019 06:10      70.8      70.3       64     57.8      0.00      0.00      84.9     0.35      1013.3     0.2     SSE   167   0.8       S   179   9.81    268      -43.1
   09/05/2019 06:00      71.9      70.5       62     57.3      0.00      0.00      84.9     0.35      1013.1     0.4      SE   140   1.2      SE   142   9.81    267      -43.4
   09/05/2019 05:50      72.0      71.5       61     57.5      0.00      0.00      85.0     0.35      1013.0     0.0       N     0   0.0     WSW   258   9.81    267      -41.5
   09/05/2019 05:40      72.2      71.4       61     57.6      0.00      0.00      85.0     0.35      1012.9     0.2      SW   218   0.9      SW   235   9.81    267      -38.9
   09/05/2019 05:30      72.4      72.0       61     57.9      0.00      0.00      85.1     0.35      1012.9     0.6     SSE   151   1.5      SE   139   9.81    267      -41.9
   09/05/2019 05:20      72.3      71.6       61     58.0      0.00      0.00      85.0     0.35      1012.8     0.5     SSE   158   1.5      SE   139   9.81    267      -42.5
   09/05/2019 05:10      72.3      71.4       62     58.2      0.00      0.00      85.0     0.35      1012.8     0.5     SSE   149   1.5     SSE   148   9.81    267      -37.7
   09/05/2019 05:00      71.8      71.5       63     58.2      0.00      0.00      85.1     0.35      1012.7     0.6      SE   144   1.4      SE   142   9.81    267      -26.4
   09/05/2019 04:50      71.7      70.6       64     58.3      0.00      0.00      85.1     0.35      1012.6     1.0     SSE   165   2.0       S   178   9.81    267      -30.7
   09/05/2019 04:40      70.8      70.2       64     57.9      0.00      0.00      85.1     0.35      1012.6     0.5     SSE   167   1.4       S   173   9.82    268      -38.9
   09/05/2019 04:30      70.6      70.2       65     57.8      0.00      0.00      85.2     0.35      1012.6     0.3     SSE   149   1.9     SSE   149   9.82    268      -40.3
   09/05/2019 04:20      70.9      70.3       64     57.8      0.00      0.00      85.2     0.35      1012.7     0.8     SSE   155   1.4      SE   137   9.82    267      -40.5
   09/05/2019 04:10      71.4      70.6       63     57.7      0.00      0.00      85.2     0.35      1012.6     0.5     SSE   156   1.3      SE   145   9.82    267      -42.8
   09/05/2019 04:00      71.6      71.0       62     57.4      0.00      0.00      85.2     0.35      1012.7     0.1     SSE   154   0.9      SE   146   9.82    267      -45.4
   09/05/2019 03:50      71.8      71.2       61     57.5      0.00      0.00      85.3     0.35      1012.7     0.5       S   174   1.2     SSW   192   9.82    267      -45.4
   09/05/2019 03:40      72.2      71.5       61     57.6      0.00      0.00      85.3     0.35      1012.7     0.2       S   174   1.5       S   181   9.82    267      -45.8
   09/05/2019 03:30      73.5      71.8       59     57.3      0.00      0.00      85.3     0.35      1012.7     0.3     SSE   152   1.5      SE   143   9.82    267      -46.1
   09/05/2019 03:20      73.7      73.2       58     57.8      0.00      0.00      85.3     0.35      1012.8     0.3      SW   218   1.4     SSW   209   9.82    267      -45.9
   09/05/2019 03:10      73.6      72.6       58     57.7      0.00      0.00      85.3     0.35      1012.9     0.7      SE   141   2.0       E    94   9.82    267      -48.3
   09/05/2019 03:00      72.9      72.3       59     57.4      0.00      0.00      85.3     0.35      1012.9     0.6      SE   127   2.2     ENE    73   9.82    267      -46.9
   09/05/2019 02:50      72.6      71.8       60     57.4      0.00      0.00      85.3     0.35      1012.8     0.5     SSE   149   1.8      SE   130   9.82    267      -46.7
   09/05/2019 02:40      72.6      71.8       59     57.1      0.00      0.00      85.4     0.35      1012.7     0.6      SE   143   1.6      SE   136   9.83    267      -46.8
   09/05/2019 02:30      73.0      72.3       57     56.5      0.00      0.00      85.4     0.35      1012.7     1.2     SSE   164   2.3      SW   215   9.83    266      -46.4
   09/05/2019 02:20      73.1      72.7       57     56.8      0.00      0.00      85.4     0.35      1012.7     0.7     SSW   191   2.4      SW   223   9.83    266      -45.7
   09/05/2019 02:10      73.5      72.7       57     56.9      0.00      0.00      85.4     0.35      1012.6     0.2       S   175   1.4       S   185   9.83    266      -46.1
   09/05/2019 02:00      74.2      73.2       55     56.6      0.00      0.00      85.4     0.35      1012.6     0.3      SE   142   1.2      SE   141   9.83    266      -46.9
   09/05/2019 01:50      74.2      73.4       56     57.0      0.00      0.00      85.5     0.35      1012.6     0.1      SW   217   0.8      SW   215   9.83    266      -45.8
   09/05/2019 01:40      74.9      73.4       55     56.7      0.00      0.00      85.5     0.35      1012.5     0.3      SE   144   0.9     SSW   199   9.83    266      -47.8
   09/05/2019 01:30      75.8      74.7       52     56.7      0.00      0.00      85.5     0.35      1012.4     0.3      SE   142   1.2      SE   142   9.84    266      -48.2
   09/05/2019 01:20      75.6      75.0       53     56.9      0.00      0.00      85.5     0.35      1012.4     0.0     WSW   243   0.9       S   189   9.84    266      -46.7
   09/05/2019 01:10      75.5      75.1       54     57.3      0.00      0.00      85.5     0.35      1012.4     0.2       S   173   1.2       S   177   9.84    266      -48.0
   09/05/2019 01:00      75.4      74.3       55     57.6      0.00      0.00      85.6     0.35      1012.4     0.9       S   177   1.5       S   177   9.84    266      -49.6
   09/05/2019 00:50      75.1      74.3       55     57.5      0.00      0.00      85.6     0.35      1012.4     0.9     SSE   164   1.9     SSE   161   9.84    266      -48.7
   09/05/2019 00:40      75.4      74.8       55     57.8      0.00      0.00      85.6     0.35      1012.4     0.5     SSE   155   1.8      SE   138   9.84    266      -48.0
   09/05/2019 00:30      75.4      74.2       54     57.1      0.00      0.00      85.5     0.35      1012.4     2.0       S   179   3.0     SSW   207   9.84    266      -44.2
   09/05/2019 00:20      74.6      74.2       56     57.6      0.00      0.00      85.6     0.35      1012.6     0.8     SSE   155   1.7     SSW   195   9.85    266      -45.0
   09/05/2019 00:10      75.0      74.3       54     57.0      0.00      0.00      85.6     0.35      1012.6     0.9     SSE   147   1.6      SE   140   9.85    266      -45.6
   09/05/2019 00:00      75.9      74.8       53     56.9      0.00      0.00      85.6     0.35      1012.7     0.3       S   185   1.3     SSW   207   9.85    266      -49.4
   09/04/2019 23:50      76.2      75.3       52     56.9      0.00      0.00      85.6     0.35      1012.8     0.9     SSE   168   1.9     SSW   195   9.85    266      -50.1
   09/04/2019 23:40      76.7      75.6       51     56.8      0.00      0.00      85.6     0.35      1012.8     1.6      SW   214   2.1      SW   227   9.85    266      -49.0
   09/04/2019 23:30      76.9      76.3       51     57.1      0.00      0.00      85.6     0.35      1012.9     0.2       S   189   1.7       S   187   9.85    266      -50.1
   09/04/2019 23:20      76.9      76.1       51     57.1      0.00      0.00      85.6     0.35      1012.9     0.3     SSE   159   1.2     ESE   122   9.86    266      -50.5
   09/04/2019 23:10      76.5      75.9       51     57.0      0.00      0.00      85.7     0.35      1012.9     0.4     SSE   149   1.4      SE   138   9.86    266      -49.0
   09/04/2019 23:00      76.5      75.8       52     57.1      0.00      0.00      85.6     0.35      1012.9     0.0       N     0   0.0     SSE   161   9.86    266      -45.1
   09/04/2019 22:50      77.2      75.9       51     56.6      0.00      0.00      85.6     0.35      1012.9     0.3     SSE   148   1.6      SE   141   9.86    266      -49.5
   09/04/2019 22:40      77.9      76.8       49     56.6      0.00      0.00      85.6     0.35      1012.7     0.7     SSW   195   1.6      SW   218   9.86    266      -52.2
   09/04/2019 22:30      77.8      77.4       49     56.8      0.00      0.00      85.6     0.35      1012.8     0.7     SSW   196   1.8     SSW   200   9.86    265      -53.1
   09/04/2019 22:20      78.4      77.5       48     56.6      0.00      0.00      85.6     0.35      1012.8     0.3     ENE    67   1.9     ENE    71   9.87    266      -54.4
   09/04/2019 22:10      78.7      77.9       48     56.6      0.00      0.00      85.6     0.35      1012.5     0.4     SSW   193   1.8     ENE    64   9.87    266      -52.8
   09/04/2019 22:00      79.2      78.4       46     56.5      0.00      0.00      85.6     0.35      1012.4     0.3       E    98   1.2       E    89   9.87    265      -55.7
   09/04/2019 21:50      79.8      78.7       46     56.4      0.00      0.00      85.6     0.35      1012.3     0.7       S   176   2.4       S   190   9.87    265      -57.3
   09/04/2019 21:40      79.9      79.2       45     56.4      0.00      0.00      85.6     0.35      1012.3     1.9       S   179   3.4       S   187   9.87    265      -58.8
   09/04/2019 21:30      79.7      78.9       46     56.7      0.00      0.00      85.5     0.35      1012.3     2.1       S   180   3.3     SSE   161   9.88    265      -58.8
   09/04/2019 21:20      79.1      78.3       47     56.6      0.00      0.00      85.5     0.35      1012.1     1.9       S   172   3.6     SSE   168   9.88    265      -58.1
   09/04/2019 21:10      79.8      78.7       45     56.2      0.00      0.00      85.5     0.35      1011.9     1.1       S   181   2.6       S   186   9.88    265      -57.9
   09/04/2019 21:00      79.7      79.2       45     56.3      0.00      0.00      85.6     0.35      1011.8     2.1     SSW   210   2.7     SSW   206   9.89    265      -58.1
   09/04/2019 20:50      79.7      79.0       45     56.2      0.00      0.00      85.5     0.35      1011.8     1.8       S   185   2.8     SSW   199   9.89    265      -59.0
   09/04/2019 20:40      79.8      78.9       45     55.9      0.00      0.00      85.5     0.35      1011.9     0.9     SSE   150   2.1       S   182   9.89    264      -58.4
   09/04/2019 20:30      80.4      79.4       44     55.7      0.00      0.00      85.5     0.35      1011.8     0.5       S   182   1.5      SE   142   9.89    264      -59.1
   09/04/2019 20:20      80.7      80.2       43     55.8      0.00      0.00      85.4     0.35      1011.7     0.4       S   188   1.4       S   190   9.90    264      -54.1
   09/04/2019 20:10      81.2      80.3       43     55.8      0.00      0.00      85.4     0.35      1011.7     0.5      SE   132   1.7     SSE   151   9.90    264      -56.5
   09/04/2019 20:00      81.7      80.9       42     55.8      0.00      0.00      85.4     0.35      1011.6     0.5       E    89   1.6     NNE    26   9.90    264      -65.1
   09/04/2019 19:50      81.8      81.3       41     55.7      0.00      0.00      85.4     0.35      1011.4     0.9      NE    47   2.1       N   349   9.91    264      -66.7
   09/04/2019 19:40      82.1      81.5       41     55.6      0.00      0.00      85.3     0.35      1011.4     0.9      NE    49   2.6       W   273   9.91    264      -67.7
   09/04/2019 19:30      83.2      81.8       40     55.4      0.00      0.00      85.3     0.35      1011.6     1.5      NE    54   3.0      NE    52   9.91    264      -67.8
   09/04/2019 19:20      85.0      83.0       38     55.7      0.00      0.00      85.2     0.35      1011.5     2.3      NE    56   5.6      NE    50   9.92    264      -65.9
   09/04/2019 19:10      87.1      84.9       36     56.1      0.00      0.00      85.2     0.35      1011.3     2.1      NE    56   4.5      NE    36   9.92    264      -61.2
   09/04/2019 19:00      87.6      86.8       35     56.3      0.00      0.00      85.2     0.35      1011.3     1.4       E    84   3.7     ENE    64   9.93    264      -49.1
   09/04/2019 18:50      87.7      87.2       35     56.2      0.00      0.00      85.1     0.34      1011.0     2.4     SSE   165   5.2       S   189   9.93    264      -29.0
   09/04/2019 18:40      88.2      87.3       34     55.8      0.00      0.00      85.1     0.34      1010.8     4.6       S   188   8.9       S   173   9.94    263       -9.2
   09/04/2019 18:30      91.6      88.0       32     55.7      0.00      0.00      85.1     0.34      1010.8     5.6       S   182  10.0       S   191   9.95    263       10.0
   09/04/2019 18:20      96.5      91.3       29     56.4      0.00      0.00      85.0     0.34      1010.8     4.6     SSE   155   9.5      SE   124   9.95    263       31.0
   09/04/2019 18:10      97.9      96.4       25     55.8      0.00      0.00      85.0     0.34      1010.6     3.2     SSW   213   5.7     WSW   237   9.96    263       52.5
   09/04/2019 18:00      97.9      96.2       25     55.1      0.00      0.00      85.0     0.34      1010.4     1.4       W   266   4.6     WSW   239   9.97    263       73.8
   09/04/2019 17:50      97.4      96.4       25     55.2      0.00      0.00      84.9     0.34      1010.2     2.0      NW   324   4.2      NW   310   9.97    263      100.5
   09/04/2019 17:40      97.1      96.6       25     55.2      0.00      0.00      84.9     0.34      1010.0     2.6     WNW   303   6.9     WNW   285   9.97    263      124.4
   09/04/2019 17:30      97.6      96.7       25     55.4      0.00      0.00      84.8     0.34      1009.9     3.6      NW   313   7.4      NW   325   9.98    263      148.4
   09/04/2019 17:20      98.9      97.3       25     55.6      0.00      0.00      84.8     0.34      1009.8     4.3     WNW   301   8.3      NW   308   9.98    263      173.1
   09/04/2019 17:10      99.2      98.4       24     56.1      0.00      0.00      84.8     0.34      1009.7     3.7      NW   317  10.1       W   268   9.99    262      206.1
   09/04/2019 17:00      99.8      98.7       24     56.2      0.00      0.00      84.7     0.34      1009.8     3.7      NW   323   7.0       N   349   9.99    263      222.8
   09/04/2019 16:50      99.9      99.2       24     56.4      0.00      0.00      84.7     0.34      1009.8     3.4      NW   320   8.6      NW   320  10.00    262      237.9
   09/04/2019 16:40     100.9      99.6       23     56.5      0.00      0.00      84.6     0.34      1009.8     4.4     WNW   303  10.0     NNW   330  10.00    263      269.4
   09/04/2019 16:30     101.3     100.2       23     56.7      0.00      0.00      84.6     0.34      1009.9     4.0      NW   313   9.7       W   279  10.01    263      283.4
   09/04/2019 16:20     101.9     101.1       23     57.0      0.00      0.00      84.6     0.34      1009.9     3.9      NW   306   7.6     WNW   291  10.01    262      307.7
   09/04/2019 16:10     102.3     101.5       23     56.9      0.00      0.00      84.5     0.34      1009.9     3.9     WNW   299  10.6       W   271  10.02    262      323.4
   09/04/2019 16:00     102.8     101.8       23     57.0      0.00      0.00      84.4     0.34      1009.9     4.8     WNW   293   9.9       W   280  10.02    263      343.4
   09/04/2019 15:50     102.7     102.0       23     57.2      0.00      0.00      84.5     0.34      1009.9     4.1     WNW   301   9.4       W   263  10.03    263      359.5
   09/04/2019 15:40     103.4     102.1       23     57.3      0.00      0.00      84.4     0.34      1009.9     4.6     WNW   287   9.1       W   264  10.03    263      375.9
   09/04/2019 15:30     103.1     101.9       23     58.1      0.00      0.00      84.3     0.34      1009.8     4.3       W   262   8.4     WNW   286  10.04    263      393.0
   09/04/2019 15:20     103.0     102.0       23     58.0      0.00      0.00      84.3     0.34      1009.9     5.1      SW   231  12.0     WSW   242  10.04    263      408.9
   09/04/2019 15:10     103.6     102.3       23     58.1      0.00      0.00      84.3     0.34      1009.9     3.8      SW   225   8.9     SSW   211  10.05    262      421.6
   09/04/2019 15:00     104.6     103.5       23     58.5      0.00      0.00      84.2     0.34      1009.9     3.3     NNW   342   7.5      SW   218  10.06    263      430.0
   09/04/2019 14:50     104.3     102.0       23     58.2      0.00      0.00      84.2     0.34      1010.1     1.5      NE    43   4.6     ESE   121  10.06    263      445.1
   09/04/2019 14:40     103.8     102.3       23     58.2      0.00      0.00      84.1     0.34      1010.2     3.1     ESE   107   6.9       E    81  10.06    262      459.1
   09/04/2019 14:30     103.0     102.1       23     58.0      0.00      0.00      84.1     0.34      1010.3     3.0     SSE   154   6.9       S   188  10.07    263      469.5
   09/04/2019 14:20     103.5     102.0       23     58.1      0.00      0.00      84.1     0.34      1010.5     3.5       E    95   6.6     ENE    65  10.08    263      486.5
   09/04/2019 14:10     103.4     102.3       23     58.0      0.00      0.00      84.0     0.34      1010.6     2.3     ENE    70   6.1     ESE   106  10.08    263      489.5
   09/04/2019 14:00     102.8     101.8       23     57.8      0.00      0.00      84.0     0.34      1010.7     2.0     ENE    78   5.1     SSE   161  10.08    263      500.3
   09/04/2019 13:50     103.1     101.8       23     57.8      0.00      0.00      84.0     0.34      1010.8     2.8     ESE   102   5.5     SSE   153  10.09    262      508.1
   09/04/2019 13:40     102.7     101.8       23     57.8      0.00      0.00      83.9     0.34      1010.8     2.0      NE    35   5.1      NE    54  10.09    262      512.8
   09/04/2019 13:30     102.3     101.4       24     57.9      0.00      0.00      83.9     0.34      1010.9     2.1      NE    43   4.6       N    10  10.09    263      519.6
   09/04/2019 13:20     102.5     101.7       24     58.0      0.00      0.00      83.9     0.34      1011.1     2.2      NE    35   4.8      NE    49  10.10    263      524.3
   09/04/2019 13:10     102.7     101.8       24     58.1      0.00      0.00      83.9     0.34      1011.2     2.4      NE    44   6.8      NE    40  10.10    263      529.7
   09/04/2019 13:00     102.1     100.9       24     57.9      0.00      0.00      83.8     0.34      1011.3     2.2      NE    51   5.2     NNE    17  10.10    263      532.5
   09/04/2019 12:50     101.8     100.6       24     58.0      0.00      0.00      83.8     0.34      1011.4     1.9      NE    38   3.9     NNE    13  10.10    262      532.3
   09/04/2019 12:40     100.9      99.1       25     58.0      0.00      0.00      83.8     0.34      1011.5     2.2      NW   322   6.0       W   261  10.10    262      532.6
   09/04/2019 12:30     100.1      99.3       26     58.3      0.00      0.00      83.7     0.34      1011.6     2.2     NNE    18   5.9       N     9  10.11    263      530.9
   09/04/2019 12:20      99.6      99.1       26     58.3      0.00      0.00      83.7     0.34      1011.6     2.0     ENE    60   4.8      NE    50  10.11    262      532.8
   09/04/2019 12:10      99.3      98.2       26     57.9      0.00      0.00      83.7     0.34      1011.7     2.1       S   187   6.0     ESE   121  10.11    262      531.1
   09/04/2019 12:00      98.6      97.9       26     57.5      0.00      0.00      83.7     0.34      1011.8     1.6       S   185   4.4      SE   136  10.11    263      525.5
   09/04/2019 11:50      98.4      96.3       26     57.0      0.00      0.00      83.7     0.34      1011.9     1.6     WNW   298   7.4     WSW   258  10.12    262      519.2
   09/04/2019 11:40      96.6      95.2       27     56.5      0.00      0.00      83.7     0.34      1011.9     2.5     WSW   246   6.1     WSW   250  10.12    263      516.2
   09/04/2019 11:30      96.3      95.0       28     57.5      0.00      0.00      83.7     0.34      1012.1     1.9     NNW   341   4.1     NNW   344  10.12    263      504.2
   09/04/2019 11:20      95.5      93.3       30     57.5      0.00      0.00      83.8     0.34      1012.2     2.2       E    81   4.4     ESE   113  10.12    263      498.9
   09/04/2019 11:10      94.6      93.5       30     57.7      0.00      0.00      83.8     0.34      1012.3     1.8      NE    55   5.0     ESE   113  10.13    263      488.6
   09/04/2019 11:00      94.1      93.0       30     57.3      0.00      0.00      83.8     0.34      1012.4     1.2       E    90   3.2       E    98  10.13    263      475.5
   09/04/2019 10:50      93.0      92.2       30     56.8      0.00      0.00      83.8     0.34      1012.4     0.9       N     2   2.7     NNE    17  10.13    263      464.3
   09/04/2019 10:40      92.4      90.8       31     56.6      0.00      0.00      83.8     0.34      1012.4     1.0       N   350   3.4      NE    34  10.13    263      451.9
   09/04/2019 10:30      91.3      90.0       32     56.3      0.00      0.00      83.8     0.34      1012.4     1.4      NE    47   3.8     NNW   344  10.14    263      437.2
   09/04/2019 10:20      90.2      88.6       33     56.2      0.00      0.00      83.9     0.34      1012.4     1.4     NNE    22   3.7       N     3  10.14    263      422.4
   09/04/2019 10:10      88.8      87.6       33     55.5      0.00      0.00      83.8     0.34      1012.5     1.6     NNE    17   3.0     NNE    30  10.14    263      405.9
   09/04/2019 10:00      88.2      87.5       34     55.7      0.00      0.00      83.9     0.34      1012.6     1.5      NE    34   3.6      NE    34  10.14    263      387.6
   09/04/2019 09:50      87.3      86.0       35     55.4      0.00      0.00      83.9     0.34      1012.6     0.9       N   350   4.0      NE    37  10.14    263      370.9
   09/04/2019 09:40      86.5      85.6       36     55.8      0.00      0.00      84.0     0.34      1012.6     1.1     NNW   345   3.3       N    10  10.15    263      349.5
   09/04/2019 09:30      86.4      85.0       36     56.0      0.00      0.00      84.0     0.34      1012.6     1.0       N   354   4.6     NNE    33  10.15    263      330.1
   09/04/2019 09:20      85.6      84.7       37     56.0      0.00      0.00      84.0     0.34      1012.7     1.9     ENE    65   4.3       E    94  10.16    263      309.8
   09/04/2019 09:10      85.0      83.9       38     56.3      0.00      0.00      84.0     0.34      1012.7     1.5      NE    37   2.9     ENE    63  10.17    263      287.9
   09/04/2019 09:00      84.1      83.3       40     56.5      0.00      0.00      84.1     0.34      1012.7     1.4     NNE    32   3.4     NNW   348  10.20    264      266.2
   09/04/2019 08:50      83.8      83.0       40     56.8      0.00      0.00      84.1     0.34      1012.6     1.6      NE    34   3.6     NNW   338  10.22    264      244.2
   09/04/2019 08:40      84.1      83.4       40     56.7      0.00      0.00      84.1     0.34      1012.5     1.3      NE    38   3.3      NE    52  10.26    264      221.8
   09/04/2019 08:30      84.3      83.0       40     56.6      0.00      0.00      84.2     0.34      1012.5     0.8       N    11   2.3       N   353   8.58    264      198.8
   09/04/2019 08:20      84.1      82.1       40     56.4      0.00      0.00      84.2     0.34      1012.4     0.4       E    80   1.6     NNE    19   8.58    266      173.9
   09/04/2019 08:10      82.1      80.4       42     55.9      0.00      0.00      84.3     0.34      1012.3     0.8     ESE   122   1.9     SSE   156   8.58    266      149.0
   09/04/2019 08:00      81.8      80.4       43     56.3      0.00      0.00      84.3     0.34      1012.2     0.8      SE   136   2.2      SE   137   8.59    266      124.3
   09/04/2019 07:50      81.5      76.9       45     56.2      0.00      0.00      84.2     0.34      1012.1     0.0       E    83   0.3       E    82   8.59    266       96.7
   09/04/2019 07:40      77.0      73.8       51     56.1      0.00      0.00      84.3     0.34      1012.0     0.0      SE   130   0.2      SE   130   8.59    267       71.5
   09/04/2019 07:30      73.9      71.2       57     56.5      0.00      0.00      84.3     0.34      1011.9     0.1       E    92   0.8       E    97   8.59    267       27.7
   09/04/2019 07:20      71.4      70.0       61     56.5      0.00      0.00      84.3     0.34      1011.8     0.0       N     0   0.0      SE   129   8.59    267      -13.8
   09/04/2019 07:10      70.3      68.7       63     56.2      0.00      0.00      84.4     0.34      1011.9     0.8      SE   136   2.1      SE   144   8.59    267      -23.0
   09/04/2019 07:00      69.0      68.1       62     55.2      0.00      0.00      84.4     0.34      1011.8     0.8     SSE   168   1.7      SE   132   8.59    267      -26.7
   09/04/2019 06:50      68.6      67.9       63     55.2      0.00      0.00      84.4     0.35      1011.8     0.8     SSE   149   1.7      SE   141   8.59    268      -33.0
   09/04/2019 06:40      68.8      68.3       61     54.8      0.00      0.00      84.5     0.35      1011.8     0.4     SSE   162   1.5      SE   139   8.59    267      -37.3
   09/04/2019 06:30      68.6      68.1       62     54.9      0.00      0.00      84.5     0.35      1011.8     0.8       S   190   1.4       S   183   8.59    267      -41.1
   09/04/2019 06:20      68.9      68.1       62     55.0      0.00      0.00      84.6     0.35      1011.8     0.6      SE   140   1.5      SE   132   8.59    267      -42.7
   09/04/2019 06:10      69.3      68.5       60     54.6      0.00      0.00      84.6     0.34      1011.7     0.3     SSE   160   0.9      SE   145   8.59    267      -42.4
   09/04/2019 06:00      69.5      68.7       60     54.4      0.00      0.00      84.6     0.35      1011.6     0.4     SSE   155   0.8      SE   144   8.59    267      -42.0
   09/04/2019 05:50      69.7      69.2       58     54.0      0.00      0.00      84.6     0.34      1011.6     0.3      SE   146   0.7     SSE   146   8.59    267      -41.5
   09/04/2019 05:40      70.0      69.3       58     54.1      0.00      0.00      84.7     0.34      1011.4     0.0       N     0   0.0     SSE   153   8.59    267      -41.1
   09/04/2019 05:30      69.8      69.1       60     54.9      0.00      0.00      84.7     0.35      1011.4     0.0       N     0   0.0     SSE   164   8.59    267      -41.1
   09/04/2019 05:20      69.4      68.6       61     55.0      0.00      0.00      84.7     0.35      1011.4     0.0     SSE   154   0.6      SE   146   8.60    267      -41.6
   09/04/2019 05:10      69.4      68.6       61     55.0      0.00      0.00      84.7     0.35      1011.3     0.0      SE   142   0.6      SE   139   8.60    267      -42.8
   09/04/2019 05:00      69.6      69.1       61     55.3      0.00      0.00      84.7     0.35      1011.3     0.1      SE   145   0.8      SE   138   8.60    267      -43.8
   09/04/2019 04:50      69.5      69.1       61     55.2      0.00      0.00      84.8     0.35      1011.3     0.4      SE   141   1.8      SE   136   8.60    267      -44.4
   09/04/2019 04:40      70.5      69.1       61     55.5      0.00      0.00      84.8     0.35      1011.3     0.3     SSE   153   1.4     SSE   147   8.60    267      -44.2
   09/04/2019 04:30      70.8      70.1       59     55.5      0.00      0.00      84.8     0.35      1011.3     0.4     SSE   162   1.0     SSE   167   8.60    267      -43.7
   09/04/2019 04:20      70.8      70.1       59     55.5      0.00      0.00      84.9     0.35      1011.4     0.2       S   181   0.8       S   182   8.60    267      -43.2
   09/04/2019 04:10      70.4      69.7       60     55.4      0.00      0.00      84.8     0.35      1011.5     0.0       N     0   0.0     SSW   213   8.60    267      -43.5
   09/04/2019 04:00      70.7      69.7       59     55.1      0.00      0.00      84.9     0.35      1011.5     0.4      SE   144   1.1      SE   132   8.60    267      -44.5
   09/04/2019 03:50      70.7      70.2       59     55.6      0.00      0.00      84.9     0.35      1011.5     0.5      SE   145   1.1      SE   135   8.60    267      -44.4
   09/04/2019 03:40      71.0      70.5       58     55.3      0.00      0.00      84.9     0.35      1011.5     0.3     SSE   157   1.1     SSE   148   8.60    266      -44.6
   09/04/2019 03:30      71.3      70.4       58     55.4      0.00      0.00      84.9     0.35      1011.6     0.1     SSE   158   0.5     SSE   148   8.60    266      -45.3
   09/04/2019 03:20      71.1      70.5       57     54.6      0.00      0.00      85.0     0.35      1011.6     0.0     SSW   201   1.2     SSW   208   8.60    266      -45.0
   09/04/2019 03:10      71.1      70.4       58     55.0      0.00      0.00      85.0     0.35      1011.8     0.6     SSW   206   2.3     WSW   253   8.60    266      -45.2
   09/04/2019 03:00      71.5      70.8       58     55.6      0.00      0.00      85.0     0.35      1011.8     0.3     SSE   155   0.9      SE   130   8.61    266      -45.7
   09/04/2019 02:50      72.1      71.3       56     55.3      0.00      0.00      85.0     0.35      1011.9     0.0      SE   143   0.7      SE   144   8.61    266      -46.1
   09/04/2019 02:40      71.9      71.3       56     55.1      0.00      0.00      85.0     0.35      1011.9     0.2       S   181   0.8       S   188   8.61    266      -44.6
   09/04/2019 02:30      72.0      71.3       57     55.4      0.00      0.00      85.1     0.35      1012.0     0.0     SSE   163   0.3     SSE   159   8.61    266      -45.8
   09/04/2019 02:20      72.4      71.7       56     55.5      0.00      0.00      85.1     0.35      1012.1     0.2     SSE   167   0.8     SSE   165   8.61    266      -46.5
   09/04/2019 02:10      72.4      71.8       56     55.4      0.00      0.00      85.0     0.35      1012.1     0.5     SSE   159   1.3      SE   141   8.61    266      -47.6
   09/04/2019 02:00      72.4      72.0       55     55.0      0.00      0.00      85.1     0.35      1012.2     0.8     SSE   149   2.1      SE   141   8.61    266      -48.1
   09/04/2019 01:50      72.6      72.1       53     54.3      0.00      0.00      85.1     0.35      1012.2     0.6     SSE   161   1.4       S   178   8.61    266      -48.0
   09/04/2019 01:40      73.0      72.3       51     53.6      0.00      0.00      85.2     0.35      1012.3     0.2     SSE   153   0.9      SE   140   8.61    266      -47.1
   09/04/2019 01:30      73.3      72.8       52     54.2      0.00      0.00      85.2     0.35      1012.3     0.0     SSE   166   0.6     SSE   169   8.61    266      -46.6
   09/04/2019 01:20      73.9      73.0       51     54.1      0.00      0.00      85.2     0.35      1012.3     0.0     ESE   107   0.9       E    93   8.61    266      -48.0
   09/04/2019 01:10      74.3      73.4       50     53.9      0.00      0.00      85.2     0.35      1012.4     0.6      SE   144   1.4       S   186   8.62    266      -48.1
   09/04/2019 01:00      74.3      73.8       49     54.0      0.00      0.00      85.2     0.35      1012.4     0.8     SSE   160   1.7       S   177   8.62    266      -48.2
   09/04/2019 00:50      74.6      74.0       48     53.5      0.00      0.00      85.2     0.35      1012.4     0.5     SSW   198   1.7     SSW   209   8.62    266      -48.7
   09/04/2019 00:40      74.7      74.1       49     54.1      0.00      0.00      85.2     0.35      1012.6     0.8       S   169   2.0     SSE   150   8.62    266      -49.6
   09/04/2019 00:30      75.0      74.0       49     54.0      0.00      0.00      85.2     0.35      1012.6     1.1      SE   145   2.2      SE   145   8.62    266      -49.2
   09/04/2019 00:20      75.4      74.7       47     53.7      0.00      0.00      85.2     0.35      1012.6     0.3     SSE   164   0.9       S   182   8.62    266      -48.8
   09/04/2019 00:10      75.2      74.7       47     53.5      0.00      0.00      85.2     0.35      1012.8     0.0       S   182   0.5       S   182   8.62    265      -49.1
   09/04/2019 00:00      76.2      74.9       45     52.8      0.00      0.00      85.3     0.35      1012.8     0.3     SSE   154   0.8      SE   139   8.63    265      -49.9
   09/03/2019 23:50      76.1      75.6       44     52.4      0.00      0.00      85.2     0.35      1012.8     0.4     SSE   166   1.4       S   184   8.63    265      -49.2
   09/03/2019 23:40      76.4      75.8       45     52.9      0.00      0.00      85.3     0.35      1012.9     0.3      SE   145   0.8      SE   145   8.63    264      -49.9
   09/03/2019 23:30      76.7      76.0       44     52.9      0.00      0.00      85.2     0.35      1012.8     0.2       S   175   0.8      SE   139   8.63    265      -50.3
   09/03/2019 23:20      77.5      76.4       42     51.9      0.00      0.00      85.3     0.35      1012.7     0.4     SSE   153   1.1      SE   146   8.63    264      -50.6
   09/03/2019 23:10      77.6      76.9       40     51.2      0.00      0.00      85.2     0.35      1012.6     0.6     SSW   200   1.7     SSW   203   8.63    264      -51.0
   09/03/2019 23:00      77.9      77.3       39     51.0      0.00      0.00      85.2     0.35      1012.6     0.4       S   180   1.1       S   189   8.63    264      -51.5
   09/03/2019 22:50      79.3      77.5       38     50.6      0.00      0.00      85.3     0.35      1012.6     0.9     SSE   152   1.9      SE   137   8.64    264      -52.1
   09/03/2019 22:40      79.7      78.7       37     50.4      0.00      0.00      85.2     0.35      1012.6     0.3      NW   322   1.2      NW   307   8.64    264      -51.3
   09/03/2019 22:30      80.1      79.5       36     50.3      0.00      0.00      85.2     0.35      1012.6     0.2     ENE    63   0.9     ENE    62   8.64    264      -53.6
   09/03/2019 22:20      80.5      79.8       35     50.2      0.00      0.00      85.3     0.35      1012.6     0.4     ESE   103   1.1     ENE    62   8.64    264      -54.2
   09/03/2019 22:10      81.2      80.2       34     49.9      0.00      0.00      85.3     0.35      1012.6     1.1     SSE   163   2.5       S   175   8.64    264      -54.5
   09/03/2019 22:00      81.1      79.9       34     49.3      0.00      0.00      85.3     0.35      1012.6     1.6       S   174   3.5       S   174   8.64    264      -54.8
   09/03/2019 21:50      81.9      80.2       32     48.6      0.00      0.00      85.2     0.35      1012.5     0.9     SSE   157   2.4      SE   141   8.65    264      -54.0
   09/03/2019 21:40      82.3      81.4       31     48.1      0.00      0.00      85.3     0.35      1012.3     1.0       S   185   1.9     SSW   192   8.65    264      -54.9
   09/03/2019 21:30      82.5      81.9       30     47.5      0.00      0.00      85.2     0.35      1012.3     1.3     SSW   200   3.2     WSW   246   8.65    264      -55.1
   09/03/2019 21:20      83.7      82.2       29     46.9      0.00      0.00      85.2     0.35      1012.3     0.4      SW   228   2.1      SW   231   8.65    263      -56.4
   09/03/2019 21:10      84.5      83.4       27     46.1      0.00      0.00      85.2     0.35      1012.3     0.6     SSW   204   2.2      SW   222   8.65    263      -58.0
   09/03/2019 21:00      84.7      84.1       26     45.9      0.00      0.00      85.1     0.35      1012.3     1.7     SSW   209   2.9      SW   216   8.66    263      -58.9
   09/03/2019 20:50      84.5      84.0       27     46.3      0.00      0.00      85.2     0.35      1012.3     1.3     SSW   193   2.5       S   188   8.66    263      -58.9
   09/03/2019 20:40      85.0      84.0       28     47.4      0.00      0.00      85.1     0.35      1012.2     0.9     SSE   164   2.2      SW   222   8.66    263      -60.1
   09/03/2019 20:30      85.7      84.8       27     47.7      0.00      0.00      85.2     0.35      1012.0     1.5     WSW   240   3.2       W   260   8.66    263      -61.3
   09/03/2019 20:20      86.7      85.3       26     46.9      0.00      0.00      85.0     0.35      1011.9     1.5     WSW   251   3.8     WSW   251   8.66    263      -61.3
   09/03/2019 20:10      87.3      86.4       24     46.1      0.00      0.00      85.1     0.35      1011.9     0.6     WNW   285   2.1     WNW   286   8.67    263      -63.2
   09/03/2019 20:00      87.8      87.0       23     45.1      0.00      0.00      85.0     0.35      1011.9     1.2       W   281   3.2     WNW   295   8.67    263      -65.0
   09/03/2019 19:50      88.3      87.4       22     44.3      0.00      0.00      85.1     0.35      1011.9     2.6       W   261   5.4       W   269   8.67    263      -65.4
   09/03/2019 19:40      89.0      87.9       22     44.8      0.00      0.00      85.0     0.34      1011.7     1.9       W   281   3.8       W   266   8.68    263      -66.0
   09/03/2019 19:30      89.5      88.6       23     46.5      0.00      0.00      85.0     0.34      1011.7     2.4     WNW   282   4.6      NW   313   8.68    263      -65.5
   09/03/2019 19:20      90.0      89.1       24     47.6      0.00      0.00      84.9     0.35      1011.7     1.9     WNW   283   4.3       W   270   8.69    263      -63.2
   09/03/2019 19:10      91.3      89.7       24     48.8      0.00      0.00      84.9     0.35      1011.6     2.4     WNW   301   5.8     NNW   327   8.69    263      -58.8
   09/03/2019 19:00      92.1      90.8       26     51.1      0.00      0.00      84.9     0.34      1011.5     1.6      NW   306   5.6     NNW   329   8.69    263      -49.6
   09/03/2019 18:50      93.6      91.7       25     51.6      0.00      0.00      84.8     0.34      1011.4     1.9     WNW   303   4.9     NNW   340   8.70    263      -41.7
   09/03/2019 18:40      93.8      93.2       25     52.1      0.00      0.00      84.8     0.34      1011.4     2.5     WSW   253   4.7      SW   220   8.70    263      -20.9
   09/03/2019 18:30      94.3      93.4       25     52.4      0.00      0.00      84.8     0.34      1011.3     3.8     WSW   238   6.4     WSW   244   8.71    263        9.2
   09/03/2019 18:20      94.6      93.8       25     52.5      0.00      0.00      84.8     0.34      1011.3     4.2     WSW   238   6.9      SW   221   8.71    263       34.7
   09/03/2019 18:10      95.1      94.3       24     52.3      0.00      0.00      84.7     0.34      1011.2     4.4     WSW   241   6.8      SW   229   8.71    263       58.5
   09/03/2019 18:00      95.1      94.6       24     52.8      0.00      0.00      84.7     0.34      1011.1     4.4      SW   233   8.0     WSW   251   8.72    263       82.0
   09/03/2019 17:50      95.2      94.5       24     52.8      0.00      0.00      84.7     0.34      1011.1     5.0      SW   235  11.0      SW   226   8.72    263      104.9
   09/03/2019 17:40      95.9      94.9       25     53.8      0.00      0.00      84.6     0.34      1011.1     5.3      SW   232   9.2      SW   234   8.73    263      127.2
   09/03/2019 17:30      96.5      95.4       25     54.3      0.00      0.00      84.6     0.34      1011.1     5.3      SW   229   9.8     SSW   209   8.74    263      151.2
   09/03/2019 17:20      97.5      96.3       25     54.7      0.00      0.00      84.6     0.34      1011.1     4.6     WSW   238   9.3     WSW   252   8.74    263      174.9
   09/03/2019 17:10      98.4      96.9       24     55.1      0.00      0.00      84.5     0.34      1011.0     4.6     WSW   256   8.6       W   267   8.75    263      197.4
   09/03/2019 17:00      98.9      98.0       23     54.6      0.00      0.00      84.5     0.34      1011.0     4.1     WSW   242   9.1       W   267   8.75    263      218.8
   09/03/2019 16:50      99.3      98.4       22     53.7      0.00      0.00      84.5     0.34      1011.1     3.9       W   266   7.3      SW   235   8.76    263      240.1
   09/03/2019 16:40      99.4      98.5       22     53.2      0.00      0.00      84.4     0.34      1011.1     2.6       W   276   5.8      SW   223   8.76    263      259.0
   09/03/2019 16:30      99.2      98.1       22     52.9      0.00      0.00      84.4     0.34      1011.1     3.7       W   281   8.1     WSW   251   8.76    263      282.0
   09/03/2019 16:20      98.9      96.3       23     53.3      0.00      0.00      84.3     0.34      1011.2     3.8     WSW   259   8.0     SSW   200   8.77    263      307.4
   09/03/2019 16:10      98.5      96.7       23     53.2      0.00      0.00      84.3     0.34      1011.2     6.4     SSW   212   9.2     SSW   209   8.77    263      328.2
   09/03/2019 16:00      98.6      97.7       22     53.0      0.00      0.00      84.2     0.34      1011.3     4.7      SW   234   8.5     WSW   248   8.78    263      343.2
   09/03/2019 15:50      98.5      97.5       22     52.5      0.00      0.00      84.2     0.34      1011.3     4.3       S   188   7.6     WSW   239   8.78    263      364.6
   09/03/2019 15:40      98.8      96.8       22     52.4      0.00      0.00      84.2     0.34      1011.3     5.3     SSW   191   9.8       S   186   8.79    263      385.8
   09/03/2019 15:30      99.2      98.2       21     52.1      0.00      0.00      84.1     0.34      1011.4     5.6     SSW   208   8.0       S   180   8.79    263      399.9
   09/03/2019 15:20     100.9      98.5       21     52.4      0.00      0.00      84.1     0.34      1011.5     4.7       S   183   9.6       S   184   8.80    263      414.2
   09/03/2019 15:10     100.7      98.7       22     54.2      0.00      0.00      84.1     0.34      1011.6     2.5     WSW   251   5.7     SSW   196   8.81    263      423.8
   09/03/2019 15:00      99.9      99.0       23     54.8      0.00      0.00      84.0     0.34      1011.8     4.7      SW   228   9.1     WSW   255   8.81    263      441.2
   09/03/2019 14:50     100.3      98.3       23     55.3      0.00      0.00      84.0     0.34      1011.8     3.1     WSW   256   6.8      SW   227   8.81    263      453.8
   09/03/2019 14:40      98.9      98.2       23     54.8      0.00      0.00      83.9     0.34      1011.9     4.5     WSW   243   7.5       S   188   8.81    263      469.5
   09/03/2019 14:30      99.1      98.4       24     55.1      0.00      0.00      84.0     0.34      1012.1     5.1      SW   231   9.8     WSW   247   8.82    263      480.7
   09/03/2019 14:20      98.7      97.9       25     56.0      0.00      0.00      83.9     0.34      1012.2     3.8      SW   227   9.3     SSW   194   8.82    263      493.1
   09/03/2019 14:10      99.1      98.1       24     56.0      0.00      0.00      83.8     0.34      1012.4     3.7      SW   222   7.8       S   183   8.83    263      502.7
   09/03/2019 14:00      99.0      97.5       25     56.0      0.00      0.00      83.8     0.34      1012.5     2.2     SSE   161   5.6     WSW   238   8.83    263      512.3
   09/03/2019 13:50      98.0      95.9       25     55.8      0.00      0.00      83.8     0.34      1012.7     3.4       S   174   7.9      SE   136   8.84    263      522.4
   09/03/2019 13:40      96.3      95.3       27     56.4      0.00      0.00      83.7     0.34      1012.7     3.8      SE   145   9.0      SW   215   8.84    263      531.2
   09/03/2019 13:30      96.1      94.9       27     56.6      0.00      0.00      83.7     0.34      1012.9     3.6      SE   131   7.6      SE   135   8.84    263      535.9
   09/03/2019 13:20      96.2      94.8       28     57.0      0.00      0.00      83.6     0.34      1013.0     3.6     SSE   157   7.4     SSW   193   8.85    263      543.1
   09/03/2019 13:10      95.9      94.4       29     57.6      0.00      0.00      83.6     0.34      1013.2     5.1       S   180   9.8      SE   137   8.85    264      548.2
   09/03/2019 13:00      94.6      93.5       30     58.2      0.00      0.00      83.6     0.34      1013.3     5.1       S   179  10.9     SSW   199   8.85    263      550.8
   09/03/2019 12:50      95.7      93.7       30     58.3      0.00      0.00      83.6     0.34      1013.3     5.6      SE   144  10.7       S   180   8.85    263      549.6
   09/03/2019 12:40      96.5      95.1       31     60.0      0.00      0.00      83.6     0.34      1013.3     4.9       S   176  10.0       S   190   8.86    264      544.7
   09/03/2019 12:30      96.8      95.9       33     61.9      0.00      0.00      83.5     0.34      1013.5     2.6     NNE    22   5.7     NNE    29   8.86    264      534.4
   09/03/2019 12:20      97.0      96.0       33     62.6      0.00      0.00      83.5     0.34      1013.6     2.4     ENE    63   5.6       E    80   8.86    264      531.8
   09/03/2019 12:10      96.5      95.5       33     62.6      0.00      0.00      83.5     0.34      1013.7     1.8     ENE    66   4.8      NE    39   8.86    264      527.7
   09/03/2019 12:00      96.2      94.9       34     62.4      0.00      0.00      83.5     0.34      1013.7     1.5       N   358   3.6      NE    34   8.86    264      520.8
   09/03/2019 11:50      95.2      93.0       35     62.1      0.00      0.00      83.4     0.34      1013.8     1.5     NNW   336   3.8       N   355   8.87    264      514.7
   09/03/2019 11:40      94.1      92.9       35     62.1      0.00      0.00      83.5     0.34      1013.9     2.7      NE    55   5.2     NNE    33   8.87    264      510.1
   09/03/2019 11:30      94.1      92.1       36     62.3      0.00      0.00      83.5     0.34      1014.0     1.5     NNE    22   3.9       E    79   8.87    264      502.7
   09/03/2019 11:20      92.7      91.7       36     61.8      0.00      0.00      83.5     0.34      1014.3     1.8     NNE    27   4.3     NNE    19   8.87    264      493.5
   09/03/2019 11:10      92.7      91.1       36     61.3      0.00      0.00      83.5     0.34      1014.3     0.9       E    84   2.9     ESE   123   8.87    263      484.4
   09/03/2019 11:00      92.1      90.6       37     61.7      0.00      0.00      83.5     0.34      1014.4     1.8     NNE    33   4.1       E    81   8.87    264      474.6
   09/03/2019 10:50      91.2      90.4       38     61.6      0.00      0.00      83.5     0.34      1014.5     1.8       N     0   5.5     ENE    75   8.87    264      462.2
   09/03/2019 10:40      90.8      89.8       38     61.5      0.00      0.00      83.6     0.34      1014.6     1.4     NNE    29   3.6       N     8   8.87    264      451.0
   09/03/2019 10:30      90.2      89.2       39     61.3      0.00      0.00      83.6     0.34      1014.6     1.3     NNE    18   3.7     ENE    66   8.87    264      436.0
   09/03/2019 10:20      90.0      88.1       39     61.1      0.00      0.00      83.6     0.34      1014.6     0.9     ENE    64   3.4      NE    41   8.87    264      422.0
   09/03/2019 10:10      89.3      87.4       40     60.9      0.00      0.00      83.6     0.34      1014.7     1.2     ESE   104   3.8       E    86   8.87    264      402.9
   09/03/2019 10:00      87.8      87.1       40     60.3      0.00      0.00      83.7     0.34      1014.7     0.8       N     9   2.5      NE    40   8.87    264      386.7
   09/03/2019 09:50      88.1      87.0       40     60.2      0.00      0.00      83.7     0.34      1014.7     1.1     NNE    29   3.0      NE    50   8.87    264      368.4
   09/03/2019 09:40      87.2      85.7       41     60.0      0.00      0.00      83.7     0.34      1014.7     0.9      NE    44   2.1      NE    37   8.87    264      348.8
   09/03/2019 09:30      86.4      84.5       42     59.8      0.00      0.00      83.7     0.34      1014.7     0.9       N   353   2.7       N     2   8.87    264      343.0
   09/03/2019 09:20      85.8      84.5       43     60.1      0.00      0.00      83.8     0.34      1014.7     1.0     NNW   333   3.0     NNW   342   8.87    264      268.2
   09/03/2019 09:10      86.0      85.0       44     60.8      0.00      0.00      83.8     0.34      1014.7     0.6      NW   314   2.5     WNW   294   8.88    264      307.7
   09/03/2019 09:00      85.0      82.9       47     60.9      0.00      0.00      83.8     0.34      1014.8     0.6      SW   217   1.7     WSW   251   8.88    265      279.3
   09/03/2019 08:50      83.1      82.3       48     60.9      0.00      0.00      83.8     0.34      1014.8     0.4      NW   310   1.3     NNE    28   8.88    265      255.4
   09/03/2019 08:40      82.5      81.7       49     61.0      0.00      0.00      83.9     0.34      1014.8     0.6     WNW   297   2.2       W   263   8.88    266      222.5
   09/03/2019 08:30      81.9      80.7       51     61.1      0.00      0.00      83.9     0.34      1014.8     0.5       W   262   1.7     WNW   290   8.88    266      192.3
   09/03/2019 08:20      81.2      79.8       50     60.6      0.00      0.00      83.9     0.34      1014.8     0.5     NNE    33   2.4       W   276   8.88    266      179.1
   09/03/2019 08:10      80.0      79.4       50     59.5      0.00      0.00      83.9     0.34      1014.8     0.5     WNW   298   1.6     WNW   284   8.88    267      151.6
   09/03/2019 08:00      79.8      78.5       50     59.3      0.00      0.00      84.0     0.34      1014.9     0.4     NNW   330   1.4     NNE    16   8.88    267      124.5
   09/03/2019 07:50      78.7      76.2       54     59.3      0.00      0.00      84.0     0.34      1014.9     0.0       N     0   0.0      SE   128   8.88    268       94.2
   09/03/2019 07:40      76.2      73.7       58     59.3      0.00      0.00      84.1     0.34      1014.9     0.0      SE   129   0.2      SE   129   8.88    268       67.7
   09/03/2019 07:30      73.8      72.1       63     59.4      0.00      0.00      84.0     0.34      1014.9     0.0      SE   142   0.7      SE   144   8.88    268       30.6
   09/03/2019 07:20      72.3      71.0       66     59.5      0.00      0.00      84.1     0.34      1014.8     0.0       N     0   0.0      SE   144   8.88    268       -8.7
   09/03/2019 07:10      71.3      70.5       66     59.1      0.00      0.00      84.1     0.34      1014.8     0.2     SSE   147   0.9     SSE   148   8.88    268      -19.9
   09/03/2019 07:00      70.6      69.8       66     58.4      0.00      0.00      84.1     0.34      1014.7     0.4     SSE   167   0.7     SSE   148   8.88    268      -23.9
   09/03/2019 06:50      70.2      69.7       67     58.5      0.00      0.00      84.1     0.34      1014.6     0.2     SSE   164   0.9      SE   146   8.88    268      -29.7
   09/03/2019 06:40      70.4      69.7       67     58.5      0.00      0.00      84.1     0.34      1014.5     0.2      SE   143   0.8      SE   142   8.88    268      -35.4
   09/03/2019 06:30      70.5      70.0       66     58.5      0.00      0.00      84.2     0.34      1014.5     0.0       S   176   0.6       S   179   8.88    268      -39.0
   09/03/2019 06:20      70.6      70.1       66     58.4      0.00      0.00      84.2     0.34      1014.3     0.2       S   182   1.3       S   174   8.88    268      -39.8
   09/03/2019 06:10      71.1      70.4       64     58.1      0.00      0.00      84.2     0.34      1014.3     0.2     SSE   158   0.9     SSE   148   8.89    268      -39.2
   09/03/2019 06:00      71.2      70.6       64     58.1      0.00      0.00      84.3     0.34      1014.2     0.0       S   182   0.4       S   182   8.89    268      -39.0
   09/03/2019 05:50      71.2      70.7       65     58.7      0.00      0.00      84.3     0.34      1014.1     0.0     SSE   151   0.6      SE   141   8.89    268      -39.5
   09/03/2019 05:40      71.7      71.0       64     58.6      0.00      0.00      84.3     0.34      1014.0     0.5     SSE   148   1.4      SE   146   8.89    268      -39.8
   09/03/2019 05:30      72.1      71.5       64     58.8      0.00      0.00      84.3     0.34      1014.0     0.1     SSE   157   0.8     SSE   149   8.89    268      -38.9
   09/03/2019 05:20      72.1      71.6       63     58.8      0.00      0.00      84.3     0.34      1014.0     0.8      SE   145   1.9     SSE   147   8.89    268      -34.6
   09/03/2019 05:10      72.2      71.6       63     58.5      0.00      0.00      84.4     0.34      1014.0     0.3     SSE   163   1.1     SSE   157   8.89    268      -29.7
   09/03/2019 05:00      72.1      71.3       65     59.1      0.00      0.00      84.4     0.34      1014.0     0.5       S   175   2.0       S   173   8.89    268      -29.1
   09/03/2019 04:50      71.6      71.2       65     59.0      0.00      0.00      84.4     0.35      1014.0     0.3     SSW   192   1.0       S   179   8.89    268      -28.7
   09/03/2019 04:40      71.6      70.9       65     58.9      0.00      0.00      84.4     0.34      1014.0     0.3       S   183   1.2       S   170   8.89    268      -27.3
   09/03/2019 04:30      71.2      70.8       66     59.0      0.00      0.00      84.5     0.34      1014.0     0.1     SSW   194   0.7     SSW   197   8.89    268      -29.6
   09/03/2019 04:20      71.5      70.8       66     59.0      0.00      0.00      84.5     0.35      1014.0     0.6      SE   141   1.4      SE   142   8.89    268      -32.3
   09/03/2019 04:10      71.5      71.2       65     59.0      0.00      0.00      84.5     0.35      1014.0     0.0       N     0   0.0     ESE   120   8.89    268      -33.0
   09/03/2019 04:00      71.5      70.7       65     58.9      0.00      0.00      84.5     0.35      1014.0     0.0     ESE   115   0.2     ESE   117   8.89    268      -33.7
   09/03/2019 03:50      71.6      70.8       64     58.6      0.00      0.00      84.5     0.35      1014.0     0.0     SSE   158   0.5       S   170   8.89    268      -33.8
   09/03/2019 03:40      71.6      71.2       64     58.8      0.00      0.00      84.6     0.35      1014.0     0.4       S   173   1.5       S   181   8.89    268      -38.7
   09/03/2019 03:30      71.9      71.2       64     58.6      0.00      0.00      84.6     0.35      1014.0     0.2     SSE   155   0.7     SSE   155   8.89    268      -41.1
   09/03/2019 03:20      72.1      71.5       63     58.5      0.00      0.00      84.7     0.35      1014.0     0.0     SSE   165   0.4     SSE   165   8.90    268      -41.1
   09/03/2019 03:10      72.1      71.6       63     58.5      0.00      0.00      84.6     0.35      1014.1     0.0       S   169   0.2       S   169   8.90    268      -41.6
   09/03/2019 03:00      72.0      71.4       65     59.1      0.00      0.00      84.6     0.35      1014.2     0.7     SSE   154   2.0      SE   140   8.90    268      -41.6
   09/03/2019 02:50      72.3      71.5       65     59.5      0.00      0.00      84.6     0.35      1014.3     0.5     SSE   164   1.6       S   173   8.90    268      -41.5
   09/03/2019 02:40      72.4      72.1       64     59.6      0.00      0.00      84.7     0.35      1014.3     0.0     SSE   162   0.9       S   176   8.90    268      -41.5
   09/03/2019 02:30      72.4      72.0       65     59.7      0.00      0.00      84.7     0.35      1014.4     0.4      SE   145   1.1      SE   138   8.90    268      -42.4
   09/03/2019 02:20      72.6      72.0       64     59.3      0.00      0.00      84.7     0.35      1014.4     0.3     SSE   168   0.9     SSE   165   8.90    268      -43.3
   09/03/2019 02:10      72.5      72.0       64     59.5      0.00      0.00      84.7     0.35      1014.4     0.8     SSE   161   1.6      SE   142   8.90    268      -43.6
   09/03/2019 02:00      72.6      71.9       64     59.5      0.00      0.00      84.7     0.35      1014.4     0.6     SSE   168   1.7      SE   144   8.90    268      -43.5
   09/03/2019 01:50      73.0      72.4       63     59.6      0.00      0.00      84.8     0.35      1014.4     0.4     SSE   159   1.3      SE   131   8.90    267      -44.0
   09/03/2019 01:40      73.2      72.8       62     59.4      0.00      0.00      84.7     0.35      1014.4     0.6     SSE   162   2.0      SE   133   8.90    267      -45.5
   09/03/2019 01:30      73.4      72.9       61     59.1      0.00      0.00      84.8     0.35      1014.5     1.0     SSE   168   2.9      SE   141   8.90    267      -45.4
   09/03/2019 01:20      73.4      72.9       61     58.9      0.00      0.00      84.8     0.35      1014.6     0.6     SSE   159   1.3      SE   145   8.91    267      -45.6
   09/03/2019 01:10      73.3      72.9       60     58.4      0.00      0.00      84.8     0.35      1014.6     1.0       S   174   2.3     SSW   206   8.91    267      -45.7
   09/03/2019 01:00      73.5      72.9       59     58.1      0.00      0.00      84.8     0.35      1014.8     0.5     SSE   164   1.4      SE   142   8.91    267      -46.3
   09/03/2019 00:50      74.3      73.3       57     57.7      0.00      0.00      84.8     0.35      1014.8     0.4       S   179   1.2       S   189   8.91    266      -46.3
   09/03/2019 00:40      74.2      73.7       57     57.8      0.00      0.00      84.8     0.35      1014.7     0.5       S   187   1.9     SSW   193   8.91    266      -46.5
   09/03/2019 00:30      75.1      73.9       55     57.1      0.00      0.00      84.8     0.35      1014.8     0.2      SE   146   1.1      SE   144   8.91    266      -46.8
   09/03/2019 00:20      75.3      74.7       54     57.1      0.00      0.00      84.9     0.35      1014.7     0.2     SSE   166   0.9     SSE   167   8.91    266      -46.5
   09/03/2019 00:10      75.3      74.6       53     56.8      0.00      0.00      84.8     0.35      1014.8     0.2      SW   216   1.0     SSW   198   8.91    266      -46.8
   09/03/2019 00:00      75.0      74.6       52     55.9      0.00      0.00      84.9     0.35      1014.8     0.1       S   177   0.8       S   182   8.91    266      -47.6
   09/02/2019 23:50      75.3      74.8       50     55.4      0.00      0.00      84.9     0.35      1014.8     0.2      SE   126   1.1      SE   137   8.92    266      -47.8
   09/02/2019 23:40      75.0      74.4       51     55.4      0.00      0.00      84.9     0.35      1014.8     0.2     SSW   211   1.0     WSW   254   8.92    266      -46.7
   09/02/2019 23:30      75.1      74.4       51     55.6      0.00      0.00      84.9     0.35      1014.8     0.0       S   174   0.8       S   185   8.92    266      -47.8
   09/02/2019 23:20      75.6      74.7       50     55.3      0.00      0.00      84.9     0.35      1014.8     0.5     SSE   157   1.5      SE   143   8.92    266      -48.9
   09/02/2019 23:10      75.4      74.8       50     55.4      0.00      0.00      84.9     0.35      1014.7     1.1     SSW   197   2.0     SSW   191   8.92    266      -48.2
   09/02/2019 23:00      76.1      75.2       49     55.4      0.00      0.00      84.9     0.35      1014.8     0.7     ESE   122   1.4      SE   139   8.92    266      -49.1
   09/02/2019 22:50      76.0      75.6       48     54.6      0.00      0.00      84.9     0.35      1014.7     0.7       S   185   1.3     WSW   240   8.92    266      -48.4
   09/02/2019 22:40      76.5      75.8       49     55.6      0.00      0.00      84.9     0.35      1014.8     0.1     SSE   153   0.8     SSE   155   8.93    266      -49.4
   09/02/2019 22:30      77.2      76.2       48     55.4      0.00      0.00      84.9     0.35      1014.8     1.1       S   180   1.7     SSW   200   8.93    266      -48.6
   09/02/2019 22:20      77.2      76.5       48     55.4      0.00      0.00      84.9     0.35      1014.9     1.1     SSW   203   1.9     SSW   202   8.93    266      -49.5
   09/02/2019 22:10      77.2      76.4       48     55.7      0.00      0.00      84.8     0.35      1015.0     1.1     SSW   201   1.6     SSW   204   8.93    266      -49.4
   09/02/2019 22:00      77.5      77.0       48     56.1      0.00      0.00      84.9     0.35      1015.0     0.0       N     0   0.0       S   178   8.93    266      -51.0
   09/02/2019 21:50      77.9      77.3       48     56.0      0.00      0.00      84.9     0.35      1015.0     0.0     SSE   164   0.4     SSE   163   8.94    266      -52.5
   09/02/2019 21:40      78.7      77.8       46     56.0      0.00      0.00      84.9     0.35      1015.0     0.2       S   170   0.8     SSE   157   8.94    266      -52.3
   09/02/2019 21:30      79.2      78.4       46     56.0      0.00      0.00      84.8     0.35      1015.0     0.3     SSE   165   1.4       E   100   8.94    265      -54.5
   09/02/2019 21:20      79.9      78.9       44     55.7      0.00      0.00      84.9     0.35      1015.0     0.4     ESE   113   1.7     SSE   168   8.94    265      -56.3
   09/02/2019 21:10      80.4      79.5       43     55.4      0.00      0.00      84.8     0.35      1014.9     0.5     ENE    66   1.4      NE    47   8.94    265      -57.3
   09/02/2019 21:00      80.9      80.1       42     55.0      0.00      0.00      84.8     0.35      1014.8     0.1      NE    56   1.3     ESE   105   8.94    265      -58.6
   09/02/2019 20:50      81.5      80.6       40     54.7      0.00      0.00      84.8     0.35      1014.7     1.2      NE    50   2.7     NNE    27   8.95    265      -59.4
   09/02/2019 20:40      81.5      81.1       38     53.2      0.00      0.00      84.8     0.35      1014.7     0.5      NE    43   3.0     NNE    23   8.95    264      -57.5
   09/02/2019 20:30      82.7      81.2       39     54.5      0.00      0.00      84.7     0.35      1014.5     0.4     SSE   161   1.7     SSE   168   8.95    264      -57.0
   09/02/2019 20:20      82.9      82.4       38     54.6      0.00      0.00      84.7     0.35      1014.4     0.2     NNE    32   0.8      NE    56   8.95    264      -59.1
   09/02/2019 20:10      83.7      82.6       39     55.3      0.00      0.00      84.7     0.35      1014.3     0.7       E    79   4.0     ENE    69   8.95    264      -60.7
   09/02/2019 20:00      84.3      83.4       39     55.8      0.00      0.00      84.7     0.35      1014.1     1.2     ENE    61   2.5     ESE   112   8.96    264      -61.3
   09/02/2019 19:50      85.1      84.0       38     56.5      0.00      0.00      84.7     0.34      1013.9     1.2       E    79   2.5     ENE    69   8.96    264      -61.7
   09/02/2019 19:40      86.0      84.8       39     57.5      0.00      0.00      84.6     0.34      1013.8     1.5     ENE    58   3.5      NE    52   8.96    264      -61.5
   09/02/2019 19:30      87.3      85.6       38     57.6      0.00      0.00      84.6     0.34      1013.6     1.5     ENE    78   3.8       E    82   8.96    264      -61.3
   09/02/2019 19:20      88.4      87.0       37     58.1      0.00      0.00      84.6     0.34      1013.5     1.2       E    79   3.5     ENE    78   8.97    264      -58.8
   09/02/2019 19:10      89.1      88.1       36     58.0      0.00      0.00      84.5     0.34      1013.2     1.4      SE   143   3.1       S   189   8.97    264      -53.8
   09/02/2019 19:00      89.4      88.8       36     58.9      0.00      0.00      84.5     0.34      1013.0     1.4       S   171   4.0      SW   215   8.97    264      -43.1
   09/02/2019 18:50      89.4      88.9       37     59.2      0.00      0.00      84.5     0.34      1013.0     2.6       S   173   5.1     SSW   203   8.98    264      -27.6
   09/02/2019 18:40      90.2      89.2       36     59.4      0.00      0.00      84.4     0.34      1012.9     3.9       S   181   6.1       S   175   8.98    264       -8.1
   09/02/2019 18:30      91.4      89.9       36     59.8      0.00      0.00      84.4     0.34      1012.9     3.5       S   173   5.8     SSE   165   8.99    264       -5.0
   09/02/2019 18:20      92.1      90.8       34     58.9      0.00      0.00      84.4     0.34      1012.8     3.1       S   182   7.6     SSW   197   8.99    264       32.7
   09/02/2019 18:10      92.7      91.7       33     58.7      0.00      0.00      84.4     0.34      1012.7     2.6       S   189   5.0     SSW   193   9.00    264       59.3
   09/02/2019 18:00      92.7      91.9       33     58.8      0.00      0.00      84.3     0.34      1012.7     3.3     SSW   207   7.3       S   183   9.00    264       78.7
   09/02/2019 17:50      93.0      92.4       33     59.3      0.00      0.00      84.3     0.34      1012.7     3.2       S   187   6.0      SW   220   9.01    264      105.7
   09/02/2019 17:40      92.5      91.7       34     59.4      0.00      0.00      84.3     0.34      1012.6     3.5       S   186   6.9      SW   223   9.01    264      140.3
   09/02/2019 17:30      93.6      91.9       34     59.7      0.00      0.00      84.3     0.34      1012.7     6.2       S   178   9.7     SSW   193   9.02    264      167.6
   09/02/2019 17:20      93.9      93.0       32     59.5      0.00      0.00      84.1     0.34      1012.7     4.5       S   190   9.9      SW   222   9.02    264      190.1
   09/02/2019 17:10      94.1      93.4       32     59.5      0.00      0.00      84.2     0.34      1012.7     3.7     SSE   167   7.8       S   182   9.03    264      209.7
   09/02/2019 17:00      95.2      93.6       31     59.0      0.00      0.00      84.2     0.34      1012.7     3.9     SSE   161   7.3       S   191   9.03    264      230.0
   09/02/2019 16:50      95.3      94.3       31     59.4      0.00      0.00      84.0     0.34      1012.7     2.4     SSE   151   6.5       W   261   9.04    264      249.5
   09/02/2019 16:40      95.5      94.9       30     59.2      0.00      0.00      84.1     0.34      1012.7     2.6     SSE   159   9.1     SSE   159   9.04    264      271.2
   09/02/2019 16:30      95.4      94.6       31     59.3      0.00      0.00      84.1     0.34      1012.7     2.4       E    91   6.3       S   183   9.05    264      292.7
   09/02/2019 16:20      95.4      94.9       30     58.7      0.00      0.00      84.0     0.34      1012.7     3.6     SSE   149   8.6       S   179   9.05    264      312.3
   09/02/2019 16:10      95.4      94.6       30     58.7      0.00      0.00      84.0     0.34      1012.8     3.3      SE   143   7.0       E    80   9.05    264      332.7
   09/02/2019 16:00      96.8      94.6       31     59.7      0.00      0.00      83.9     0.34      1012.8     3.6      SE   139   8.5      SE   135   9.06    264      351.0
   09/02/2019 15:50      96.0      95.0       31     59.9      0.00      0.00      83.9     0.34      1012.9     3.0     ESE   107   5.7      SE   130   9.06    264      370.1
   09/02/2019 15:40      95.9      94.9       31     60.1      0.00      0.00      83.9     0.34      1013.0     3.0     ESE   103   6.2       E    95   9.06    264      387.8
   09/02/2019 15:30      95.2      94.4       32     60.4      0.00      0.00      83.8     0.34      1013.0     3.6     ESE   105   7.3     ENE    76   9.07    264      407.0
   09/02/2019 15:20      95.7      94.3       32     60.5      0.00      0.00      83.8     0.34      1013.0     5.0      SE   131   9.2     ESE   120   9.07    264      423.2
   09/02/2019 15:10      95.9      95.0       32     60.6      0.00      0.00      83.8     0.34      1013.1     4.2      SE   129   9.0      SE   136   9.07    264      435.6
   09/02/2019 15:00      96.2      95.4       32     61.0      0.00      0.00      83.7     0.34      1013.1     4.3     ESE   107   8.5      SE   136   9.08    264      452.7
   09/02/2019 14:50      96.0      95.1       32     61.0      0.00      0.00      83.7     0.34      1013.3     4.2     ESE   116   8.2      SE   137   9.08    264      468.5
   09/02/2019 14:40      96.2      94.9       32     61.2      0.00      0.00      83.6     0.34      1013.4     4.7     SSE   153  10.3      SE   145   9.08    264      482.3
   09/02/2019 14:30      96.2      94.1       33     61.2      0.00      0.00      83.6     0.34      1013.6     5.0      SE   134  10.9      SE   136   9.09    264      496.7
   09/02/2019 14:20      96.9      95.1       32     61.0      0.00      0.00      83.6     0.34      1013.8     4.5      SE   131   9.3     ESE   109   9.09    264      504.8
   09/02/2019 14:10      96.6      95.4       32     61.3      0.00      0.00      83.6     0.34      1013.8     4.4      SE   141   8.7     SSE   150   9.10    263      515.6
   09/02/2019 14:00      96.9      95.9       32     61.7      0.00      0.00      83.5     0.34      1014.0     3.9      SE   130   8.9     ENE    73   9.10    264      519.5
   09/02/2019 13:50      98.1      96.3       32     62.0      0.00      0.00      83.5     0.34      1014.0     4.0      SE   135   8.0       E    98   9.10    264      535.5
   09/02/2019 13:40      97.8      96.0       32     62.1      0.00      0.00      83.5     0.34      1014.2     2.8     ESE   121   6.0     ESE   106   9.11    264      542.9
   09/02/2019 13:30      97.5      95.6       33     62.4      0.00      0.00      83.4     0.34      1014.2     3.4     ESE   120   6.9      SE   138   9.11    264      553.0
   09/02/2019 13:20      97.3      96.0       33     62.5      0.00      0.00      83.4     0.34      1014.3     3.0     ENE    79   6.0     ENE    72   9.11    264      545.0
   09/02/2019 13:10      97.3      96.2       33     62.4      0.00      0.00      83.4     0.34      1014.4     3.2     ENE    68   6.7      SE   138   9.11    264      545.3
   09/02/2019 13:00      96.3      95.5       33     61.8      0.00      0.00      83.3     0.34      1014.6     2.5     ENE    60   5.2       E    91   9.11    264      546.0
   09/02/2019 12:50      96.1      94.4       33     61.4      0.00      0.00      83.3     0.34      1014.7     2.7      NE    56   5.5     ENE    79   9.11    264      548.4
   09/02/2019 12:40      95.1      93.9       33     60.5      0.00      0.00      83.3     0.34      1014.8     3.2       E    84   6.1     SSE   154   9.11    264      555.5
   09/02/2019 12:30      94.9      93.0       32     60.0      0.00      0.00      83.3     0.34      1014.9     2.6       E    83   6.3      NE    37   9.12    264      553.8
   09/02/2019 12:20      93.6      92.6       33     59.7      0.00      0.00      83.3     0.34      1015.0     3.3       E    89   7.8     ENE    63   9.12    264      461.1
   09/02/2019 12:10      93.9      93.1       33     59.9      0.00      0.00      83.3     0.34      1015.2     3.6     ENE    61   6.6       E    98   9.12    264      592.3
   09/02/2019 12:00      93.3      91.6       34     59.6      0.00      0.00      83.3     0.34      1015.2     3.4     ENE    69   6.5     ESE   108   9.12    264      572.7
   09/02/2019 11:50      92.4      90.2       35     59.9      0.00      0.00      83.3     0.34      1015.3     3.0     ENE    68   5.8      NE    55   9.12    264      611.4
   09/02/2019 11:40      91.7      90.3       35     59.6      0.00      0.00      83.3     0.34      1015.3     3.3       E    80   7.3     SSE   166   9.12    264      307.0
   09/02/2019 11:30      92.1      91.2       34     59.6      0.00      0.00      83.2     0.34      1015.3     2.8     ENE    64   5.1     ENE    66   9.12    264      295.8
   09/02/2019 11:20      92.0      91.3       35     60.4      0.00      0.00      83.3     0.34      1015.3     2.3     ENE    70   5.2     ENE    78   9.13    264      360.3
   09/02/2019 11:10      91.5      90.6       37     61.2      0.00      0.00      83.3     0.34      1015.3     2.7      NE    34   5.5      NE    55   9.13    264      432.1
   09/02/2019 11:00      90.8      89.8       38     61.0      0.00      0.00      83.3     0.34      1015.3     2.9     NNE    29   5.4       N     2   9.13    264      557.5
   09/02/2019 10:50      90.5      89.5       38     61.0      0.00      0.00      83.3     0.34      1015.3     2.0     ENE    59   5.2     NNE    28   9.13    264      477.2
   09/02/2019 10:40      89.9      89.4       39     61.5      0.00      0.00      83.3     0.34      1015.3     2.5     ENE    78   5.2     ESE   122   9.13    264      455.2
   09/02/2019 10:30      89.6      88.0       40     61.6      0.00      0.00      83.3     0.34      1015.2     2.5     ENE    67   5.6     ENE    64   9.13    264      435.7
   09/02/2019 10:20      88.3      87.6       41     61.5      0.00      0.00      83.3     0.34      1015.3     2.3      NE    38   4.5     ENE    57   9.13    264      421.3
   09/02/2019 10:10      88.2      87.0       42     61.9      0.00      0.00      83.4     0.34      1015.2     1.9      NE    55   4.1      NE    53   9.13    264      404.2
   09/02/2019 10:00      88.0      85.9       43     62.1      0.00      0.00      83.5     0.34      1015.1     1.2     ENE    66   3.4     ESE   110   9.13    264      384.8
   09/02/2019 09:50      86.1      84.5       46     62.1      0.00      0.00      83.5     0.34      1015.0     1.5     NNE    31   3.1      NE    42   9.13    265      366.0
   09/02/2019 09:40      84.7      83.6       48     62.3      0.00      0.00      83.5     0.34      1015.0     1.2     NNE    33   2.6      NE    50   9.13    265      346.2
   09/02/2019 09:30      83.6      82.6       50     62.2      0.00      0.00      83.5     0.34      1015.0     1.2     NNE    31   2.6      NE    37   9.13    265      327.8
   09/02/2019 09:20      82.7      81.9       51     62.2      0.00      0.00      83.5     0.34      1015.0     1.5      NE    49   3.6     NNE    26   9.13    266      304.9
   09/02/2019 09:10      82.7      81.9       51     62.1      0.00      0.00      83.6     0.34      1015.0     1.5      NE    37   3.7       E    80   9.13    266      284.5
   09/02/2019 09:00      82.8      81.4       51     62.0      0.00      0.00      83.6     0.34      1015.0     0.9      NE    47   2.6     NNE    15   9.13    266      263.9
   09/02/2019 08:50      82.2      81.4       51     61.8      0.00      0.00      83.7     0.34      1014.9     1.2      NE    40   2.5     ENE    66   9.13    266      243.7
   09/02/2019 08:40      82.2      80.4       52     61.9      0.00      0.00      83.6     0.34      1014.8     0.3      NE    38   1.5     NNE    30   9.13    266      219.2
   09/02/2019 08:30      80.8      79.4       53     61.7      0.00      0.00      83.7     0.34      1014.8     0.6     NNE    33   1.8      NE    45   9.13    266      195.0
   09/02/2019 08:20      79.6      78.8       54     61.4      0.00      0.00      83.7     0.34      1014.8     0.7     WNW   302   2.2      NW   316   9.13    268      170.1
   09/02/2019 08:10      79.0      76.4       58     61.6      0.00      0.00      83.8     0.34      1014.7     0.6      SW   215   2.2       S   170   9.13    268      140.9
   09/02/2019 08:00      76.5      75.0       63     62.1      0.00      0.00      83.8     0.34      1014.6     1.5     SSW   193   3.0       S   184   9.13    269      114.5
   09/02/2019 07:50      75.2      73.8       66     62.8      0.00      0.00      83.8     0.34      1014.7     0.5      SE   141   1.9      SE   137   9.13    269       89.4
   09/02/2019 07:40      73.9      71.8       70     62.7      0.00      0.00      83.8     0.34      1014.7     0.6     ESE   107   2.1      SE   141   9.13    270       61.6
   09/02/2019 07:30      72.1      70.1       75     62.6      0.00      0.00      83.8     0.34      1014.6     1.1     SSE   161   2.7     SSW   196   9.13    271       23.0
   09/02/2019 07:20      70.3      68.8       78     62.3      0.00      0.00      83.9     0.34      1014.7     0.2       S   169   1.1     SSW   200   9.14    271       -4.7
   09/02/2019 07:10      68.9      67.7       81     62.0      0.00      0.00      83.9     0.34      1014.6     1.0     SSE   162   1.9      SE   140   9.14    272      -16.5
   09/02/2019 07:00      67.9      67.1       82     61.7      0.00      0.00      83.9     0.34      1014.6     0.3      SE   143   1.2     SSE   152   9.14    272      -23.4
   09/02/2019 06:50      67.6      67.1       82     61.5      0.00      0.00      84.0     0.34      1014.6     0.2     SSE   159   0.9      SE   133   9.14    272      -29.7
   09/02/2019 06:40      67.6      67.1       82     61.6      0.00      0.00      84.0     0.34      1014.6     0.4     SSE   148   0.9     SSE   157   9.14    272      -34.9
   09/02/2019 06:30      67.7      67.0       81     61.2      0.00      0.00      84.0     0.34      1014.6     0.3      SE   135   1.4      SE   134   9.14    272      -39.6
   09/02/2019 06:20      67.8      67.3       80     61.2      0.00      0.00      84.0     0.34      1014.6     0.4       S   169   1.2       S   184   9.14    272      -40.7
   09/02/2019 06:10      68.0      67.4       80     61.3      0.00      0.00      84.0     0.34      1014.6     0.8     SSW   192   1.5       S   190   9.14    272      -40.0
   09/02/2019 06:00      68.4      67.7       79     61.2      0.00      0.00      84.0     0.35      1014.6     0.1       E    84   0.7      SE   125   9.14    271      -40.2
   09/02/2019 05:50      68.5      68.1       79     61.6      0.00      0.00      84.1     0.34      1014.6     0.3     SSE   157   1.0     SSE   161   9.14    272      -39.8
   09/02/2019 05:40      68.5      68.0       79     61.5      0.00      0.00      84.1     0.35      1014.6     0.4       S   174   0.9       S   171   9.14    271      -39.1
   09/02/2019 05:30      68.5      68.1       79     61.5      0.00      0.00      84.2     0.34      1014.6     0.2     SSE   165   1.1       S   176   9.14    271      -37.6
   09/02/2019 05:20      68.4      67.5       79     61.4      0.00      0.00      84.2     0.35      1014.5     0.9      SE   143   2.1     SSE   150   9.14    271      -32.5
   09/02/2019 05:10      68.1      67.5       79     60.9      0.00      0.00      84.2     0.35      1014.3     0.3     SSE   157   1.3      SE   138   9.14    271      -33.5
   09/02/2019 05:00      68.0      67.6       78     60.9      0.00      0.00      84.2     0.35      1014.3     0.7     SSE   155   1.8      SE   142   9.14    271      -39.6
   09/02/2019 04:50      67.9      67.4       79     60.8      0.00      0.00      84.3     0.35      1014.4     0.9     SSW   194   1.9       S   183   9.14    271      -40.5
   09/02/2019 04:40      67.9      67.5       78     60.7      0.00      0.00      84.3     0.35      1014.4     0.3      SE   129   1.1      SE   130   9.14    271      -41.4
   09/02/2019 04:30      68.3      67.6       77     60.5      0.00      0.00      84.3     0.35      1014.4     0.4     SSE   160   1.2     SSE   150   9.14    271      -42.4
   09/02/2019 04:20      68.8      68.0       76     60.6      0.00      0.00      84.3     0.35      1014.5     1.5       S   191   2.3       S   188   9.14    271      -42.9
   09/02/2019 04:10      69.3      68.4       76     60.8      0.00      0.00      84.3     0.35      1014.6     0.4       S   185   1.7     SSW   202   9.14    271      -44.5
   09/02/2019 04:00      69.1      68.0       77     61.2      0.00      0.00      84.4     0.35      1014.6     1.2     WNW   283   2.2       W   262   9.14    271      -44.8
   09/02/2019 03:50      68.7      68.0       77     60.9      0.00      0.00      84.4     0.35      1014.7     0.0      NW   308   1.0       W   276   9.14    271      -44.2
   09/02/2019 03:40      69.0      68.2       77     60.8      0.00      0.00      84.4     0.35      1014.6     0.0       N     0   0.0      SE   128   9.14    271      -45.1
   09/02/2019 03:30      69.2      68.6       76     61.0      0.00      0.00      84.4     0.35      1014.5     0.2       E    94   1.0       E    88   9.14    271      -47.2
   09/02/2019 03:20      69.4      68.8       76     61.0      0.00      0.00      84.4     0.35      1014.2     0.5       E    97   1.9       E    90   9.14    271      -48.2
   09/02/2019 03:10      69.3      68.8       76     61.0      0.00      0.00      84.5     0.35      1013.9     0.7     SSE   153   2.7      SE   138   9.15    271      -49.6
   09/02/2019 03:00      69.2      68.5       76     61.1      0.00      0.00      84.5     0.35      1013.7     1.6     SSE   151   3.2     SSE   148   9.15    270      -49.6
   09/02/2019 02:50      69.4      68.5       75     60.8      0.00      0.00      84.5     0.35      1013.5     0.5     SSE   160   1.9      SE   144   9.15    270      -49.0
   09/02/2019 02:40      69.4      69.1       75     61.0      0.00      0.00      84.5     0.35      1013.6     0.8       S   191   2.1       S   187   9.15    270      -49.3
   09/02/2019 02:30      69.4      68.8       75     61.0      0.00      0.00      84.5     0.35      1013.8     1.3       S   177   2.5       S   179   9.15    270      -49.8
   09/02/2019 02:20      69.6      68.8       74     60.5      0.00      0.00      84.5     0.35      1013.9     1.0     SSE   160   2.1       S   177   9.15    270      -49.1
   09/02/2019 02:10      70.0      69.3       74     60.9      0.00      0.00      84.5     0.35      1013.9     0.9     SSW   198   1.7     SSW   192   9.15    270      -47.6
   09/02/2019 02:00      70.0      69.6       73     60.8      0.00      0.00      84.5     0.35      1014.1     0.1     SSW   197   0.9      SW   227   9.15    269      -48.6
   09/02/2019 01:50      70.5      69.7       72     60.8      0.00      0.00      84.6     0.35      1014.3     0.0      SE   129   0.3      SE   135   9.15    270      -49.3
   09/02/2019 01:40      70.7      70.0       72     60.7      0.00      0.00      84.6     0.35      1014.5     0.2      SE   127   1.0     ESE   101   9.16    269      -50.3
   09/02/2019 01:30      70.8      70.2       71     60.7      0.00      0.00      84.5     0.35      1014.5     0.0       N     0   0.0      SE   131   9.16    269      -50.7
   09/02/2019 01:20      71.1      70.5       71     60.9      0.00      0.00      84.6     0.35      1014.4     0.0       N     0   0.0      SE   141   9.16    269      -51.3
   09/02/2019 01:10      71.2      70.7       71     60.9      0.00      0.00      84.6     0.35      1014.3     0.4     ESE   114   2.9       E   101   9.16    269      -52.5
   09/02/2019 01:00      71.1      70.6       71     60.9      0.00      0.00      84.6     0.35      1014.2     0.4     ESE   109   1.4      SE   141   9.16    269      -52.9
   09/02/2019 00:50      71.2      70.4       70     60.6      0.00      0.00      84.6     0.35      1014.1     1.0      SE   128   1.9     ESE   123   9.16    269      -52.8
   09/02/2019 00:40      71.8      71.0       69     60.7      0.00      0.00      84.6     0.35      1013.9     0.0      SE   140   0.7      SE   140   9.16    269      -53.3
   09/02/2019 00:30      72.1      71.4       68     60.7      0.00      0.00      84.7     0.35      1014.0     0.2       E   101   1.5       E    90   9.16    268      -55.0
   09/02/2019 00:20      72.6      71.8       67     60.7      0.00      0.00      84.7     0.35      1013.9     0.4     ENE    76   1.6     ENE    63   9.16    268      -56.3
   09/02/2019 00:10      72.8      72.0       66     60.4      0.00      0.00      84.6     0.35      1013.8     0.8     ENE    70   3.2      NE    40   9.17    268      -56.9
   09/02/2019 00:00      72.8      72.4       66     60.5      0.00      0.00      84.7     0.35      1013.7     0.8      NE    49   2.5      NE    46   9.17    268      -56.6
   09/01/2019 23:50      73.0      72.5       65     60.4      0.00      0.00      84.7     0.35      1013.7     0.9      NE    42   2.7      NE    46   9.17    268      -53.4
   09/01/2019 23:40      73.0      72.6       64     60.1      0.00      0.00      84.7     0.35      1013.8     0.8      NE    47   2.9     ENE    65   9.17    268      -55.9
   09/01/2019 23:30      73.5      72.8       63     59.6      0.00      0.00      84.7     0.35      1013.7     1.1     ENE    58   3.0       E    97   9.17    268      -58.4
   09/01/2019 23:20      73.7      73.1       62     59.5      0.00      0.00      84.7     0.35      1013.6     1.1      NE    50   2.5      NE    36   9.17    268      -59.5
   09/01/2019 23:10      73.8      73.2       61     59.2      0.00      0.00      84.6     0.35      1013.5     1.1      NE    54   2.5     ENE    74   9.17    268      -59.7
   09/01/2019 23:00      74.0      73.4       61     59.5      0.00      0.00      84.6     0.35      1013.5     0.9     ENE    75   2.2       N     9   9.17    268      -59.7
   09/01/2019 22:50      74.0      73.7       63     60.5      0.00      0.00      84.7     0.35      1013.4     0.6     ENE    69   2.7      NE    45   9.18    268      -59.5
   09/01/2019 22:40      74.2      73.8       66     62.0      0.00      0.00      84.7     0.35      1013.4     0.7     ENE    66   1.7      NE    41   9.18    268      -58.7
   09/01/2019 22:30      74.5      73.7       68     62.7      0.00      0.00      84.7     0.35      1013.3     0.3     ENE    73   1.7      NE    40   9.18    268      -59.0
   09/01/2019 22:20      74.4      74.0       68     63.0      0.00      0.00      84.7     0.35      1013.2     0.5       E    84   1.9      NE    47   9.18    268      -59.1
   09/01/2019 22:10      74.5      73.8       68     62.9      0.00      0.00      84.7     0.35      1013.2     0.8     ESE   102   2.0       E    88   9.18    268      -59.6
   09/01/2019 22:00      74.0      73.5       67     62.2      0.00      0.00      84.6     0.35      1013.2     0.6      SE   124   3.0      NE    45   9.18    268      -58.9
   09/01/2019 21:50      74.5      73.8       67     62.5      0.00      0.00      84.6     0.35      1013.1     0.0     SSE   150   0.5      SE   132   9.18    268      -58.3
   09/01/2019 21:40      74.7      74.1       66     62.2      0.00      0.00      84.6     0.35      1013.0     0.2      SE   126   0.8      SE   130   9.19    267      -59.6
   09/01/2019 21:30      75.1      74.4       64     62.0      0.00      0.00      84.6     0.35      1012.9     0.0      SE   126   0.5      SE   129   9.19    267      -60.3
   09/01/2019 21:20      75.5      74.8       65     62.5      0.00      0.00      84.6     0.35      1012.8     0.7      SE   129   1.5      SE   139   9.19    267      -62.3
   09/01/2019 21:10      75.9      75.3       63     62.3      0.00      0.00      84.6     0.35      1012.7     0.5      SE   127   0.9     ESE   111   9.19    267      -63.0
   09/01/2019 21:00      76.4      75.7       63     62.3      0.00      0.00      84.5     0.35      1012.7     0.3     ESE   114   1.4     ENE    75   9.19    267      -63.9
   09/01/2019 20:50      76.7      76.1       62     62.4      0.00      0.00      84.5     0.35      1012.6     0.5     ESE   105   1.4       E    98   9.20    267      -64.1
   09/01/2019 20:40      77.3      76.3       61     62.2      0.00      0.00      84.5     0.35      1012.5     0.7     ESE   104   2.1       E    81   9.20    266      -64.7
   09/01/2019 20:30      77.9      77.0       59     61.9      0.00      0.00      84.5     0.35      1012.5     1.1       E    85   2.5     ENE    67   9.20    266      -66.3
   09/01/2019 20:20      78.4      77.6       57     61.7      0.00      0.00      84.4     0.35      1012.3     1.7      NE    45   3.2      NE    49   9.20    266      -67.8
   09/01/2019 20:10      78.7      78.1       57     62.1      0.00      0.00      84.4     0.35      1012.2     1.4      NE    40   3.2     ENE    76   9.21    266      -68.9
   09/01/2019 20:00      79.5      78.4       57     62.3      0.00      0.00      84.4     0.35      1012.2     1.6      NE    53   3.4      NE    49   9.21    266      -70.0
   09/01/2019 19:50      80.2      79.3       56     62.5      0.00      0.00      84.3     0.35      1012.1     1.9     ENE    62   3.1       N   355   9.21    266      -70.7
   09/01/2019 19:40      81.1      79.9       54     62.5      0.00      0.00      84.3     0.34      1011.9     1.7     ENE    75   4.3     ENE    70   9.21    266      -69.8
   09/01/2019 19:30      82.7      80.8       53     63.1      0.00      0.00      84.3     0.34      1011.9     2.0       E    83   5.2     ENE    75   9.22    266      -63.5
   09/01/2019 19:20      83.8      82.4       52     63.2      0.00      0.00      84.2     0.34      1011.7     1.3     ENE    71   3.2     ENE    75   9.22    266      -55.3
   09/01/2019 19:10      86.2      83.5       49     63.5      0.00      0.00      84.2     0.34      1011.6     2.2     ENE    63   5.5       E    99   9.23    265      -49.7
   09/01/2019 19:00      88.7      86.0       46     63.7      0.00      0.00      84.2     0.34      1011.5     2.5      NE    51   4.4      NE    54   9.23    264      -44.2
   09/01/2019 18:50      90.1      88.6       42     63.5      0.00      0.00      84.1     0.34      1011.4     1.5     NNE    27   3.7      NE    39   9.24    264      -43.9
   09/01/2019 18:40      91.3      89.7       40     62.8      0.00      0.00      84.0     0.34      1011.3     1.3      NE    39   3.5      NE    48   9.24    264      -30.7
   09/01/2019 18:30      92.4      90.9       37     61.3      0.00      0.00      84.0     0.34      1011.2     1.1      NE    49   3.0     ENE    69   9.24    264      -11.4
   09/01/2019 18:20      95.3      92.0       34     60.5      0.00      0.00      84.0     0.34      1011.1     1.6     ENE    63   3.7      NE    39   9.25    264       15.4
   09/01/2019 18:10      96.2      95.0       28     57.5      0.00      0.00      84.0     0.34      1010.9     2.1       N   357   4.3       N   351   9.25    263       46.2
   09/01/2019 18:00      96.4      95.7       28     57.3      0.00      0.00      83.9     0.34      1010.8     2.1     NNW   331   4.5     NNW   332   9.25    263       98.5
   09/01/2019 17:50      97.1      96.0       27     56.7      0.00      0.00      83.9     0.34      1010.7     1.6     NNW   329   4.9     NNW   327   9.26    263       38.3
   09/01/2019 17:40      98.4      96.8       26     56.5      0.00      0.00      83.9     0.34      1010.6     2.2      NW   319   5.1     NNW   341   9.26    263       28.6
   09/01/2019 17:30      99.2      98.2       24     55.5      0.00      0.00      83.8     0.34      1010.5     3.0     WNW   300   8.5     WSW   244   9.27    263       86.3
   09/01/2019 17:20     100.7      99.0       23     54.8      0.00      0.00      83.8     0.34      1010.4     3.5     WNW   291   8.3      SW   232   9.27    263      141.8
   09/01/2019 17:10     101.3     100.4       21     53.5      0.00      0.00      83.8     0.34      1010.4     2.8      NW   319   6.0       W   272   9.28    262      210.1
   09/01/2019 17:00     101.4     100.5       20     53.1      0.00      0.00      83.7     0.34      1010.4     3.1      NW   306   8.2       W   271   9.28    262      205.6
   09/01/2019 16:50     101.2     100.4       21     53.5      0.00      0.00      83.7     0.34      1010.5     2.9      NW   306   7.8     NNW   336   9.29    262      184.7
   09/01/2019 16:40     102.3     101.1       21     54.5      0.00      0.00      83.6     0.34      1010.5     3.6      NW   305   7.7       W   272   9.29    262      247.2
   09/01/2019 16:30     103.3     102.0       22     55.9      0.00      0.00      83.6     0.34      1010.4     3.2      NW   315   6.6       W   272   9.30    263      327.1
   09/01/2019 16:20     103.4     102.4       23     57.6      0.00      0.00      83.6     0.34      1010.5     2.3     NNW   334   6.4      NW   313   9.30    263      327.1
   09/01/2019 16:10     102.9     101.8       23     57.6      0.00      0.00      83.5     0.34      1010.5     1.3     NNE    31   3.8     ESE   114   9.30    263      329.5
   09/01/2019 16:00     102.0     101.4       24     57.8      0.00      0.00      83.5     0.34      1010.6     2.5     NNE    33   5.1     NNW   343   9.31    263      343.7
   09/01/2019 15:50     101.9     101.2       24     57.5      0.00      0.00      83.4     0.34      1010.6     2.5      NE    35   5.4      NE    36   9.31    263      360.5
   09/01/2019 15:40     102.6     101.6       23     57.7      0.00      0.00      83.4     0.34      1010.7     2.2      NE    38   4.5      NW   326   9.31    263      377.4
   09/01/2019 15:30     102.3     101.2       24     57.5      0.00      0.00      83.4     0.34      1010.8     2.0      NE    50   4.5     ENE    65   9.31    263      394.4
   09/01/2019 15:20     101.4     100.8       24     57.7      0.00      0.00      83.3     0.34      1011.0     2.5      NE    44   4.6      NE    41   9.31    263      408.2
   09/01/2019 15:10     101.3     100.4       25     58.3      0.00      0.00      83.3     0.34      1011.1     2.3     ENE    72   4.2       N   350   9.32    263      426.3
   09/01/2019 15:00     101.3     100.3       25     58.4      0.00      0.00      83.3     0.34      1011.2     2.8     ENE    74   6.6     ESE   118   9.32    263      440.6
   09/01/2019 14:50     101.8     100.4       24     57.2      0.00      0.00      83.2     0.34      1011.3     2.8      NE    50   6.2     ESE   105   9.32    263      453.5
   09/01/2019 14:40     101.9     100.5       23     56.8      0.00      0.00      83.1     0.34      1011.4     2.7      NE    48   5.3     NNE    24   9.32    263      467.9
   09/01/2019 14:30     101.7      99.2       24     56.7      0.00      0.00      83.1     0.34      1011.5     2.0     ENE    58   4.9       E   100   9.33    263      483.4
   09/01/2019 14:20     100.8      99.7       24     56.8      0.00      0.00      83.1     0.34      1011.7     2.1     ENE    79   4.8       E   101   9.33    263      492.4
   09/01/2019 14:10     100.9      99.8       24     57.0      0.00      0.00      83.0     0.34      1011.8     2.4     NNE    24   4.5     NNE    31   9.33    263      500.6
   09/01/2019 14:00     100.3      98.7       25     57.2      0.00      0.00      83.0     0.34      1012.0     1.9     NNE    22   4.6     WNW   301   9.33    263      513.1
   09/01/2019 13:50      99.7      98.6       25     57.5      0.00      0.00      83.0     0.34      1012.1     3.0     ENE    68   7.2       E    84   9.33    263      522.9
   09/01/2019 13:40      99.6      97.7       26     57.9      0.00      0.00      83.0     0.34      1012.2     2.2     ENE    75   4.9     ESE   120   9.33    263      530.1
   09/01/2019 13:30      98.9      97.5       27     58.5      0.00      0.00      82.9     0.34      1012.3     2.5       E    82   6.0      NE    45   9.34    263      539.2
   09/01/2019 13:20      98.4      97.4       28     58.6      0.00      0.00      82.9     0.34      1012.4     2.3     ENE    77   5.4       E    82   9.34    263      543.4
   09/01/2019 13:10      98.9      97.4       27     58.4      0.00      0.00      82.9     0.34      1012.5     2.3     ESE   105   6.4      SE   145   9.34    263      543.9
   09/01/2019 13:00      98.5      96.5       27     57.7      0.00      0.00      82.8     0.34      1012.5     2.1     SSW   203   4.3       S   188   9.34    263      548.9
   09/01/2019 12:50      98.3      96.8       27     58.0      0.00      0.00      82.8     0.34      1012.6     2.0     ENE    66   5.2       E    79   9.34    263      548.1
   09/01/2019 12:40      97.4      95.7       28     57.9      0.00      0.00      82.8     0.34      1012.7     1.8       N   351   3.7     NNE    27   9.35    263      546.0
   09/01/2019 12:30      95.8      94.9       29     58.1      0.00      0.00      82.8     0.34      1012.7     2.0     NNW   345   4.2     ENE    56   9.35    263      545.6
   09/01/2019 12:20      95.4      94.1       30     58.2      0.00      0.00      82.8     0.34      1012.8     1.7     NNE    23   4.2     NNE    26   9.35    263      543.7
   09/01/2019 12:10      94.9      93.9       30     58.1      0.00      0.00      82.8     0.34      1012.8     1.6       E    90   4.2      SE   137   9.35    263      542.4
   09/01/2019 12:00      94.7      94.0       30     58.3      0.00      0.00      82.8     0.34      1012.9     1.8     NNE    29   5.0     ENE    66   9.35    263      533.2
   09/01/2019 11:50      94.4      91.8       31     58.1      0.00      0.00      82.8     0.34      1013.1     1.1     NNE    12   4.6     ENE    70   9.35    263      527.9
   09/01/2019 11:40      92.7      91.6       32     57.9      0.00      0.00      82.8     0.34      1013.1     1.7     NNE    16   3.9       N   353   9.35    264      521.3
   09/01/2019 11:30      92.0      90.8       33     58.0      0.00      0.00      82.8     0.34      1013.1     1.9       N     3   4.1      NE    41   9.35    264      513.7
   09/01/2019 11:20      91.1      89.9       34     58.3      0.00      0.00      82.8     0.34      1013.2     1.7     NNE    29   4.5      NE    37   9.35    263      504.0
   09/01/2019 11:10      90.6      89.4       35     58.5      0.00      0.00      82.8     0.34      1013.2     1.7     NNE    33   3.6     ENE    65   9.35    264      494.8
   09/01/2019 11:00      89.8      88.6       34     57.0      0.00      0.00      82.8     0.34      1013.3     1.8      NE    43   4.6       E    81   9.35    264      485.2
   09/01/2019 10:50      88.7      87.5       36     57.2      0.00      0.00      82.9     0.34      1013.4     2.1      NE    49   4.7     ENE    66   9.35    264      474.2
   09/01/2019 10:40      87.6      86.5       37     57.6      0.00      0.00      82.9     0.34      1013.5     2.7     ENE    74   6.2     ESE   110   9.35    264      462.2
   09/01/2019 10:30      86.7      85.6       41     59.6      0.00      0.00      82.9     0.34      1013.5     2.7      NE    43   5.3     ESE   110   9.35    264      444.2
   09/01/2019 10:20      86.2      85.4       44     61.3      0.00      0.00      82.9     0.34      1013.6     2.6      NE    41   4.7      NE    41   9.35    264      428.9
   09/01/2019 10:10      85.7      85.0       42     59.5      0.00      0.00      83.0     0.34      1013.7     2.4      NE    54   4.8     ENE    66   9.35    264      412.1
   09/01/2019 10:00      85.6      84.4       41     59.1      0.00      0.00      83.0     0.34      1013.6     2.3      NE    53   5.5      NE    55   9.35    264      393.9
   09/01/2019 09:50      84.6      83.0       44     59.2      0.00      0.00      83.0     0.34      1013.5     2.1     ENE    59   3.7      NE    50   9.35    264      378.2
   09/01/2019 09:40      83.3      82.3       45     59.4      0.00      0.00      83.1     0.34      1013.4     1.4      NE    37   2.9     ENE    64   9.35    264      358.8
   09/01/2019 09:30      82.5      81.3       49     60.8      0.00      0.00      83.0     0.34      1013.3     1.2     NNE    21   3.0     NNE    16   9.35    265      339.5
   09/01/2019 09:20      82.3      81.4       49     60.9      0.00      0.00      83.1     0.34      1013.3     0.8       N     0   3.0     NNE    20   9.35    265      317.9
   09/01/2019 09:10      81.5      80.5       50     60.5      0.00      0.00      83.1     0.34      1013.2     0.6       S   177   2.0      SW   217   9.35    266      297.6
   09/01/2019 09:00      80.8      78.9       52     60.8      0.00      0.00      83.1     0.34      1013.3     0.4      NE    48   1.9       S   173   9.36    265      274.8
   09/01/2019 08:50      79.2      76.8       54     60.5      0.00      0.00      83.2     0.34      1013.2     0.3     NNE    12   1.8     NNE    15   9.36    266      252.6
   09/01/2019 08:40      77.1      75.8       58     60.8      0.00      0.00      83.2     0.34      1013.1     0.8       S   171   3.0      SW   219   9.36    266      228.6
   09/01/2019 08:30      76.5      75.1       59     60.6      0.00      0.00      83.3     0.34      1013.2     0.9      SE   134   3.7      SE   132   9.36    266      203.3
   09/01/2019 08:20      75.4      74.2       61     60.4      0.00      0.00      83.3     0.34      1013.1     0.8       S   187   2.7     SSW   195   9.36    268      176.3
   09/01/2019 08:10      74.4      73.9       62     60.3      0.00      0.00      83.4     0.34      1013.2     1.5       W   262   3.2     WSW   257   9.36    269      151.5
   09/01/2019 08:00      74.4      71.7       65     60.3      0.00      0.00      83.4     0.34      1013.3     0.0      NW   311   0.9     NNE    32   9.36    270      124.5
   09/01/2019 07:50      71.7      69.2       70     60.0      0.00      0.00      83.4     0.34      1013.4     0.1      SE   130   0.7      SE   130   9.36    270       97.3
   09/01/2019 07:40      69.4      67.7       73     59.7      0.00      0.00      83.5     0.34      1013.4     0.1      SE   128   0.8      SE   130   9.36    271       55.8
   09/01/2019 07:30      67.9      66.3       77     59.6      0.00      0.00      83.5     0.34      1013.4     0.1      SE   128   0.9      SE   127   9.36    271       15.4
   09/01/2019 07:20      66.7      65.5       79     59.3      0.00      0.00      83.6     0.34      1013.4     0.2      SE   130   0.8      SE   128   9.36    272      -22.5
   09/01/2019 07:10      65.7      64.6       82     59.2      0.00      0.00      83.5     0.34      1013.3     0.6      SE   135   1.2      SE   141   9.36    271      -27.6
   09/01/2019 07:00      64.9      63.9       83     59.1      0.00      0.00      83.6     0.34      1013.2     0.3     SSE   150   0.9     SSE   150   9.36    266      -29.0
   09/01/2019 06:50      64.3      63.8       83     58.7      0.00      0.00      83.6     0.34      1013.2     0.2     SSE   148   1.0      SE   146   9.36    259      -34.5
   09/01/2019 06:40      64.5      64.0       83     59.0      0.00      0.00      83.6     0.34      1013.1     0.4     SSE   154   0.9      SE   141   9.36    260      -39.0
   09/01/2019 06:30      64.6      64.0       83     58.8      0.00      0.00      83.7     0.34      1013.0     0.3     SSE   148   1.1      SE   141   9.37    256      -43.6
   09/01/2019 06:20      64.7      64.2       83     59.2      0.00      0.00      83.7     0.34      1013.0     0.2     SSE   158   0.7     SSE   159   9.37    257      -45.5
   09/01/2019 06:10      64.6      63.6       83     58.7      0.00      0.00      83.7     0.34      1012.9     0.3     SSE   163   0.9     SSE   157   9.37    256      -47.9
   09/01/2019 06:00      64.3      63.8       82     58.3      0.00      0.00      83.7     0.34      1012.8     0.2      SE   140   1.4      SE   136   9.37    262      -50.2
   09/01/2019 05:50      64.8      63.8       81     58.2      0.00      0.00      83.8     0.34      1012.9     0.4     SSE   147   1.2      SE   133   9.37    267      -50.5
   09/01/2019 05:40      65.1      64.4       80     58.4      0.00      0.00      83.8     0.34      1012.9     0.3      SE   143   1.2      SE   139   9.37    268      -50.5
   09/01/2019 05:30      65.2      64.7       79     58.3      0.00      0.00      83.8     0.34      1012.9     0.5       S   172   1.0      SE   135   9.37    271      -48.6
   09/01/2019 05:20      65.7      64.9       78     58.1      0.00      0.00      83.8     0.35      1012.8     0.4     SSE   150   1.0      SE   135   9.37    271      -47.6
   09/01/2019 05:10      65.7      65.3       78     58.4      0.00      0.00      83.9     0.34      1012.8     0.5     SSE   154   0.9     SSE   149   9.37    271      -45.8
   09/01/2019 05:00      65.6      65.1       77     58.1      0.00      0.00      83.9     0.35      1012.8     0.7     SSE   149   1.3     SSW   193   9.37    271      -43.9
   09/01/2019 04:50      65.7      64.9       78     58.2      0.00      0.00      83.9     0.35      1012.8     0.0       S   171   0.8       S   190   9.37    271      -44.3
   09/01/2019 04:40      65.5      65.2       78     58.3      0.00      0.00      83.9     0.35      1012.7     0.2     SSE   153   0.7     SSE   151   9.37    271      -48.5
   09/01/2019 04:30      65.4      65.0       78     58.1      0.00      0.00      84.0     0.35      1012.7     0.0     SSE   148   0.7      SE   141   9.37    271      -50.6
   09/01/2019 04:20      65.7      65.1       77     57.9      0.00      0.00      84.0     0.35      1012.5     0.5      SE   145   1.1      SE   141   9.37    271      -52.6
   09/01/2019 04:10      66.0      65.4       76     58.0      0.00      0.00      84.0     0.35      1012.5     0.4     SSE   155   1.6      SE   144   9.37    271      -52.7
   09/01/2019 04:00      66.0      65.6       75     57.7      0.00      0.00      84.1     0.35      1012.5     0.5     SSE   148   1.2      SE   145   9.37    271      -52.5
   09/01/2019 03:50      66.5      65.7       74     57.4      0.00      0.00      84.1     0.35      1012.5     0.6       S   177   1.8      SE   134   9.38    271      -52.3
   09/01/2019 03:40      66.6      66.0       74     57.6      0.00      0.00      84.1     0.35      1012.5     0.9     SSW   207   1.7       S   176   9.38    270      -51.2
   09/01/2019 03:30      66.7      66.0       75     58.0      0.00      0.00      84.2     0.35      1012.4     0.3     SSE   166   1.2      SE   127   9.38    270      -52.3
   09/01/2019 03:20      67.3      66.3       74     58.3      0.00      0.00      84.2     0.35      1012.2     0.4      SE   144   1.6      SE   133   9.38    271      -52.4
   09/01/2019 03:10      67.2      66.4       75     58.5      0.00      0.00      84.2     0.35      1012.2     0.0     SSE   164   0.9     SSE   148   9.38    270      -52.4
   09/01/2019 03:00      67.3      66.4       74     58.4      0.00      0.00      84.2     0.35      1012.3     0.6     SSE   155   1.4      SE   135   9.38    270      -52.9
   09/01/2019 02:50      67.5      66.7       74     58.5      0.00      0.00      84.1     0.35      1012.3     0.5     SSE   167   1.4       S   179   9.38    270      -52.9
   09/01/2019 02:40      67.6      67.1       74     58.8      0.00      0.00      84.2     0.35      1012.4     0.6     SSE   157   1.4      SE   135   9.38    270      -53.5
   09/01/2019 02:30      67.8      67.3       74     59.0      0.00      0.00      84.2     0.35      1012.4     0.3     SSE   154   1.3     SSE   148   9.38    270      -53.1
   09/01/2019 02:20      67.9      67.2       74     58.8      0.00      0.00      84.2     0.35      1012.5     0.7     SSE   160   1.4       S   185   9.38    270      -53.1
   09/01/2019 02:10      68.0      67.4       74     59.2      0.00      0.00      84.3     0.35      1012.5     0.3     SSE   162   1.0       S   180   9.38    270      -53.6
   09/01/2019 02:00      68.0      67.4       74     59.0      0.00      0.00      84.3     0.35      1012.5     0.2       S   183   0.9       S   180   9.38    270      -54.3
   09/01/2019 01:50      68.8      67.7       72     58.7      0.00      0.00      84.3     0.35      1012.6     0.2       S   175   0.7       S   183   9.38    270      -55.5
   09/01/2019 01:40      69.1      68.5       71     59.0      0.00      0.00      84.3     0.35      1012.5     0.4     SSE   164   0.9     SSE   156   9.38    269      -54.4
   09/01/2019 01:30      69.0      68.4       70     58.5      0.00      0.00      84.3     0.35      1012.6     0.4       S   176   1.2       S   176   9.39    269      -55.1
   09/01/2019 01:20      69.3      68.5       70     58.9      0.00      0.00      84.3     0.35      1012.7     0.9       S   191   1.6     SSW   201   9.39    268      -54.7
   09/01/2019 01:10      69.5      68.9       71     59.3      0.00      0.00      84.3     0.35      1012.7     0.8       S   187   1.7     SSW   196   9.39    269      -53.7
   09/01/2019 01:00      69.7      69.3       71     59.5      0.00      0.00      84.3     0.35      1012.7     0.0       N     0   0.0     SSE   161   9.39    269      -54.1
   09/01/2019 00:50      69.6      68.9       71     59.6      0.00      0.00      84.3     0.35      1012.7     0.0       N     0   0.0      SE   140   9.39    268      -54.2
   09/01/2019 00:40      69.8      68.8       70     58.8      0.00      0.00      84.4     0.35      1012.8     0.0      SE   143   0.0      SE   143   9.39    268      -55.5
   09/01/2019 00:30      70.4      69.6       69     59.4      0.00      0.00      84.3     0.35      1012.7     0.1     SSE   165   0.5       S   181   9.39    268      -55.9
   09/01/2019 00:20      71.0      70.2       68     59.4      0.00      0.00      84.4     0.35      1012.7     0.2     SSE   155   0.6     SSE   150   9.39    268      -56.5
   09/01/2019 00:10      71.2      70.6       67     59.6      0.00      0.00      84.4     0.35      1012.7     0.2      SE   142   0.6      SE   141   9.39    268      -57.1
   09/01/2019 00:00      71.5      70.8       67     59.5      0.00      0.00      84.4     0.35      1012.8     0.5       S   177   1.7     SSW   192   9.39    268      -56.6


Back to data home page